<?xml version="1.0" encoding="UTF-8" standalone="no" ?>
<gpx xmlns="http://www.topografix.com/GPX/1/1" xmlns:xsi="http://www.w3.org/2001/XMLSchema-instance" xsi:schemaLocation="http://www.topografix.com/GPX/1/1 http://www.topografix.com/GPX/1/1/gpx.xsd" version="1.1" creator="VisuGPX - https://www.visugpx.com">
  <metadata>
    <name>Tour du Salagou</name>
    <desc><![CDATA[Tour du Salagou]]></desc>
  </metadata>
  <trk>
    <name><![CDATA[30 mars 2014 10:35:00]]></name>
    <cmt><![CDATA[30 mars 2014 10:35:00]]></cmt>
    <trkseg>
      <trkpt lat="43.64551" lon="3.3876">
        <ele>143.4</ele>
        <time>2014-03-30T08:35:00Z</time>
      </trkpt>
      <trkpt lat="43.64547" lon="3.38762">
        <ele>112</ele>
        <time>2014-03-30T08:35:13Z</time>
      </trkpt>
      <trkpt lat="43.6454" lon="3.3877">
        <ele>112</ele>
        <time>2014-03-30T08:35:18Z</time>
      </trkpt>
      <trkpt lat="43.64538" lon="3.38782">
        <ele>112</ele>
        <time>2014-03-30T08:35:22Z</time>
      </trkpt>
      <trkpt lat="43.64539" lon="3.38802">
        <ele>113</ele>
        <time>2014-03-30T08:35:29Z</time>
      </trkpt>
      <trkpt lat="43.64544" lon="3.38813">
        <ele>113</ele>
        <time>2014-03-30T08:35:44Z</time>
      </trkpt>
      <trkpt lat="43.64539" lon="3.38828">
        <ele>113</ele>
        <time>2014-03-30T08:36:01Z</time>
      </trkpt>
      <trkpt lat="43.64528" lon="3.38849">
        <ele>113</ele>
        <time>2014-03-30T08:36:12Z</time>
      </trkpt>
      <trkpt lat="43.64522" lon="3.38869">
        <ele>113</ele>
        <time>2014-03-30T08:36:34Z</time>
      </trkpt>
      <trkpt lat="43.64515" lon="3.38886">
        <ele>113</ele>
        <time>2014-03-30T08:36:39Z</time>
      </trkpt>
      <trkpt lat="43.6451" lon="3.38897">
        <ele>113</ele>
        <time>2014-03-30T08:36:42Z</time>
      </trkpt>
      <trkpt lat="43.64504" lon="3.38913">
        <ele>113</ele>
        <time>2014-03-30T08:36:47Z</time>
      </trkpt>
      <trkpt lat="43.645" lon="3.38923">
        <ele>112</ele>
        <time>2014-03-30T08:36:50Z</time>
      </trkpt>
      <trkpt lat="43.64495" lon="3.38935">
        <ele>112</ele>
        <time>2014-03-30T08:36:54Z</time>
      </trkpt>
      <trkpt lat="43.6449" lon="3.38947">
        <ele>112</ele>
        <time>2014-03-30T08:36:58Z</time>
      </trkpt>
      <trkpt lat="43.64486" lon="3.38957">
        <ele>112</ele>
        <time>2014-03-30T08:37:01Z</time>
      </trkpt>
      <trkpt lat="43.64482" lon="3.38966">
        <ele>112</ele>
        <time>2014-03-30T08:37:04Z</time>
      </trkpt>
      <trkpt lat="43.64478" lon="3.38975">
        <ele>112</ele>
        <time>2014-03-30T08:37:07Z</time>
      </trkpt>
      <trkpt lat="43.64475" lon="3.38985">
        <ele>112</ele>
        <time>2014-03-30T08:37:10Z</time>
      </trkpt>
      <trkpt lat="43.64472" lon="3.38998">
        <ele>113</ele>
        <time>2014-03-30T08:37:14Z</time>
      </trkpt>
      <trkpt lat="43.64472" lon="3.39005">
        <ele>113</ele>
        <time>2014-03-30T08:37:16Z</time>
      </trkpt>
      <trkpt lat="43.64479" lon="3.39023">
        <ele>114</ele>
        <time>2014-03-30T08:37:23Z</time>
      </trkpt>
      <trkpt lat="43.64494" lon="3.39021">
        <ele>114</ele>
        <time>2014-03-30T08:37:41Z</time>
      </trkpt>
      <trkpt lat="43.64502" lon="3.39014">
        <ele>114</ele>
        <time>2014-03-30T08:37:46Z</time>
      </trkpt>
      <trkpt lat="43.64508" lon="3.39009">
        <ele>113</ele>
        <time>2014-03-30T08:37:48Z</time>
      </trkpt>
      <trkpt lat="43.64514" lon="3.39002">
        <ele>113</ele>
        <time>2014-03-30T08:37:50Z</time>
      </trkpt>
      <trkpt lat="43.64519" lon="3.38996">
        <ele>113</ele>
        <time>2014-03-30T08:37:52Z</time>
      </trkpt>
      <trkpt lat="43.64526" lon="3.38988">
        <ele>113</ele>
        <time>2014-03-30T08:37:55Z</time>
      </trkpt>
      <trkpt lat="43.64533" lon="3.38982">
        <ele>113</ele>
        <time>2014-03-30T08:37:58Z</time>
      </trkpt>
      <trkpt lat="43.6454" lon="3.38975">
        <ele>113</ele>
        <time>2014-03-30T08:38:01Z</time>
      </trkpt>
      <trkpt lat="43.64548" lon="3.38966">
        <ele>113</ele>
        <time>2014-03-30T08:38:05Z</time>
      </trkpt>
      <trkpt lat="43.64557" lon="3.3896">
        <ele>113</ele>
        <time>2014-03-30T08:38:09Z</time>
      </trkpt>
      <trkpt lat="43.64569" lon="3.38951">
        <ele>113</ele>
        <time>2014-03-30T08:38:14Z</time>
      </trkpt>
      <trkpt lat="43.64576" lon="3.38945">
        <ele>113</ele>
        <time>2014-03-30T08:38:17Z</time>
      </trkpt>
      <trkpt lat="43.6458" lon="3.38942">
        <ele>113</ele>
        <time>2014-03-30T08:38:19Z</time>
      </trkpt>
      <trkpt lat="43.64569" lon="3.38941">
        <ele>114</ele>
        <time>2014-03-30T08:39:18Z</time>
      </trkpt>
      <trkpt lat="43.64555" lon="3.38956">
        <ele>114</ele>
        <time>2014-03-30T08:39:27Z</time>
      </trkpt>
      <trkpt lat="43.6454" lon="3.38971">
        <ele>114</ele>
        <time>2014-03-30T08:39:33Z</time>
      </trkpt>
      <trkpt lat="43.64525" lon="3.38986">
        <ele>114</ele>
        <time>2014-03-30T08:39:39Z</time>
      </trkpt>
      <trkpt lat="43.64516" lon="3.38992">
        <ele>113</ele>
        <time>2014-03-30T08:39:42Z</time>
      </trkpt>
      <trkpt lat="43.64508" lon="3.38998">
        <ele>113</ele>
        <time>2014-03-30T08:39:45Z</time>
      </trkpt>
      <trkpt lat="43.64499" lon="3.39003">
        <ele>113</ele>
        <time>2014-03-30T08:39:48Z</time>
      </trkpt>
      <trkpt lat="43.64491" lon="3.39007">
        <ele>112</ele>
        <time>2014-03-30T08:39:51Z</time>
      </trkpt>
      <trkpt lat="43.64483" lon="3.39012">
        <ele>112</ele>
        <time>2014-03-30T08:39:54Z</time>
      </trkpt>
      <trkpt lat="43.64474" lon="3.39017">
        <ele>112</ele>
        <time>2014-03-30T08:39:58Z</time>
      </trkpt>
      <trkpt lat="43.64465" lon="3.3902">
        <ele>112</ele>
        <time>2014-03-30T08:40:01Z</time>
      </trkpt>
      <trkpt lat="43.64455" lon="3.39024">
        <ele>112</ele>
        <time>2014-03-30T08:40:04Z</time>
      </trkpt>
      <trkpt lat="43.64448" lon="3.39032">
        <ele>112</ele>
        <time>2014-03-30T08:40:07Z</time>
      </trkpt>
      <trkpt lat="43.64443" lon="3.39044">
        <ele>112</ele>
        <time>2014-03-30T08:40:10Z</time>
      </trkpt>
      <trkpt lat="43.6444" lon="3.39056">
        <ele>112</ele>
        <time>2014-03-30T08:40:13Z</time>
      </trkpt>
      <trkpt lat="43.64436" lon="3.39067">
        <ele>112</ele>
        <time>2014-03-30T08:40:16Z</time>
      </trkpt>
      <trkpt lat="43.64432" lon="3.39078">
        <ele>112</ele>
        <time>2014-03-30T08:40:19Z</time>
      </trkpt>
      <trkpt lat="43.6443" lon="3.39085">
        <ele>112</ele>
        <time>2014-03-30T08:40:21Z</time>
      </trkpt>
      <trkpt lat="43.64427" lon="3.39091">
        <ele>112</ele>
        <time>2014-03-30T08:40:23Z</time>
      </trkpt>
      <trkpt lat="43.64424" lon="3.39099">
        <ele>124</ele>
        <time>2014-03-30T08:44:16Z</time>
      </trkpt>
      <trkpt lat="43.64419" lon="3.39087">
        <ele>124</ele>
        <time>2014-03-30T08:44:45Z</time>
      </trkpt>
      <trkpt lat="43.64407" lon="3.3907">
        <ele>124</ele>
        <time>2014-03-30T08:45:03Z</time>
      </trkpt>
      <trkpt lat="43.64403" lon="3.39058">
        <ele>123</ele>
        <time>2014-03-30T08:45:08Z</time>
      </trkpt>
      <trkpt lat="43.64399" lon="3.39048">
        <ele>123</ele>
        <time>2014-03-30T08:45:11Z</time>
      </trkpt>
      <trkpt lat="43.6439" lon="3.39032">
        <ele>123</ele>
        <time>2014-03-30T08:45:17Z</time>
      </trkpt>
      <trkpt lat="43.64384" lon="3.39018">
        <ele>123</ele>
        <time>2014-03-30T08:45:20Z</time>
      </trkpt>
      <trkpt lat="43.64379" lon="3.39008">
        <ele>123</ele>
        <time>2014-03-30T08:45:22Z</time>
      </trkpt>
      <trkpt lat="43.64362" lon="3.38977">
        <ele>123</ele>
        <time>2014-03-30T08:45:26Z</time>
      </trkpt>
      <trkpt lat="43.64353" lon="3.38961">
        <ele>123</ele>
        <time>2014-03-30T08:45:28Z</time>
      </trkpt>
      <trkpt lat="43.64338" lon="3.38936">
        <ele>123</ele>
        <time>2014-03-30T08:45:31Z</time>
      </trkpt>
      <trkpt lat="43.64331" lon="3.38918">
        <ele>122</ele>
        <time>2014-03-30T08:45:33Z</time>
      </trkpt>
      <trkpt lat="43.64325" lon="3.389">
        <ele>122</ele>
        <time>2014-03-30T08:45:35Z</time>
      </trkpt>
      <trkpt lat="43.64323" lon="3.38882">
        <ele>122</ele>
        <time>2014-03-30T08:45:37Z</time>
      </trkpt>
      <trkpt lat="43.64322" lon="3.38863">
        <ele>122</ele>
        <time>2014-03-30T08:45:39Z</time>
      </trkpt>
      <trkpt lat="43.64324" lon="3.38845">
        <ele>122</ele>
        <time>2014-03-30T08:45:41Z</time>
      </trkpt>
      <trkpt lat="43.64328" lon="3.38827">
        <ele>122</ele>
        <time>2014-03-30T08:45:43Z</time>
      </trkpt>
      <trkpt lat="43.64331" lon="3.3881">
        <ele>121</ele>
        <time>2014-03-30T08:45:45Z</time>
      </trkpt>
      <trkpt lat="43.64335" lon="3.38792">
        <ele>121</ele>
        <time>2014-03-30T08:45:47Z</time>
      </trkpt>
      <trkpt lat="43.64338" lon="3.38775">
        <ele>121</ele>
        <time>2014-03-30T08:45:49Z</time>
      </trkpt>
      <trkpt lat="43.64338" lon="3.38757">
        <ele>121</ele>
        <time>2014-03-30T08:45:51Z</time>
      </trkpt>
      <trkpt lat="43.64333" lon="3.3874">
        <ele>120</ele>
        <time>2014-03-30T08:45:53Z</time>
      </trkpt>
      <trkpt lat="43.64304" lon="3.38706">
        <ele>120</ele>
        <time>2014-03-30T08:45:59Z</time>
      </trkpt>
      <trkpt lat="43.64295" lon="3.38696">
        <ele>120</ele>
        <time>2014-03-30T08:46:01Z</time>
      </trkpt>
      <trkpt lat="43.64288" lon="3.38685">
        <ele>119</ele>
        <time>2014-03-30T08:46:03Z</time>
      </trkpt>
      <trkpt lat="43.64281" lon="3.38674">
        <ele>119</ele>
        <time>2014-03-30T08:46:05Z</time>
      </trkpt>
      <trkpt lat="43.64276" lon="3.38663">
        <ele>119</ele>
        <time>2014-03-30T08:46:07Z</time>
      </trkpt>
      <trkpt lat="43.64271" lon="3.38651">
        <ele>118</ele>
        <time>2014-03-30T08:46:09Z</time>
      </trkpt>
      <trkpt lat="43.64267" lon="3.38642">
        <ele>118</ele>
        <time>2014-03-30T08:46:11Z</time>
      </trkpt>
      <trkpt lat="43.6426" lon="3.3863">
        <ele>118</ele>
        <time>2014-03-30T08:46:14Z</time>
      </trkpt>
      <trkpt lat="43.64251" lon="3.3861">
        <ele>118</ele>
        <time>2014-03-30T08:46:20Z</time>
      </trkpt>
      <trkpt lat="43.64245" lon="3.38599">
        <ele>118</ele>
        <time>2014-03-30T08:46:23Z</time>
      </trkpt>
      <trkpt lat="43.6424" lon="3.38587">
        <ele>118</ele>
        <time>2014-03-30T08:46:26Z</time>
      </trkpt>
      <trkpt lat="43.64235" lon="3.38574">
        <ele>118</ele>
        <time>2014-03-30T08:46:29Z</time>
      </trkpt>
      <trkpt lat="43.64232" lon="3.3856">
        <ele>118</ele>
        <time>2014-03-30T08:46:32Z</time>
      </trkpt>
      <trkpt lat="43.6423" lon="3.3855">
        <ele>118</ele>
        <time>2014-03-30T08:46:34Z</time>
      </trkpt>
      <trkpt lat="43.64229" lon="3.3854">
        <ele>118</ele>
        <time>2014-03-30T08:46:36Z</time>
      </trkpt>
      <trkpt lat="43.64229" lon="3.38524">
        <ele>119</ele>
        <time>2014-03-30T08:46:39Z</time>
      </trkpt>
      <trkpt lat="43.64229" lon="3.38513">
        <ele>119</ele>
        <time>2014-03-30T08:46:41Z</time>
      </trkpt>
      <trkpt lat="43.6423" lon="3.38502">
        <ele>119</ele>
        <time>2014-03-30T08:46:43Z</time>
      </trkpt>
      <trkpt lat="43.64232" lon="3.38489">
        <ele>119</ele>
        <time>2014-03-30T08:46:45Z</time>
      </trkpt>
      <trkpt lat="43.64233" lon="3.38476">
        <ele>119</ele>
        <time>2014-03-30T08:46:47Z</time>
      </trkpt>
      <trkpt lat="43.64233" lon="3.38468">
        <ele>119</ele>
        <time>2014-03-30T08:46:48Z</time>
      </trkpt>
      <trkpt lat="43.64234" lon="3.3846">
        <ele>119</ele>
        <time>2014-03-30T08:46:49Z</time>
      </trkpt>
      <trkpt lat="43.64235" lon="3.38444">
        <ele>119</ele>
        <time>2014-03-30T08:46:51Z</time>
      </trkpt>
      <trkpt lat="43.64235" lon="3.38436">
        <ele>119</ele>
        <time>2014-03-30T08:46:52Z</time>
      </trkpt>
      <trkpt lat="43.64237" lon="3.3842">
        <ele>120</ele>
        <time>2014-03-30T08:46:54Z</time>
      </trkpt>
      <trkpt lat="43.64239" lon="3.38405">
        <ele>120</ele>
        <time>2014-03-30T08:46:56Z</time>
      </trkpt>
      <trkpt lat="43.64241" lon="3.38389">
        <ele>120</ele>
        <time>2014-03-30T08:46:58Z</time>
      </trkpt>
      <trkpt lat="43.64243" lon="3.38382">
        <ele>120</ele>
        <time>2014-03-30T08:46:59Z</time>
      </trkpt>
      <trkpt lat="43.64246" lon="3.38368">
        <ele>120</ele>
        <time>2014-03-30T08:47:01Z</time>
      </trkpt>
      <trkpt lat="43.64249" lon="3.38355">
        <ele>120</ele>
        <time>2014-03-30T08:47:03Z</time>
      </trkpt>
      <trkpt lat="43.64252" lon="3.38343">
        <ele>120</ele>
        <time>2014-03-30T08:47:05Z</time>
      </trkpt>
      <trkpt lat="43.64255" lon="3.38332">
        <ele>120</ele>
        <time>2014-03-30T08:47:07Z</time>
      </trkpt>
      <trkpt lat="43.64257" lon="3.38321">
        <ele>120</ele>
        <time>2014-03-30T08:47:09Z</time>
      </trkpt>
      <trkpt lat="43.64261" lon="3.38306">
        <ele>120</ele>
        <time>2014-03-30T08:47:12Z</time>
      </trkpt>
      <trkpt lat="43.64264" lon="3.38292">
        <ele>120</ele>
        <time>2014-03-30T08:47:15Z</time>
      </trkpt>
      <trkpt lat="43.64267" lon="3.38278">
        <ele>120</ele>
        <time>2014-03-30T08:47:18Z</time>
      </trkpt>
      <trkpt lat="43.64267" lon="3.38264">
        <ele>120</ele>
        <time>2014-03-30T08:47:21Z</time>
      </trkpt>
      <trkpt lat="43.64265" lon="3.38251">
        <ele>119</ele>
        <time>2014-03-30T08:47:24Z</time>
      </trkpt>
      <trkpt lat="43.64261" lon="3.38235">
        <ele>119</ele>
        <time>2014-03-30T08:47:29Z</time>
      </trkpt>
      <trkpt lat="43.64255" lon="3.38226">
        <ele>119</ele>
        <time>2014-03-30T08:47:32Z</time>
      </trkpt>
      <trkpt lat="43.64247" lon="3.38217">
        <ele>119</ele>
        <time>2014-03-30T08:47:35Z</time>
      </trkpt>
      <trkpt lat="43.64239" lon="3.3821">
        <ele>119</ele>
        <time>2014-03-30T08:47:38Z</time>
      </trkpt>
      <trkpt lat="43.6423" lon="3.38201">
        <ele>119</ele>
        <time>2014-03-30T08:47:41Z</time>
      </trkpt>
      <trkpt lat="43.64223" lon="3.38196">
        <ele>119</ele>
        <time>2014-03-30T08:47:43Z</time>
      </trkpt>
      <trkpt lat="43.64214" lon="3.38189">
        <ele>119</ele>
        <time>2014-03-30T08:47:46Z</time>
      </trkpt>
      <trkpt lat="43.64208" lon="3.38181">
        <ele>119</ele>
        <time>2014-03-30T08:47:48Z</time>
      </trkpt>
      <trkpt lat="43.64202" lon="3.38173">
        <ele>119</ele>
        <time>2014-03-30T08:47:50Z</time>
      </trkpt>
      <trkpt lat="43.64197" lon="3.38165">
        <ele>119</ele>
        <time>2014-03-30T08:47:52Z</time>
      </trkpt>
      <trkpt lat="43.64191" lon="3.38153">
        <ele>119</ele>
        <time>2014-03-30T08:47:55Z</time>
      </trkpt>
      <trkpt lat="43.64182" lon="3.38145">
        <ele>119</ele>
        <time>2014-03-30T08:47:58Z</time>
      </trkpt>
      <trkpt lat="43.64171" lon="3.3814">
        <ele>119</ele>
        <time>2014-03-30T08:48:01Z</time>
      </trkpt>
      <trkpt lat="43.64163" lon="3.38138">
        <ele>119</ele>
        <time>2014-03-30T08:48:03Z</time>
      </trkpt>
      <trkpt lat="43.64155" lon="3.38137">
        <ele>119</ele>
        <time>2014-03-30T08:48:05Z</time>
      </trkpt>
      <trkpt lat="43.64147" lon="3.38137">
        <ele>119</ele>
        <time>2014-03-30T08:48:07Z</time>
      </trkpt>
      <trkpt lat="43.64139" lon="3.38137">
        <ele>119</ele>
        <time>2014-03-30T08:48:09Z</time>
      </trkpt>
      <trkpt lat="43.64128" lon="3.38137">
        <ele>118</ele>
        <time>2014-03-30T08:48:12Z</time>
      </trkpt>
      <trkpt lat="43.64118" lon="3.3814">
        <ele>118</ele>
        <time>2014-03-30T08:48:15Z</time>
      </trkpt>
      <trkpt lat="43.64108" lon="3.38142">
        <ele>118</ele>
        <time>2014-03-30T08:48:18Z</time>
      </trkpt>
      <trkpt lat="43.64099" lon="3.38141">
        <ele>117</ele>
        <time>2014-03-30T08:48:21Z</time>
      </trkpt>
      <trkpt lat="43.64091" lon="3.38138">
        <ele>117</ele>
        <time>2014-03-30T08:48:24Z</time>
      </trkpt>
      <trkpt lat="43.64082" lon="3.38134">
        <ele>117</ele>
        <time>2014-03-30T08:48:28Z</time>
      </trkpt>
      <trkpt lat="43.64073" lon="3.38128">
        <ele>116</ele>
        <time>2014-03-30T08:48:32Z</time>
      </trkpt>
      <trkpt lat="43.64065" lon="3.38121">
        <ele>116</ele>
        <time>2014-03-30T08:48:36Z</time>
      </trkpt>
      <trkpt lat="43.64059" lon="3.38112">
        <ele>115</ele>
        <time>2014-03-30T08:48:40Z</time>
      </trkpt>
      <trkpt lat="43.64057" lon="3.38078">
        <ele>114</ele>
        <time>2014-03-30T08:48:55Z</time>
      </trkpt>
      <trkpt lat="43.64048" lon="3.38054">
        <ele>114</ele>
        <time>2014-03-30T08:49:05Z</time>
      </trkpt>
      <trkpt lat="43.64042" lon="3.38029">
        <ele>114</ele>
        <time>2014-03-30T08:49:17Z</time>
      </trkpt>
      <trkpt lat="43.64041" lon="3.38005">
        <ele>114</ele>
        <time>2014-03-30T08:49:24Z</time>
      </trkpt>
      <trkpt lat="43.64041" lon="3.37982">
        <ele>115</ele>
        <time>2014-03-30T08:49:31Z</time>
      </trkpt>
      <trkpt lat="43.64042" lon="3.3796">
        <ele>115</ele>
        <time>2014-03-30T08:49:38Z</time>
      </trkpt>
      <trkpt lat="43.64043" lon="3.37946">
        <ele>116</ele>
        <time>2014-03-30T08:49:44Z</time>
      </trkpt>
      <trkpt lat="43.64054" lon="3.37918">
        <ele>117</ele>
        <time>2014-03-30T08:50:00Z</time>
      </trkpt>
      <trkpt lat="43.64071" lon="3.37886">
        <ele>117</ele>
        <time>2014-03-30T08:50:06Z</time>
      </trkpt>
      <trkpt lat="43.64075" lon="3.37877">
        <ele>117</ele>
        <time>2014-03-30T08:50:07Z</time>
      </trkpt>
      <trkpt lat="43.64083" lon="3.3786">
        <ele>117</ele>
        <time>2014-03-30T08:50:09Z</time>
      </trkpt>
      <trkpt lat="43.64087" lon="3.37844">
        <ele>118</ele>
        <time>2014-03-30T08:50:11Z</time>
      </trkpt>
      <trkpt lat="43.64088" lon="3.37832">
        <ele>118</ele>
        <time>2014-03-30T08:50:13Z</time>
      </trkpt>
      <trkpt lat="43.64086" lon="3.3782">
        <ele>118</ele>
        <time>2014-03-30T08:50:16Z</time>
      </trkpt>
      <trkpt lat="43.64084" lon="3.37809">
        <ele>118</ele>
        <time>2014-03-30T08:50:19Z</time>
      </trkpt>
      <trkpt lat="43.64081" lon="3.37796">
        <ele>118</ele>
        <time>2014-03-30T08:50:22Z</time>
      </trkpt>
      <trkpt lat="43.64079" lon="3.37767">
        <ele>119</ele>
        <time>2014-03-30T08:50:32Z</time>
      </trkpt>
      <trkpt lat="43.64083" lon="3.37734">
        <ele>120</ele>
        <time>2014-03-30T08:50:41Z</time>
      </trkpt>
      <trkpt lat="43.6409" lon="3.37707">
        <ele>121</ele>
        <time>2014-03-30T08:50:51Z</time>
      </trkpt>
      <trkpt lat="43.641" lon="3.37673">
        <ele>122</ele>
        <time>2014-03-30T08:51:01Z</time>
      </trkpt>
      <trkpt lat="43.64104" lon="3.37658">
        <ele>122</ele>
        <time>2014-03-30T08:51:04Z</time>
      </trkpt>
      <trkpt lat="43.64108" lon="3.37645">
        <ele>122</ele>
        <time>2014-03-30T08:51:06Z</time>
      </trkpt>
      <trkpt lat="43.64111" lon="3.37632">
        <ele>122</ele>
        <time>2014-03-30T08:51:08Z</time>
      </trkpt>
      <trkpt lat="43.64114" lon="3.37621">
        <ele>123</ele>
        <time>2014-03-30T08:51:10Z</time>
      </trkpt>
      <trkpt lat="43.64115" lon="3.37612">
        <ele>123</ele>
        <time>2014-03-30T08:51:12Z</time>
      </trkpt>
      <trkpt lat="43.64116" lon="3.37599">
        <ele>123</ele>
        <time>2014-03-30T08:51:16Z</time>
      </trkpt>
      <trkpt lat="43.64114" lon="3.37588">
        <ele>123</ele>
        <time>2014-03-30T08:51:19Z</time>
      </trkpt>
      <trkpt lat="43.64112" lon="3.37576">
        <ele>123</ele>
        <time>2014-03-30T08:51:22Z</time>
      </trkpt>
      <trkpt lat="43.64108" lon="3.37567">
        <ele>123</ele>
        <time>2014-03-30T08:51:25Z</time>
      </trkpt>
      <trkpt lat="43.64104" lon="3.37557">
        <ele>123</ele>
        <time>2014-03-30T08:51:28Z</time>
      </trkpt>
      <trkpt lat="43.64099" lon="3.37549">
        <ele>123</ele>
        <time>2014-03-30T08:51:31Z</time>
      </trkpt>
      <trkpt lat="43.64081" lon="3.37535">
        <ele>124</ele>
        <time>2014-03-30T08:51:43Z</time>
      </trkpt>
      <trkpt lat="43.64062" lon="3.37517">
        <ele>124</ele>
        <time>2014-03-30T08:51:58Z</time>
      </trkpt>
      <trkpt lat="43.64042" lon="3.37507">
        <ele>125</ele>
        <time>2014-03-30T08:52:09Z</time>
      </trkpt>
      <trkpt lat="43.64024" lon="3.37493">
        <ele>125</ele>
        <time>2014-03-30T08:52:21Z</time>
      </trkpt>
      <trkpt lat="43.64005" lon="3.37482">
        <ele>125</ele>
        <time>2014-03-30T08:52:33Z</time>
      </trkpt>
      <trkpt lat="43.6399" lon="3.37471">
        <ele>125</ele>
        <time>2014-03-30T08:52:42Z</time>
      </trkpt>
      <trkpt lat="43.63972" lon="3.37457">
        <ele>126</ele>
        <time>2014-03-30T08:52:53Z</time>
      </trkpt>
      <trkpt lat="43.63989" lon="3.37445">
        <ele>129</ele>
        <time>2014-03-30T08:54:04Z</time>
      </trkpt>
      <trkpt lat="43.63998" lon="3.37442">
        <ele>132</ele>
        <time>2014-03-30T08:54:23Z</time>
      </trkpt>
      <trkpt lat="43.64006" lon="3.37442">
        <ele>132</ele>
        <time>2014-03-30T08:54:25Z</time>
      </trkpt>
      <trkpt lat="43.64017" lon="3.37443">
        <ele>133</ele>
        <time>2014-03-30T08:54:27Z</time>
      </trkpt>
      <trkpt lat="43.64029" lon="3.37445">
        <ele>133</ele>
        <time>2014-03-30T08:54:29Z</time>
      </trkpt>
      <trkpt lat="43.64049" lon="3.37447">
        <ele>134</ele>
        <time>2014-03-30T08:54:32Z</time>
      </trkpt>
      <trkpt lat="43.64062" lon="3.37448">
        <ele>134</ele>
        <time>2014-03-30T08:54:34Z</time>
      </trkpt>
      <trkpt lat="43.64075" lon="3.37448">
        <ele>135</ele>
        <time>2014-03-30T08:54:36Z</time>
      </trkpt>
      <trkpt lat="43.64087" lon="3.37448">
        <ele>135</ele>
        <time>2014-03-30T08:54:38Z</time>
      </trkpt>
      <trkpt lat="43.64099" lon="3.37449">
        <ele>135</ele>
        <time>2014-03-30T08:54:40Z</time>
      </trkpt>
      <trkpt lat="43.64111" lon="3.37451">
        <ele>135</ele>
        <time>2014-03-30T08:54:42Z</time>
      </trkpt>
      <trkpt lat="43.64122" lon="3.37452">
        <ele>135</ele>
        <time>2014-03-30T08:54:44Z</time>
      </trkpt>
      <trkpt lat="43.64134" lon="3.37452">
        <ele>135</ele>
        <time>2014-03-30T08:54:46Z</time>
      </trkpt>
      <trkpt lat="43.64145" lon="3.37453">
        <ele>135</ele>
        <time>2014-03-30T08:54:48Z</time>
      </trkpt>
      <trkpt lat="43.64157" lon="3.37453">
        <ele>135</ele>
        <time>2014-03-30T08:54:50Z</time>
      </trkpt>
      <trkpt lat="43.64166" lon="3.37457">
        <ele>135</ele>
        <time>2014-03-30T08:54:52Z</time>
      </trkpt>
      <trkpt lat="43.64173" lon="3.3746">
        <ele>135</ele>
        <time>2014-03-30T08:54:53Z</time>
      </trkpt>
      <trkpt lat="43.64185" lon="3.37457">
        <ele>135</ele>
        <time>2014-03-30T08:54:55Z</time>
      </trkpt>
      <trkpt lat="43.64197" lon="3.37455">
        <ele>135</ele>
        <time>2014-03-30T08:54:57Z</time>
      </trkpt>
      <trkpt lat="43.64218" lon="3.37454">
        <ele>134</ele>
        <time>2014-03-30T08:55:01Z</time>
      </trkpt>
      <trkpt lat="43.64232" lon="3.37453">
        <ele>134</ele>
        <time>2014-03-30T08:55:04Z</time>
      </trkpt>
      <trkpt lat="43.64241" lon="3.37452">
        <ele>134</ele>
        <time>2014-03-30T08:55:06Z</time>
      </trkpt>
      <trkpt lat="43.64249" lon="3.37453">
        <ele>134</ele>
        <time>2014-03-30T08:55:09Z</time>
      </trkpt>
      <trkpt lat="43.64262" lon="3.37453">
        <ele>132</ele>
        <time>2014-03-30T08:55:45Z</time>
      </trkpt>
      <trkpt lat="43.64291" lon="3.37455">
        <ele>131</ele>
        <time>2014-03-30T08:55:52Z</time>
      </trkpt>
      <trkpt lat="43.64303" lon="3.37456">
        <ele>131</ele>
        <time>2014-03-30T08:55:56Z</time>
      </trkpt>
      <trkpt lat="43.64327" lon="3.37457">
        <ele>131</ele>
        <time>2014-03-30T08:56:00Z</time>
      </trkpt>
      <trkpt lat="43.64339" lon="3.37458">
        <ele>130</ele>
        <time>2014-03-30T08:56:02Z</time>
      </trkpt>
      <trkpt lat="43.6435" lon="3.37458">
        <ele>130</ele>
        <time>2014-03-30T08:56:04Z</time>
      </trkpt>
      <trkpt lat="43.6436" lon="3.37457">
        <ele>130</ele>
        <time>2014-03-30T08:56:06Z</time>
      </trkpt>
      <trkpt lat="43.6437" lon="3.37458">
        <ele>129</ele>
        <time>2014-03-30T08:56:08Z</time>
      </trkpt>
      <trkpt lat="43.6438" lon="3.37458">
        <ele>129</ele>
        <time>2014-03-30T08:56:10Z</time>
      </trkpt>
      <trkpt lat="43.6439" lon="3.37458">
        <ele>129</ele>
        <time>2014-03-30T08:56:12Z</time>
      </trkpt>
      <trkpt lat="43.64401" lon="3.37458">
        <ele>129</ele>
        <time>2014-03-30T08:56:14Z</time>
      </trkpt>
      <trkpt lat="43.64412" lon="3.37458">
        <ele>128</ele>
        <time>2014-03-30T08:56:16Z</time>
      </trkpt>
      <trkpt lat="43.64423" lon="3.37458">
        <ele>128</ele>
        <time>2014-03-30T08:56:18Z</time>
      </trkpt>
      <trkpt lat="43.64433" lon="3.37457">
        <ele>128</ele>
        <time>2014-03-30T08:56:20Z</time>
      </trkpt>
      <trkpt lat="43.64443" lon="3.37457">
        <ele>128</ele>
        <time>2014-03-30T08:56:22Z</time>
      </trkpt>
      <trkpt lat="43.64453" lon="3.37457">
        <ele>128</ele>
        <time>2014-03-30T08:56:24Z</time>
      </trkpt>
      <trkpt lat="43.64463" lon="3.37457">
        <ele>127</ele>
        <time>2014-03-30T08:56:26Z</time>
      </trkpt>
      <trkpt lat="43.64472" lon="3.37458">
        <ele>127</ele>
        <time>2014-03-30T08:56:28Z</time>
      </trkpt>
      <trkpt lat="43.64481" lon="3.37458">
        <ele>127</ele>
        <time>2014-03-30T08:56:30Z</time>
      </trkpt>
      <trkpt lat="43.64488" lon="3.37457">
        <ele>127</ele>
        <time>2014-03-30T08:56:32Z</time>
      </trkpt>
      <trkpt lat="43.64501" lon="3.37456">
        <ele>127</ele>
        <time>2014-03-30T08:56:36Z</time>
      </trkpt>
      <trkpt lat="43.64508" lon="3.37447">
        <ele>126</ele>
        <time>2014-03-30T08:56:40Z</time>
      </trkpt>
      <trkpt lat="43.64507" lon="3.37433">
        <ele>125</ele>
        <time>2014-03-30T08:56:44Z</time>
      </trkpt>
      <trkpt lat="43.64509" lon="3.37421">
        <ele>124</ele>
        <time>2014-03-30T08:56:48Z</time>
      </trkpt>
      <trkpt lat="43.64517" lon="3.37412">
        <ele>123</ele>
        <time>2014-03-30T08:56:52Z</time>
      </trkpt>
      <trkpt lat="43.64523" lon="3.37404">
        <ele>123</ele>
        <time>2014-03-30T08:56:55Z</time>
      </trkpt>
      <trkpt lat="43.64525" lon="3.37387">
        <ele>122</ele>
        <time>2014-03-30T08:57:00Z</time>
      </trkpt>
      <trkpt lat="43.64523" lon="3.37376">
        <ele>121</ele>
        <time>2014-03-30T08:57:03Z</time>
      </trkpt>
      <trkpt lat="43.64518" lon="3.37359">
        <ele>119</ele>
        <time>2014-03-30T08:57:08Z</time>
      </trkpt>
      <trkpt lat="43.64516" lon="3.37353">
        <ele>119</ele>
        <time>2014-03-30T08:57:10Z</time>
      </trkpt>
      <trkpt lat="43.64513" lon="3.37347">
        <ele>118</ele>
        <time>2014-03-30T08:57:12Z</time>
      </trkpt>
      <trkpt lat="43.6451" lon="3.37338">
        <ele>117</ele>
        <time>2014-03-30T08:57:15Z</time>
      </trkpt>
      <trkpt lat="43.64504" lon="3.37329">
        <ele>116</ele>
        <time>2014-03-30T08:57:19Z</time>
      </trkpt>
      <trkpt lat="43.64497" lon="3.37324">
        <ele>116</ele>
        <time>2014-03-30T08:57:23Z</time>
      </trkpt>
      <trkpt lat="43.64488" lon="3.37318">
        <ele>115</ele>
        <time>2014-03-30T08:57:27Z</time>
      </trkpt>
      <trkpt lat="43.64481" lon="3.37309">
        <ele>115</ele>
        <time>2014-03-30T08:57:31Z</time>
      </trkpt>
      <trkpt lat="43.64476" lon="3.37302">
        <ele>114</ele>
        <time>2014-03-30T08:57:34Z</time>
      </trkpt>
      <trkpt lat="43.64471" lon="3.37295">
        <ele>113</ele>
        <time>2014-03-30T08:57:37Z</time>
      </trkpt>
      <trkpt lat="43.64463" lon="3.37287">
        <ele>113</ele>
        <time>2014-03-30T08:57:41Z</time>
      </trkpt>
      <trkpt lat="43.64458" lon="3.37279">
        <ele>112</ele>
        <time>2014-03-30T08:57:44Z</time>
      </trkpt>
      <trkpt lat="43.64456" lon="3.37273">
        <ele>112</ele>
        <time>2014-03-30T08:57:46Z</time>
      </trkpt>
      <trkpt lat="43.64455" lon="3.37266">
        <ele>112</ele>
        <time>2014-03-30T08:57:48Z</time>
      </trkpt>
      <trkpt lat="43.64454" lon="3.37259">
        <ele>112</ele>
        <time>2014-03-30T08:57:50Z</time>
      </trkpt>
      <trkpt lat="43.6445" lon="3.37245">
        <ele>112</ele>
        <time>2014-03-30T08:57:54Z</time>
      </trkpt>
      <trkpt lat="43.64449" lon="3.37237">
        <ele>111</ele>
        <time>2014-03-30T08:57:56Z</time>
      </trkpt>
      <trkpt lat="43.64448" lon="3.3723">
        <ele>111</ele>
        <time>2014-03-30T08:57:58Z</time>
      </trkpt>
      <trkpt lat="43.64446" lon="3.37222">
        <ele>111</ele>
        <time>2014-03-30T08:58:00Z</time>
      </trkpt>
      <trkpt lat="43.64444" lon="3.37215">
        <ele>111</ele>
        <time>2014-03-30T08:58:02Z</time>
      </trkpt>
      <trkpt lat="43.64438" lon="3.37196">
        <ele>111</ele>
        <time>2014-03-30T08:58:07Z</time>
      </trkpt>
      <trkpt lat="43.64427" lon="3.37182">
        <ele>110</ele>
        <time>2014-03-30T08:58:12Z</time>
      </trkpt>
      <trkpt lat="43.64415" lon="3.37176">
        <ele>110</ele>
        <time>2014-03-30T08:58:17Z</time>
      </trkpt>
      <trkpt lat="43.6441" lon="3.37176">
        <ele>110</ele>
        <time>2014-03-30T08:58:19Z</time>
      </trkpt>
      <trkpt lat="43.64404" lon="3.37176">
        <ele>110</ele>
        <time>2014-03-30T08:58:22Z</time>
      </trkpt>
      <trkpt lat="43.64394" lon="3.3718">
        <ele>110</ele>
        <time>2014-03-30T08:58:28Z</time>
      </trkpt>
      <trkpt lat="43.64389" lon="3.37184">
        <ele>110</ele>
        <time>2014-03-30T08:58:31Z</time>
      </trkpt>
      <trkpt lat="43.64381" lon="3.37186">
        <ele>110</ele>
        <time>2014-03-30T08:58:35Z</time>
      </trkpt>
      <trkpt lat="43.64366" lon="3.37182">
        <ele>110</ele>
        <time>2014-03-30T08:58:44Z</time>
      </trkpt>
      <trkpt lat="43.64361" lon="3.37157">
        <ele>110</ele>
        <time>2014-03-30T08:58:57Z</time>
      </trkpt>
      <trkpt lat="43.64358" lon="3.37151">
        <ele>108</ele>
        <time>2014-03-30T08:59:09Z</time>
      </trkpt>
      <trkpt lat="43.64355" lon="3.37127">
        <ele>107</ele>
        <time>2014-03-30T08:59:26Z</time>
      </trkpt>
      <trkpt lat="43.64355" lon="3.37111">
        <ele>108</ele>
        <time>2014-03-30T08:59:30Z</time>
      </trkpt>
      <trkpt lat="43.64354" lon="3.37104">
        <ele>108</ele>
        <time>2014-03-30T08:59:32Z</time>
      </trkpt>
      <trkpt lat="43.64351" lon="3.3709">
        <ele>108</ele>
        <time>2014-03-30T08:59:37Z</time>
      </trkpt>
      <trkpt lat="43.64347" lon="3.37069">
        <ele>108</ele>
        <time>2014-03-30T08:59:44Z</time>
      </trkpt>
      <trkpt lat="43.64346" lon="3.37045">
        <ele>108</ele>
        <time>2014-03-30T08:59:52Z</time>
      </trkpt>
      <trkpt lat="43.64349" lon="3.37026">
        <ele>109</ele>
        <time>2014-03-30T08:59:58Z</time>
      </trkpt>
      <trkpt lat="43.64353" lon="3.37016">
        <ele>109</ele>
        <time>2014-03-30T09:00:02Z</time>
      </trkpt>
      <trkpt lat="43.64355" lon="3.36996">
        <ele>108</ele>
        <time>2014-03-30T09:00:09Z</time>
      </trkpt>
      <trkpt lat="43.64355" lon="3.36969">
        <ele>108</ele>
        <time>2014-03-30T09:00:17Z</time>
      </trkpt>
      <trkpt lat="43.64357" lon="3.3694">
        <ele>108</ele>
        <time>2014-03-30T09:00:26Z</time>
      </trkpt>
      <trkpt lat="43.64358" lon="3.36927">
        <ele>107</ele>
        <time>2014-03-30T09:00:30Z</time>
      </trkpt>
      <trkpt lat="43.64353" lon="3.36913">
        <ele>107</ele>
        <time>2014-03-30T09:00:35Z</time>
      </trkpt>
      <trkpt lat="43.64349" lon="3.36901">
        <ele>107</ele>
        <time>2014-03-30T09:00:39Z</time>
      </trkpt>
      <trkpt lat="43.64347" lon="3.36891">
        <ele>107</ele>
        <time>2014-03-30T09:00:42Z</time>
      </trkpt>
      <trkpt lat="43.64345" lon="3.3688">
        <ele>106</ele>
        <time>2014-03-30T09:00:45Z</time>
      </trkpt>
      <trkpt lat="43.64341" lon="3.36867">
        <ele>106</ele>
        <time>2014-03-30T09:01:01Z</time>
      </trkpt>
      <trkpt lat="43.64339" lon="3.36842">
        <ele>107</ele>
        <time>2014-03-30T09:01:23Z</time>
      </trkpt>
      <trkpt lat="43.64336" lon="3.36828">
        <ele>108</ele>
        <time>2014-03-30T09:01:27Z</time>
      </trkpt>
      <trkpt lat="43.64332" lon="3.3681">
        <ele>108</ele>
        <time>2014-03-30T09:01:32Z</time>
      </trkpt>
      <trkpt lat="43.64329" lon="3.36804">
        <ele>108</ele>
        <time>2014-03-30T09:01:34Z</time>
      </trkpt>
      <trkpt lat="43.64326" lon="3.36792">
        <ele>108</ele>
        <time>2014-03-30T09:01:38Z</time>
      </trkpt>
      <trkpt lat="43.64321" lon="3.36765">
        <ele>108</ele>
        <time>2014-03-30T09:01:52Z</time>
      </trkpt>
      <trkpt lat="43.64318" lon="3.36744">
        <ele>109</ele>
        <time>2014-03-30T09:02:01Z</time>
      </trkpt>
      <trkpt lat="43.64312" lon="3.36724">
        <ele>108</ele>
        <time>2014-03-30T09:02:09Z</time>
      </trkpt>
      <trkpt lat="43.6431" lon="3.3671">
        <ele>108</ele>
        <time>2014-03-30T09:02:13Z</time>
      </trkpt>
      <trkpt lat="43.64311" lon="3.36699">
        <ele>108</ele>
        <time>2014-03-30T09:02:16Z</time>
      </trkpt>
      <trkpt lat="43.6431" lon="3.36683">
        <ele>108</ele>
        <time>2014-03-30T09:02:20Z</time>
      </trkpt>
      <trkpt lat="43.64306" lon="3.36673">
        <ele>108</ele>
        <time>2014-03-30T09:02:23Z</time>
      </trkpt>
      <trkpt lat="43.64298" lon="3.36664">
        <ele>108</ele>
        <time>2014-03-30T09:02:26Z</time>
      </trkpt>
      <trkpt lat="43.6429" lon="3.36657">
        <ele>108</ele>
        <time>2014-03-30T09:02:29Z</time>
      </trkpt>
      <trkpt lat="43.64285" lon="3.36646">
        <ele>108</ele>
        <time>2014-03-30T09:02:33Z</time>
      </trkpt>
      <trkpt lat="43.64285" lon="3.36634">
        <ele>108</ele>
        <time>2014-03-30T09:02:36Z</time>
      </trkpt>
      <trkpt lat="43.64285" lon="3.36619">
        <ele>108</ele>
        <time>2014-03-30T09:02:40Z</time>
      </trkpt>
      <trkpt lat="43.64284" lon="3.36607">
        <ele>109</ele>
        <time>2014-03-30T09:02:43Z</time>
      </trkpt>
      <trkpt lat="43.64283" lon="3.36597">
        <ele>109</ele>
        <time>2014-03-30T09:02:46Z</time>
      </trkpt>
      <trkpt lat="43.64282" lon="3.36584">
        <ele>109</ele>
        <time>2014-03-30T09:02:50Z</time>
      </trkpt>
      <trkpt lat="43.64282" lon="3.36571">
        <ele>109</ele>
        <time>2014-03-30T09:02:54Z</time>
      </trkpt>
      <trkpt lat="43.64281" lon="3.36561">
        <ele>110</ele>
        <time>2014-03-30T09:02:57Z</time>
      </trkpt>
      <trkpt lat="43.6428" lon="3.36549">
        <ele>110</ele>
        <time>2014-03-30T09:03:01Z</time>
      </trkpt>
      <trkpt lat="43.6428" lon="3.36544">
        <ele>110</ele>
        <time>2014-03-30T09:03:03Z</time>
      </trkpt>
      <trkpt lat="43.64278" lon="3.36531">
        <ele>110</ele>
        <time>2014-03-30T09:03:07Z</time>
      </trkpt>
      <trkpt lat="43.64279" lon="3.36518">
        <ele>110</ele>
        <time>2014-03-30T09:03:11Z</time>
      </trkpt>
      <trkpt lat="43.64281" lon="3.36504">
        <ele>110</ele>
        <time>2014-03-30T09:03:15Z</time>
      </trkpt>
      <trkpt lat="43.64283" lon="3.36493">
        <ele>110</ele>
        <time>2014-03-30T09:03:18Z</time>
      </trkpt>
      <trkpt lat="43.64286" lon="3.36479">
        <ele>110</ele>
        <time>2014-03-30T09:03:21Z</time>
      </trkpt>
      <trkpt lat="43.64288" lon="3.3647">
        <ele>110</ele>
        <time>2014-03-30T09:03:23Z</time>
      </trkpt>
      <trkpt lat="43.64291" lon="3.36456">
        <ele>110</ele>
        <time>2014-03-30T09:03:26Z</time>
      </trkpt>
      <trkpt lat="43.64294" lon="3.36438">
        <ele>110</ele>
        <time>2014-03-30T09:03:31Z</time>
      </trkpt>
      <trkpt lat="43.64299" lon="3.36421">
        <ele>110</ele>
        <time>2014-03-30T09:03:37Z</time>
      </trkpt>
      <trkpt lat="43.64302" lon="3.36409">
        <ele>110</ele>
        <time>2014-03-30T09:03:41Z</time>
      </trkpt>
      <trkpt lat="43.64307" lon="3.36383">
        <ele>110</ele>
        <time>2014-03-30T09:03:57Z</time>
      </trkpt>
      <trkpt lat="43.64313" lon="3.36371">
        <ele>110</ele>
        <time>2014-03-30T09:04:13Z</time>
      </trkpt>
      <trkpt lat="43.64305" lon="3.36355">
        <ele>112</ele>
        <time>2014-03-30T09:04:44Z</time>
      </trkpt>
      <trkpt lat="43.64298" lon="3.3634">
        <ele>113</ele>
        <time>2014-03-30T09:05:06Z</time>
      </trkpt>
      <trkpt lat="43.64292" lon="3.36325">
        <ele>113</ele>
        <time>2014-03-30T09:05:17Z</time>
      </trkpt>
      <trkpt lat="43.64291" lon="3.36313">
        <ele>114</ele>
        <time>2014-03-30T09:05:29Z</time>
      </trkpt>
      <trkpt lat="43.64293" lon="3.36289">
        <ele>115</ele>
        <time>2014-03-30T09:05:44Z</time>
      </trkpt>
      <trkpt lat="43.64293" lon="3.36265">
        <ele>116</ele>
        <time>2014-03-30T09:05:53Z</time>
      </trkpt>
      <trkpt lat="43.64292" lon="3.36248">
        <ele>117</ele>
        <time>2014-03-30T09:06:00Z</time>
      </trkpt>
      <trkpt lat="43.64294" lon="3.36228">
        <ele>118</ele>
        <time>2014-03-30T09:06:08Z</time>
      </trkpt>
      <trkpt lat="43.64295" lon="3.36216">
        <ele>119</ele>
        <time>2014-03-30T09:06:13Z</time>
      </trkpt>
      <trkpt lat="43.64293" lon="3.36201">
        <ele>120</ele>
        <time>2014-03-30T09:06:19Z</time>
      </trkpt>
      <trkpt lat="43.64296" lon="3.36189">
        <ele>120</ele>
        <time>2014-03-30T09:06:24Z</time>
      </trkpt>
      <trkpt lat="43.64304" lon="3.36182">
        <ele>121</ele>
        <time>2014-03-30T09:06:29Z</time>
      </trkpt>
      <trkpt lat="43.6431" lon="3.36175">
        <ele>121</ele>
        <time>2014-03-30T09:06:32Z</time>
      </trkpt>
      <trkpt lat="43.64317" lon="3.36168">
        <ele>121</ele>
        <time>2014-03-30T09:06:36Z</time>
      </trkpt>
      <trkpt lat="43.64328" lon="3.36161">
        <ele>122</ele>
        <time>2014-03-30T09:06:48Z</time>
      </trkpt>
      <trkpt lat="43.64336" lon="3.36159">
        <ele>122</ele>
        <time>2014-03-30T09:06:57Z</time>
      </trkpt>
      <trkpt lat="43.6435" lon="3.36156">
        <ele>123</ele>
        <time>2014-03-30T09:07:10Z</time>
      </trkpt>
      <trkpt lat="43.64355" lon="3.36142">
        <ele>123</ele>
        <time>2014-03-30T09:07:30Z</time>
      </trkpt>
      <trkpt lat="43.64363" lon="3.36139">
        <ele>126</ele>
        <time>2014-03-30T09:09:54Z</time>
      </trkpt>
      <trkpt lat="43.6437" lon="3.36132">
        <ele>126</ele>
        <time>2014-03-30T09:09:57Z</time>
      </trkpt>
      <trkpt lat="43.64378" lon="3.36124">
        <ele>126</ele>
        <time>2014-03-30T09:10:00Z</time>
      </trkpt>
      <trkpt lat="43.64386" lon="3.36116">
        <ele>126</ele>
        <time>2014-03-30T09:10:03Z</time>
      </trkpt>
      <trkpt lat="43.64395" lon="3.36109">
        <ele>127</ele>
        <time>2014-03-30T09:10:06Z</time>
      </trkpt>
      <trkpt lat="43.64402" lon="3.36102">
        <ele>127</ele>
        <time>2014-03-30T09:10:08Z</time>
      </trkpt>
      <trkpt lat="43.64409" lon="3.36096">
        <ele>127</ele>
        <time>2014-03-30T09:10:10Z</time>
      </trkpt>
      <trkpt lat="43.64417" lon="3.3609">
        <ele>127</ele>
        <time>2014-03-30T09:10:12Z</time>
      </trkpt>
      <trkpt lat="43.64424" lon="3.36084">
        <ele>127</ele>
        <time>2014-03-30T09:10:14Z</time>
      </trkpt>
      <trkpt lat="43.64431" lon="3.36078">
        <ele>127</ele>
        <time>2014-03-30T09:10:16Z</time>
      </trkpt>
      <trkpt lat="43.64435" lon="3.36075">
        <ele>127</ele>
        <time>2014-03-30T09:10:17Z</time>
      </trkpt>
      <trkpt lat="43.64438" lon="3.36072">
        <ele>127</ele>
        <time>2014-03-30T09:10:18Z</time>
      </trkpt>
      <trkpt lat="43.64447" lon="3.36065">
        <ele>127</ele>
        <time>2014-03-30T09:10:21Z</time>
      </trkpt>
      <trkpt lat="43.6446" lon="3.36058">
        <ele>127</ele>
        <time>2014-03-30T09:10:43Z</time>
      </trkpt>
      <trkpt lat="43.64463" lon="3.36054">
        <ele>127</ele>
        <time>2014-03-30T09:11:02Z</time>
      </trkpt>
      <trkpt lat="43.645" lon="3.36036">
        <ele>127</ele>
        <time>2014-03-30T09:11:11Z</time>
      </trkpt>
      <trkpt lat="43.64553" lon="3.36019">
        <ele>127</ele>
        <time>2014-03-30T09:11:21Z</time>
      </trkpt>
      <trkpt lat="43.64563" lon="3.36017">
        <ele>127</ele>
        <time>2014-03-30T09:11:23Z</time>
      </trkpt>
      <trkpt lat="43.64572" lon="3.3601">
        <ele>126</ele>
        <time>2014-03-30T09:11:25Z</time>
      </trkpt>
      <trkpt lat="43.6458" lon="3.36001">
        <ele>126</ele>
        <time>2014-03-30T09:11:27Z</time>
      </trkpt>
      <trkpt lat="43.6459" lon="3.35984">
        <ele>126</ele>
        <time>2014-03-30T09:11:30Z</time>
      </trkpt>
      <trkpt lat="43.64598" lon="3.35973">
        <ele>126</ele>
        <time>2014-03-30T09:11:32Z</time>
      </trkpt>
      <trkpt lat="43.64608" lon="3.35967">
        <ele>125</ele>
        <time>2014-03-30T09:11:34Z</time>
      </trkpt>
      <trkpt lat="43.64617" lon="3.35966">
        <ele>125</ele>
        <time>2014-03-30T09:11:36Z</time>
      </trkpt>
      <trkpt lat="43.64627" lon="3.35968">
        <ele>125</ele>
        <time>2014-03-30T09:11:38Z</time>
      </trkpt>
      <trkpt lat="43.64636" lon="3.3597">
        <ele>124</ele>
        <time>2014-03-30T09:11:40Z</time>
      </trkpt>
      <trkpt lat="43.64643" lon="3.35971">
        <ele>124</ele>
        <time>2014-03-30T09:11:42Z</time>
      </trkpt>
      <trkpt lat="43.64654" lon="3.3597">
        <ele>124</ele>
        <time>2014-03-30T09:11:45Z</time>
      </trkpt>
      <trkpt lat="43.64663" lon="3.35968">
        <ele>123</ele>
        <time>2014-03-30T09:11:48Z</time>
      </trkpt>
      <trkpt lat="43.64678" lon="3.35966">
        <ele>122</ele>
        <time>2014-03-30T09:11:53Z</time>
      </trkpt>
      <trkpt lat="43.64688" lon="3.35964">
        <ele>122</ele>
        <time>2014-03-30T09:11:56Z</time>
      </trkpt>
      <trkpt lat="43.64694" lon="3.35962">
        <ele>121</ele>
        <time>2014-03-30T09:11:58Z</time>
      </trkpt>
      <trkpt lat="43.64702" lon="3.35957">
        <ele>121</ele>
        <time>2014-03-30T09:12:01Z</time>
      </trkpt>
      <trkpt lat="43.64712" lon="3.35943">
        <ele>120</ele>
        <time>2014-03-30T09:12:06Z</time>
      </trkpt>
      <trkpt lat="43.64716" lon="3.35931">
        <ele>120</ele>
        <time>2014-03-30T09:12:10Z</time>
      </trkpt>
      <trkpt lat="43.64719" lon="3.35922">
        <ele>120</ele>
        <time>2014-03-30T09:12:13Z</time>
      </trkpt>
      <trkpt lat="43.64721" lon="3.35917">
        <ele>120</ele>
        <time>2014-03-30T09:12:15Z</time>
      </trkpt>
      <trkpt lat="43.64723" lon="3.35911">
        <ele>119</ele>
        <time>2014-03-30T09:12:17Z</time>
      </trkpt>
      <trkpt lat="43.64725" lon="3.35906">
        <ele>119</ele>
        <time>2014-03-30T09:12:19Z</time>
      </trkpt>
      <trkpt lat="43.64729" lon="3.35899">
        <ele>119</ele>
        <time>2014-03-30T09:12:22Z</time>
      </trkpt>
      <trkpt lat="43.64731" lon="3.35893">
        <ele>119</ele>
        <time>2014-03-30T09:12:24Z</time>
      </trkpt>
      <trkpt lat="43.64734" lon="3.35888">
        <ele>119</ele>
        <time>2014-03-30T09:12:26Z</time>
      </trkpt>
      <trkpt lat="43.64737" lon="3.35882">
        <ele>119</ele>
        <time>2014-03-30T09:12:28Z</time>
      </trkpt>
      <trkpt lat="43.64742" lon="3.35871">
        <ele>119</ele>
        <time>2014-03-30T09:12:31Z</time>
      </trkpt>
      <trkpt lat="43.64745" lon="3.35863">
        <ele>119</ele>
        <time>2014-03-30T09:12:33Z</time>
      </trkpt>
      <trkpt lat="43.6475" lon="3.35851">
        <ele>118</ele>
        <time>2014-03-30T09:12:36Z</time>
      </trkpt>
      <trkpt lat="43.64755" lon="3.35837">
        <ele>118</ele>
        <time>2014-03-30T09:12:39Z</time>
      </trkpt>
      <trkpt lat="43.64759" lon="3.35827">
        <ele>118</ele>
        <time>2014-03-30T09:12:41Z</time>
      </trkpt>
      <trkpt lat="43.64761" lon="3.35822">
        <ele>118</ele>
        <time>2014-03-30T09:12:42Z</time>
      </trkpt>
      <trkpt lat="43.64766" lon="3.35811">
        <ele>118</ele>
        <time>2014-03-30T09:12:44Z</time>
      </trkpt>
      <trkpt lat="43.64773" lon="3.35802">
        <ele>118</ele>
        <time>2014-03-30T09:12:46Z</time>
      </trkpt>
      <trkpt lat="43.64782" lon="3.35795">
        <ele>118</ele>
        <time>2014-03-30T09:12:48Z</time>
      </trkpt>
      <trkpt lat="43.64794" lon="3.3579">
        <ele>118</ele>
        <time>2014-03-30T09:12:50Z</time>
      </trkpt>
      <trkpt lat="43.64801" lon="3.35787">
        <ele>118</ele>
        <time>2014-03-30T09:12:51Z</time>
      </trkpt>
      <trkpt lat="43.64809" lon="3.35784">
        <ele>118</ele>
        <time>2014-03-30T09:12:52Z</time>
      </trkpt>
      <trkpt lat="43.64825" lon="3.35778">
        <ele>118</ele>
        <time>2014-03-30T09:12:54Z</time>
      </trkpt>
      <trkpt lat="43.64833" lon="3.35773">
        <ele>118</ele>
        <time>2014-03-30T09:12:55Z</time>
      </trkpt>
      <trkpt lat="43.64839" lon="3.35768">
        <ele>118</ele>
        <time>2014-03-30T09:12:56Z</time>
      </trkpt>
      <trkpt lat="43.64852" lon="3.35757">
        <ele>118</ele>
        <time>2014-03-30T09:12:58Z</time>
      </trkpt>
      <trkpt lat="43.64866" lon="3.35748">
        <ele>118</ele>
        <time>2014-03-30T09:13:00Z</time>
      </trkpt>
      <trkpt lat="43.6488" lon="3.3574">
        <ele>118</ele>
        <time>2014-03-30T09:13:02Z</time>
      </trkpt>
      <trkpt lat="43.64891" lon="3.35728">
        <ele>118</ele>
        <time>2014-03-30T09:13:04Z</time>
      </trkpt>
      <trkpt lat="43.64901" lon="3.35716">
        <ele>118</ele>
        <time>2014-03-30T09:13:06Z</time>
      </trkpt>
      <trkpt lat="43.64909" lon="3.35704">
        <ele>118</ele>
        <time>2014-03-30T09:13:08Z</time>
      </trkpt>
      <trkpt lat="43.64917" lon="3.35693">
        <ele>118</ele>
        <time>2014-03-30T09:13:10Z</time>
      </trkpt>
      <trkpt lat="43.64925" lon="3.35685">
        <ele>118</ele>
        <time>2014-03-30T09:13:12Z</time>
      </trkpt>
      <trkpt lat="43.64934" lon="3.35679">
        <ele>118</ele>
        <time>2014-03-30T09:13:14Z</time>
      </trkpt>
      <trkpt lat="43.64944" lon="3.35675">
        <ele>118</ele>
        <time>2014-03-30T09:13:16Z</time>
      </trkpt>
      <trkpt lat="43.64954" lon="3.3567">
        <ele>118</ele>
        <time>2014-03-30T09:13:18Z</time>
      </trkpt>
      <trkpt lat="43.64962" lon="3.35661">
        <ele>118</ele>
        <time>2014-03-30T09:13:20Z</time>
      </trkpt>
      <trkpt lat="43.64964" lon="3.35655">
        <ele>118</ele>
        <time>2014-03-30T09:13:21Z</time>
      </trkpt>
      <trkpt lat="43.64967" lon="3.35648">
        <ele>118</ele>
        <time>2014-03-30T09:13:22Z</time>
      </trkpt>
      <trkpt lat="43.64971" lon="3.35635">
        <ele>118</ele>
        <time>2014-03-30T09:13:24Z</time>
      </trkpt>
      <trkpt lat="43.64972" lon="3.35628">
        <ele>118</ele>
        <time>2014-03-30T09:13:25Z</time>
      </trkpt>
      <trkpt lat="43.64976" lon="3.35616">
        <ele>118</ele>
        <time>2014-03-30T09:13:27Z</time>
      </trkpt>
      <trkpt lat="43.64978" lon="3.35604">
        <ele>118</ele>
        <time>2014-03-30T09:13:29Z</time>
      </trkpt>
      <trkpt lat="43.6498" lon="3.35593">
        <ele>118</ele>
        <time>2014-03-30T09:13:31Z</time>
      </trkpt>
      <trkpt lat="43.64982" lon="3.35582">
        <ele>118</ele>
        <time>2014-03-30T09:13:33Z</time>
      </trkpt>
      <trkpt lat="43.64985" lon="3.35571">
        <ele>118</ele>
        <time>2014-03-30T09:13:35Z</time>
      </trkpt>
      <trkpt lat="43.64987" lon="3.35561">
        <ele>118</ele>
        <time>2014-03-30T09:13:37Z</time>
      </trkpt>
      <trkpt lat="43.64989" lon="3.3555">
        <ele>118</ele>
        <time>2014-03-30T09:13:39Z</time>
      </trkpt>
      <trkpt lat="43.64992" lon="3.35539">
        <ele>118</ele>
        <time>2014-03-30T09:13:41Z</time>
      </trkpt>
      <trkpt lat="43.64993" lon="3.35528">
        <ele>118</ele>
        <time>2014-03-30T09:13:43Z</time>
      </trkpt>
      <trkpt lat="43.64991" lon="3.35517">
        <ele>117</ele>
        <time>2014-03-30T09:13:45Z</time>
      </trkpt>
      <trkpt lat="43.64986" lon="3.35507">
        <ele>117</ele>
        <time>2014-03-30T09:13:47Z</time>
      </trkpt>
      <trkpt lat="43.64977" lon="3.35499">
        <ele>117</ele>
        <time>2014-03-30T09:13:50Z</time>
      </trkpt>
      <trkpt lat="43.6497" lon="3.35496">
        <ele>117</ele>
        <time>2014-03-30T09:13:52Z</time>
      </trkpt>
      <trkpt lat="43.64962" lon="3.35493">
        <ele>117</ele>
        <time>2014-03-30T09:13:54Z</time>
      </trkpt>
      <trkpt lat="43.64955" lon="3.35489">
        <ele>117</ele>
        <time>2014-03-30T09:13:56Z</time>
      </trkpt>
      <trkpt lat="43.64944" lon="3.35485">
        <ele>117</ele>
        <time>2014-03-30T09:13:59Z</time>
      </trkpt>
      <trkpt lat="43.64932" lon="3.35477">
        <ele>117</ele>
        <time>2014-03-30T09:14:03Z</time>
      </trkpt>
      <trkpt lat="43.64926" lon="3.35469">
        <ele>117</ele>
        <time>2014-03-30T09:14:06Z</time>
      </trkpt>
      <trkpt lat="43.64916" lon="3.35453">
        <ele>116</ele>
        <time>2014-03-30T09:14:11Z</time>
      </trkpt>
      <trkpt lat="43.64911" lon="3.35442">
        <ele>116</ele>
        <time>2014-03-30T09:14:14Z</time>
      </trkpt>
      <trkpt lat="43.64909" lon="3.35428">
        <ele>116</ele>
        <time>2014-03-30T09:14:17Z</time>
      </trkpt>
      <trkpt lat="43.64914" lon="3.35416">
        <ele>116</ele>
        <time>2014-03-30T09:14:20Z</time>
      </trkpt>
      <trkpt lat="43.64928" lon="3.35398">
        <ele>115</ele>
        <time>2014-03-30T09:14:25Z</time>
      </trkpt>
      <trkpt lat="43.64933" lon="3.35389">
        <ele>115</ele>
        <time>2014-03-30T09:14:27Z</time>
      </trkpt>
      <trkpt lat="43.64935" lon="3.35378">
        <ele>115</ele>
        <time>2014-03-30T09:14:29Z</time>
      </trkpt>
      <trkpt lat="43.64936" lon="3.35366">
        <ele>115</ele>
        <time>2014-03-30T09:14:31Z</time>
      </trkpt>
      <trkpt lat="43.64937" lon="3.35355">
        <ele>115</ele>
        <time>2014-03-30T09:14:33Z</time>
      </trkpt>
      <trkpt lat="43.64936" lon="3.35344">
        <ele>115</ele>
        <time>2014-03-30T09:14:35Z</time>
      </trkpt>
      <trkpt lat="43.64932" lon="3.35335">
        <ele>114</ele>
        <time>2014-03-30T09:14:37Z</time>
      </trkpt>
      <trkpt lat="43.64927" lon="3.35326">
        <ele>114</ele>
        <time>2014-03-30T09:14:39Z</time>
      </trkpt>
      <trkpt lat="43.64921" lon="3.35319">
        <ele>114</ele>
        <time>2014-03-30T09:14:41Z</time>
      </trkpt>
      <trkpt lat="43.64916" lon="3.35311">
        <ele>114</ele>
        <time>2014-03-30T09:14:43Z</time>
      </trkpt>
      <trkpt lat="43.64911" lon="3.35297">
        <ele>114</ele>
        <time>2014-03-30T09:14:46Z</time>
      </trkpt>
      <trkpt lat="43.64909" lon="3.35282">
        <ele>114</ele>
        <time>2014-03-30T09:14:49Z</time>
      </trkpt>
      <trkpt lat="43.6491" lon="3.35271">
        <ele>114</ele>
        <time>2014-03-30T09:14:51Z</time>
      </trkpt>
      <trkpt lat="43.64913" lon="3.3526">
        <ele>114</ele>
        <time>2014-03-30T09:14:53Z</time>
      </trkpt>
      <trkpt lat="43.64916" lon="3.35249">
        <ele>114</ele>
        <time>2014-03-30T09:14:55Z</time>
      </trkpt>
      <trkpt lat="43.64918" lon="3.35238">
        <ele>113</ele>
        <time>2014-03-30T09:14:57Z</time>
      </trkpt>
      <trkpt lat="43.6492" lon="3.35227">
        <ele>113</ele>
        <time>2014-03-30T09:14:59Z</time>
      </trkpt>
      <trkpt lat="43.6492" lon="3.35217">
        <ele>113</ele>
        <time>2014-03-30T09:15:01Z</time>
      </trkpt>
      <trkpt lat="43.64917" lon="3.35202">
        <ele>113</ele>
        <time>2014-03-30T09:15:04Z</time>
      </trkpt>
      <trkpt lat="43.64908" lon="3.35192">
        <ele>113</ele>
        <time>2014-03-30T09:15:07Z</time>
      </trkpt>
      <trkpt lat="43.64902" lon="3.35186">
        <ele>113</ele>
        <time>2014-03-30T09:15:09Z</time>
      </trkpt>
      <trkpt lat="43.64892" lon="3.35179">
        <ele>113</ele>
        <time>2014-03-30T09:15:12Z</time>
      </trkpt>
      <trkpt lat="43.64882" lon="3.35175">
        <ele>113</ele>
        <time>2014-03-30T09:15:15Z</time>
      </trkpt>
      <trkpt lat="43.64874" lon="3.35165">
        <ele>113</ele>
        <time>2014-03-30T09:15:18Z</time>
      </trkpt>
      <trkpt lat="43.64869" lon="3.35152">
        <ele>113</ele>
        <time>2014-03-30T09:15:21Z</time>
      </trkpt>
      <trkpt lat="43.64865" lon="3.35139">
        <ele>112</ele>
        <time>2014-03-30T09:15:24Z</time>
      </trkpt>
      <trkpt lat="43.64862" lon="3.35125">
        <ele>112</ele>
        <time>2014-03-30T09:15:27Z</time>
      </trkpt>
      <trkpt lat="43.64862" lon="3.35114">
        <ele>112</ele>
        <time>2014-03-30T09:15:29Z</time>
      </trkpt>
      <trkpt lat="43.64864" lon="3.35099">
        <ele>112</ele>
        <time>2014-03-30T09:15:32Z</time>
      </trkpt>
      <trkpt lat="43.64867" lon="3.35089">
        <ele>112</ele>
        <time>2014-03-30T09:15:34Z</time>
      </trkpt>
      <trkpt lat="43.64869" lon="3.35074">
        <ele>112</ele>
        <time>2014-03-30T09:15:37Z</time>
      </trkpt>
      <trkpt lat="43.64867" lon="3.35062">
        <ele>112</ele>
        <time>2014-03-30T09:15:40Z</time>
      </trkpt>
      <trkpt lat="43.64861" lon="3.35052">
        <ele>112</ele>
        <time>2014-03-30T09:15:43Z</time>
      </trkpt>
      <trkpt lat="43.64852" lon="3.35046">
        <ele>112</ele>
        <time>2014-03-30T09:15:46Z</time>
      </trkpt>
      <trkpt lat="43.64843" lon="3.35044">
        <ele>112</ele>
        <time>2014-03-30T09:15:49Z</time>
      </trkpt>
      <trkpt lat="43.64837" lon="3.35044">
        <ele>112</ele>
        <time>2014-03-30T09:15:51Z</time>
      </trkpt>
      <trkpt lat="43.64828" lon="3.35043">
        <ele>111</ele>
        <time>2014-03-30T09:15:54Z</time>
      </trkpt>
      <trkpt lat="43.64821" lon="3.35043">
        <ele>111</ele>
        <time>2014-03-30T09:15:56Z</time>
      </trkpt>
      <trkpt lat="43.64811" lon="3.35044">
        <ele>111</ele>
        <time>2014-03-30T09:15:59Z</time>
      </trkpt>
      <trkpt lat="43.64805" lon="3.35045">
        <ele>111</ele>
        <time>2014-03-30T09:16:01Z</time>
      </trkpt>
      <trkpt lat="43.64795" lon="3.35045">
        <ele>111</ele>
        <time>2014-03-30T09:16:04Z</time>
      </trkpt>
      <trkpt lat="43.64789" lon="3.35046">
        <ele>111</ele>
        <time>2014-03-30T09:16:06Z</time>
      </trkpt>
      <trkpt lat="43.64779" lon="3.35043">
        <ele>110</ele>
        <time>2014-03-30T09:16:09Z</time>
      </trkpt>
      <trkpt lat="43.6477" lon="3.35039">
        <ele>110</ele>
        <time>2014-03-30T09:16:12Z</time>
      </trkpt>
      <trkpt lat="43.64762" lon="3.35033">
        <ele>110</ele>
        <time>2014-03-30T09:16:15Z</time>
      </trkpt>
      <trkpt lat="43.64754" lon="3.35027">
        <ele>110</ele>
        <time>2014-03-30T09:16:18Z</time>
      </trkpt>
      <trkpt lat="43.64746" lon="3.35023">
        <ele>110</ele>
        <time>2014-03-30T09:16:21Z</time>
      </trkpt>
      <trkpt lat="43.64737" lon="3.35021">
        <ele>110</ele>
        <time>2014-03-30T09:16:24Z</time>
      </trkpt>
      <trkpt lat="43.64723" lon="3.35019">
        <ele>110</ele>
        <time>2014-03-30T09:16:29Z</time>
      </trkpt>
      <trkpt lat="43.64716" lon="3.35014">
        <ele>110</ele>
        <time>2014-03-30T09:16:32Z</time>
      </trkpt>
      <trkpt lat="43.64709" lon="3.35007">
        <ele>111</ele>
        <time>2014-03-30T09:16:35Z</time>
      </trkpt>
      <trkpt lat="43.64703" lon="3.35">
        <ele>111</ele>
        <time>2014-03-30T09:16:38Z</time>
      </trkpt>
      <trkpt lat="43.64695" lon="3.34988">
        <ele>111</ele>
        <time>2014-03-30T09:16:43Z</time>
      </trkpt>
      <trkpt lat="43.64695" lon="3.34974">
        <ele>111</ele>
        <time>2014-03-30T09:16:48Z</time>
      </trkpt>
      <trkpt lat="43.64699" lon="3.34963">
        <ele>112</ele>
        <time>2014-03-30T09:16:51Z</time>
      </trkpt>
      <trkpt lat="43.64703" lon="3.34951">
        <ele>112</ele>
        <time>2014-03-30T09:16:54Z</time>
      </trkpt>
      <trkpt lat="43.64707" lon="3.3494">
        <ele>112</ele>
        <time>2014-03-30T09:16:57Z</time>
      </trkpt>
      <trkpt lat="43.64709" lon="3.34929">
        <ele>112</ele>
        <time>2014-03-30T09:17:00Z</time>
      </trkpt>
      <trkpt lat="43.64712" lon="3.34918">
        <ele>113</ele>
        <time>2014-03-30T09:17:03Z</time>
      </trkpt>
      <trkpt lat="43.64714" lon="3.34907">
        <ele>113</ele>
        <time>2014-03-30T09:17:06Z</time>
      </trkpt>
      <trkpt lat="43.64716" lon="3.34896">
        <ele>113</ele>
        <time>2014-03-30T09:17:09Z</time>
      </trkpt>
      <trkpt lat="43.64718" lon="3.34885">
        <ele>113</ele>
        <time>2014-03-30T09:17:12Z</time>
      </trkpt>
      <trkpt lat="43.64722" lon="3.34874">
        <ele>113</ele>
        <time>2014-03-30T09:17:15Z</time>
      </trkpt>
      <trkpt lat="43.64726" lon="3.34857">
        <ele>113</ele>
        <time>2014-03-30T09:17:20Z</time>
      </trkpt>
      <trkpt lat="43.64727" lon="3.34837">
        <ele>113</ele>
        <time>2014-03-30T09:17:25Z</time>
      </trkpt>
      <trkpt lat="43.64728" lon="3.34829">
        <ele>113</ele>
        <time>2014-03-30T09:17:27Z</time>
      </trkpt>
      <trkpt lat="43.64728" lon="3.3482">
        <ele>113</ele>
        <time>2014-03-30T09:17:29Z</time>
      </trkpt>
      <trkpt lat="43.64729" lon="3.34805">
        <ele>113</ele>
        <time>2014-03-30T09:17:32Z</time>
      </trkpt>
      <trkpt lat="43.6473" lon="3.34794">
        <ele>113</ele>
        <time>2014-03-30T09:17:34Z</time>
      </trkpt>
      <trkpt lat="43.64731" lon="3.34778">
        <ele>113</ele>
        <time>2014-03-30T09:17:37Z</time>
      </trkpt>
      <trkpt lat="43.64732" lon="3.34769">
        <ele>113</ele>
        <time>2014-03-30T09:17:39Z</time>
      </trkpt>
      <trkpt lat="43.64733" lon="3.34756">
        <ele>113</ele>
        <time>2014-03-30T09:17:42Z</time>
      </trkpt>
      <trkpt lat="43.64733" lon="3.34747">
        <ele>113</ele>
        <time>2014-03-30T09:17:44Z</time>
      </trkpt>
      <trkpt lat="43.64733" lon="3.34739">
        <ele>113</ele>
        <time>2014-03-30T09:17:46Z</time>
      </trkpt>
      <trkpt lat="43.64732" lon="3.34727">
        <ele>113</ele>
        <time>2014-03-30T09:17:49Z</time>
      </trkpt>
      <trkpt lat="43.64731" lon="3.3472">
        <ele>113</ele>
        <time>2014-03-30T09:17:51Z</time>
      </trkpt>
      <trkpt lat="43.6473" lon="3.34713">
        <ele>113</ele>
        <time>2014-03-30T09:17:53Z</time>
      </trkpt>
      <trkpt lat="43.64729" lon="3.34705">
        <ele>113</ele>
        <time>2014-03-30T09:17:55Z</time>
      </trkpt>
      <trkpt lat="43.64727" lon="3.34694">
        <ele>113</ele>
        <time>2014-03-30T09:17:58Z</time>
      </trkpt>
      <trkpt lat="43.64726" lon="3.34686">
        <ele>113</ele>
        <time>2014-03-30T09:18:00Z</time>
      </trkpt>
      <trkpt lat="43.64725" lon="3.34676">
        <ele>113</ele>
        <time>2014-03-30T09:18:03Z</time>
      </trkpt>
      <trkpt lat="43.64725" lon="3.34657">
        <ele>113</ele>
        <time>2014-03-30T09:18:09Z</time>
      </trkpt>
      <trkpt lat="43.64724" lon="3.34645">
        <ele>113</ele>
        <time>2014-03-30T09:18:13Z</time>
      </trkpt>
      <trkpt lat="43.64722" lon="3.34634">
        <ele>113</ele>
        <time>2014-03-30T09:18:17Z</time>
      </trkpt>
      <trkpt lat="43.64712" lon="3.34622">
        <ele>112</ele>
        <time>2014-03-30T09:19:38Z</time>
      </trkpt>
      <trkpt lat="43.64713" lon="3.34608">
        <ele>112</ele>
        <time>2014-03-30T09:19:44Z</time>
      </trkpt>
      <trkpt lat="43.64715" lon="3.34591">
        <ele>112</ele>
        <time>2014-03-30T09:19:49Z</time>
      </trkpt>
      <trkpt lat="43.64716" lon="3.3458">
        <ele>112</ele>
        <time>2014-03-30T09:19:52Z</time>
      </trkpt>
      <trkpt lat="43.64717" lon="3.34569">
        <ele>112</ele>
        <time>2014-03-30T09:19:55Z</time>
      </trkpt>
      <trkpt lat="43.64718" lon="3.34552">
        <ele>112</ele>
        <time>2014-03-30T09:20:00Z</time>
      </trkpt>
      <trkpt lat="43.64718" lon="3.34544">
        <ele>112</ele>
        <time>2014-03-30T09:20:02Z</time>
      </trkpt>
      <trkpt lat="43.6472" lon="3.34527">
        <ele>113</ele>
        <time>2014-03-30T09:20:07Z</time>
      </trkpt>
      <trkpt lat="43.6472" lon="3.34519">
        <ele>113</ele>
        <time>2014-03-30T09:20:09Z</time>
      </trkpt>
      <trkpt lat="43.64721" lon="3.34504">
        <ele>113</ele>
        <time>2014-03-30T09:20:13Z</time>
      </trkpt>
      <trkpt lat="43.64721" lon="3.34497">
        <ele>113</ele>
        <time>2014-03-30T09:20:15Z</time>
      </trkpt>
      <trkpt lat="43.64722" lon="3.3449">
        <ele>114</ele>
        <time>2014-03-30T09:20:17Z</time>
      </trkpt>
      <trkpt lat="43.64723" lon="3.34479">
        <ele>114</ele>
        <time>2014-03-30T09:20:20Z</time>
      </trkpt>
      <trkpt lat="43.64723" lon="3.34468">
        <ele>114</ele>
        <time>2014-03-30T09:20:23Z</time>
      </trkpt>
      <trkpt lat="43.64724" lon="3.34449">
        <ele>115</ele>
        <time>2014-03-30T09:20:28Z</time>
      </trkpt>
      <trkpt lat="43.64725" lon="3.34437">
        <ele>115</ele>
        <time>2014-03-30T09:20:31Z</time>
      </trkpt>
      <trkpt lat="43.64726" lon="3.34417">
        <ele>115</ele>
        <time>2014-03-30T09:20:36Z</time>
      </trkpt>
      <trkpt lat="43.64727" lon="3.34405">
        <ele>116</ele>
        <time>2014-03-30T09:20:39Z</time>
      </trkpt>
      <trkpt lat="43.64727" lon="3.34398">
        <ele>116</ele>
        <time>2014-03-30T09:20:41Z</time>
      </trkpt>
      <trkpt lat="43.64727" lon="3.34386">
        <ele>116</ele>
        <time>2014-03-30T09:20:44Z</time>
      </trkpt>
      <trkpt lat="43.64727" lon="3.34375">
        <ele>116</ele>
        <time>2014-03-30T09:20:47Z</time>
      </trkpt>
      <trkpt lat="43.64727" lon="3.34363">
        <ele>117</ele>
        <time>2014-03-30T09:20:50Z</time>
      </trkpt>
      <trkpt lat="43.64726" lon="3.34356">
        <ele>117</ele>
        <time>2014-03-30T09:20:52Z</time>
      </trkpt>
      <trkpt lat="43.64726" lon="3.34345">
        <ele>117</ele>
        <time>2014-03-30T09:20:55Z</time>
      </trkpt>
      <trkpt lat="43.64726" lon="3.34338">
        <ele>118</ele>
        <time>2014-03-30T09:20:57Z</time>
      </trkpt>
      <trkpt lat="43.64725" lon="3.3432">
        <ele>118</ele>
        <time>2014-03-30T09:21:02Z</time>
      </trkpt>
      <trkpt lat="43.64723" lon="3.34309">
        <ele>118</ele>
        <time>2014-03-30T09:21:05Z</time>
      </trkpt>
      <trkpt lat="43.64721" lon="3.34292">
        <ele>119</ele>
        <time>2014-03-30T09:21:10Z</time>
      </trkpt>
      <trkpt lat="43.64719" lon="3.34278">
        <ele>119</ele>
        <time>2014-03-30T09:21:14Z</time>
      </trkpt>
      <trkpt lat="43.64717" lon="3.34258">
        <ele>119</ele>
        <time>2014-03-30T09:21:20Z</time>
      </trkpt>
      <trkpt lat="43.64716" lon="3.34251">
        <ele>120</ele>
        <time>2014-03-30T09:21:22Z</time>
      </trkpt>
      <trkpt lat="43.64716" lon="3.34241">
        <ele>120</ele>
        <time>2014-03-30T09:21:25Z</time>
      </trkpt>
      <trkpt lat="43.64716" lon="3.34222">
        <ele>120</ele>
        <time>2014-03-30T09:21:31Z</time>
      </trkpt>
      <trkpt lat="43.64716" lon="3.34201">
        <ele>121</ele>
        <time>2014-03-30T09:21:38Z</time>
      </trkpt>
      <trkpt lat="43.64717" lon="3.34191">
        <ele>121</ele>
        <time>2014-03-30T09:21:42Z</time>
      </trkpt>
      <trkpt lat="43.64717" lon="3.34169">
        <ele>121</ele>
        <time>2014-03-30T09:21:49Z</time>
      </trkpt>
      <trkpt lat="43.64717" lon="3.34163">
        <ele>122</ele>
        <time>2014-03-30T09:21:51Z</time>
      </trkpt>
      <trkpt lat="43.64717" lon="3.34151">
        <ele>122</ele>
        <time>2014-03-30T09:21:55Z</time>
      </trkpt>
      <trkpt lat="43.64718" lon="3.34144">
        <ele>122</ele>
        <time>2014-03-30T09:21:57Z</time>
      </trkpt>
      <trkpt lat="43.64719" lon="3.34135">
        <ele>122</ele>
        <time>2014-03-30T09:22:00Z</time>
      </trkpt>
      <trkpt lat="43.6472" lon="3.34126">
        <ele>122</ele>
        <time>2014-03-30T09:22:03Z</time>
      </trkpt>
      <trkpt lat="43.6472" lon="3.34118">
        <ele>123</ele>
        <time>2014-03-30T09:22:06Z</time>
      </trkpt>
      <trkpt lat="43.64721" lon="3.3411">
        <ele>123</ele>
        <time>2014-03-30T09:22:09Z</time>
      </trkpt>
      <trkpt lat="43.64722" lon="3.34104">
        <ele>123</ele>
        <time>2014-03-30T09:22:11Z</time>
      </trkpt>
      <trkpt lat="43.64722" lon="3.34098">
        <ele>124</ele>
        <time>2014-03-30T09:22:13Z</time>
      </trkpt>
      <trkpt lat="43.64723" lon="3.34087">
        <ele>124</ele>
        <time>2014-03-30T09:22:17Z</time>
      </trkpt>
      <trkpt lat="43.64724" lon="3.3408">
        <ele>124</ele>
        <time>2014-03-30T09:22:19Z</time>
      </trkpt>
      <trkpt lat="43.64725" lon="3.34073">
        <ele>125</ele>
        <time>2014-03-30T09:22:21Z</time>
      </trkpt>
      <trkpt lat="43.64726" lon="3.34062">
        <ele>125</ele>
        <time>2014-03-30T09:22:24Z</time>
      </trkpt>
      <trkpt lat="43.64727" lon="3.34054">
        <ele>125</ele>
        <time>2014-03-30T09:22:26Z</time>
      </trkpt>
      <trkpt lat="43.64728" lon="3.34046">
        <ele>125</ele>
        <time>2014-03-30T09:22:28Z</time>
      </trkpt>
      <trkpt lat="43.6473" lon="3.34036">
        <ele>125</ele>
        <time>2014-03-30T09:22:31Z</time>
      </trkpt>
      <trkpt lat="43.64731" lon="3.34028">
        <ele>125</ele>
        <time>2014-03-30T09:22:33Z</time>
      </trkpt>
      <trkpt lat="43.64733" lon="3.34022">
        <ele>126</ele>
        <time>2014-03-30T09:22:35Z</time>
      </trkpt>
      <trkpt lat="43.64734" lon="3.34016">
        <ele>126</ele>
        <time>2014-03-30T09:22:37Z</time>
      </trkpt>
      <trkpt lat="43.64737" lon="3.34004">
        <ele>126</ele>
        <time>2014-03-30T09:22:41Z</time>
      </trkpt>
      <trkpt lat="43.6474" lon="3.33993">
        <ele>126</ele>
        <time>2014-03-30T09:22:46Z</time>
      </trkpt>
      <trkpt lat="43.64745" lon="3.33975">
        <ele>126</ele>
        <time>2014-03-30T09:22:54Z</time>
      </trkpt>
      <trkpt lat="43.64747" lon="3.33967">
        <ele>126</ele>
        <time>2014-03-30T09:22:57Z</time>
      </trkpt>
      <trkpt lat="43.64748" lon="3.33955">
        <ele>126</ele>
        <time>2014-03-30T09:23:01Z</time>
      </trkpt>
      <trkpt lat="43.64752" lon="3.33944">
        <ele>126</ele>
        <time>2014-03-30T09:23:06Z</time>
      </trkpt>
      <trkpt lat="43.64754" lon="3.33939">
        <ele>126</ele>
        <time>2014-03-30T09:23:08Z</time>
      </trkpt>
      <trkpt lat="43.64758" lon="3.33929">
        <ele>126</ele>
        <time>2014-03-30T09:23:19Z</time>
      </trkpt>
      <trkpt lat="43.6476" lon="3.33923">
        <ele>126</ele>
        <time>2014-03-30T09:23:23Z</time>
      </trkpt>
      <trkpt lat="43.64764" lon="3.3391">
        <ele>126</ele>
        <time>2014-03-30T09:23:27Z</time>
      </trkpt>
      <trkpt lat="43.64765" lon="3.33903">
        <ele>126</ele>
        <time>2014-03-30T09:23:29Z</time>
      </trkpt>
      <trkpt lat="43.64767" lon="3.33895">
        <ele>126</ele>
        <time>2014-03-30T09:23:31Z</time>
      </trkpt>
      <trkpt lat="43.6477" lon="3.33886">
        <ele>126</ele>
        <time>2014-03-30T09:23:33Z</time>
      </trkpt>
      <trkpt lat="43.64772" lon="3.33877">
        <ele>126</ele>
        <time>2014-03-30T09:23:35Z</time>
      </trkpt>
      <trkpt lat="43.64775" lon="3.33868">
        <ele>126</ele>
        <time>2014-03-30T09:23:37Z</time>
      </trkpt>
      <trkpt lat="43.64778" lon="3.33858">
        <ele>126</ele>
        <time>2014-03-30T09:23:39Z</time>
      </trkpt>
      <trkpt lat="43.6478" lon="3.33849">
        <ele>126</ele>
        <time>2014-03-30T09:23:41Z</time>
      </trkpt>
      <trkpt lat="43.64782" lon="3.33839">
        <ele>126</ele>
        <time>2014-03-30T09:23:43Z</time>
      </trkpt>
      <trkpt lat="43.64786" lon="3.33824">
        <ele>126</ele>
        <time>2014-03-30T09:23:46Z</time>
      </trkpt>
      <trkpt lat="43.64789" lon="3.33809">
        <ele>126</ele>
        <time>2014-03-30T09:23:49Z</time>
      </trkpt>
      <trkpt lat="43.64791" lon="3.33799">
        <ele>126</ele>
        <time>2014-03-30T09:23:51Z</time>
      </trkpt>
      <trkpt lat="43.64794" lon="3.33784">
        <ele>126</ele>
        <time>2014-03-30T09:23:54Z</time>
      </trkpt>
      <trkpt lat="43.64796" lon="3.33776">
        <ele>126</ele>
        <time>2014-03-30T09:23:56Z</time>
      </trkpt>
      <trkpt lat="43.64798" lon="3.33769">
        <ele>126</ele>
        <time>2014-03-30T09:23:58Z</time>
      </trkpt>
      <trkpt lat="43.64801" lon="3.33761">
        <ele>126</ele>
        <time>2014-03-30T09:24:00Z</time>
      </trkpt>
      <trkpt lat="43.64803" lon="3.33752">
        <ele>126</ele>
        <time>2014-03-30T09:24:02Z</time>
      </trkpt>
      <trkpt lat="43.64805" lon="3.33742">
        <ele>126</ele>
        <time>2014-03-30T09:24:04Z</time>
      </trkpt>
      <trkpt lat="43.64808" lon="3.33732">
        <ele>126</ele>
        <time>2014-03-30T09:24:06Z</time>
      </trkpt>
      <trkpt lat="43.6481" lon="3.33721">
        <ele>126</ele>
        <time>2014-03-30T09:24:08Z</time>
      </trkpt>
      <trkpt lat="43.64812" lon="3.33709">
        <ele>126</ele>
        <time>2014-03-30T09:24:10Z</time>
      </trkpt>
      <trkpt lat="43.64814" lon="3.33696">
        <ele>126</ele>
        <time>2014-03-30T09:24:12Z</time>
      </trkpt>
      <trkpt lat="43.64815" lon="3.33682">
        <ele>126</ele>
        <time>2014-03-30T09:24:14Z</time>
      </trkpt>
      <trkpt lat="43.64816" lon="3.33669">
        <ele>125</ele>
        <time>2014-03-30T09:24:16Z</time>
      </trkpt>
      <trkpt lat="43.64818" lon="3.33657">
        <ele>125</ele>
        <time>2014-03-30T09:24:18Z</time>
      </trkpt>
      <trkpt lat="43.64819" lon="3.33645">
        <ele>125</ele>
        <time>2014-03-30T09:24:20Z</time>
      </trkpt>
      <trkpt lat="43.64819" lon="3.33639">
        <ele>125</ele>
        <time>2014-03-30T09:24:21Z</time>
      </trkpt>
      <trkpt lat="43.64819" lon="3.33633">
        <ele>125</ele>
        <time>2014-03-30T09:24:22Z</time>
      </trkpt>
      <trkpt lat="43.64821" lon="3.33615">
        <ele>125</ele>
        <time>2014-03-30T09:24:25Z</time>
      </trkpt>
      <trkpt lat="43.64823" lon="3.33603">
        <ele>125</ele>
        <time>2014-03-30T09:24:27Z</time>
      </trkpt>
      <trkpt lat="43.64824" lon="3.33583">
        <ele>125</ele>
        <time>2014-03-30T09:24:30Z</time>
      </trkpt>
      <trkpt lat="43.64824" lon="3.33576">
        <ele>125</ele>
        <time>2014-03-30T09:24:31Z</time>
      </trkpt>
      <trkpt lat="43.64825" lon="3.33569">
        <ele>125</ele>
        <time>2014-03-30T09:24:32Z</time>
      </trkpt>
      <trkpt lat="43.64825" lon="3.33555">
        <ele>125</ele>
        <time>2014-03-30T09:24:34Z</time>
      </trkpt>
      <trkpt lat="43.64826" lon="3.33535">
        <ele>125</ele>
        <time>2014-03-30T09:24:37Z</time>
      </trkpt>
      <trkpt lat="43.64826" lon="3.33528">
        <ele>125</ele>
        <time>2014-03-30T09:24:38Z</time>
      </trkpt>
      <trkpt lat="43.64826" lon="3.33521">
        <ele>125</ele>
        <time>2014-03-30T09:24:39Z</time>
      </trkpt>
      <trkpt lat="43.64826" lon="3.33514">
        <ele>125</ele>
        <time>2014-03-30T09:24:40Z</time>
      </trkpt>
      <trkpt lat="43.64826" lon="3.33507">
        <ele>125</ele>
        <time>2014-03-30T09:24:41Z</time>
      </trkpt>
      <trkpt lat="43.64826" lon="3.335">
        <ele>125</ele>
        <time>2014-03-30T09:24:42Z</time>
      </trkpt>
      <trkpt lat="43.64827" lon="3.33486">
        <ele>125</ele>
        <time>2014-03-30T09:24:44Z</time>
      </trkpt>
      <trkpt lat="43.64827" lon="3.33472">
        <ele>125</ele>
        <time>2014-03-30T09:24:46Z</time>
      </trkpt>
      <trkpt lat="43.64827" lon="3.33458">
        <ele>125</ele>
        <time>2014-03-30T09:24:48Z</time>
      </trkpt>
      <trkpt lat="43.64827" lon="3.33445">
        <ele>125</ele>
        <time>2014-03-30T09:24:50Z</time>
      </trkpt>
      <trkpt lat="43.64828" lon="3.33431">
        <ele>125</ele>
        <time>2014-03-30T09:24:52Z</time>
      </trkpt>
      <trkpt lat="43.64829" lon="3.33419">
        <ele>125</ele>
        <time>2014-03-30T09:24:54Z</time>
      </trkpt>
      <trkpt lat="43.64829" lon="3.33407">
        <ele>125</ele>
        <time>2014-03-30T09:24:56Z</time>
      </trkpt>
      <trkpt lat="43.64829" lon="3.33401">
        <ele>125</ele>
        <time>2014-03-30T09:24:57Z</time>
      </trkpt>
      <trkpt lat="43.64829" lon="3.33396">
        <ele>125</ele>
        <time>2014-03-30T09:24:58Z</time>
      </trkpt>
      <trkpt lat="43.64832" lon="3.33377">
        <ele>125</ele>
        <time>2014-03-30T09:25:02Z</time>
      </trkpt>
      <trkpt lat="43.64836" lon="3.33377">
        <ele>124</ele>
        <time>2014-03-30T09:27:24Z</time>
      </trkpt>
      <trkpt lat="43.64835" lon="3.33364">
        <ele>123</ele>
        <time>2014-03-30T09:27:28Z</time>
      </trkpt>
      <trkpt lat="43.64834" lon="3.33352">
        <ele>123</ele>
        <time>2014-03-30T09:27:31Z</time>
      </trkpt>
      <trkpt lat="43.64835" lon="3.33342">
        <ele>122</ele>
        <time>2014-03-30T09:27:33Z</time>
      </trkpt>
      <trkpt lat="43.64836" lon="3.33328">
        <ele>121</ele>
        <time>2014-03-30T09:27:36Z</time>
      </trkpt>
      <trkpt lat="43.64836" lon="3.33313">
        <ele>120</ele>
        <time>2014-03-30T09:27:39Z</time>
      </trkpt>
      <trkpt lat="43.64835" lon="3.33304">
        <ele>120</ele>
        <time>2014-03-30T09:27:41Z</time>
      </trkpt>
      <trkpt lat="43.64835" lon="3.33295">
        <ele>119</ele>
        <time>2014-03-30T09:27:43Z</time>
      </trkpt>
      <trkpt lat="43.64835" lon="3.33289">
        <ele>118</ele>
        <time>2014-03-30T09:27:45Z</time>
      </trkpt>
      <trkpt lat="43.64834" lon="3.33277">
        <ele>117</ele>
        <time>2014-03-30T09:27:51Z</time>
      </trkpt>
      <trkpt lat="43.64833" lon="3.33263">
        <ele>116</ele>
        <time>2014-03-30T09:27:57Z</time>
      </trkpt>
      <trkpt lat="43.64832" lon="3.33257">
        <ele>116</ele>
        <time>2014-03-30T09:27:59Z</time>
      </trkpt>
      <trkpt lat="43.6483" lon="3.33248">
        <ele>116</ele>
        <time>2014-03-30T09:28:02Z</time>
      </trkpt>
      <trkpt lat="43.64831" lon="3.33236">
        <ele>115</ele>
        <time>2014-03-30T09:28:06Z</time>
      </trkpt>
      <trkpt lat="43.64832" lon="3.3323">
        <ele>115</ele>
        <time>2014-03-30T09:28:08Z</time>
      </trkpt>
      <trkpt lat="43.64837" lon="3.33212">
        <ele>114</ele>
        <time>2014-03-30T09:28:13Z</time>
      </trkpt>
      <trkpt lat="43.64841" lon="3.33199">
        <ele>114</ele>
        <time>2014-03-30T09:28:16Z</time>
      </trkpt>
      <trkpt lat="43.64842" lon="3.33189">
        <ele>114</ele>
        <time>2014-03-30T09:28:18Z</time>
      </trkpt>
      <trkpt lat="43.64843" lon="3.33179">
        <ele>114</ele>
        <time>2014-03-30T09:28:20Z</time>
      </trkpt>
      <trkpt lat="43.64842" lon="3.33165">
        <ele>114</ele>
        <time>2014-03-30T09:28:23Z</time>
      </trkpt>
      <trkpt lat="43.64837" lon="3.33153">
        <ele>114</ele>
        <time>2014-03-30T09:28:26Z</time>
      </trkpt>
      <trkpt lat="43.64832" lon="3.33145">
        <ele>113</ele>
        <time>2014-03-30T09:28:28Z</time>
      </trkpt>
      <trkpt lat="43.64826" lon="3.33132">
        <ele>113</ele>
        <time>2014-03-30T09:28:31Z</time>
      </trkpt>
      <trkpt lat="43.6482" lon="3.33124">
        <ele>113</ele>
        <time>2014-03-30T09:28:33Z</time>
      </trkpt>
      <trkpt lat="43.64815" lon="3.33117">
        <ele>113</ele>
        <time>2014-03-30T09:28:35Z</time>
      </trkpt>
      <trkpt lat="43.64809" lon="3.3311">
        <ele>113</ele>
        <time>2014-03-30T09:28:37Z</time>
      </trkpt>
      <trkpt lat="43.64804" lon="3.33105">
        <ele>113</ele>
        <time>2014-03-30T09:28:39Z</time>
      </trkpt>
      <trkpt lat="43.64799" lon="3.331">
        <ele>113</ele>
        <time>2014-03-30T09:28:41Z</time>
      </trkpt>
      <trkpt lat="43.64792" lon="3.33094">
        <ele>113</ele>
        <time>2014-03-30T09:28:44Z</time>
      </trkpt>
      <trkpt lat="43.64779" lon="3.33087">
        <ele>113</ele>
        <time>2014-03-30T09:28:52Z</time>
      </trkpt>
      <trkpt lat="43.64776" lon="3.33075">
        <ele>113</ele>
        <time>2014-03-30T09:28:57Z</time>
      </trkpt>
      <trkpt lat="43.64773" lon="3.33064">
        <ele>113</ele>
        <time>2014-03-30T09:29:01Z</time>
      </trkpt>
      <trkpt lat="43.64766" lon="3.33055">
        <ele>113</ele>
        <time>2014-03-30T09:29:05Z</time>
      </trkpt>
      <trkpt lat="43.6476" lon="3.33048">
        <ele>113</ele>
        <time>2014-03-30T09:29:09Z</time>
      </trkpt>
      <trkpt lat="43.64757" lon="3.33044">
        <ele>113</ele>
        <time>2014-03-30T09:29:11Z</time>
      </trkpt>
      <trkpt lat="43.64753" lon="3.33038">
        <ele>113</ele>
        <time>2014-03-30T09:29:14Z</time>
      </trkpt>
      <trkpt lat="43.64744" lon="3.33027">
        <ele>113</ele>
        <time>2014-03-30T09:29:22Z</time>
      </trkpt>
      <trkpt lat="43.64739" lon="3.3302">
        <ele>113</ele>
        <time>2014-03-30T09:29:25Z</time>
      </trkpt>
      <trkpt lat="43.64735" lon="3.33012">
        <ele>113</ele>
        <time>2014-03-30T09:29:27Z</time>
      </trkpt>
      <trkpt lat="43.64728" lon="3.33002">
        <ele>113</ele>
        <time>2014-03-30T09:29:30Z</time>
      </trkpt>
      <trkpt lat="43.64719" lon="3.32993">
        <ele>113</ele>
        <time>2014-03-30T09:29:33Z</time>
      </trkpt>
      <trkpt lat="43.64709" lon="3.32986">
        <ele>113</ele>
        <time>2014-03-30T09:29:36Z</time>
      </trkpt>
      <trkpt lat="43.64698" lon="3.32983">
        <ele>113</ele>
        <time>2014-03-30T09:29:39Z</time>
      </trkpt>
      <trkpt lat="43.6469" lon="3.32983">
        <ele>113</ele>
        <time>2014-03-30T09:29:41Z</time>
      </trkpt>
      <trkpt lat="43.64683" lon="3.32986">
        <ele>113</ele>
        <time>2014-03-30T09:29:43Z</time>
      </trkpt>
      <trkpt lat="43.64673" lon="3.32993">
        <ele>113</ele>
        <time>2014-03-30T09:29:46Z</time>
      </trkpt>
      <trkpt lat="43.64665" lon="3.32998">
        <ele>112</ele>
        <time>2014-03-30T09:29:49Z</time>
      </trkpt>
      <trkpt lat="43.64659" lon="3.33001">
        <ele>112</ele>
        <time>2014-03-30T09:29:51Z</time>
      </trkpt>
      <trkpt lat="43.64651" lon="3.33006">
        <ele>112</ele>
        <time>2014-03-30T09:29:54Z</time>
      </trkpt>
      <trkpt lat="43.64642" lon="3.3301">
        <ele>112</ele>
        <time>2014-03-30T09:29:57Z</time>
      </trkpt>
      <trkpt lat="43.64627" lon="3.3301">
        <ele>111</ele>
        <time>2014-03-30T09:30:02Z</time>
      </trkpt>
      <trkpt lat="43.64619" lon="3.33015">
        <ele>111</ele>
        <time>2014-03-30T09:30:06Z</time>
      </trkpt>
      <trkpt lat="43.64609" lon="3.3301">
        <ele>111</ele>
        <time>2014-03-30T09:30:15Z</time>
      </trkpt>
      <trkpt lat="43.64602" lon="3.33002">
        <ele>110</ele>
        <time>2014-03-30T09:30:19Z</time>
      </trkpt>
      <trkpt lat="43.64595" lon="3.32995">
        <ele>110</ele>
        <time>2014-03-30T09:30:22Z</time>
      </trkpt>
      <trkpt lat="43.64587" lon="3.32986">
        <ele>110</ele>
        <time>2014-03-30T09:30:25Z</time>
      </trkpt>
      <trkpt lat="43.64578" lon="3.32978">
        <ele>110</ele>
        <time>2014-03-30T09:30:29Z</time>
      </trkpt>
      <trkpt lat="43.64572" lon="3.32973">
        <ele>110</ele>
        <time>2014-03-30T09:30:32Z</time>
      </trkpt>
      <trkpt lat="43.64564" lon="3.32961">
        <ele>110</ele>
        <time>2014-03-30T09:30:39Z</time>
      </trkpt>
      <trkpt lat="43.64556" lon="3.32944">
        <ele>110</ele>
        <time>2014-03-30T09:30:45Z</time>
      </trkpt>
      <trkpt lat="43.6455" lon="3.32931">
        <ele>111</ele>
        <time>2014-03-30T09:30:56Z</time>
      </trkpt>
      <trkpt lat="43.6454" lon="3.32917">
        <ele>111</ele>
        <time>2014-03-30T09:31:04Z</time>
      </trkpt>
      <trkpt lat="43.64536" lon="3.32913">
        <ele>111</ele>
        <time>2014-03-30T09:31:06Z</time>
      </trkpt>
      <trkpt lat="43.64527" lon="3.32904">
        <ele>111</ele>
        <time>2014-03-30T09:31:09Z</time>
      </trkpt>
      <trkpt lat="43.6452" lon="3.32896">
        <ele>111</ele>
        <time>2014-03-30T09:31:12Z</time>
      </trkpt>
      <trkpt lat="43.64513" lon="3.32891">
        <ele>111</ele>
        <time>2014-03-30T09:31:21Z</time>
      </trkpt>
      <trkpt lat="43.64505" lon="3.3288">
        <ele>109</ele>
        <time>2014-03-30T09:33:23Z</time>
      </trkpt>
      <trkpt lat="43.64491" lon="3.32856">
        <ele>108</ele>
        <time>2014-03-30T09:33:31Z</time>
      </trkpt>
      <trkpt lat="43.64475" lon="3.32835">
        <ele>107</ele>
        <time>2014-03-30T09:33:42Z</time>
      </trkpt>
      <trkpt lat="43.64461" lon="3.32814">
        <ele>107</ele>
        <time>2014-03-30T09:33:58Z</time>
      </trkpt>
      <trkpt lat="43.64444" lon="3.32794">
        <ele>105</ele>
        <time>2014-03-30T09:34:12Z</time>
      </trkpt>
      <trkpt lat="43.64428" lon="3.32793">
        <ele>105</ele>
        <time>2014-03-30T09:34:19Z</time>
      </trkpt>
      <trkpt lat="43.64412" lon="3.32793">
        <ele>105</ele>
        <time>2014-03-30T09:34:29Z</time>
      </trkpt>
      <trkpt lat="43.64394" lon="3.32779">
        <ele>105</ele>
        <time>2014-03-30T09:34:42Z</time>
      </trkpt>
      <trkpt lat="43.64377" lon="3.3277">
        <ele>105</ele>
        <time>2014-03-30T09:34:50Z</time>
      </trkpt>
      <trkpt lat="43.64354" lon="3.32762">
        <ele>105</ele>
        <time>2014-03-30T09:34:58Z</time>
      </trkpt>
      <trkpt lat="43.64338" lon="3.32761">
        <ele>106</ele>
        <time>2014-03-30T09:35:03Z</time>
      </trkpt>
      <trkpt lat="43.64331" lon="3.32766">
        <ele>107</ele>
        <time>2014-03-30T09:35:06Z</time>
      </trkpt>
      <trkpt lat="43.6432" lon="3.32775">
        <ele>108</ele>
        <time>2014-03-30T09:35:11Z</time>
      </trkpt>
      <trkpt lat="43.64304" lon="3.32777">
        <ele>109</ele>
        <time>2014-03-30T09:35:20Z</time>
      </trkpt>
      <trkpt lat="43.64296" lon="3.32754">
        <ele>109</ele>
        <time>2014-03-30T09:35:35Z</time>
      </trkpt>
      <trkpt lat="43.64277" lon="3.3274">
        <ele>108</ele>
        <time>2014-03-30T09:35:49Z</time>
      </trkpt>
      <trkpt lat="43.64269" lon="3.32737">
        <ele>108</ele>
        <time>2014-03-30T09:35:52Z</time>
      </trkpt>
      <trkpt lat="43.64264" lon="3.32735">
        <ele>107</ele>
        <time>2014-03-30T09:35:54Z</time>
      </trkpt>
      <trkpt lat="43.64255" lon="3.32732">
        <ele>107</ele>
        <time>2014-03-30T09:35:58Z</time>
      </trkpt>
      <trkpt lat="43.64236" lon="3.32721">
        <ele>106</ele>
        <time>2014-03-30T09:36:28Z</time>
      </trkpt>
      <trkpt lat="43.64216" lon="3.3272">
        <ele>105</ele>
        <time>2014-03-30T09:36:48Z</time>
      </trkpt>
      <trkpt lat="43.642" lon="3.32714">
        <ele>106</ele>
        <time>2014-03-30T09:37:05Z</time>
      </trkpt>
      <trkpt lat="43.642" lon="3.32686">
        <ele>106</ele>
        <time>2014-03-30T09:37:41Z</time>
      </trkpt>
      <trkpt lat="43.64197" lon="3.3268">
        <ele>108</ele>
        <time>2014-03-30T09:38:44Z</time>
      </trkpt>
      <trkpt lat="43.64184" lon="3.32686">
        <ele>108</ele>
        <time>2014-03-30T09:40:28Z</time>
      </trkpt>
      <trkpt lat="43.64168" lon="3.32673">
        <ele>107</ele>
        <time>2014-03-30T09:40:45Z</time>
      </trkpt>
      <trkpt lat="43.64156" lon="3.32656">
        <ele>107</ele>
        <time>2014-03-30T09:40:51Z</time>
      </trkpt>
      <trkpt lat="43.64143" lon="3.3264">
        <ele>107</ele>
        <time>2014-03-30T09:40:58Z</time>
      </trkpt>
      <trkpt lat="43.64132" lon="3.3262">
        <ele>107</ele>
        <time>2014-03-30T09:41:05Z</time>
      </trkpt>
      <trkpt lat="43.64124" lon="3.32604">
        <ele>107</ele>
        <time>2014-03-30T09:41:10Z</time>
      </trkpt>
      <trkpt lat="43.6412" lon="3.32595">
        <ele>107</ele>
        <time>2014-03-30T09:41:13Z</time>
      </trkpt>
      <trkpt lat="43.64115" lon="3.32586">
        <ele>107</ele>
        <time>2014-03-30T09:41:16Z</time>
      </trkpt>
      <trkpt lat="43.6411" lon="3.32577">
        <ele>107</ele>
        <time>2014-03-30T09:41:19Z</time>
      </trkpt>
      <trkpt lat="43.64105" lon="3.32568">
        <ele>107</ele>
        <time>2014-03-30T09:41:22Z</time>
      </trkpt>
      <trkpt lat="43.641" lon="3.32558">
        <ele>107</ele>
        <time>2014-03-30T09:41:25Z</time>
      </trkpt>
      <trkpt lat="43.64095" lon="3.32549">
        <ele>107</ele>
        <time>2014-03-30T09:41:28Z</time>
      </trkpt>
      <trkpt lat="43.64091" lon="3.3254">
        <ele>107</ele>
        <time>2014-03-30T09:41:31Z</time>
      </trkpt>
      <trkpt lat="43.64087" lon="3.3253">
        <ele>107</ele>
        <time>2014-03-30T09:41:34Z</time>
      </trkpt>
      <trkpt lat="43.64073" lon="3.32498">
        <ele>107</ele>
        <time>2014-03-30T09:41:43Z</time>
      </trkpt>
      <trkpt lat="43.64068" lon="3.32486">
        <ele>107</ele>
        <time>2014-03-30T09:41:46Z</time>
      </trkpt>
      <trkpt lat="43.64062" lon="3.32475">
        <ele>107</ele>
        <time>2014-03-30T09:41:49Z</time>
      </trkpt>
      <trkpt lat="43.64057" lon="3.32467">
        <ele>108</ele>
        <time>2014-03-30T09:41:52Z</time>
      </trkpt>
      <trkpt lat="43.64051" lon="3.32459">
        <ele>108</ele>
        <time>2014-03-30T09:41:55Z</time>
      </trkpt>
      <trkpt lat="43.64043" lon="3.32453">
        <ele>108</ele>
        <time>2014-03-30T09:41:58Z</time>
      </trkpt>
      <trkpt lat="43.64034" lon="3.32451">
        <ele>108</ele>
        <time>2014-03-30T09:42:01Z</time>
      </trkpt>
      <trkpt lat="43.64024" lon="3.32452">
        <ele>108</ele>
        <time>2014-03-30T09:42:04Z</time>
      </trkpt>
      <trkpt lat="43.64015" lon="3.32453">
        <ele>108</ele>
        <time>2014-03-30T09:42:07Z</time>
      </trkpt>
      <trkpt lat="43.64005" lon="3.32454">
        <ele>108</ele>
        <time>2014-03-30T09:42:10Z</time>
      </trkpt>
      <trkpt lat="43.63999" lon="3.32454">
        <ele>108</ele>
        <time>2014-03-30T09:42:12Z</time>
      </trkpt>
      <trkpt lat="43.63992" lon="3.32453">
        <ele>108</ele>
        <time>2014-03-30T09:42:14Z</time>
      </trkpt>
      <trkpt lat="43.63986" lon="3.32454">
        <ele>108</ele>
        <time>2014-03-30T09:42:16Z</time>
      </trkpt>
      <trkpt lat="43.63982" lon="3.32444">
        <ele>107</ele>
        <time>2014-03-30T09:43:33Z</time>
      </trkpt>
      <trkpt lat="43.64019" lon="3.32433">
        <ele>105</ele>
        <time>2014-03-30T09:44:54Z</time>
      </trkpt>
      <trkpt lat="43.64032" lon="3.32427">
        <ele>105</ele>
        <time>2014-03-30T09:44:57Z</time>
      </trkpt>
      <trkpt lat="43.64051" lon="3.32423">
        <ele>105</ele>
        <time>2014-03-30T09:45:01Z</time>
      </trkpt>
      <trkpt lat="43.64064" lon="3.32424">
        <ele>105</ele>
        <time>2014-03-30T09:45:04Z</time>
      </trkpt>
      <trkpt lat="43.64072" lon="3.32426">
        <ele>105</ele>
        <time>2014-03-30T09:45:06Z</time>
      </trkpt>
      <trkpt lat="43.64098" lon="3.32433">
        <ele>104</ele>
        <time>2014-03-30T09:45:18Z</time>
      </trkpt>
      <trkpt lat="43.64114" lon="3.32435">
        <ele>104</ele>
        <time>2014-03-30T09:45:25Z</time>
      </trkpt>
      <trkpt lat="43.64131" lon="3.32439">
        <ele>104</ele>
        <time>2014-03-30T09:45:30Z</time>
      </trkpt>
      <trkpt lat="43.64143" lon="3.32443">
        <ele>104</ele>
        <time>2014-03-30T09:45:33Z</time>
      </trkpt>
      <trkpt lat="43.6415" lon="3.32446">
        <ele>104</ele>
        <time>2014-03-30T09:45:35Z</time>
      </trkpt>
      <trkpt lat="43.64158" lon="3.3245">
        <ele>104</ele>
        <time>2014-03-30T09:45:37Z</time>
      </trkpt>
      <trkpt lat="43.64165" lon="3.32454">
        <ele>104</ele>
        <time>2014-03-30T09:45:39Z</time>
      </trkpt>
      <trkpt lat="43.64172" lon="3.32459">
        <ele>104</ele>
        <time>2014-03-30T09:45:41Z</time>
      </trkpt>
      <trkpt lat="43.64179" lon="3.32463">
        <ele>104</ele>
        <time>2014-03-30T09:45:43Z</time>
      </trkpt>
      <trkpt lat="43.64189" lon="3.3247">
        <ele>104</ele>
        <time>2014-03-30T09:45:46Z</time>
      </trkpt>
      <trkpt lat="43.64198" lon="3.32477">
        <ele>104</ele>
        <time>2014-03-30T09:45:49Z</time>
      </trkpt>
      <trkpt lat="43.64206" lon="3.32484">
        <ele>104</ele>
        <time>2014-03-30T09:45:52Z</time>
      </trkpt>
      <trkpt lat="43.64214" lon="3.32489">
        <ele>104</ele>
        <time>2014-03-30T09:45:55Z</time>
      </trkpt>
      <trkpt lat="43.64222" lon="3.32492">
        <ele>104</ele>
        <time>2014-03-30T09:45:58Z</time>
      </trkpt>
      <trkpt lat="43.6423" lon="3.32496">
        <ele>104</ele>
        <time>2014-03-30T09:46:01Z</time>
      </trkpt>
      <trkpt lat="43.64237" lon="3.32499">
        <ele>105</ele>
        <time>2014-03-30T09:46:03Z</time>
      </trkpt>
      <trkpt lat="43.64245" lon="3.32504">
        <ele>105</ele>
        <time>2014-03-30T09:46:05Z</time>
      </trkpt>
      <trkpt lat="43.64252" lon="3.32508">
        <ele>105</ele>
        <time>2014-03-30T09:46:07Z</time>
      </trkpt>
      <trkpt lat="43.6426" lon="3.32512">
        <ele>105</ele>
        <time>2014-03-30T09:46:09Z</time>
      </trkpt>
      <trkpt lat="43.64268" lon="3.32515">
        <ele>105</ele>
        <time>2014-03-30T09:46:11Z</time>
      </trkpt>
      <trkpt lat="43.64275" lon="3.32519">
        <ele>105</ele>
        <time>2014-03-30T09:46:13Z</time>
      </trkpt>
      <trkpt lat="43.64283" lon="3.32522">
        <ele>105</ele>
        <time>2014-03-30T09:46:15Z</time>
      </trkpt>
      <trkpt lat="43.6429" lon="3.32526">
        <ele>105</ele>
        <time>2014-03-30T09:46:17Z</time>
      </trkpt>
      <trkpt lat="43.64298" lon="3.32529">
        <ele>105</ele>
        <time>2014-03-30T09:46:19Z</time>
      </trkpt>
      <trkpt lat="43.64305" lon="3.32533">
        <ele>105</ele>
        <time>2014-03-30T09:46:21Z</time>
      </trkpt>
      <trkpt lat="43.64313" lon="3.32537">
        <ele>105</ele>
        <time>2014-03-30T09:46:23Z</time>
      </trkpt>
      <trkpt lat="43.64321" lon="3.32539">
        <ele>105</ele>
        <time>2014-03-30T09:46:25Z</time>
      </trkpt>
      <trkpt lat="43.64333" lon="3.32541">
        <ele>105</ele>
        <time>2014-03-30T09:46:28Z</time>
      </trkpt>
      <trkpt lat="43.64345" lon="3.32542">
        <ele>105</ele>
        <time>2014-03-30T09:46:31Z</time>
      </trkpt>
      <trkpt lat="43.64354" lon="3.32542">
        <ele>105</ele>
        <time>2014-03-30T09:46:33Z</time>
      </trkpt>
      <trkpt lat="43.64362" lon="3.32541">
        <ele>105</ele>
        <time>2014-03-30T09:46:35Z</time>
      </trkpt>
      <trkpt lat="43.64373" lon="3.32539">
        <ele>105</ele>
        <time>2014-03-30T09:46:38Z</time>
      </trkpt>
      <trkpt lat="43.64381" lon="3.32537">
        <ele>106</ele>
        <time>2014-03-30T09:46:41Z</time>
      </trkpt>
      <trkpt lat="43.64395" lon="3.32533">
        <ele>106</ele>
        <time>2014-03-30T09:46:46Z</time>
      </trkpt>
      <trkpt lat="43.64408" lon="3.32529">
        <ele>106</ele>
        <time>2014-03-30T09:46:51Z</time>
      </trkpt>
      <trkpt lat="43.64417" lon="3.32529">
        <ele>106</ele>
        <time>2014-03-30T09:46:55Z</time>
      </trkpt>
      <trkpt lat="43.64426" lon="3.32527">
        <ele>107</ele>
        <time>2014-03-30T09:47:26Z</time>
      </trkpt>
      <trkpt lat="43.64441" lon="3.32525">
        <ele>106</ele>
        <time>2014-03-30T09:47:32Z</time>
      </trkpt>
      <trkpt lat="43.64455" lon="3.32521">
        <ele>106</ele>
        <time>2014-03-30T09:47:37Z</time>
      </trkpt>
      <trkpt lat="43.64464" lon="3.32518">
        <ele>106</ele>
        <time>2014-03-30T09:47:40Z</time>
      </trkpt>
      <trkpt lat="43.64472" lon="3.32515">
        <ele>106</ele>
        <time>2014-03-30T09:47:43Z</time>
      </trkpt>
      <trkpt lat="43.64481" lon="3.32512">
        <ele>106</ele>
        <time>2014-03-30T09:47:46Z</time>
      </trkpt>
      <trkpt lat="43.6449" lon="3.32508">
        <ele>106</ele>
        <time>2014-03-30T09:47:49Z</time>
      </trkpt>
      <trkpt lat="43.64499" lon="3.32503">
        <ele>106</ele>
        <time>2014-03-30T09:47:52Z</time>
      </trkpt>
      <trkpt lat="43.64508" lon="3.32499">
        <ele>106</ele>
        <time>2014-03-30T09:47:55Z</time>
      </trkpt>
      <trkpt lat="43.64521" lon="3.32491">
        <ele>106</ele>
        <time>2014-03-30T09:48:00Z</time>
      </trkpt>
      <trkpt lat="43.64528" lon="3.32485">
        <ele>106</ele>
        <time>2014-03-30T09:48:03Z</time>
      </trkpt>
      <trkpt lat="43.64536" lon="3.3248">
        <ele>106</ele>
        <time>2014-03-30T09:48:06Z</time>
      </trkpt>
      <trkpt lat="43.64557" lon="3.32484">
        <ele>106</ele>
        <time>2014-03-30T09:48:15Z</time>
      </trkpt>
      <trkpt lat="43.64569" lon="3.32486">
        <ele>105</ele>
        <time>2014-03-30T09:48:19Z</time>
      </trkpt>
      <trkpt lat="43.64582" lon="3.32489">
        <ele>105</ele>
        <time>2014-03-30T09:48:23Z</time>
      </trkpt>
      <trkpt lat="43.6459" lon="3.3249">
        <ele>105</ele>
        <time>2014-03-30T09:48:25Z</time>
      </trkpt>
      <trkpt lat="43.64599" lon="3.32492">
        <ele>105</ele>
        <time>2014-03-30T09:48:27Z</time>
      </trkpt>
      <trkpt lat="43.64608" lon="3.32495">
        <ele>105</ele>
        <time>2014-03-30T09:48:29Z</time>
      </trkpt>
      <trkpt lat="43.64616" lon="3.32497">
        <ele>105</ele>
        <time>2014-03-30T09:48:31Z</time>
      </trkpt>
      <trkpt lat="43.64629" lon="3.325">
        <ele>105</ele>
        <time>2014-03-30T09:48:34Z</time>
      </trkpt>
      <trkpt lat="43.64633" lon="3.32501">
        <ele>105</ele>
        <time>2014-03-30T09:48:35Z</time>
      </trkpt>
      <trkpt lat="43.64641" lon="3.32502">
        <ele>105</ele>
        <time>2014-03-30T09:48:37Z</time>
      </trkpt>
      <trkpt lat="43.64652" lon="3.32502">
        <ele>105</ele>
        <time>2014-03-30T09:48:40Z</time>
      </trkpt>
      <trkpt lat="43.64663" lon="3.32501">
        <ele>105</ele>
        <time>2014-03-30T09:48:43Z</time>
      </trkpt>
      <trkpt lat="43.64674" lon="3.32501">
        <ele>105</ele>
        <time>2014-03-30T09:48:46Z</time>
      </trkpt>
      <trkpt lat="43.64685" lon="3.32501">
        <ele>105</ele>
        <time>2014-03-30T09:48:49Z</time>
      </trkpt>
      <trkpt lat="43.64692" lon="3.32502">
        <ele>105</ele>
        <time>2014-03-30T09:48:51Z</time>
      </trkpt>
      <trkpt lat="43.64701" lon="3.32502">
        <ele>105</ele>
        <time>2014-03-30T09:48:54Z</time>
      </trkpt>
      <trkpt lat="43.64711" lon="3.32501">
        <ele>105</ele>
        <time>2014-03-30T09:48:57Z</time>
      </trkpt>
      <trkpt lat="43.64719" lon="3.32499">
        <ele>105</ele>
        <time>2014-03-30T09:49:00Z</time>
      </trkpt>
      <trkpt lat="43.64728" lon="3.32496">
        <ele>105</ele>
        <time>2014-03-30T09:49:03Z</time>
      </trkpt>
      <trkpt lat="43.64736" lon="3.32492">
        <ele>105</ele>
        <time>2014-03-30T09:49:06Z</time>
      </trkpt>
      <trkpt lat="43.64741" lon="3.32488">
        <ele>105</ele>
        <time>2014-03-30T09:49:08Z</time>
      </trkpt>
      <trkpt lat="43.64748" lon="3.32482">
        <ele>105</ele>
        <time>2014-03-30T09:49:11Z</time>
      </trkpt>
      <trkpt lat="43.64753" lon="3.32473">
        <ele>106</ele>
        <time>2014-03-30T09:49:14Z</time>
      </trkpt>
      <trkpt lat="43.64758" lon="3.32465">
        <ele>106</ele>
        <time>2014-03-30T09:49:17Z</time>
      </trkpt>
      <trkpt lat="43.64761" lon="3.32459">
        <ele>106</ele>
        <time>2014-03-30T09:49:19Z</time>
      </trkpt>
      <trkpt lat="43.64762" lon="3.32453">
        <ele>107</ele>
        <time>2014-03-30T09:49:21Z</time>
      </trkpt>
      <trkpt lat="43.64764" lon="3.32447">
        <ele>107</ele>
        <time>2014-03-30T09:49:23Z</time>
      </trkpt>
      <trkpt lat="43.64765" lon="3.32441">
        <ele>107</ele>
        <time>2014-03-30T09:49:25Z</time>
      </trkpt>
      <trkpt lat="43.64769" lon="3.32422">
        <ele>107</ele>
        <time>2014-03-30T09:49:31Z</time>
      </trkpt>
      <trkpt lat="43.64771" lon="3.32416">
        <ele>107</ele>
        <time>2014-03-30T09:49:33Z</time>
      </trkpt>
      <trkpt lat="43.64779" lon="3.32399">
        <ele>107</ele>
        <time>2014-03-30T09:49:39Z</time>
      </trkpt>
      <trkpt lat="43.64786" lon="3.3239">
        <ele>106</ele>
        <time>2014-03-30T09:49:43Z</time>
      </trkpt>
      <trkpt lat="43.64794" lon="3.32385">
        <ele>106</ele>
        <time>2014-03-30T09:49:46Z</time>
      </trkpt>
      <trkpt lat="43.64803" lon="3.32386">
        <ele>106</ele>
        <time>2014-03-30T09:49:49Z</time>
      </trkpt>
      <trkpt lat="43.64817" lon="3.32393">
        <ele>106</ele>
        <time>2014-03-30T09:49:54Z</time>
      </trkpt>
      <trkpt lat="43.64822" lon="3.32397">
        <ele>106</ele>
        <time>2014-03-30T09:49:56Z</time>
      </trkpt>
      <trkpt lat="43.64836" lon="3.32407">
        <ele>106</ele>
        <time>2014-03-30T09:50:01Z</time>
      </trkpt>
      <trkpt lat="43.64844" lon="3.32413">
        <ele>107</ele>
        <time>2014-03-30T09:50:04Z</time>
      </trkpt>
      <trkpt lat="43.64855" lon="3.32419">
        <ele>107</ele>
        <time>2014-03-30T09:50:07Z</time>
      </trkpt>
      <trkpt lat="43.64862" lon="3.32424">
        <ele>107</ele>
        <time>2014-03-30T09:50:09Z</time>
      </trkpt>
      <trkpt lat="43.64866" lon="3.32427">
        <ele>107</ele>
        <time>2014-03-30T09:50:10Z</time>
      </trkpt>
      <trkpt lat="43.64873" lon="3.32433">
        <ele>107</ele>
        <time>2014-03-30T09:50:12Z</time>
      </trkpt>
      <trkpt lat="43.6488" lon="3.32439">
        <ele>107</ele>
        <time>2014-03-30T09:50:14Z</time>
      </trkpt>
      <trkpt lat="43.64887" lon="3.32445">
        <ele>107</ele>
        <time>2014-03-30T09:50:16Z</time>
      </trkpt>
      <trkpt lat="43.64894" lon="3.32451">
        <ele>107</ele>
        <time>2014-03-30T09:50:18Z</time>
      </trkpt>
      <trkpt lat="43.64903" lon="3.32459">
        <ele>107</ele>
        <time>2014-03-30T09:50:21Z</time>
      </trkpt>
      <trkpt lat="43.64912" lon="3.32467">
        <ele>107</ele>
        <time>2014-03-30T09:50:24Z</time>
      </trkpt>
      <trkpt lat="43.64922" lon="3.32474">
        <ele>106</ele>
        <time>2014-03-30T09:50:27Z</time>
      </trkpt>
      <trkpt lat="43.64931" lon="3.3248">
        <ele>106</ele>
        <time>2014-03-30T09:50:30Z</time>
      </trkpt>
      <trkpt lat="43.64942" lon="3.32484">
        <ele>106</ele>
        <time>2014-03-30T09:50:33Z</time>
      </trkpt>
      <trkpt lat="43.64952" lon="3.32487">
        <ele>106</ele>
        <time>2014-03-30T09:50:36Z</time>
      </trkpt>
      <trkpt lat="43.64963" lon="3.3249">
        <ele>106</ele>
        <time>2014-03-30T09:50:39Z</time>
      </trkpt>
      <trkpt lat="43.64973" lon="3.32494">
        <ele>105</ele>
        <time>2014-03-30T09:50:42Z</time>
      </trkpt>
      <trkpt lat="43.64982" lon="3.32499">
        <ele>105</ele>
        <time>2014-03-30T09:50:45Z</time>
      </trkpt>
      <trkpt lat="43.64992" lon="3.32506">
        <ele>105</ele>
        <time>2014-03-30T09:50:48Z</time>
      </trkpt>
      <trkpt lat="43.65001" lon="3.32513">
        <ele>105</ele>
        <time>2014-03-30T09:50:51Z</time>
      </trkpt>
      <trkpt lat="43.6501" lon="3.3252">
        <ele>105</ele>
        <time>2014-03-30T09:50:54Z</time>
      </trkpt>
      <trkpt lat="43.65019" lon="3.32525">
        <ele>104</ele>
        <time>2014-03-30T09:50:57Z</time>
      </trkpt>
      <trkpt lat="43.65029" lon="3.3253">
        <ele>104</ele>
        <time>2014-03-30T09:51:00Z</time>
      </trkpt>
      <trkpt lat="43.65039" lon="3.32535">
        <ele>104</ele>
        <time>2014-03-30T09:51:03Z</time>
      </trkpt>
      <trkpt lat="43.65045" lon="3.32536">
        <ele>105</ele>
        <time>2014-03-30T09:51:05Z</time>
      </trkpt>
      <trkpt lat="43.65051" lon="3.32538">
        <ele>105</ele>
        <time>2014-03-30T09:51:07Z</time>
      </trkpt>
      <trkpt lat="43.6506" lon="3.32539">
        <ele>105</ele>
        <time>2014-03-30T09:51:10Z</time>
      </trkpt>
      <trkpt lat="43.65069" lon="3.3254">
        <ele>105</ele>
        <time>2014-03-30T09:51:13Z</time>
      </trkpt>
      <trkpt lat="43.65078" lon="3.32541">
        <ele>105</ele>
        <time>2014-03-30T09:51:16Z</time>
      </trkpt>
      <trkpt lat="43.65086" lon="3.32539">
        <ele>105</ele>
        <time>2014-03-30T09:51:19Z</time>
      </trkpt>
      <trkpt lat="43.65091" lon="3.32537">
        <ele>105</ele>
        <time>2014-03-30T09:51:21Z</time>
      </trkpt>
      <trkpt lat="43.65099" lon="3.32529">
        <ele>105</ele>
        <time>2014-03-30T09:51:24Z</time>
      </trkpt>
      <trkpt lat="43.65105" lon="3.32518">
        <ele>105</ele>
        <time>2014-03-30T09:51:27Z</time>
      </trkpt>
      <trkpt lat="43.65108" lon="3.32508">
        <ele>105</ele>
        <time>2014-03-30T09:51:29Z</time>
      </trkpt>
      <trkpt lat="43.6511" lon="3.32495">
        <ele>105</ele>
        <time>2014-03-30T09:51:31Z</time>
      </trkpt>
      <trkpt lat="43.65115" lon="3.32475">
        <ele>106</ele>
        <time>2014-03-30T09:51:34Z</time>
      </trkpt>
      <trkpt lat="43.65117" lon="3.32469">
        <ele>106</ele>
        <time>2014-03-30T09:51:35Z</time>
      </trkpt>
      <trkpt lat="43.65123" lon="3.32458">
        <ele>106</ele>
        <time>2014-03-30T09:51:37Z</time>
      </trkpt>
      <trkpt lat="43.6513" lon="3.32448">
        <ele>106</ele>
        <time>2014-03-30T09:51:39Z</time>
      </trkpt>
      <trkpt lat="43.65139" lon="3.32441">
        <ele>106</ele>
        <time>2014-03-30T09:51:41Z</time>
      </trkpt>
      <trkpt lat="43.65145" lon="3.32438">
        <ele>106</ele>
        <time>2014-03-30T09:51:42Z</time>
      </trkpt>
      <trkpt lat="43.65161" lon="3.32429">
        <ele>106</ele>
        <time>2014-03-30T09:51:45Z</time>
      </trkpt>
      <trkpt lat="43.65176" lon="3.32419">
        <ele>106</ele>
        <time>2014-03-30T09:51:48Z</time>
      </trkpt>
      <trkpt lat="43.65182" lon="3.32409">
        <ele>106</ele>
        <time>2014-03-30T09:51:50Z</time>
      </trkpt>
      <trkpt lat="43.65185" lon="3.32394">
        <ele>106</ele>
        <time>2014-03-30T09:51:53Z</time>
      </trkpt>
      <trkpt lat="43.65186" lon="3.32379">
        <ele>105</ele>
        <time>2014-03-30T09:51:56Z</time>
      </trkpt>
      <trkpt lat="43.65189" lon="3.32365">
        <ele>105</ele>
        <time>2014-03-30T09:51:59Z</time>
      </trkpt>
      <trkpt lat="43.65192" lon="3.3235">
        <ele>105</ele>
        <time>2014-03-30T09:52:02Z</time>
      </trkpt>
      <trkpt lat="43.65193" lon="3.32337">
        <ele>104</ele>
        <time>2014-03-30T09:52:05Z</time>
      </trkpt>
      <trkpt lat="43.65194" lon="3.32323">
        <ele>104</ele>
        <time>2014-03-30T09:52:08Z</time>
      </trkpt>
      <trkpt lat="43.65194" lon="3.3231">
        <ele>103</ele>
        <time>2014-03-30T09:52:11Z</time>
      </trkpt>
      <trkpt lat="43.65196" lon="3.32298">
        <ele>103</ele>
        <time>2014-03-30T09:52:14Z</time>
      </trkpt>
      <trkpt lat="43.65198" lon="3.32286">
        <ele>102</ele>
        <time>2014-03-30T09:52:17Z</time>
      </trkpt>
      <trkpt lat="43.65201" lon="3.32274">
        <ele>102</ele>
        <time>2014-03-30T09:52:20Z</time>
      </trkpt>
      <trkpt lat="43.65206" lon="3.32263">
        <ele>102</ele>
        <time>2014-03-30T09:52:23Z</time>
      </trkpt>
      <trkpt lat="43.65209" lon="3.3225">
        <ele>101</ele>
        <time>2014-03-30T09:52:26Z</time>
      </trkpt>
      <trkpt lat="43.65211" lon="3.32242">
        <ele>101</ele>
        <time>2014-03-30T09:52:28Z</time>
      </trkpt>
      <trkpt lat="43.65213" lon="3.32231">
        <ele>101</ele>
        <time>2014-03-30T09:52:31Z</time>
      </trkpt>
      <trkpt lat="43.65216" lon="3.32214">
        <ele>100</ele>
        <time>2014-03-30T09:52:36Z</time>
      </trkpt>
      <trkpt lat="43.65222" lon="3.32187">
        <ele>100</ele>
        <time>2014-03-30T09:52:47Z</time>
      </trkpt>
      <trkpt lat="43.65231" lon="3.32159">
        <ele>100</ele>
        <time>2014-03-30T09:53:01Z</time>
      </trkpt>
      <trkpt lat="43.65246" lon="3.3214">
        <ele>100</ele>
        <time>2014-03-30T09:53:13Z</time>
      </trkpt>
      <trkpt lat="43.65266" lon="3.3217">
        <ele>100</ele>
        <time>2014-03-30T09:53:27Z</time>
      </trkpt>
      <trkpt lat="43.65272" lon="3.32193">
        <ele>100</ele>
        <time>2014-03-30T09:53:31Z</time>
      </trkpt>
      <trkpt lat="43.65275" lon="3.32205">
        <ele>101</ele>
        <time>2014-03-30T09:53:33Z</time>
      </trkpt>
      <trkpt lat="43.65278" lon="3.32215">
        <ele>101</ele>
        <time>2014-03-30T09:53:35Z</time>
      </trkpt>
      <trkpt lat="43.65284" lon="3.32235">
        <ele>101</ele>
        <time>2014-03-30T09:53:39Z</time>
      </trkpt>
      <trkpt lat="43.65287" lon="3.32249">
        <ele>102</ele>
        <time>2014-03-30T09:53:42Z</time>
      </trkpt>
      <trkpt lat="43.65289" lon="3.32259">
        <ele>102</ele>
        <time>2014-03-30T09:53:44Z</time>
      </trkpt>
      <trkpt lat="43.65291" lon="3.32268">
        <ele>103</ele>
        <time>2014-03-30T09:53:46Z</time>
      </trkpt>
      <trkpt lat="43.65294" lon="3.32282">
        <ele>103</ele>
        <time>2014-03-30T09:53:49Z</time>
      </trkpt>
      <trkpt lat="43.65296" lon="3.3229">
        <ele>103</ele>
        <time>2014-03-30T09:53:51Z</time>
      </trkpt>
      <trkpt lat="43.65299" lon="3.32303">
        <ele>104</ele>
        <time>2014-03-30T09:53:54Z</time>
      </trkpt>
      <trkpt lat="43.65304" lon="3.32316">
        <ele>104</ele>
        <time>2014-03-30T09:53:57Z</time>
      </trkpt>
      <trkpt lat="43.65306" lon="3.32325">
        <ele>104</ele>
        <time>2014-03-30T09:53:59Z</time>
      </trkpt>
      <trkpt lat="43.65309" lon="3.32338">
        <ele>105</ele>
        <time>2014-03-30T09:54:02Z</time>
      </trkpt>
      <trkpt lat="43.65313" lon="3.32352">
        <ele>105</ele>
        <time>2014-03-30T09:54:05Z</time>
      </trkpt>
      <trkpt lat="43.65317" lon="3.32366">
        <ele>105</ele>
        <time>2014-03-30T09:54:08Z</time>
      </trkpt>
      <trkpt lat="43.65319" lon="3.32376">
        <ele>105</ele>
        <time>2014-03-30T09:54:10Z</time>
      </trkpt>
      <trkpt lat="43.65323" lon="3.3239">
        <ele>105</ele>
        <time>2014-03-30T09:54:13Z</time>
      </trkpt>
      <trkpt lat="43.6533" lon="3.32403">
        <ele>106</ele>
        <time>2014-03-30T09:54:58Z</time>
      </trkpt>
      <trkpt lat="43.65334" lon="3.32413">
        <ele>107</ele>
        <time>2014-03-30T09:55:01Z</time>
      </trkpt>
      <trkpt lat="43.65337" lon="3.32425">
        <ele>107</ele>
        <time>2014-03-30T09:55:14Z</time>
      </trkpt>
      <trkpt lat="43.65338" lon="3.32436">
        <ele>111</ele>
        <time>2014-03-30T09:55:56Z</time>
      </trkpt>
      <trkpt lat="43.65335" lon="3.3245">
        <ele>111</ele>
        <time>2014-03-30T09:56:25Z</time>
      </trkpt>
      <trkpt lat="43.65333" lon="3.32464">
        <ele>111</ele>
        <time>2014-03-30T09:56:28Z</time>
      </trkpt>
      <trkpt lat="43.65329" lon="3.32477">
        <ele>111</ele>
        <time>2014-03-30T09:56:31Z</time>
      </trkpt>
      <trkpt lat="43.65325" lon="3.32491">
        <ele>111</ele>
        <time>2014-03-30T09:56:34Z</time>
      </trkpt>
      <trkpt lat="43.65322" lon="3.325">
        <ele>111</ele>
        <time>2014-03-30T09:56:36Z</time>
      </trkpt>
      <trkpt lat="43.65318" lon="3.32514">
        <ele>111</ele>
        <time>2014-03-30T09:56:39Z</time>
      </trkpt>
      <trkpt lat="43.65313" lon="3.32529">
        <ele>111</ele>
        <time>2014-03-30T09:56:42Z</time>
      </trkpt>
      <trkpt lat="43.6531" lon="3.32543">
        <ele>111</ele>
        <time>2014-03-30T09:56:45Z</time>
      </trkpt>
      <trkpt lat="43.65308" lon="3.32554">
        <ele>112</ele>
        <time>2014-03-30T09:56:47Z</time>
      </trkpt>
      <trkpt lat="43.65307" lon="3.32565">
        <ele>112</ele>
        <time>2014-03-30T09:56:49Z</time>
      </trkpt>
      <trkpt lat="43.65306" lon="3.32575">
        <ele>112</ele>
        <time>2014-03-30T09:56:51Z</time>
      </trkpt>
      <trkpt lat="43.65307" lon="3.32586">
        <ele>112</ele>
        <time>2014-03-30T09:56:53Z</time>
      </trkpt>
      <trkpt lat="43.65307" lon="3.32596">
        <ele>112</ele>
        <time>2014-03-30T09:56:55Z</time>
      </trkpt>
      <trkpt lat="43.6531" lon="3.32612">
        <ele>113</ele>
        <time>2014-03-30T09:56:58Z</time>
      </trkpt>
      <trkpt lat="43.65313" lon="3.32623">
        <ele>113</ele>
        <time>2014-03-30T09:57:00Z</time>
      </trkpt>
      <trkpt lat="43.65315" lon="3.32634">
        <ele>113</ele>
        <time>2014-03-30T09:57:02Z</time>
      </trkpt>
      <trkpt lat="43.65317" lon="3.32645">
        <ele>113</ele>
        <time>2014-03-30T09:57:04Z</time>
      </trkpt>
      <trkpt lat="43.65318" lon="3.32651">
        <ele>113</ele>
        <time>2014-03-30T09:57:05Z</time>
      </trkpt>
      <trkpt lat="43.65319" lon="3.32656">
        <ele>113</ele>
        <time>2014-03-30T09:57:06Z</time>
      </trkpt>
      <trkpt lat="43.65319" lon="3.32662">
        <ele>113</ele>
        <time>2014-03-30T09:57:07Z</time>
      </trkpt>
      <trkpt lat="43.6532" lon="3.32668">
        <ele>113</ele>
        <time>2014-03-30T09:57:08Z</time>
      </trkpt>
      <trkpt lat="43.65321" lon="3.32674">
        <ele>113</ele>
        <time>2014-03-30T09:57:09Z</time>
      </trkpt>
      <trkpt lat="43.65322" lon="3.3268">
        <ele>113</ele>
        <time>2014-03-30T09:57:10Z</time>
      </trkpt>
      <trkpt lat="43.65323" lon="3.32685">
        <ele>113</ele>
        <time>2014-03-30T09:57:11Z</time>
      </trkpt>
      <trkpt lat="43.65325" lon="3.32697">
        <ele>113</ele>
        <time>2014-03-30T09:57:13Z</time>
      </trkpt>
      <trkpt lat="43.65326" lon="3.32703">
        <ele>113</ele>
        <time>2014-03-30T09:57:14Z</time>
      </trkpt>
      <trkpt lat="43.65327" lon="3.32708">
        <ele>113</ele>
        <time>2014-03-30T09:57:15Z</time>
      </trkpt>
      <trkpt lat="43.65328" lon="3.32714">
        <ele>113</ele>
        <time>2014-03-30T09:57:16Z</time>
      </trkpt>
      <trkpt lat="43.65329" lon="3.3272">
        <ele>112</ele>
        <time>2014-03-30T09:57:17Z</time>
      </trkpt>
      <trkpt lat="43.6533" lon="3.32726">
        <ele>112</ele>
        <time>2014-03-30T09:57:18Z</time>
      </trkpt>
      <trkpt lat="43.65331" lon="3.32732">
        <ele>112</ele>
        <time>2014-03-30T09:57:19Z</time>
      </trkpt>
      <trkpt lat="43.65332" lon="3.32738">
        <ele>112</ele>
        <time>2014-03-30T09:57:20Z</time>
      </trkpt>
      <trkpt lat="43.65333" lon="3.32743">
        <ele>112</ele>
        <time>2014-03-30T09:57:21Z</time>
      </trkpt>
      <trkpt lat="43.65335" lon="3.32749">
        <ele>112</ele>
        <time>2014-03-30T09:57:22Z</time>
      </trkpt>
      <trkpt lat="43.65337" lon="3.3276">
        <ele>112</ele>
        <time>2014-03-30T09:57:24Z</time>
      </trkpt>
      <trkpt lat="43.65339" lon="3.32771">
        <ele>112</ele>
        <time>2014-03-30T09:57:26Z</time>
      </trkpt>
      <trkpt lat="43.65342" lon="3.32782">
        <ele>112</ele>
        <time>2014-03-30T09:57:28Z</time>
      </trkpt>
      <trkpt lat="43.65343" lon="3.32787">
        <ele>112</ele>
        <time>2014-03-30T09:57:29Z</time>
      </trkpt>
      <trkpt lat="43.65345" lon="3.32798">
        <ele>112</ele>
        <time>2014-03-30T09:57:31Z</time>
      </trkpt>
      <trkpt lat="43.65347" lon="3.32814">
        <ele>112</ele>
        <time>2014-03-30T09:57:34Z</time>
      </trkpt>
      <trkpt lat="43.65349" lon="3.32829">
        <ele>112</ele>
        <time>2014-03-30T09:57:37Z</time>
      </trkpt>
      <trkpt lat="43.65351" lon="3.32839">
        <ele>112</ele>
        <time>2014-03-30T09:57:39Z</time>
      </trkpt>
      <trkpt lat="43.65353" lon="3.32853">
        <ele>112</ele>
        <time>2014-03-30T09:57:42Z</time>
      </trkpt>
      <trkpt lat="43.65355" lon="3.32861">
        <ele>112</ele>
        <time>2014-03-30T09:57:44Z</time>
      </trkpt>
      <trkpt lat="43.6536" lon="3.32879">
        <ele>112</ele>
        <time>2014-03-30T09:57:57Z</time>
      </trkpt>
      <trkpt lat="43.65366" lon="3.3289">
        <ele>112</ele>
        <time>2014-03-30T09:58:01Z</time>
      </trkpt>
      <trkpt lat="43.65373" lon="3.32898">
        <ele>112</ele>
        <time>2014-03-30T09:58:04Z</time>
      </trkpt>
      <trkpt lat="43.65379" lon="3.32906">
        <ele>112</ele>
        <time>2014-03-30T09:58:07Z</time>
      </trkpt>
      <trkpt lat="43.65386" lon="3.32916">
        <ele>112</ele>
        <time>2014-03-30T09:58:11Z</time>
      </trkpt>
      <trkpt lat="43.65396" lon="3.32931">
        <ele>111</ele>
        <time>2014-03-30T09:58:17Z</time>
      </trkpt>
      <trkpt lat="43.65401" lon="3.3294">
        <ele>111</ele>
        <time>2014-03-30T09:58:20Z</time>
      </trkpt>
      <trkpt lat="43.65413" lon="3.32955">
        <ele>111</ele>
        <time>2014-03-30T09:58:26Z</time>
      </trkpt>
      <trkpt lat="43.65423" lon="3.32962">
        <ele>110</ele>
        <time>2014-03-30T09:58:31Z</time>
      </trkpt>
      <trkpt lat="43.6543" lon="3.32969">
        <ele>108</ele>
        <time>2014-03-30T09:58:51Z</time>
      </trkpt>
      <trkpt lat="43.65446" lon="3.32985">
        <ele>107</ele>
        <time>2014-03-30T09:59:28Z</time>
      </trkpt>
      <trkpt lat="43.65453" lon="3.32992">
        <ele>107</ele>
        <time>2014-03-30T09:59:31Z</time>
      </trkpt>
      <trkpt lat="43.6546" lon="3.32997">
        <ele>107</ele>
        <time>2014-03-30T09:59:34Z</time>
      </trkpt>
      <trkpt lat="43.6547" lon="3.33006">
        <ele>107</ele>
        <time>2014-03-30T09:59:44Z</time>
      </trkpt>
      <trkpt lat="43.65485" lon="3.33025">
        <ele>106</ele>
        <time>2014-03-30T09:59:54Z</time>
      </trkpt>
      <trkpt lat="43.65492" lon="3.33038">
        <ele>106</ele>
        <time>2014-03-30T10:00:00Z</time>
      </trkpt>
      <trkpt lat="43.65501" lon="3.33051">
        <ele>106</ele>
        <time>2014-03-30T10:00:06Z</time>
      </trkpt>
      <trkpt lat="43.65513" lon="3.33068">
        <ele>106</ele>
        <time>2014-03-30T10:00:12Z</time>
      </trkpt>
      <trkpt lat="43.65519" lon="3.33078">
        <ele>106</ele>
        <time>2014-03-30T10:00:15Z</time>
      </trkpt>
      <trkpt lat="43.65524" lon="3.33088">
        <ele>106</ele>
        <time>2014-03-30T10:00:18Z</time>
      </trkpt>
      <trkpt lat="43.6553" lon="3.33099">
        <ele>106</ele>
        <time>2014-03-30T10:00:21Z</time>
      </trkpt>
      <trkpt lat="43.65535" lon="3.3311">
        <ele>106</ele>
        <time>2014-03-30T10:00:24Z</time>
      </trkpt>
      <trkpt lat="43.6554" lon="3.33122">
        <ele>106</ele>
        <time>2014-03-30T10:00:27Z</time>
      </trkpt>
      <trkpt lat="43.65546" lon="3.33134">
        <ele>106</ele>
        <time>2014-03-30T10:00:30Z</time>
      </trkpt>
      <trkpt lat="43.6555" lon="3.33142">
        <ele>106</ele>
        <time>2014-03-30T10:00:32Z</time>
      </trkpt>
      <trkpt lat="43.65556" lon="3.33154">
        <ele>106</ele>
        <time>2014-03-30T10:00:35Z</time>
      </trkpt>
      <trkpt lat="43.65562" lon="3.33165">
        <ele>105</ele>
        <time>2014-03-30T10:00:38Z</time>
      </trkpt>
      <trkpt lat="43.65568" lon="3.33175">
        <ele>105</ele>
        <time>2014-03-30T10:00:41Z</time>
      </trkpt>
      <trkpt lat="43.65575" lon="3.3318">
        <ele>105</ele>
        <time>2014-03-30T10:00:44Z</time>
      </trkpt>
      <trkpt lat="43.65585" lon="3.33179">
        <ele>104</ele>
        <time>2014-03-30T10:01:03Z</time>
      </trkpt>
      <trkpt lat="43.65602" lon="3.33177">
        <ele>104</ele>
        <time>2014-03-30T10:01:25Z</time>
      </trkpt>
      <trkpt lat="43.6562" lon="3.33186">
        <ele>103</ele>
        <time>2014-03-30T10:01:46Z</time>
      </trkpt>
      <trkpt lat="43.65623" lon="3.33195">
        <ele>103</ele>
        <time>2014-03-30T10:01:49Z</time>
      </trkpt>
      <trkpt lat="43.6563" lon="3.33208">
        <ele>102</ele>
        <time>2014-03-30T10:01:52Z</time>
      </trkpt>
      <trkpt lat="43.65635" lon="3.33217">
        <ele>102</ele>
        <time>2014-03-30T10:01:54Z</time>
      </trkpt>
      <trkpt lat="43.65641" lon="3.33225">
        <ele>102</ele>
        <time>2014-03-30T10:01:56Z</time>
      </trkpt>
      <trkpt lat="43.65652" lon="3.33239">
        <ele>102</ele>
        <time>2014-03-30T10:02:01Z</time>
      </trkpt>
      <trkpt lat="43.6565" lon="3.33261">
        <ele>101</ele>
        <time>2014-03-30T10:02:14Z</time>
      </trkpt>
      <trkpt lat="43.65654" lon="3.3328">
        <ele>101</ele>
        <time>2014-03-30T10:02:24Z</time>
      </trkpt>
      <trkpt lat="43.65659" lon="3.33301">
        <ele>102</ele>
        <time>2014-03-30T10:02:34Z</time>
      </trkpt>
      <trkpt lat="43.65665" lon="3.33311">
        <ele>103</ele>
        <time>2014-03-30T10:02:43Z</time>
      </trkpt>
      <trkpt lat="43.65673" lon="3.33328">
        <ele>106</ele>
        <time>2014-03-30T10:04:21Z</time>
      </trkpt>
      <trkpt lat="43.65681" lon="3.33336">
        <ele>107</ele>
        <time>2014-03-30T10:04:28Z</time>
      </trkpt>
      <trkpt lat="43.65698" lon="3.33343">
        <ele>107</ele>
        <time>2014-03-30T10:04:40Z</time>
      </trkpt>
      <trkpt lat="43.65713" lon="3.33353">
        <ele>106</ele>
        <time>2014-03-30T10:04:55Z</time>
      </trkpt>
      <trkpt lat="43.65723" lon="3.33368">
        <ele>106</ele>
        <time>2014-03-30T10:05:05Z</time>
      </trkpt>
      <trkpt lat="43.65741" lon="3.33391">
        <ele>104</ele>
        <time>2014-03-30T10:05:23Z</time>
      </trkpt>
      <trkpt lat="43.65754" lon="3.33403">
        <ele>103</ele>
        <time>2014-03-30T10:05:40Z</time>
      </trkpt>
      <trkpt lat="43.65767" lon="3.33416">
        <ele>103</ele>
        <time>2014-03-30T10:05:56Z</time>
      </trkpt>
      <trkpt lat="43.658" lon="3.33434">
        <ele>104</ele>
        <time>2014-03-30T10:06:25Z</time>
      </trkpt>
      <trkpt lat="43.65822" lon="3.33443">
        <ele>103</ele>
        <time>2014-03-30T10:06:39Z</time>
      </trkpt>
      <trkpt lat="43.65837" lon="3.33448">
        <ele>102</ele>
        <time>2014-03-30T10:06:52Z</time>
      </trkpt>
      <trkpt lat="43.65848" lon="3.33453">
        <ele>102</ele>
        <time>2014-03-30T10:07:02Z</time>
      </trkpt>
      <trkpt lat="43.65862" lon="3.33462">
        <ele>102</ele>
        <time>2014-03-30T10:07:14Z</time>
      </trkpt>
      <trkpt lat="43.65877" lon="3.33463">
        <ele>102</ele>
        <time>2014-03-30T10:07:22Z</time>
      </trkpt>
      <trkpt lat="43.65886" lon="3.33464">
        <ele>102</ele>
        <time>2014-03-30T10:07:28Z</time>
      </trkpt>
      <trkpt lat="43.65901" lon="3.33473">
        <ele>101</ele>
        <time>2014-03-30T10:07:36Z</time>
      </trkpt>
      <trkpt lat="43.65908" lon="3.3348">
        <ele>101</ele>
        <time>2014-03-30T10:07:40Z</time>
      </trkpt>
      <trkpt lat="43.65918" lon="3.33494">
        <ele>101</ele>
        <time>2014-03-30T10:07:47Z</time>
      </trkpt>
      <trkpt lat="43.65926" lon="3.33511">
        <ele>101</ele>
        <time>2014-03-30T10:07:53Z</time>
      </trkpt>
      <trkpt lat="43.65932" lon="3.33521">
        <ele>101</ele>
        <time>2014-03-30T10:07:57Z</time>
      </trkpt>
      <trkpt lat="43.65939" lon="3.33527">
        <ele>102</ele>
        <time>2014-03-30T10:08:01Z</time>
      </trkpt>
      <trkpt lat="43.65943" lon="3.3353">
        <ele>102</ele>
        <time>2014-03-30T10:08:03Z</time>
      </trkpt>
      <trkpt lat="43.65951" lon="3.33531">
        <ele>102</ele>
        <time>2014-03-30T10:08:07Z</time>
      </trkpt>
      <trkpt lat="43.65959" lon="3.33528">
        <ele>102</ele>
        <time>2014-03-30T10:08:12Z</time>
      </trkpt>
      <trkpt lat="43.65974" lon="3.33525">
        <ele>103</ele>
        <time>2014-03-30T10:08:22Z</time>
      </trkpt>
      <trkpt lat="43.6599" lon="3.33531">
        <ele>103</ele>
        <time>2014-03-30T10:08:32Z</time>
      </trkpt>
      <trkpt lat="43.66003" lon="3.33537">
        <ele>104</ele>
        <time>2014-03-30T10:08:41Z</time>
      </trkpt>
      <trkpt lat="43.66019" lon="3.33539">
        <ele>104</ele>
        <time>2014-03-30T10:08:51Z</time>
      </trkpt>
      <trkpt lat="43.66033" lon="3.33534">
        <ele>109</ele>
        <time>2014-03-30T10:10:30Z</time>
      </trkpt>
      <trkpt lat="43.66042" lon="3.33536">
        <ele>109</ele>
        <time>2014-03-30T10:10:33Z</time>
      </trkpt>
      <trkpt lat="43.66048" lon="3.33541">
        <ele>109</ele>
        <time>2014-03-30T10:10:35Z</time>
      </trkpt>
      <trkpt lat="43.66058" lon="3.3355">
        <ele>109</ele>
        <time>2014-03-30T10:10:38Z</time>
      </trkpt>
      <trkpt lat="43.66066" lon="3.33554">
        <ele>109</ele>
        <time>2014-03-30T10:10:40Z</time>
      </trkpt>
      <trkpt lat="43.6607" lon="3.33556">
        <ele>109</ele>
        <time>2014-03-30T10:10:41Z</time>
      </trkpt>
      <trkpt lat="43.66078" lon="3.33558">
        <ele>110</ele>
        <time>2014-03-30T10:10:43Z</time>
      </trkpt>
      <trkpt lat="43.66084" lon="3.33558">
        <ele>110</ele>
        <time>2014-03-30T10:10:45Z</time>
      </trkpt>
      <trkpt lat="43.66093" lon="3.3356">
        <ele>110</ele>
        <time>2014-03-30T10:10:48Z</time>
      </trkpt>
      <trkpt lat="43.66103" lon="3.33561">
        <ele>110</ele>
        <time>2014-03-30T10:10:51Z</time>
      </trkpt>
      <trkpt lat="43.6611" lon="3.33562">
        <ele>110</ele>
        <time>2014-03-30T10:10:53Z</time>
      </trkpt>
      <trkpt lat="43.6612" lon="3.33567">
        <ele>111</ele>
        <time>2014-03-30T10:10:56Z</time>
      </trkpt>
      <trkpt lat="43.66126" lon="3.33579">
        <ele>111</ele>
        <time>2014-03-30T10:10:59Z</time>
      </trkpt>
      <trkpt lat="43.66129" lon="3.33592">
        <ele>111</ele>
        <time>2014-03-30T10:11:02Z</time>
      </trkpt>
      <trkpt lat="43.66137" lon="3.33609">
        <ele>112</ele>
        <time>2014-03-30T10:11:08Z</time>
      </trkpt>
      <trkpt lat="43.66145" lon="3.33613">
        <ele>112</ele>
        <time>2014-03-30T10:11:12Z</time>
      </trkpt>
      <trkpt lat="43.66153" lon="3.33614">
        <ele>113</ele>
        <time>2014-03-30T10:11:16Z</time>
      </trkpt>
      <trkpt lat="43.66157" lon="3.33617">
        <ele>113</ele>
        <time>2014-03-30T10:11:19Z</time>
      </trkpt>
      <trkpt lat="43.66163" lon="3.33616">
        <ele>114</ele>
        <time>2014-03-30T10:11:22Z</time>
      </trkpt>
      <trkpt lat="43.6617" lon="3.33615">
        <ele>115</ele>
        <time>2014-03-30T10:11:25Z</time>
      </trkpt>
      <trkpt lat="43.66182" lon="3.33613">
        <ele>115</ele>
        <time>2014-03-30T10:11:31Z</time>
      </trkpt>
      <trkpt lat="43.66187" lon="3.33611">
        <ele>116</ele>
        <time>2014-03-30T10:11:34Z</time>
      </trkpt>
      <trkpt lat="43.66196" lon="3.33608">
        <ele>117</ele>
        <time>2014-03-30T10:11:44Z</time>
      </trkpt>
      <trkpt lat="43.66203" lon="3.33609">
        <ele>117</ele>
        <time>2014-03-30T10:11:46Z</time>
      </trkpt>
      <trkpt lat="43.66213" lon="3.33611">
        <ele>118</ele>
        <time>2014-03-30T10:11:48Z</time>
      </trkpt>
      <trkpt lat="43.66224" lon="3.33616">
        <ele>118</ele>
        <time>2014-03-30T10:11:50Z</time>
      </trkpt>
      <trkpt lat="43.66232" lon="3.33619">
        <ele>118</ele>
        <time>2014-03-30T10:11:52Z</time>
      </trkpt>
      <trkpt lat="43.66239" lon="3.33621">
        <ele>118</ele>
        <time>2014-03-30T10:11:54Z</time>
      </trkpt>
      <trkpt lat="43.66248" lon="3.33622">
        <ele>119</ele>
        <time>2014-03-30T10:11:57Z</time>
      </trkpt>
      <trkpt lat="43.66257" lon="3.33621">
        <ele>119</ele>
        <time>2014-03-30T10:12:01Z</time>
      </trkpt>
      <trkpt lat="43.66262" lon="3.3362">
        <ele>120</ele>
        <time>2014-03-30T10:12:03Z</time>
      </trkpt>
      <trkpt lat="43.66267" lon="3.33619">
        <ele>120</ele>
        <time>2014-03-30T10:12:05Z</time>
      </trkpt>
      <trkpt lat="43.66281" lon="3.3362">
        <ele>120</ele>
        <time>2014-03-30T10:12:11Z</time>
      </trkpt>
      <trkpt lat="43.66293" lon="3.33621">
        <ele>121</ele>
        <time>2014-03-30T10:12:16Z</time>
      </trkpt>
      <trkpt lat="43.66299" lon="3.33621">
        <ele>121</ele>
        <time>2014-03-30T10:12:18Z</time>
      </trkpt>
      <trkpt lat="43.66304" lon="3.33621">
        <ele>121</ele>
        <time>2014-03-30T10:12:20Z</time>
      </trkpt>
      <trkpt lat="43.6631" lon="3.33621">
        <ele>121</ele>
        <time>2014-03-30T10:12:22Z</time>
      </trkpt>
      <trkpt lat="43.66315" lon="3.33621">
        <ele>122</ele>
        <time>2014-03-30T10:12:24Z</time>
      </trkpt>
      <trkpt lat="43.6632" lon="3.33621">
        <ele>122</ele>
        <time>2014-03-30T10:12:26Z</time>
      </trkpt>
      <trkpt lat="43.66325" lon="3.33621">
        <ele>122</ele>
        <time>2014-03-30T10:12:28Z</time>
      </trkpt>
      <trkpt lat="43.66338" lon="3.33619">
        <ele>123</ele>
        <time>2014-03-30T10:12:34Z</time>
      </trkpt>
      <trkpt lat="43.66343" lon="3.33617">
        <ele>123</ele>
        <time>2014-03-30T10:12:36Z</time>
      </trkpt>
      <trkpt lat="43.66348" lon="3.33616">
        <ele>123</ele>
        <time>2014-03-30T10:12:38Z</time>
      </trkpt>
      <trkpt lat="43.66358" lon="3.33613">
        <ele>123</ele>
        <time>2014-03-30T10:12:41Z</time>
      </trkpt>
      <trkpt lat="43.66366" lon="3.33611">
        <ele>124</ele>
        <time>2014-03-30T10:12:44Z</time>
      </trkpt>
      <trkpt lat="43.66374" lon="3.33608">
        <ele>124</ele>
        <time>2014-03-30T10:12:48Z</time>
      </trkpt>
      <trkpt lat="43.66381" lon="3.33604">
        <ele>124</ele>
        <time>2014-03-30T10:12:52Z</time>
      </trkpt>
      <trkpt lat="43.66385" lon="3.33602">
        <ele>124</ele>
        <time>2014-03-30T10:12:55Z</time>
      </trkpt>
      <trkpt lat="43.66391" lon="3.336">
        <ele>124</ele>
        <time>2014-03-30T10:12:58Z</time>
      </trkpt>
      <trkpt lat="43.66395" lon="3.33619">
        <ele>126</ele>
        <time>2014-03-30T10:14:01Z</time>
      </trkpt>
      <trkpt lat="43.66393" lon="3.33625">
        <ele>127</ele>
        <time>2014-03-30T10:14:02Z</time>
      </trkpt>
      <trkpt lat="43.66392" lon="3.33632">
        <ele>127</ele>
        <time>2014-03-30T10:14:03Z</time>
      </trkpt>
      <trkpt lat="43.66389" lon="3.33648">
        <ele>127</ele>
        <time>2014-03-30T10:14:05Z</time>
      </trkpt>
      <trkpt lat="43.66388" lon="3.33662">
        <ele>127</ele>
        <time>2014-03-30T10:14:07Z</time>
      </trkpt>
      <trkpt lat="43.66388" lon="3.33676">
        <ele>127</ele>
        <time>2014-03-30T10:14:09Z</time>
      </trkpt>
      <trkpt lat="43.66389" lon="3.33691">
        <ele>128</ele>
        <time>2014-03-30T10:14:11Z</time>
      </trkpt>
      <trkpt lat="43.66389" lon="3.33708">
        <ele>128</ele>
        <time>2014-03-30T10:14:13Z</time>
      </trkpt>
      <trkpt lat="43.66386" lon="3.33726">
        <ele>128</ele>
        <time>2014-03-30T10:14:15Z</time>
      </trkpt>
      <trkpt lat="43.66382" lon="3.33736">
        <ele>128</ele>
        <time>2014-03-30T10:14:16Z</time>
      </trkpt>
      <trkpt lat="43.66379" lon="3.33746">
        <ele>128</ele>
        <time>2014-03-30T10:14:17Z</time>
      </trkpt>
      <trkpt lat="43.66376" lon="3.33756">
        <ele>128</ele>
        <time>2014-03-30T10:14:18Z</time>
      </trkpt>
      <trkpt lat="43.66372" lon="3.33765">
        <ele>128</ele>
        <time>2014-03-30T10:14:19Z</time>
      </trkpt>
      <trkpt lat="43.66365" lon="3.33794">
        <ele>128</ele>
        <time>2014-03-30T10:14:22Z</time>
      </trkpt>
      <trkpt lat="43.66363" lon="3.33805">
        <ele>128</ele>
        <time>2014-03-30T10:14:23Z</time>
      </trkpt>
      <trkpt lat="43.66361" lon="3.33816">
        <ele>128</ele>
        <time>2014-03-30T10:14:24Z</time>
      </trkpt>
      <trkpt lat="43.6633" lon="3.33841">
        <ele>128</ele>
        <time>2014-03-30T10:14:29Z</time>
      </trkpt>
      <trkpt lat="43.6632" lon="3.33852">
        <ele>128</ele>
        <time>2014-03-30T10:14:31Z</time>
      </trkpt>
      <trkpt lat="43.66311" lon="3.33862">
        <ele>128</ele>
        <time>2014-03-30T10:14:33Z</time>
      </trkpt>
      <trkpt lat="43.66303" lon="3.33869">
        <ele>128</ele>
        <time>2014-03-30T10:14:35Z</time>
      </trkpt>
      <trkpt lat="43.66296" lon="3.33874">
        <ele>128</ele>
        <time>2014-03-30T10:14:37Z</time>
      </trkpt>
      <trkpt lat="43.66288" lon="3.33883">
        <ele>127</ele>
        <time>2014-03-30T10:14:40Z</time>
      </trkpt>
      <trkpt lat="43.66283" lon="3.33894">
        <ele>127</ele>
        <time>2014-03-30T10:14:43Z</time>
      </trkpt>
      <trkpt lat="43.66278" lon="3.33904">
        <ele>127</ele>
        <time>2014-03-30T10:14:46Z</time>
      </trkpt>
      <trkpt lat="43.66276" lon="3.33917">
        <ele>126</ele>
        <time>2014-03-30T10:14:49Z</time>
      </trkpt>
      <trkpt lat="43.66274" lon="3.33931">
        <ele>126</ele>
        <time>2014-03-30T10:14:52Z</time>
      </trkpt>
      <trkpt lat="43.66272" lon="3.3394">
        <ele>125</ele>
        <time>2014-03-30T10:14:54Z</time>
      </trkpt>
      <trkpt lat="43.66268" lon="3.33951">
        <ele>125</ele>
        <time>2014-03-30T10:14:56Z</time>
      </trkpt>
      <trkpt lat="43.66263" lon="3.33961">
        <ele>125</ele>
        <time>2014-03-30T10:14:58Z</time>
      </trkpt>
      <trkpt lat="43.66254" lon="3.3396">
        <ele>124</ele>
        <time>2014-03-30T10:15:00Z</time>
      </trkpt>
      <trkpt lat="43.66245" lon="3.33955">
        <ele>124</ele>
        <time>2014-03-30T10:15:02Z</time>
      </trkpt>
      <trkpt lat="43.66236" lon="3.33951">
        <ele>124</ele>
        <time>2014-03-30T10:15:04Z</time>
      </trkpt>
      <trkpt lat="43.66228" lon="3.33947">
        <ele>124</ele>
        <time>2014-03-30T10:15:06Z</time>
      </trkpt>
      <trkpt lat="43.6622" lon="3.33943">
        <ele>123</ele>
        <time>2014-03-30T10:15:08Z</time>
      </trkpt>
      <trkpt lat="43.66212" lon="3.3394">
        <ele>123</ele>
        <time>2014-03-30T10:15:10Z</time>
      </trkpt>
      <trkpt lat="43.66203" lon="3.33943">
        <ele>123</ele>
        <time>2014-03-30T10:15:12Z</time>
      </trkpt>
      <trkpt lat="43.66195" lon="3.33948">
        <ele>123</ele>
        <time>2014-03-30T10:15:14Z</time>
      </trkpt>
      <trkpt lat="43.66187" lon="3.33956">
        <ele>122</ele>
        <time>2014-03-30T10:15:16Z</time>
      </trkpt>
      <trkpt lat="43.66176" lon="3.3397">
        <ele>122</ele>
        <time>2014-03-30T10:15:19Z</time>
      </trkpt>
      <trkpt lat="43.66169" lon="3.33978">
        <ele>122</ele>
        <time>2014-03-30T10:15:21Z</time>
      </trkpt>
      <trkpt lat="43.66163" lon="3.33986">
        <ele>121</ele>
        <time>2014-03-30T10:15:23Z</time>
      </trkpt>
      <trkpt lat="43.66153" lon="3.34">
        <ele>121</ele>
        <time>2014-03-30T10:15:28Z</time>
      </trkpt>
      <trkpt lat="43.66149" lon="3.34006">
        <ele>120</ele>
        <time>2014-03-30T10:15:31Z</time>
      </trkpt>
      <trkpt lat="43.66144" lon="3.34012">
        <ele>120</ele>
        <time>2014-03-30T10:15:35Z</time>
      </trkpt>
      <trkpt lat="43.66135" lon="3.34027">
        <ele>120</ele>
        <time>2014-03-30T10:15:43Z</time>
      </trkpt>
      <trkpt lat="43.6613" lon="3.34033">
        <ele>120</ele>
        <time>2014-03-30T10:15:46Z</time>
      </trkpt>
      <trkpt lat="43.66124" lon="3.34044">
        <ele>120</ele>
        <time>2014-03-30T10:15:50Z</time>
      </trkpt>
      <trkpt lat="43.66121" lon="3.34055">
        <ele>119</ele>
        <time>2014-03-30T10:15:54Z</time>
      </trkpt>
      <trkpt lat="43.66119" lon="3.34072">
        <ele>119</ele>
        <time>2014-03-30T10:15:59Z</time>
      </trkpt>
      <trkpt lat="43.66119" lon="3.34092">
        <ele>118</ele>
        <time>2014-03-30T10:16:05Z</time>
      </trkpt>
      <trkpt lat="43.6612" lon="3.34092">
        <ele>116</ele>
        <time>2014-03-30T10:21:43Z</time>
      </trkpt>
      <trkpt lat="43.66122" lon="3.34071">
        <ele>116</ele>
        <time>2014-03-30T10:22:01Z</time>
      </trkpt>
      <trkpt lat="43.66124" lon="3.34058">
        <ele>116</ele>
        <time>2014-03-30T10:22:04Z</time>
      </trkpt>
      <trkpt lat="43.66127" lon="3.34044">
        <ele>116</ele>
        <time>2014-03-30T10:22:07Z</time>
      </trkpt>
      <trkpt lat="43.6613" lon="3.34037">
        <ele>116</ele>
        <time>2014-03-30T10:22:09Z</time>
      </trkpt>
      <trkpt lat="43.66135" lon="3.34027">
        <ele>116</ele>
        <time>2014-03-30T10:22:12Z</time>
      </trkpt>
      <trkpt lat="43.66141" lon="3.3402">
        <ele>116</ele>
        <time>2014-03-30T10:22:15Z</time>
      </trkpt>
      <trkpt lat="43.66147" lon="3.34014">
        <ele>116</ele>
        <time>2014-03-30T10:22:19Z</time>
      </trkpt>
      <trkpt lat="43.6615" lon="3.3401">
        <ele>115</ele>
        <time>2014-03-30T10:22:22Z</time>
      </trkpt>
      <trkpt lat="43.66159" lon="3.33995">
        <ele>115</ele>
        <time>2014-03-30T10:22:31Z</time>
      </trkpt>
      <trkpt lat="43.66166" lon="3.33986">
        <ele>114</ele>
        <time>2014-03-30T10:22:34Z</time>
      </trkpt>
      <trkpt lat="43.66173" lon="3.33979">
        <ele>114</ele>
        <time>2014-03-30T10:22:36Z</time>
      </trkpt>
      <trkpt lat="43.66176" lon="3.33975">
        <ele>114</ele>
        <time>2014-03-30T10:22:37Z</time>
      </trkpt>
      <trkpt lat="43.66179" lon="3.33971">
        <ele>114</ele>
        <time>2014-03-30T10:22:38Z</time>
      </trkpt>
      <trkpt lat="43.66183" lon="3.33967">
        <ele>114</ele>
        <time>2014-03-30T10:22:39Z</time>
      </trkpt>
      <trkpt lat="43.66186" lon="3.33963">
        <ele>113</ele>
        <time>2014-03-30T10:22:40Z</time>
      </trkpt>
      <trkpt lat="43.6619" lon="3.33959">
        <ele>113</ele>
        <time>2014-03-30T10:22:41Z</time>
      </trkpt>
      <trkpt lat="43.66194" lon="3.33955">
        <ele>113</ele>
        <time>2014-03-30T10:22:42Z</time>
      </trkpt>
      <trkpt lat="43.66197" lon="3.33951">
        <ele>113</ele>
        <time>2014-03-30T10:22:43Z</time>
      </trkpt>
      <trkpt lat="43.662" lon="3.33947">
        <ele>113</ele>
        <time>2014-03-30T10:22:44Z</time>
      </trkpt>
      <trkpt lat="43.66204" lon="3.33944">
        <ele>113</ele>
        <time>2014-03-30T10:22:45Z</time>
      </trkpt>
      <trkpt lat="43.66208" lon="3.3394">
        <ele>113</ele>
        <time>2014-03-30T10:22:46Z</time>
      </trkpt>
      <trkpt lat="43.66215" lon="3.33937">
        <ele>113</ele>
        <time>2014-03-30T10:22:48Z</time>
      </trkpt>
      <trkpt lat="43.66223" lon="3.33941">
        <ele>112</ele>
        <time>2014-03-30T10:22:51Z</time>
      </trkpt>
      <trkpt lat="43.6623" lon="3.33945">
        <ele>112</ele>
        <time>2014-03-30T10:22:54Z</time>
      </trkpt>
      <trkpt lat="43.66238" lon="3.33952">
        <ele>112</ele>
        <time>2014-03-30T10:22:58Z</time>
      </trkpt>
      <trkpt lat="43.66247" lon="3.33957">
        <ele>112</ele>
        <time>2014-03-30T10:23:02Z</time>
      </trkpt>
      <trkpt lat="43.66254" lon="3.33959">
        <ele>112</ele>
        <time>2014-03-30T10:23:05Z</time>
      </trkpt>
      <trkpt lat="43.66269" lon="3.33958">
        <ele>112</ele>
        <time>2014-03-30T10:23:11Z</time>
      </trkpt>
      <trkpt lat="43.66276" lon="3.33949">
        <ele>112</ele>
        <time>2014-03-30T10:23:15Z</time>
      </trkpt>
      <trkpt lat="43.66278" lon="3.33943">
        <ele>112</ele>
        <time>2014-03-30T10:23:17Z</time>
      </trkpt>
      <trkpt lat="43.66281" lon="3.3393">
        <ele>112</ele>
        <time>2014-03-30T10:23:21Z</time>
      </trkpt>
      <trkpt lat="43.66282" lon="3.33924">
        <ele>112</ele>
        <time>2014-03-30T10:23:23Z</time>
      </trkpt>
      <trkpt lat="43.66284" lon="3.33919">
        <ele>112</ele>
        <time>2014-03-30T10:23:25Z</time>
      </trkpt>
      <trkpt lat="43.66285" lon="3.33912">
        <ele>112</ele>
        <time>2014-03-30T10:23:27Z</time>
      </trkpt>
      <trkpt lat="43.66287" lon="3.33906">
        <ele>112</ele>
        <time>2014-03-30T10:23:29Z</time>
      </trkpt>
      <trkpt lat="43.66288" lon="3.339">
        <ele>112</ele>
        <time>2014-03-30T10:23:31Z</time>
      </trkpt>
      <trkpt lat="43.66289" lon="3.33893">
        <ele>112</ele>
        <time>2014-03-30T10:23:33Z</time>
      </trkpt>
      <trkpt lat="43.66291" lon="3.33887">
        <ele>112</ele>
        <time>2014-03-30T10:23:35Z</time>
      </trkpt>
      <trkpt lat="43.66294" lon="3.33881">
        <ele>112</ele>
        <time>2014-03-30T10:23:37Z</time>
      </trkpt>
      <trkpt lat="43.66298" lon="3.33877">
        <ele>112</ele>
        <time>2014-03-30T10:23:39Z</time>
      </trkpt>
      <trkpt lat="43.66307" lon="3.33871">
        <ele>112</ele>
        <time>2014-03-30T10:23:42Z</time>
      </trkpt>
      <trkpt lat="43.66313" lon="3.33866">
        <ele>112</ele>
        <time>2014-03-30T10:23:44Z</time>
      </trkpt>
      <trkpt lat="43.66321" lon="3.33859">
        <ele>112</ele>
        <time>2014-03-30T10:23:46Z</time>
      </trkpt>
      <trkpt lat="43.66324" lon="3.33855">
        <ele>112</ele>
        <time>2014-03-30T10:23:47Z</time>
      </trkpt>
      <trkpt lat="43.66327" lon="3.3385">
        <ele>112</ele>
        <time>2014-03-30T10:23:48Z</time>
      </trkpt>
      <trkpt lat="43.66329" lon="3.33846">
        <ele>112</ele>
        <time>2014-03-30T10:23:49Z</time>
      </trkpt>
      <trkpt lat="43.66332" lon="3.33841">
        <ele>112</ele>
        <time>2014-03-30T10:23:50Z</time>
      </trkpt>
      <trkpt lat="43.66335" lon="3.33837">
        <ele>112</ele>
        <time>2014-03-30T10:23:51Z</time>
      </trkpt>
      <trkpt lat="43.66341" lon="3.33831">
        <ele>112</ele>
        <time>2014-03-30T10:23:53Z</time>
      </trkpt>
      <trkpt lat="43.66347" lon="3.33826">
        <ele>112</ele>
        <time>2014-03-30T10:23:55Z</time>
      </trkpt>
      <trkpt lat="43.66358" lon="3.33825">
        <ele>112</ele>
        <time>2014-03-30T10:23:58Z</time>
      </trkpt>
      <trkpt lat="43.66363" lon="3.33818">
        <ele>112</ele>
        <time>2014-03-30T10:24:00Z</time>
      </trkpt>
      <trkpt lat="43.66366" lon="3.33806">
        <ele>112</ele>
        <time>2014-03-30T10:24:03Z</time>
      </trkpt>
      <trkpt lat="43.66366" lon="3.33799">
        <ele>111</ele>
        <time>2014-03-30T10:24:05Z</time>
      </trkpt>
      <trkpt lat="43.66367" lon="3.33791">
        <ele>111</ele>
        <time>2014-03-30T10:24:08Z</time>
      </trkpt>
      <trkpt lat="43.66368" lon="3.3378">
        <ele>111</ele>
        <time>2014-03-30T10:24:12Z</time>
      </trkpt>
      <trkpt lat="43.6637" lon="3.33773">
        <ele>111</ele>
        <time>2014-03-30T10:24:15Z</time>
      </trkpt>
      <trkpt lat="43.66372" lon="3.33767">
        <ele>111</ele>
        <time>2014-03-30T10:24:18Z</time>
      </trkpt>
      <trkpt lat="43.66375" lon="3.33761">
        <ele>111</ele>
        <time>2014-03-30T10:24:21Z</time>
      </trkpt>
      <trkpt lat="43.66381" lon="3.33746">
        <ele>111</ele>
        <time>2014-03-30T10:24:29Z</time>
      </trkpt>
      <trkpt lat="43.66388" lon="3.33729">
        <ele>111</ele>
        <time>2014-03-30T10:24:38Z</time>
      </trkpt>
      <trkpt lat="43.6639" lon="3.33714">
        <ele>111</ele>
        <time>2014-03-30T10:24:45Z</time>
      </trkpt>
      <trkpt lat="43.66389" lon="3.33698">
        <ele>112</ele>
        <time>2014-03-30T10:24:52Z</time>
      </trkpt>
      <trkpt lat="43.66387" lon="3.33686">
        <ele>112</ele>
        <time>2014-03-30T10:24:57Z</time>
      </trkpt>
      <trkpt lat="43.66385" lon="3.33675">
        <ele>112</ele>
        <time>2014-03-30T10:25:02Z</time>
      </trkpt>
      <trkpt lat="43.66384" lon="3.33663">
        <ele>113</ele>
        <time>2014-03-30T10:25:07Z</time>
      </trkpt>
      <trkpt lat="43.66385" lon="3.33652">
        <ele>113</ele>
        <time>2014-03-30T10:25:12Z</time>
      </trkpt>
      <trkpt lat="43.66387" lon="3.33639">
        <ele>114</ele>
        <time>2014-03-30T10:25:18Z</time>
      </trkpt>
      <trkpt lat="43.66388" lon="3.33626">
        <ele>115</ele>
        <time>2014-03-30T10:25:30Z</time>
      </trkpt>
      <trkpt lat="43.66392" lon="3.33617">
        <ele>116</ele>
        <time>2014-03-30T10:25:39Z</time>
      </trkpt>
      <trkpt lat="43.66401" lon="3.33606">
        <ele>118</ele>
        <time>2014-03-30T10:25:51Z</time>
      </trkpt>
      <trkpt lat="43.66411" lon="3.33599">
        <ele>118</ele>
        <time>2014-03-30T10:26:01Z</time>
      </trkpt>
      <trkpt lat="43.6642" lon="3.33598">
        <ele>120</ele>
        <time>2014-03-30T10:26:09Z</time>
      </trkpt>
      <trkpt lat="43.6643" lon="3.33596">
        <ele>121</ele>
        <time>2014-03-30T10:26:20Z</time>
      </trkpt>
      <trkpt lat="43.66446" lon="3.33591">
        <ele>124</ele>
        <time>2014-03-30T10:26:36Z</time>
      </trkpt>
      <trkpt lat="43.66457" lon="3.33586">
        <ele>125</ele>
        <time>2014-03-30T10:26:47Z</time>
      </trkpt>
      <trkpt lat="43.66465" lon="3.33583">
        <ele>126</ele>
        <time>2014-03-30T10:26:55Z</time>
      </trkpt>
      <trkpt lat="43.66474" lon="3.33582">
        <ele>127</ele>
        <time>2014-03-30T10:27:03Z</time>
      </trkpt>
      <trkpt lat="43.6649" lon="3.33585">
        <ele>129</ele>
        <time>2014-03-30T10:27:17Z</time>
      </trkpt>
      <trkpt lat="43.66499" lon="3.33587">
        <ele>130</ele>
        <time>2014-03-30T10:27:24Z</time>
      </trkpt>
      <trkpt lat="43.66514" lon="3.33582">
        <ele>131</ele>
        <time>2014-03-30T10:27:39Z</time>
      </trkpt>
      <trkpt lat="43.66516" lon="3.3357">
        <ele>131</ele>
        <time>2014-03-30T10:27:47Z</time>
      </trkpt>
      <trkpt lat="43.66504" lon="3.33554">
        <ele>132</ele>
        <time>2014-03-30T10:27:56Z</time>
      </trkpt>
      <trkpt lat="43.6649" lon="3.33544">
        <ele>133</ele>
        <time>2014-03-30T10:28:05Z</time>
      </trkpt>
      <trkpt lat="43.66484" lon="3.33533">
        <ele>134</ele>
        <time>2014-03-30T10:28:11Z</time>
      </trkpt>
      <trkpt lat="43.6649" lon="3.33523">
        <ele>134</ele>
        <time>2014-03-30T10:28:19Z</time>
      </trkpt>
      <trkpt lat="43.66499" lon="3.33529">
        <ele>136</ele>
        <time>2014-03-30T10:28:43Z</time>
      </trkpt>
      <trkpt lat="43.66508" lon="3.33522">
        <ele>142</ele>
        <time>2014-03-30T10:31:11Z</time>
      </trkpt>
      <trkpt lat="43.66517" lon="3.33518">
        <ele>143</ele>
        <time>2014-03-30T10:31:15Z</time>
      </trkpt>
      <trkpt lat="43.66524" lon="3.33516">
        <ele>143</ele>
        <time>2014-03-30T10:31:18Z</time>
      </trkpt>
      <trkpt lat="43.66534" lon="3.33514">
        <ele>143</ele>
        <time>2014-03-30T10:31:22Z</time>
      </trkpt>
      <trkpt lat="43.66541" lon="3.33513">
        <ele>144</ele>
        <time>2014-03-30T10:31:25Z</time>
      </trkpt>
      <trkpt lat="43.66546" lon="3.33513">
        <ele>144</ele>
        <time>2014-03-30T10:31:27Z</time>
      </trkpt>
      <trkpt lat="43.66551" lon="3.33514">
        <ele>144</ele>
        <time>2014-03-30T10:31:29Z</time>
      </trkpt>
      <trkpt lat="43.6656" lon="3.33516">
        <ele>145</ele>
        <time>2014-03-30T10:31:33Z</time>
      </trkpt>
      <trkpt lat="43.66567" lon="3.33518">
        <ele>145</ele>
        <time>2014-03-30T10:31:36Z</time>
      </trkpt>
      <trkpt lat="43.66572" lon="3.3352">
        <ele>145</ele>
        <time>2014-03-30T10:31:38Z</time>
      </trkpt>
      <trkpt lat="43.66579" lon="3.33524">
        <ele>145</ele>
        <time>2014-03-30T10:31:41Z</time>
      </trkpt>
      <trkpt lat="43.66584" lon="3.33528">
        <ele>145</ele>
        <time>2014-03-30T10:31:43Z</time>
      </trkpt>
      <trkpt lat="43.66591" lon="3.33533">
        <ele>145</ele>
        <time>2014-03-30T10:31:46Z</time>
      </trkpt>
      <trkpt lat="43.66599" lon="3.33538">
        <ele>145</ele>
        <time>2014-03-30T10:31:49Z</time>
      </trkpt>
      <trkpt lat="43.66606" lon="3.33543">
        <ele>145</ele>
        <time>2014-03-30T10:31:52Z</time>
      </trkpt>
      <trkpt lat="43.66613" lon="3.33548">
        <ele>145</ele>
        <time>2014-03-30T10:31:55Z</time>
      </trkpt>
      <trkpt lat="43.66618" lon="3.33551">
        <ele>145</ele>
        <time>2014-03-30T10:31:57Z</time>
      </trkpt>
      <trkpt lat="43.6663" lon="3.33558">
        <ele>146</ele>
        <time>2014-03-30T10:32:02Z</time>
      </trkpt>
      <trkpt lat="43.66635" lon="3.33561">
        <ele>146</ele>
        <time>2014-03-30T10:32:04Z</time>
      </trkpt>
      <trkpt lat="43.66639" lon="3.33563">
        <ele>146</ele>
        <time>2014-03-30T10:32:06Z</time>
      </trkpt>
      <trkpt lat="43.66644" lon="3.33566">
        <ele>146</ele>
        <time>2014-03-30T10:32:08Z</time>
      </trkpt>
      <trkpt lat="43.66651" lon="3.33569">
        <ele>146</ele>
        <time>2014-03-30T10:32:11Z</time>
      </trkpt>
      <trkpt lat="43.66656" lon="3.33572">
        <ele>146</ele>
        <time>2014-03-30T10:32:13Z</time>
      </trkpt>
      <trkpt lat="43.66666" lon="3.33575">
        <ele>146</ele>
        <time>2014-03-30T10:32:17Z</time>
      </trkpt>
      <trkpt lat="43.66671" lon="3.33577">
        <ele>147</ele>
        <time>2014-03-30T10:32:19Z</time>
      </trkpt>
      <trkpt lat="43.66676" lon="3.33578">
        <ele>147</ele>
        <time>2014-03-30T10:32:21Z</time>
      </trkpt>
      <trkpt lat="43.66681" lon="3.33579">
        <ele>147</ele>
        <time>2014-03-30T10:32:23Z</time>
      </trkpt>
      <trkpt lat="43.66687" lon="3.3358">
        <ele>147</ele>
        <time>2014-03-30T10:32:25Z</time>
      </trkpt>
      <trkpt lat="43.66695" lon="3.3358">
        <ele>147</ele>
        <time>2014-03-30T10:32:28Z</time>
      </trkpt>
      <trkpt lat="43.66704" lon="3.3358">
        <ele>147</ele>
        <time>2014-03-30T10:32:31Z</time>
      </trkpt>
      <trkpt lat="43.66712" lon="3.3358">
        <ele>147</ele>
        <time>2014-03-30T10:32:34Z</time>
      </trkpt>
      <trkpt lat="43.66721" lon="3.33579">
        <ele>147</ele>
        <time>2014-03-30T10:32:37Z</time>
      </trkpt>
      <trkpt lat="43.66735" lon="3.33577">
        <ele>148</ele>
        <time>2014-03-30T10:32:42Z</time>
      </trkpt>
      <trkpt lat="43.66744" lon="3.33573">
        <ele>148</ele>
        <time>2014-03-30T10:32:45Z</time>
      </trkpt>
      <trkpt lat="43.66752" lon="3.33569">
        <ele>148</ele>
        <time>2014-03-30T10:32:48Z</time>
      </trkpt>
      <trkpt lat="43.6676" lon="3.33565">
        <ele>148</ele>
        <time>2014-03-30T10:32:51Z</time>
      </trkpt>
      <trkpt lat="43.66772" lon="3.33559">
        <ele>148</ele>
        <time>2014-03-30T10:32:56Z</time>
      </trkpt>
      <trkpt lat="43.66777" lon="3.33557">
        <ele>148</ele>
        <time>2014-03-30T10:32:58Z</time>
      </trkpt>
      <trkpt lat="43.66784" lon="3.33554">
        <ele>148</ele>
        <time>2014-03-30T10:33:01Z</time>
      </trkpt>
      <trkpt lat="43.66788" lon="3.33553">
        <ele>148</ele>
        <time>2014-03-30T10:33:03Z</time>
      </trkpt>
      <trkpt lat="43.66789" lon="3.33549">
        <ele>151</ele>
        <time>2014-03-30T10:33:56Z</time>
      </trkpt>
      <trkpt lat="43.66801" lon="3.33534">
        <ele>151</ele>
        <time>2014-03-30T10:34:04Z</time>
      </trkpt>
      <trkpt lat="43.6681" lon="3.33526">
        <ele>151</ele>
        <time>2014-03-30T10:34:07Z</time>
      </trkpt>
      <trkpt lat="43.6682" lon="3.33518">
        <ele>151</ele>
        <time>2014-03-30T10:34:10Z</time>
      </trkpt>
      <trkpt lat="43.66824" lon="3.33515">
        <ele>151</ele>
        <time>2014-03-30T10:34:11Z</time>
      </trkpt>
      <trkpt lat="43.66831" lon="3.33508">
        <ele>151</ele>
        <time>2014-03-30T10:34:13Z</time>
      </trkpt>
      <trkpt lat="43.66839" lon="3.33501">
        <ele>151</ele>
        <time>2014-03-30T10:34:15Z</time>
      </trkpt>
      <trkpt lat="43.66844" lon="3.33498">
        <ele>151</ele>
        <time>2014-03-30T10:34:16Z</time>
      </trkpt>
      <trkpt lat="43.66848" lon="3.33493">
        <ele>151</ele>
        <time>2014-03-30T10:34:17Z</time>
      </trkpt>
      <trkpt lat="43.66853" lon="3.33489">
        <ele>151</ele>
        <time>2014-03-30T10:34:18Z</time>
      </trkpt>
      <trkpt lat="43.66863" lon="3.3348">
        <ele>151</ele>
        <time>2014-03-30T10:34:20Z</time>
      </trkpt>
      <trkpt lat="43.66869" lon="3.33476">
        <ele>151</ele>
        <time>2014-03-30T10:34:21Z</time>
      </trkpt>
      <trkpt lat="43.66874" lon="3.33472">
        <ele>151</ele>
        <time>2014-03-30T10:34:22Z</time>
      </trkpt>
      <trkpt lat="43.66885" lon="3.33465">
        <ele>151</ele>
        <time>2014-03-30T10:34:24Z</time>
      </trkpt>
      <trkpt lat="43.66896" lon="3.33458">
        <ele>151</ele>
        <time>2014-03-30T10:34:26Z</time>
      </trkpt>
      <trkpt lat="43.66906" lon="3.33451">
        <ele>151</ele>
        <time>2014-03-30T10:34:28Z</time>
      </trkpt>
      <trkpt lat="43.66918" lon="3.33444">
        <ele>151</ele>
        <time>2014-03-30T10:34:30Z</time>
      </trkpt>
      <trkpt lat="43.66923" lon="3.33441">
        <ele>151</ele>
        <time>2014-03-30T10:34:31Z</time>
      </trkpt>
      <trkpt lat="43.66929" lon="3.33438">
        <ele>151</ele>
        <time>2014-03-30T10:34:32Z</time>
      </trkpt>
      <trkpt lat="43.66942" lon="3.33431">
        <ele>151</ele>
        <time>2014-03-30T10:34:34Z</time>
      </trkpt>
      <trkpt lat="43.66956" lon="3.33424">
        <ele>151</ele>
        <time>2014-03-30T10:34:36Z</time>
      </trkpt>
      <trkpt lat="43.66963" lon="3.3342">
        <ele>151</ele>
        <time>2014-03-30T10:34:37Z</time>
      </trkpt>
      <trkpt lat="43.6697" lon="3.33417">
        <ele>150</ele>
        <time>2014-03-30T10:34:38Z</time>
      </trkpt>
      <trkpt lat="43.66977" lon="3.33413">
        <ele>150</ele>
        <time>2014-03-30T10:34:39Z</time>
      </trkpt>
      <trkpt lat="43.66984" lon="3.33409">
        <ele>150</ele>
        <time>2014-03-30T10:34:40Z</time>
      </trkpt>
      <trkpt lat="43.66998" lon="3.33402">
        <ele>150</ele>
        <time>2014-03-30T10:34:42Z</time>
      </trkpt>
      <trkpt lat="43.6702" lon="3.33392">
        <ele>150</ele>
        <time>2014-03-30T10:34:45Z</time>
      </trkpt>
      <trkpt lat="43.67027" lon="3.3339">
        <ele>150</ele>
        <time>2014-03-30T10:34:46Z</time>
      </trkpt>
      <trkpt lat="43.67035" lon="3.33387">
        <ele>150</ele>
        <time>2014-03-30T10:34:47Z</time>
      </trkpt>
      <trkpt lat="43.67043" lon="3.33386">
        <ele>150</ele>
        <time>2014-03-30T10:34:48Z</time>
      </trkpt>
      <trkpt lat="43.6705" lon="3.33384">
        <ele>150</ele>
        <time>2014-03-30T10:34:49Z</time>
      </trkpt>
      <trkpt lat="43.67065" lon="3.33382">
        <ele>150</ele>
        <time>2014-03-30T10:34:51Z</time>
      </trkpt>
      <trkpt lat="43.67072" lon="3.33382">
        <ele>150</ele>
        <time>2014-03-30T10:34:52Z</time>
      </trkpt>
      <trkpt lat="43.67087" lon="3.33385">
        <ele>149</ele>
        <time>2014-03-30T10:34:54Z</time>
      </trkpt>
      <trkpt lat="43.67102" lon="3.33388">
        <ele>149</ele>
        <time>2014-03-30T10:34:56Z</time>
      </trkpt>
      <trkpt lat="43.67117" lon="3.33392">
        <ele>149</ele>
        <time>2014-03-30T10:34:58Z</time>
      </trkpt>
      <trkpt lat="43.67125" lon="3.33393">
        <ele>149</ele>
        <time>2014-03-30T10:34:59Z</time>
      </trkpt>
      <trkpt lat="43.67133" lon="3.33395">
        <ele>149</ele>
        <time>2014-03-30T10:35:00Z</time>
      </trkpt>
      <trkpt lat="43.67141" lon="3.33398">
        <ele>149</ele>
        <time>2014-03-30T10:35:01Z</time>
      </trkpt>
      <trkpt lat="43.67149" lon="3.334">
        <ele>149</ele>
        <time>2014-03-30T10:35:02Z</time>
      </trkpt>
      <trkpt lat="43.67157" lon="3.33402">
        <ele>149</ele>
        <time>2014-03-30T10:35:03Z</time>
      </trkpt>
      <trkpt lat="43.67165" lon="3.33404">
        <ele>149</ele>
        <time>2014-03-30T10:35:04Z</time>
      </trkpt>
      <trkpt lat="43.67173" lon="3.33406">
        <ele>149</ele>
        <time>2014-03-30T10:35:05Z</time>
      </trkpt>
      <trkpt lat="43.67182" lon="3.33408">
        <ele>149</ele>
        <time>2014-03-30T10:35:06Z</time>
      </trkpt>
      <trkpt lat="43.67199" lon="3.33412">
        <ele>149</ele>
        <time>2014-03-30T10:35:08Z</time>
      </trkpt>
      <trkpt lat="43.67207" lon="3.33414">
        <ele>149</ele>
        <time>2014-03-30T10:35:09Z</time>
      </trkpt>
      <trkpt lat="43.67216" lon="3.33416">
        <ele>149</ele>
        <time>2014-03-30T10:35:10Z</time>
      </trkpt>
      <trkpt lat="43.67224" lon="3.33418">
        <ele>148</ele>
        <time>2014-03-30T10:35:11Z</time>
      </trkpt>
      <trkpt lat="43.67233" lon="3.3342">
        <ele>148</ele>
        <time>2014-03-30T10:35:12Z</time>
      </trkpt>
      <trkpt lat="43.67241" lon="3.33422">
        <ele>148</ele>
        <time>2014-03-30T10:35:13Z</time>
      </trkpt>
      <trkpt lat="43.6725" lon="3.33423">
        <ele>148</ele>
        <time>2014-03-30T10:35:14Z</time>
      </trkpt>
      <trkpt lat="43.67259" lon="3.33425">
        <ele>148</ele>
        <time>2014-03-30T10:35:15Z</time>
      </trkpt>
      <trkpt lat="43.67267" lon="3.33427">
        <ele>147</ele>
        <time>2014-03-30T10:35:16Z</time>
      </trkpt>
      <trkpt lat="43.67276" lon="3.33429">
        <ele>147</ele>
        <time>2014-03-30T10:35:17Z</time>
      </trkpt>
      <trkpt lat="43.67285" lon="3.33431">
        <ele>147</ele>
        <time>2014-03-30T10:35:18Z</time>
      </trkpt>
      <trkpt lat="43.67293" lon="3.33432">
        <ele>147</ele>
        <time>2014-03-30T10:35:19Z</time>
      </trkpt>
      <trkpt lat="43.67302" lon="3.33434">
        <ele>147</ele>
        <time>2014-03-30T10:35:20Z</time>
      </trkpt>
      <trkpt lat="43.67311" lon="3.33436">
        <ele>147</ele>
        <time>2014-03-30T10:35:21Z</time>
      </trkpt>
      <trkpt lat="43.67319" lon="3.33438">
        <ele>146</ele>
        <time>2014-03-30T10:35:22Z</time>
      </trkpt>
      <trkpt lat="43.67327" lon="3.33439">
        <ele>146</ele>
        <time>2014-03-30T10:35:23Z</time>
      </trkpt>
      <trkpt lat="43.67336" lon="3.33441">
        <ele>146</ele>
        <time>2014-03-30T10:35:24Z</time>
      </trkpt>
      <trkpt lat="43.67344" lon="3.33443">
        <ele>146</ele>
        <time>2014-03-30T10:35:25Z</time>
      </trkpt>
      <trkpt lat="43.67352" lon="3.33444">
        <ele>146</ele>
        <time>2014-03-30T10:35:26Z</time>
      </trkpt>
      <trkpt lat="43.6736" lon="3.33446">
        <ele>146</ele>
        <time>2014-03-30T10:35:27Z</time>
      </trkpt>
      <trkpt lat="43.67369" lon="3.33447">
        <ele>145</ele>
        <time>2014-03-30T10:35:28Z</time>
      </trkpt>
      <trkpt lat="43.67377" lon="3.33449">
        <ele>145</ele>
        <time>2014-03-30T10:35:29Z</time>
      </trkpt>
      <trkpt lat="43.67385" lon="3.3345">
        <ele>145</ele>
        <time>2014-03-30T10:35:30Z</time>
      </trkpt>
      <trkpt lat="43.67393" lon="3.33452">
        <ele>145</ele>
        <time>2014-03-30T10:35:31Z</time>
      </trkpt>
      <trkpt lat="43.67401" lon="3.33453">
        <ele>144</ele>
        <time>2014-03-30T10:35:32Z</time>
      </trkpt>
      <trkpt lat="43.6741" lon="3.33455">
        <ele>144</ele>
        <time>2014-03-30T10:35:33Z</time>
      </trkpt>
      <trkpt lat="43.67418" lon="3.33456">
        <ele>144</ele>
        <time>2014-03-30T10:35:34Z</time>
      </trkpt>
      <trkpt lat="43.67427" lon="3.33457">
        <ele>143</ele>
        <time>2014-03-30T10:35:35Z</time>
      </trkpt>
      <trkpt lat="43.67435" lon="3.3346">
        <ele>143</ele>
        <time>2014-03-30T10:35:36Z</time>
      </trkpt>
      <trkpt lat="43.67443" lon="3.33463">
        <ele>143</ele>
        <time>2014-03-30T10:35:37Z</time>
      </trkpt>
      <trkpt lat="43.67452" lon="3.33467">
        <ele>143</ele>
        <time>2014-03-30T10:35:38Z</time>
      </trkpt>
      <trkpt lat="43.6746" lon="3.33471">
        <ele>143</ele>
        <time>2014-03-30T10:35:39Z</time>
      </trkpt>
      <trkpt lat="43.67477" lon="3.3348">
        <ele>142</ele>
        <time>2014-03-30T10:35:41Z</time>
      </trkpt>
      <trkpt lat="43.67485" lon="3.33486">
        <ele>142</ele>
        <time>2014-03-30T10:35:42Z</time>
      </trkpt>
      <trkpt lat="43.67494" lon="3.33492">
        <ele>142</ele>
        <time>2014-03-30T10:35:43Z</time>
      </trkpt>
      <trkpt lat="43.67501" lon="3.33499">
        <ele>142</ele>
        <time>2014-03-30T10:35:44Z</time>
      </trkpt>
      <trkpt lat="43.67509" lon="3.33506">
        <ele>141</ele>
        <time>2014-03-30T10:35:45Z</time>
      </trkpt>
      <trkpt lat="43.67516" lon="3.33515">
        <ele>141</ele>
        <time>2014-03-30T10:35:46Z</time>
      </trkpt>
      <trkpt lat="43.67523" lon="3.33523">
        <ele>141</ele>
        <time>2014-03-30T10:35:47Z</time>
      </trkpt>
      <trkpt lat="43.6753" lon="3.33532">
        <ele>141</ele>
        <time>2014-03-30T10:35:48Z</time>
      </trkpt>
      <trkpt lat="43.67537" lon="3.33541">
        <ele>141</ele>
        <time>2014-03-30T10:35:49Z</time>
      </trkpt>
      <trkpt lat="43.67544" lon="3.3355">
        <ele>141</ele>
        <time>2014-03-30T10:35:50Z</time>
      </trkpt>
      <trkpt lat="43.67551" lon="3.33558">
        <ele>140</ele>
        <time>2014-03-30T10:35:51Z</time>
      </trkpt>
      <trkpt lat="43.67559" lon="3.33567">
        <ele>140</ele>
        <time>2014-03-30T10:35:52Z</time>
      </trkpt>
      <trkpt lat="43.67566" lon="3.33576">
        <ele>140</ele>
        <time>2014-03-30T10:35:53Z</time>
      </trkpt>
      <trkpt lat="43.67579" lon="3.33592">
        <ele>140</ele>
        <time>2014-03-30T10:35:55Z</time>
      </trkpt>
      <trkpt lat="43.67586" lon="3.33599">
        <ele>140</ele>
        <time>2014-03-30T10:35:56Z</time>
      </trkpt>
      <trkpt lat="43.67599" lon="3.33613">
        <ele>139</ele>
        <time>2014-03-30T10:35:58Z</time>
      </trkpt>
      <trkpt lat="43.6761" lon="3.33626">
        <ele>139</ele>
        <time>2014-03-30T10:36:00Z</time>
      </trkpt>
      <trkpt lat="43.6762" lon="3.33638">
        <ele>138</ele>
        <time>2014-03-30T10:36:02Z</time>
      </trkpt>
      <trkpt lat="43.67629" lon="3.33648">
        <ele>138</ele>
        <time>2014-03-30T10:36:04Z</time>
      </trkpt>
      <trkpt lat="43.67635" lon="3.33657">
        <ele>137</ele>
        <time>2014-03-30T10:36:06Z</time>
      </trkpt>
      <trkpt lat="43.67649" lon="3.33677">
        <ele>137</ele>
        <time>2014-03-30T10:36:11Z</time>
      </trkpt>
      <trkpt lat="43.67657" lon="3.33687">
        <ele>136</ele>
        <time>2014-03-30T10:36:14Z</time>
      </trkpt>
      <trkpt lat="43.67664" lon="3.33697">
        <ele>136</ele>
        <time>2014-03-30T10:36:17Z</time>
      </trkpt>
      <trkpt lat="43.67675" lon="3.33714">
        <ele>135</ele>
        <time>2014-03-30T10:36:22Z</time>
      </trkpt>
      <trkpt lat="43.6768" lon="3.33726">
        <ele>134</ele>
        <time>2014-03-30T10:36:25Z</time>
      </trkpt>
      <trkpt lat="43.67686" lon="3.33737">
        <ele>133</ele>
        <time>2014-03-30T10:36:28Z</time>
      </trkpt>
      <trkpt lat="43.67693" lon="3.33749">
        <ele>132</ele>
        <time>2014-03-30T10:36:31Z</time>
      </trkpt>
      <trkpt lat="43.67701" lon="3.33762">
        <ele>131</ele>
        <time>2014-03-30T10:36:34Z</time>
      </trkpt>
      <trkpt lat="43.67706" lon="3.33771">
        <ele>131</ele>
        <time>2014-03-30T10:36:36Z</time>
      </trkpt>
      <trkpt lat="43.67715" lon="3.33786">
        <ele>130</ele>
        <time>2014-03-30T10:36:39Z</time>
      </trkpt>
      <trkpt lat="43.67721" lon="3.33796">
        <ele>130</ele>
        <time>2014-03-30T10:36:41Z</time>
      </trkpt>
      <trkpt lat="43.67727" lon="3.33806">
        <ele>129</ele>
        <time>2014-03-30T10:36:43Z</time>
      </trkpt>
      <trkpt lat="43.67733" lon="3.33817">
        <ele>128</ele>
        <time>2014-03-30T10:36:45Z</time>
      </trkpt>
      <trkpt lat="43.67739" lon="3.33829">
        <ele>128</ele>
        <time>2014-03-30T10:36:47Z</time>
      </trkpt>
      <trkpt lat="43.67747" lon="3.33843">
        <ele>127</ele>
        <time>2014-03-30T10:36:49Z</time>
      </trkpt>
      <trkpt lat="43.67756" lon="3.33859">
        <ele>127</ele>
        <time>2014-03-30T10:36:51Z</time>
      </trkpt>
      <trkpt lat="43.67761" lon="3.33868">
        <ele>126</ele>
        <time>2014-03-30T10:36:52Z</time>
      </trkpt>
      <trkpt lat="43.67767" lon="3.33877">
        <ele>126</ele>
        <time>2014-03-30T10:36:53Z</time>
      </trkpt>
      <trkpt lat="43.67772" lon="3.33886">
        <ele>125</ele>
        <time>2014-03-30T10:36:54Z</time>
      </trkpt>
      <trkpt lat="43.67776" lon="3.33895">
        <ele>125</ele>
        <time>2014-03-30T10:36:55Z</time>
      </trkpt>
      <trkpt lat="43.67781" lon="3.33903">
        <ele>125</ele>
        <time>2014-03-30T10:36:56Z</time>
      </trkpt>
      <trkpt lat="43.6779" lon="3.3392">
        <ele>124</ele>
        <time>2014-03-30T10:36:58Z</time>
      </trkpt>
      <trkpt lat="43.67799" lon="3.33937">
        <ele>123</ele>
        <time>2014-03-30T10:37:00Z</time>
      </trkpt>
      <trkpt lat="43.67808" lon="3.33953">
        <ele>122</ele>
        <time>2014-03-30T10:37:02Z</time>
      </trkpt>
      <trkpt lat="43.67816" lon="3.33971">
        <ele>122</ele>
        <time>2014-03-30T10:37:04Z</time>
      </trkpt>
      <trkpt lat="43.67822" lon="3.3399">
        <ele>121</ele>
        <time>2014-03-30T10:37:06Z</time>
      </trkpt>
      <trkpt lat="43.67828" lon="3.34008">
        <ele>120</ele>
        <time>2014-03-30T10:37:08Z</time>
      </trkpt>
      <trkpt lat="43.67833" lon="3.34027">
        <ele>120</ele>
        <time>2014-03-30T10:37:10Z</time>
      </trkpt>
      <trkpt lat="43.67837" lon="3.34045">
        <ele>119</ele>
        <time>2014-03-30T10:37:12Z</time>
      </trkpt>
      <trkpt lat="43.67841" lon="3.34063">
        <ele>118</ele>
        <time>2014-03-30T10:37:14Z</time>
      </trkpt>
      <trkpt lat="43.67843" lon="3.34081">
        <ele>118</ele>
        <time>2014-03-30T10:37:16Z</time>
      </trkpt>
      <trkpt lat="43.67844" lon="3.34089">
        <ele>117</ele>
        <time>2014-03-30T10:37:17Z</time>
      </trkpt>
      <trkpt lat="43.67846" lon="3.34106">
        <ele>116</ele>
        <time>2014-03-30T10:37:19Z</time>
      </trkpt>
      <trkpt lat="43.67848" lon="3.34122">
        <ele>116</ele>
        <time>2014-03-30T10:37:21Z</time>
      </trkpt>
      <trkpt lat="43.67849" lon="3.34138">
        <ele>115</ele>
        <time>2014-03-30T10:37:23Z</time>
      </trkpt>
      <trkpt lat="43.6785" lon="3.34152">
        <ele>114</ele>
        <time>2014-03-30T10:37:25Z</time>
      </trkpt>
      <trkpt lat="43.67851" lon="3.34159">
        <ele>114</ele>
        <time>2014-03-30T10:37:26Z</time>
      </trkpt>
      <trkpt lat="43.67854" lon="3.34179">
        <ele>113</ele>
        <time>2014-03-30T10:37:29Z</time>
      </trkpt>
      <trkpt lat="43.67856" lon="3.34192">
        <ele>112</ele>
        <time>2014-03-30T10:37:31Z</time>
      </trkpt>
      <trkpt lat="43.67858" lon="3.34204">
        <ele>112</ele>
        <time>2014-03-30T10:37:33Z</time>
      </trkpt>
      <trkpt lat="43.67861" lon="3.34223">
        <ele>111</ele>
        <time>2014-03-30T10:37:36Z</time>
      </trkpt>
      <trkpt lat="43.67863" lon="3.34236">
        <ele>111</ele>
        <time>2014-03-30T10:37:38Z</time>
      </trkpt>
      <trkpt lat="43.67864" lon="3.34249">
        <ele>110</ele>
        <time>2014-03-30T10:37:40Z</time>
      </trkpt>
      <trkpt lat="43.67866" lon="3.34268">
        <ele>110</ele>
        <time>2014-03-30T10:37:43Z</time>
      </trkpt>
      <trkpt lat="43.67867" lon="3.34281">
        <ele>109</ele>
        <time>2014-03-30T10:37:45Z</time>
      </trkpt>
      <trkpt lat="43.67867" lon="3.34301">
        <ele>109</ele>
        <time>2014-03-30T10:37:48Z</time>
      </trkpt>
      <trkpt lat="43.67865" lon="3.34315">
        <ele>108</ele>
        <time>2014-03-30T10:37:50Z</time>
      </trkpt>
      <trkpt lat="43.67864" lon="3.34329">
        <ele>108</ele>
        <time>2014-03-30T10:37:52Z</time>
      </trkpt>
      <trkpt lat="43.67865" lon="3.34343">
        <ele>107</ele>
        <time>2014-03-30T10:37:54Z</time>
      </trkpt>
      <trkpt lat="43.67865" lon="3.34358">
        <ele>107</ele>
        <time>2014-03-30T10:37:56Z</time>
      </trkpt>
      <trkpt lat="43.67863" lon="3.34374">
        <ele>106</ele>
        <time>2014-03-30T10:37:58Z</time>
      </trkpt>
      <trkpt lat="43.67861" lon="3.34389">
        <ele>106</ele>
        <time>2014-03-30T10:38:00Z</time>
      </trkpt>
      <trkpt lat="43.67858" lon="3.34404">
        <ele>105</ele>
        <time>2014-03-30T10:38:02Z</time>
      </trkpt>
      <trkpt lat="43.67856" lon="3.3442">
        <ele>105</ele>
        <time>2014-03-30T10:38:04Z</time>
      </trkpt>
      <trkpt lat="43.67853" lon="3.34434">
        <ele>104</ele>
        <time>2014-03-30T10:38:06Z</time>
      </trkpt>
      <trkpt lat="43.67851" lon="3.34449">
        <ele>104</ele>
        <time>2014-03-30T10:38:08Z</time>
      </trkpt>
      <trkpt lat="43.67849" lon="3.34463">
        <ele>104</ele>
        <time>2014-03-30T10:38:10Z</time>
      </trkpt>
      <trkpt lat="43.67847" lon="3.34477">
        <ele>103</ele>
        <time>2014-03-30T10:38:12Z</time>
      </trkpt>
      <trkpt lat="43.67845" lon="3.3449">
        <ele>103</ele>
        <time>2014-03-30T10:38:14Z</time>
      </trkpt>
      <trkpt lat="43.67843" lon="3.34503">
        <ele>103</ele>
        <time>2014-03-30T10:38:16Z</time>
      </trkpt>
      <trkpt lat="43.67842" lon="3.34516">
        <ele>102</ele>
        <time>2014-03-30T10:38:18Z</time>
      </trkpt>
      <trkpt lat="43.67841" lon="3.34522">
        <ele>102</ele>
        <time>2014-03-30T10:38:19Z</time>
      </trkpt>
      <trkpt lat="43.67839" lon="3.34534">
        <ele>102</ele>
        <time>2014-03-30T10:38:21Z</time>
      </trkpt>
      <trkpt lat="43.67838" lon="3.3454">
        <ele>101</ele>
        <time>2014-03-30T10:38:22Z</time>
      </trkpt>
      <trkpt lat="43.67836" lon="3.34551">
        <ele>101</ele>
        <time>2014-03-30T10:38:24Z</time>
      </trkpt>
      <trkpt lat="43.67834" lon="3.34562">
        <ele>101</ele>
        <time>2014-03-30T10:38:26Z</time>
      </trkpt>
      <trkpt lat="43.67833" lon="3.34573">
        <ele>101</ele>
        <time>2014-03-30T10:38:28Z</time>
      </trkpt>
      <trkpt lat="43.67831" lon="3.34583">
        <ele>101</ele>
        <time>2014-03-30T10:38:30Z</time>
      </trkpt>
      <trkpt lat="43.67829" lon="3.34599">
        <ele>101</ele>
        <time>2014-03-30T10:38:33Z</time>
      </trkpt>
      <trkpt lat="43.67826" lon="3.34613">
        <ele>100</ele>
        <time>2014-03-30T10:38:36Z</time>
      </trkpt>
      <trkpt lat="43.67824" lon="3.34626">
        <ele>100</ele>
        <time>2014-03-30T10:38:39Z</time>
      </trkpt>
      <trkpt lat="43.67822" lon="3.3464">
        <ele>99</ele>
        <time>2014-03-30T10:38:42Z</time>
      </trkpt>
      <trkpt lat="43.67819" lon="3.34654">
        <ele>99</ele>
        <time>2014-03-30T10:38:45Z</time>
      </trkpt>
      <trkpt lat="43.67817" lon="3.34668">
        <ele>99</ele>
        <time>2014-03-30T10:38:48Z</time>
      </trkpt>
      <trkpt lat="43.67815" lon="3.34678">
        <ele>98</ele>
        <time>2014-03-30T10:38:50Z</time>
      </trkpt>
      <trkpt lat="43.67814" lon="3.34687">
        <ele>98</ele>
        <time>2014-03-30T10:38:52Z</time>
      </trkpt>
      <trkpt lat="43.67813" lon="3.34702">
        <ele>98</ele>
        <time>2014-03-30T10:38:55Z</time>
      </trkpt>
      <trkpt lat="43.67811" lon="3.34717">
        <ele>97</ele>
        <time>2014-03-30T10:38:58Z</time>
      </trkpt>
      <trkpt lat="43.67808" lon="3.34731">
        <ele>97</ele>
        <time>2014-03-30T10:39:01Z</time>
      </trkpt>
      <trkpt lat="43.67807" lon="3.34746">
        <ele>97</ele>
        <time>2014-03-30T10:39:04Z</time>
      </trkpt>
      <trkpt lat="43.67805" lon="3.34759">
        <ele>97</ele>
        <time>2014-03-30T10:39:07Z</time>
      </trkpt>
      <trkpt lat="43.67803" lon="3.34772">
        <ele>96</ele>
        <time>2014-03-30T10:39:10Z</time>
      </trkpt>
      <trkpt lat="43.67801" lon="3.34785">
        <ele>96</ele>
        <time>2014-03-30T10:39:13Z</time>
      </trkpt>
      <trkpt lat="43.67798" lon="3.34798">
        <ele>95</ele>
        <time>2014-03-30T10:39:16Z</time>
      </trkpt>
      <trkpt lat="43.67797" lon="3.34811">
        <ele>95</ele>
        <time>2014-03-30T10:39:19Z</time>
      </trkpt>
      <trkpt lat="43.67795" lon="3.34823">
        <ele>95</ele>
        <time>2014-03-30T10:39:22Z</time>
      </trkpt>
      <trkpt lat="43.67794" lon="3.34835">
        <ele>94</ele>
        <time>2014-03-30T10:39:25Z</time>
      </trkpt>
      <trkpt lat="43.67792" lon="3.34846">
        <ele>94</ele>
        <time>2014-03-30T10:39:28Z</time>
      </trkpt>
      <trkpt lat="43.6779" lon="3.34858">
        <ele>93</ele>
        <time>2014-03-30T10:39:31Z</time>
      </trkpt>
      <trkpt lat="43.67788" lon="3.3487">
        <ele>93</ele>
        <time>2014-03-30T10:39:34Z</time>
      </trkpt>
      <trkpt lat="43.67787" lon="3.34882">
        <ele>92</ele>
        <time>2014-03-30T10:39:37Z</time>
      </trkpt>
      <trkpt lat="43.67786" lon="3.34894">
        <ele>92</ele>
        <time>2014-03-30T10:39:40Z</time>
      </trkpt>
      <trkpt lat="43.67784" lon="3.34912">
        <ele>91</ele>
        <time>2014-03-30T10:39:46Z</time>
      </trkpt>
      <trkpt lat="43.67782" lon="3.34927">
        <ele>91</ele>
        <time>2014-03-30T10:39:50Z</time>
      </trkpt>
      <trkpt lat="43.6778" lon="3.34939">
        <ele>91</ele>
        <time>2014-03-30T10:39:53Z</time>
      </trkpt>
      <trkpt lat="43.67778" lon="3.34953">
        <ele>90</ele>
        <time>2014-03-30T10:39:56Z</time>
      </trkpt>
      <trkpt lat="43.67777" lon="3.34965">
        <ele>90</ele>
        <time>2014-03-30T10:39:59Z</time>
      </trkpt>
      <trkpt lat="43.67775" lon="3.34978">
        <ele>90</ele>
        <time>2014-03-30T10:40:02Z</time>
      </trkpt>
      <trkpt lat="43.67773" lon="3.34992">
        <ele>90</ele>
        <time>2014-03-30T10:40:05Z</time>
      </trkpt>
      <trkpt lat="43.6777" lon="3.35005">
        <ele>89</ele>
        <time>2014-03-30T10:40:08Z</time>
      </trkpt>
      <trkpt lat="43.67768" lon="3.35019">
        <ele>89</ele>
        <time>2014-03-30T10:40:11Z</time>
      </trkpt>
      <trkpt lat="43.67766" lon="3.35032">
        <ele>89</ele>
        <time>2014-03-30T10:40:14Z</time>
      </trkpt>
      <trkpt lat="43.67764" lon="3.35045">
        <ele>89</ele>
        <time>2014-03-30T10:40:17Z</time>
      </trkpt>
      <trkpt lat="43.67762" lon="3.35057">
        <ele>89</ele>
        <time>2014-03-30T10:40:20Z</time>
      </trkpt>
      <trkpt lat="43.67763" lon="3.35092">
        <ele>89</ele>
        <time>2014-03-30T10:41:35Z</time>
      </trkpt>
      <trkpt lat="43.67762" lon="3.35115">
        <ele>89</ele>
        <time>2014-03-30T10:41:40Z</time>
      </trkpt>
      <trkpt lat="43.67762" lon="3.35126">
        <ele>90</ele>
        <time>2014-03-30T10:41:42Z</time>
      </trkpt>
      <trkpt lat="43.67761" lon="3.35139">
        <ele>90</ele>
        <time>2014-03-30T10:41:44Z</time>
      </trkpt>
      <trkpt lat="43.6776" lon="3.35151">
        <ele>90</ele>
        <time>2014-03-30T10:41:46Z</time>
      </trkpt>
      <trkpt lat="43.6776" lon="3.35167">
        <ele>90</ele>
        <time>2014-03-30T10:41:49Z</time>
      </trkpt>
      <trkpt lat="43.67758" lon="3.35181">
        <ele>90</ele>
        <time>2014-03-30T10:41:52Z</time>
      </trkpt>
      <trkpt lat="43.67757" lon="3.35194">
        <ele>91</ele>
        <time>2014-03-30T10:41:55Z</time>
      </trkpt>
      <trkpt lat="43.67755" lon="3.35207">
        <ele>91</ele>
        <time>2014-03-30T10:41:59Z</time>
      </trkpt>
      <trkpt lat="43.67742" lon="3.35207">
        <ele>92</ele>
        <time>2014-03-30T10:42:05Z</time>
      </trkpt>
      <trkpt lat="43.67734" lon="3.35205">
        <ele>92</ele>
        <time>2014-03-30T10:42:09Z</time>
      </trkpt>
      <trkpt lat="43.67725" lon="3.35206">
        <ele>93</ele>
        <time>2014-03-30T10:42:14Z</time>
      </trkpt>
      <trkpt lat="43.67714" lon="3.35208">
        <ele>93</ele>
        <time>2014-03-30T10:42:20Z</time>
      </trkpt>
      <trkpt lat="43.67705" lon="3.35211">
        <ele>93</ele>
        <time>2014-03-30T10:42:25Z</time>
      </trkpt>
      <trkpt lat="43.67697" lon="3.35213">
        <ele>94</ele>
        <time>2014-03-30T10:42:29Z</time>
      </trkpt>
      <trkpt lat="43.67688" lon="3.35217">
        <ele>94</ele>
        <time>2014-03-30T10:42:33Z</time>
      </trkpt>
      <trkpt lat="43.67677" lon="3.3522">
        <ele>94</ele>
        <time>2014-03-30T10:42:38Z</time>
      </trkpt>
      <trkpt lat="43.67664" lon="3.35224">
        <ele>95</ele>
        <time>2014-03-30T10:42:44Z</time>
      </trkpt>
      <trkpt lat="43.67657" lon="3.35226">
        <ele>95</ele>
        <time>2014-03-30T10:42:47Z</time>
      </trkpt>
      <trkpt lat="43.67646" lon="3.3523">
        <ele>95</ele>
        <time>2014-03-30T10:42:52Z</time>
      </trkpt>
      <trkpt lat="43.67637" lon="3.35233">
        <ele>95</ele>
        <time>2014-03-30T10:42:56Z</time>
      </trkpt>
      <trkpt lat="43.67628" lon="3.35237">
        <ele>96</ele>
        <time>2014-03-30T10:43:00Z</time>
      </trkpt>
      <trkpt lat="43.67619" lon="3.35239">
        <ele>96</ele>
        <time>2014-03-30T10:43:04Z</time>
      </trkpt>
      <trkpt lat="43.6761" lon="3.35241">
        <ele>96</ele>
        <time>2014-03-30T10:43:08Z</time>
      </trkpt>
      <trkpt lat="43.67605" lon="3.35242">
        <ele>96</ele>
        <time>2014-03-30T10:43:10Z</time>
      </trkpt>
      <trkpt lat="43.67601" lon="3.35244">
        <ele>96</ele>
        <time>2014-03-30T10:43:12Z</time>
      </trkpt>
      <trkpt lat="43.67591" lon="3.35246">
        <ele>96</ele>
        <time>2014-03-30T10:43:16Z</time>
      </trkpt>
      <trkpt lat="43.67582" lon="3.35249">
        <ele>97</ele>
        <time>2014-03-30T10:43:20Z</time>
      </trkpt>
      <trkpt lat="43.67573" lon="3.35251">
        <ele>97</ele>
        <time>2014-03-30T10:43:24Z</time>
      </trkpt>
      <trkpt lat="43.67564" lon="3.35254">
        <ele>97</ele>
        <time>2014-03-30T10:43:28Z</time>
      </trkpt>
      <trkpt lat="43.67559" lon="3.35256">
        <ele>97</ele>
        <time>2014-03-30T10:43:30Z</time>
      </trkpt>
      <trkpt lat="43.6755" lon="3.35258">
        <ele>97</ele>
        <time>2014-03-30T10:43:34Z</time>
      </trkpt>
      <trkpt lat="43.6754" lon="3.35261">
        <ele>97</ele>
        <time>2014-03-30T10:43:38Z</time>
      </trkpt>
      <trkpt lat="43.67531" lon="3.35264">
        <ele>97</ele>
        <time>2014-03-30T10:43:42Z</time>
      </trkpt>
      <trkpt lat="43.67522" lon="3.35267">
        <ele>98</ele>
        <time>2014-03-30T10:43:46Z</time>
      </trkpt>
      <trkpt lat="43.67513" lon="3.3527">
        <ele>98</ele>
        <time>2014-03-30T10:43:50Z</time>
      </trkpt>
      <trkpt lat="43.67506" lon="3.35272">
        <ele>98</ele>
        <time>2014-03-30T10:43:53Z</time>
      </trkpt>
      <trkpt lat="43.67502" lon="3.35274">
        <ele>99</ele>
        <time>2014-03-30T10:43:55Z</time>
      </trkpt>
      <trkpt lat="43.67497" lon="3.35275">
        <ele>99</ele>
        <time>2014-03-30T10:43:57Z</time>
      </trkpt>
      <trkpt lat="43.6749" lon="3.35277">
        <ele>99</ele>
        <time>2014-03-30T10:44:00Z</time>
      </trkpt>
      <trkpt lat="43.67486" lon="3.35278">
        <ele>99</ele>
        <time>2014-03-30T10:44:02Z</time>
      </trkpt>
      <trkpt lat="43.67477" lon="3.35281">
        <ele>99</ele>
        <time>2014-03-30T10:44:06Z</time>
      </trkpt>
      <trkpt lat="43.6747" lon="3.35283">
        <ele>99</ele>
        <time>2014-03-30T10:44:10Z</time>
      </trkpt>
      <trkpt lat="43.67462" lon="3.35284">
        <ele>100</ele>
        <time>2014-03-30T10:44:14Z</time>
      </trkpt>
      <trkpt lat="43.67453" lon="3.35287">
        <ele>100</ele>
        <time>2014-03-30T10:44:18Z</time>
      </trkpt>
      <trkpt lat="43.67447" lon="3.35289">
        <ele>100</ele>
        <time>2014-03-30T10:44:21Z</time>
      </trkpt>
      <trkpt lat="43.67443" lon="3.3529">
        <ele>100</ele>
        <time>2014-03-30T10:44:23Z</time>
      </trkpt>
      <trkpt lat="43.67438" lon="3.35292">
        <ele>100</ele>
        <time>2014-03-30T10:44:25Z</time>
      </trkpt>
      <trkpt lat="43.67433" lon="3.35293">
        <ele>100</ele>
        <time>2014-03-30T10:44:27Z</time>
      </trkpt>
      <trkpt lat="43.67419" lon="3.35297">
        <ele>101</ele>
        <time>2014-03-30T10:44:33Z</time>
      </trkpt>
      <trkpt lat="43.6741" lon="3.353">
        <ele>101</ele>
        <time>2014-03-30T10:44:37Z</time>
      </trkpt>
      <trkpt lat="43.67403" lon="3.35301">
        <ele>101</ele>
        <time>2014-03-30T10:44:40Z</time>
      </trkpt>
      <trkpt lat="43.67394" lon="3.35303">
        <ele>102</ele>
        <time>2014-03-30T10:44:44Z</time>
      </trkpt>
      <trkpt lat="43.67386" lon="3.35306">
        <ele>102</ele>
        <time>2014-03-30T10:44:48Z</time>
      </trkpt>
      <trkpt lat="43.67378" lon="3.35309">
        <ele>102</ele>
        <time>2014-03-30T10:44:52Z</time>
      </trkpt>
      <trkpt lat="43.67363" lon="3.35313">
        <ele>103</ele>
        <time>2014-03-30T10:44:59Z</time>
      </trkpt>
      <trkpt lat="43.67355" lon="3.35316">
        <ele>103</ele>
        <time>2014-03-30T10:45:03Z</time>
      </trkpt>
      <trkpt lat="43.67347" lon="3.35318">
        <ele>103</ele>
        <time>2014-03-30T10:45:07Z</time>
      </trkpt>
      <trkpt lat="43.67339" lon="3.35322">
        <ele>103</ele>
        <time>2014-03-30T10:45:11Z</time>
      </trkpt>
      <trkpt lat="43.6733" lon="3.35324">
        <ele>103</ele>
        <time>2014-03-30T10:45:15Z</time>
      </trkpt>
      <trkpt lat="43.67322" lon="3.35327">
        <ele>104</ele>
        <time>2014-03-30T10:45:19Z</time>
      </trkpt>
      <trkpt lat="43.67308" lon="3.35329">
        <ele>104</ele>
        <time>2014-03-30T10:45:27Z</time>
      </trkpt>
      <trkpt lat="43.67295" lon="3.35333">
        <ele>105</ele>
        <time>2014-03-30T10:45:33Z</time>
      </trkpt>
      <trkpt lat="43.67291" lon="3.35335">
        <ele>105</ele>
        <time>2014-03-30T10:45:35Z</time>
      </trkpt>
      <trkpt lat="43.67281" lon="3.35338">
        <ele>105</ele>
        <time>2014-03-30T10:45:39Z</time>
      </trkpt>
      <trkpt lat="43.67272" lon="3.3534">
        <ele>105</ele>
        <time>2014-03-30T10:45:43Z</time>
      </trkpt>
      <trkpt lat="43.67262" lon="3.35343">
        <ele>106</ele>
        <time>2014-03-30T10:45:47Z</time>
      </trkpt>
      <trkpt lat="43.67253" lon="3.35345">
        <ele>106</ele>
        <time>2014-03-30T10:45:51Z</time>
      </trkpt>
      <trkpt lat="43.67247" lon="3.35346">
        <ele>106</ele>
        <time>2014-03-30T10:45:53Z</time>
      </trkpt>
      <trkpt lat="43.67239" lon="3.35349">
        <ele>106</ele>
        <time>2014-03-30T10:45:56Z</time>
      </trkpt>
      <trkpt lat="43.6723" lon="3.35352">
        <ele>107</ele>
        <time>2014-03-30T10:46:00Z</time>
      </trkpt>
      <trkpt lat="43.6722" lon="3.35354">
        <ele>107</ele>
        <time>2014-03-30T10:46:04Z</time>
      </trkpt>
      <trkpt lat="43.67212" lon="3.35358">
        <ele>108</ele>
        <time>2014-03-30T10:46:21Z</time>
      </trkpt>
      <trkpt lat="43.67214" lon="3.35386">
        <ele>106</ele>
        <time>2014-03-30T10:48:33Z</time>
      </trkpt>
      <trkpt lat="43.67206" lon="3.35406">
        <ele>106</ele>
        <time>2014-03-30T10:48:39Z</time>
      </trkpt>
      <trkpt lat="43.672" lon="3.35414">
        <ele>106</ele>
        <time>2014-03-30T10:48:42Z</time>
      </trkpt>
      <trkpt lat="43.67192" lon="3.35424">
        <ele>105</ele>
        <time>2014-03-30T10:48:46Z</time>
      </trkpt>
      <trkpt lat="43.67187" lon="3.35432">
        <ele>105</ele>
        <time>2014-03-30T10:48:49Z</time>
      </trkpt>
      <trkpt lat="43.6718" lon="3.35439">
        <ele>105</ele>
        <time>2014-03-30T10:48:53Z</time>
      </trkpt>
      <trkpt lat="43.67172" lon="3.35442">
        <ele>105</ele>
        <time>2014-03-30T10:48:58Z</time>
      </trkpt>
      <trkpt lat="43.67156" lon="3.3544">
        <ele>105</ele>
        <time>2014-03-30T10:49:07Z</time>
      </trkpt>
      <trkpt lat="43.67148" lon="3.35443">
        <ele>105</ele>
        <time>2014-03-30T10:49:12Z</time>
      </trkpt>
      <trkpt lat="43.67143" lon="3.35447">
        <ele>105</ele>
        <time>2014-03-30T10:49:15Z</time>
      </trkpt>
      <trkpt lat="43.67139" lon="3.35456">
        <ele>105</ele>
        <time>2014-03-30T10:49:19Z</time>
      </trkpt>
      <trkpt lat="43.67139" lon="3.35483">
        <ele>106</ele>
        <time>2014-03-30T10:49:30Z</time>
      </trkpt>
      <trkpt lat="43.67146" lon="3.35497">
        <ele>106</ele>
        <time>2014-03-30T10:49:37Z</time>
      </trkpt>
      <trkpt lat="43.67154" lon="3.3551">
        <ele>107</ele>
        <time>2014-03-30T10:49:45Z</time>
      </trkpt>
      <trkpt lat="43.67164" lon="3.35519">
        <ele>108</ele>
        <time>2014-03-30T10:49:59Z</time>
      </trkpt>
      <trkpt lat="43.6717" lon="3.3553">
        <ele>109</ele>
        <time>2014-03-30T10:50:24Z</time>
      </trkpt>
      <trkpt lat="43.67177" lon="3.35536">
        <ele>109</ele>
        <time>2014-03-30T10:51:43Z</time>
      </trkpt>
      <trkpt lat="43.67182" lon="3.35545">
        <ele>110</ele>
        <time>2014-03-30T10:51:49Z</time>
      </trkpt>
      <trkpt lat="43.67187" lon="3.35555">
        <ele>111</ele>
        <time>2014-03-30T10:51:56Z</time>
      </trkpt>
      <trkpt lat="43.67193" lon="3.35565">
        <ele>112</ele>
        <time>2014-03-30T10:52:04Z</time>
      </trkpt>
      <trkpt lat="43.672" lon="3.35572">
        <ele>113</ele>
        <time>2014-03-30T10:52:11Z</time>
      </trkpt>
      <trkpt lat="43.67209" lon="3.35575">
        <ele>114</ele>
        <time>2014-03-30T10:52:19Z</time>
      </trkpt>
      <trkpt lat="43.6722" lon="3.35573">
        <ele>115</ele>
        <time>2014-03-30T10:52:28Z</time>
      </trkpt>
      <trkpt lat="43.67228" lon="3.35568">
        <ele>116</ele>
        <time>2014-03-30T10:52:36Z</time>
      </trkpt>
      <trkpt lat="43.67244" lon="3.35562">
        <ele>118</ele>
        <time>2014-03-30T10:52:50Z</time>
      </trkpt>
      <trkpt lat="43.67259" lon="3.35564">
        <ele>119</ele>
        <time>2014-03-30T10:52:57Z</time>
      </trkpt>
      <trkpt lat="43.67272" lon="3.35568">
        <ele>119</ele>
        <time>2014-03-30T10:53:02Z</time>
      </trkpt>
      <trkpt lat="43.67279" lon="3.35571">
        <ele>119</ele>
        <time>2014-03-30T10:53:05Z</time>
      </trkpt>
      <trkpt lat="43.67287" lon="3.35573">
        <ele>120</ele>
        <time>2014-03-30T10:53:08Z</time>
      </trkpt>
      <trkpt lat="43.673" lon="3.35578">
        <ele>121</ele>
        <time>2014-03-30T10:53:13Z</time>
      </trkpt>
      <trkpt lat="43.67305" lon="3.35582">
        <ele>121</ele>
        <time>2014-03-30T10:53:16Z</time>
      </trkpt>
      <trkpt lat="43.67313" lon="3.35589">
        <ele>121</ele>
        <time>2014-03-30T10:53:21Z</time>
      </trkpt>
      <trkpt lat="43.67318" lon="3.35611">
        <ele>122</ele>
        <time>2014-03-30T10:53:31Z</time>
      </trkpt>
      <trkpt lat="43.67311" lon="3.35618">
        <ele>122</ele>
        <time>2014-03-30T10:53:35Z</time>
      </trkpt>
      <trkpt lat="43.67294" lon="3.35626">
        <ele>123</ele>
        <time>2014-03-30T10:53:47Z</time>
      </trkpt>
      <trkpt lat="43.67289" lon="3.35624">
        <ele>127</ele>
        <time>2014-03-30T10:54:25Z</time>
      </trkpt>
      <trkpt lat="43.67282" lon="3.35636">
        <ele>128</ele>
        <time>2014-03-30T10:54:57Z</time>
      </trkpt>
      <trkpt lat="43.67277" lon="3.35647">
        <ele>129</ele>
        <time>2014-03-30T10:55:03Z</time>
      </trkpt>
      <trkpt lat="43.67272" lon="3.35663">
        <ele>130</ele>
        <time>2014-03-30T10:55:14Z</time>
      </trkpt>
      <trkpt lat="43.67269" lon="3.35675">
        <ele>130</ele>
        <time>2014-03-30T10:55:21Z</time>
      </trkpt>
      <trkpt lat="43.67265" lon="3.35686">
        <ele>131</ele>
        <time>2014-03-30T10:55:28Z</time>
      </trkpt>
      <trkpt lat="43.67258" lon="3.35702">
        <ele>132</ele>
        <time>2014-03-30T10:55:42Z</time>
      </trkpt>
      <trkpt lat="43.67253" lon="3.35712">
        <ele>132</ele>
        <time>2014-03-30T10:55:48Z</time>
      </trkpt>
      <trkpt lat="43.67248" lon="3.35724">
        <ele>133</ele>
        <time>2014-03-30T10:55:57Z</time>
      </trkpt>
      <trkpt lat="43.67247" lon="3.35746">
        <ele>134</ele>
        <time>2014-03-30T10:56:12Z</time>
      </trkpt>
      <trkpt lat="43.67249" lon="3.35757">
        <ele>135</ele>
        <time>2014-03-30T10:56:21Z</time>
      </trkpt>
      <trkpt lat="43.67253" lon="3.35779">
        <ele>135</ele>
        <time>2014-03-30T10:56:38Z</time>
      </trkpt>
      <trkpt lat="43.67261" lon="3.35798">
        <ele>137</ele>
        <time>2014-03-30T10:56:59Z</time>
      </trkpt>
      <trkpt lat="43.67266" lon="3.35819">
        <ele>138</ele>
        <time>2014-03-30T10:57:18Z</time>
      </trkpt>
      <trkpt lat="43.67268" lon="3.35831">
        <ele>138</ele>
        <time>2014-03-30T10:57:23Z</time>
      </trkpt>
      <trkpt lat="43.67266" lon="3.35845">
        <ele>139</ele>
        <time>2014-03-30T10:57:27Z</time>
      </trkpt>
      <trkpt lat="43.67263" lon="3.35852">
        <ele>139</ele>
        <time>2014-03-30T10:57:29Z</time>
      </trkpt>
      <trkpt lat="43.6726" lon="3.35858">
        <ele>139</ele>
        <time>2014-03-30T10:57:31Z</time>
      </trkpt>
      <trkpt lat="43.67255" lon="3.35865">
        <ele>139</ele>
        <time>2014-03-30T10:57:34Z</time>
      </trkpt>
      <trkpt lat="43.67251" lon="3.3587">
        <ele>139</ele>
        <time>2014-03-30T10:57:36Z</time>
      </trkpt>
      <trkpt lat="43.67245" lon="3.35875">
        <ele>139</ele>
        <time>2014-03-30T10:57:39Z</time>
      </trkpt>
      <trkpt lat="43.67241" lon="3.35878">
        <ele>139</ele>
        <time>2014-03-30T10:57:41Z</time>
      </trkpt>
      <trkpt lat="43.67237" lon="3.35881">
        <ele>139</ele>
        <time>2014-03-30T10:57:43Z</time>
      </trkpt>
      <trkpt lat="43.67233" lon="3.35884">
        <ele>139</ele>
        <time>2014-03-30T10:57:45Z</time>
      </trkpt>
      <trkpt lat="43.67229" lon="3.35886">
        <ele>139</ele>
        <time>2014-03-30T10:57:47Z</time>
      </trkpt>
      <trkpt lat="43.6722" lon="3.35887">
        <ele>140</ele>
        <time>2014-03-30T10:57:50Z</time>
      </trkpt>
      <trkpt lat="43.67212" lon="3.35882">
        <ele>140</ele>
        <time>2014-03-30T10:57:53Z</time>
      </trkpt>
      <trkpt lat="43.67208" lon="3.35878">
        <ele>140</ele>
        <time>2014-03-30T10:57:55Z</time>
      </trkpt>
      <trkpt lat="43.672" lon="3.35871">
        <ele>140</ele>
        <time>2014-03-30T10:58:00Z</time>
      </trkpt>
      <trkpt lat="43.67194" lon="3.35871">
        <ele>140</ele>
        <time>2014-03-30T10:58:04Z</time>
      </trkpt>
      <trkpt lat="43.67189" lon="3.35874">
        <ele>141</ele>
        <time>2014-03-30T10:58:07Z</time>
      </trkpt>
      <trkpt lat="43.67184" lon="3.35879">
        <ele>141</ele>
        <time>2014-03-30T10:58:10Z</time>
      </trkpt>
      <trkpt lat="43.6718" lon="3.35883">
        <ele>141</ele>
        <time>2014-03-30T10:58:12Z</time>
      </trkpt>
      <trkpt lat="43.67172" lon="3.35888">
        <ele>141</ele>
        <time>2014-03-30T10:58:15Z</time>
      </trkpt>
      <trkpt lat="43.67158" lon="3.35887">
        <ele>141</ele>
        <time>2014-03-30T10:58:21Z</time>
      </trkpt>
      <trkpt lat="43.67149" lon="3.35884">
        <ele>141</ele>
        <time>2014-03-30T10:58:25Z</time>
      </trkpt>
      <trkpt lat="43.67134" lon="3.35881">
        <ele>141</ele>
        <time>2014-03-30T10:58:31Z</time>
      </trkpt>
      <trkpt lat="43.67126" lon="3.35881">
        <ele>142</ele>
        <time>2014-03-30T10:58:34Z</time>
      </trkpt>
      <trkpt lat="43.67119" lon="3.35883">
        <ele>142</ele>
        <time>2014-03-30T10:58:37Z</time>
      </trkpt>
      <trkpt lat="43.67112" lon="3.35885">
        <ele>142</ele>
        <time>2014-03-30T10:58:40Z</time>
      </trkpt>
      <trkpt lat="43.67103" lon="3.35887">
        <ele>142</ele>
        <time>2014-03-30T10:58:44Z</time>
      </trkpt>
      <trkpt lat="43.67094" lon="3.3589">
        <ele>143</ele>
        <time>2014-03-30T10:58:48Z</time>
      </trkpt>
      <trkpt lat="43.67081" lon="3.35896">
        <ele>143</ele>
        <time>2014-03-30T10:58:55Z</time>
      </trkpt>
      <trkpt lat="43.67073" lon="3.35912">
        <ele>143</ele>
        <time>2014-03-30T10:59:04Z</time>
      </trkpt>
      <trkpt lat="43.67067" lon="3.35924">
        <ele>143</ele>
        <time>2014-03-30T10:59:07Z</time>
      </trkpt>
      <trkpt lat="43.67059" lon="3.35937">
        <ele>143</ele>
        <time>2014-03-30T10:59:11Z</time>
      </trkpt>
      <trkpt lat="43.67055" lon="3.35944">
        <ele>143</ele>
        <time>2014-03-30T10:59:13Z</time>
      </trkpt>
      <trkpt lat="43.67048" lon="3.35952">
        <ele>143</ele>
        <time>2014-03-30T10:59:16Z</time>
      </trkpt>
      <trkpt lat="43.67044" lon="3.35958">
        <ele>143</ele>
        <time>2014-03-30T10:59:18Z</time>
      </trkpt>
      <trkpt lat="43.67037" lon="3.35967">
        <ele>143</ele>
        <time>2014-03-30T10:59:21Z</time>
      </trkpt>
      <trkpt lat="43.67031" lon="3.35974">
        <ele>143</ele>
        <time>2014-03-30T10:59:24Z</time>
      </trkpt>
      <trkpt lat="43.67025" lon="3.35982">
        <ele>143</ele>
        <time>2014-03-30T10:59:27Z</time>
      </trkpt>
      <trkpt lat="43.67019" lon="3.35989">
        <ele>143</ele>
        <time>2014-03-30T10:59:30Z</time>
      </trkpt>
      <trkpt lat="43.67015" lon="3.35994">
        <ele>143</ele>
        <time>2014-03-30T10:59:32Z</time>
      </trkpt>
      <trkpt lat="43.67009" lon="3.36003">
        <ele>143</ele>
        <time>2014-03-30T10:59:36Z</time>
      </trkpt>
      <trkpt lat="43.67002" lon="3.36014">
        <ele>143</ele>
        <time>2014-03-30T10:59:40Z</time>
      </trkpt>
      <trkpt lat="43.66996" lon="3.36022">
        <ele>143</ele>
        <time>2014-03-30T10:59:43Z</time>
      </trkpt>
      <trkpt lat="43.66986" lon="3.36035">
        <ele>144</ele>
        <time>2014-03-30T10:59:48Z</time>
      </trkpt>
      <trkpt lat="43.66979" lon="3.36043">
        <ele>144</ele>
        <time>2014-03-30T10:59:51Z</time>
      </trkpt>
      <trkpt lat="43.66972" lon="3.36053">
        <ele>144</ele>
        <time>2014-03-30T10:59:54Z</time>
      </trkpt>
      <trkpt lat="43.66964" lon="3.36064">
        <ele>143</ele>
        <time>2014-03-30T10:59:57Z</time>
      </trkpt>
      <trkpt lat="43.66957" lon="3.36073">
        <ele>143</ele>
        <time>2014-03-30T11:00:00Z</time>
      </trkpt>
      <trkpt lat="43.66947" lon="3.36087">
        <ele>143</ele>
        <time>2014-03-30T11:00:05Z</time>
      </trkpt>
      <trkpt lat="43.66943" lon="3.36092">
        <ele>143</ele>
        <time>2014-03-30T11:00:07Z</time>
      </trkpt>
      <trkpt lat="43.66938" lon="3.36101">
        <ele>143</ele>
        <time>2014-03-30T11:00:10Z</time>
      </trkpt>
      <trkpt lat="43.66935" lon="3.36111">
        <ele>142</ele>
        <time>2014-03-30T11:00:13Z</time>
      </trkpt>
      <trkpt lat="43.66932" lon="3.36121">
        <ele>142</ele>
        <time>2014-03-30T11:00:16Z</time>
      </trkpt>
      <trkpt lat="43.6693" lon="3.36127">
        <ele>142</ele>
        <time>2014-03-30T11:00:18Z</time>
      </trkpt>
      <trkpt lat="43.6693" lon="3.36135">
        <ele>142</ele>
        <time>2014-03-30T11:00:20Z</time>
      </trkpt>
      <trkpt lat="43.66931" lon="3.36146">
        <ele>142</ele>
        <time>2014-03-30T11:00:23Z</time>
      </trkpt>
      <trkpt lat="43.66934" lon="3.36159">
        <ele>142</ele>
        <time>2014-03-30T11:00:26Z</time>
      </trkpt>
      <trkpt lat="43.66938" lon="3.36173">
        <ele>142</ele>
        <time>2014-03-30T11:00:29Z</time>
      </trkpt>
      <trkpt lat="43.66938" lon="3.3619">
        <ele>142</ele>
        <time>2014-03-30T11:00:34Z</time>
      </trkpt>
      <trkpt lat="43.66935" lon="3.362">
        <ele>143</ele>
        <time>2014-03-30T11:00:36Z</time>
      </trkpt>
      <trkpt lat="43.66925" lon="3.36203">
        <ele>143</ele>
        <time>2014-03-30T11:00:40Z</time>
      </trkpt>
      <trkpt lat="43.66917" lon="3.36203">
        <ele>143</ele>
        <time>2014-03-30T11:00:43Z</time>
      </trkpt>
      <trkpt lat="43.66909" lon="3.36203">
        <ele>143</ele>
        <time>2014-03-30T11:00:46Z</time>
      </trkpt>
      <trkpt lat="43.669" lon="3.36206">
        <ele>142</ele>
        <time>2014-03-30T11:00:49Z</time>
      </trkpt>
      <trkpt lat="43.66891" lon="3.36212">
        <ele>142</ele>
        <time>2014-03-30T11:00:52Z</time>
      </trkpt>
      <trkpt lat="43.66882" lon="3.36222">
        <ele>142</ele>
        <time>2014-03-30T11:00:55Z</time>
      </trkpt>
      <trkpt lat="43.66874" lon="3.36233">
        <ele>142</ele>
        <time>2014-03-30T11:00:58Z</time>
      </trkpt>
      <trkpt lat="43.66868" lon="3.36242">
        <ele>142</ele>
        <time>2014-03-30T11:01:00Z</time>
      </trkpt>
      <trkpt lat="43.66863" lon="3.36252">
        <ele>142</ele>
        <time>2014-03-30T11:01:02Z</time>
      </trkpt>
      <trkpt lat="43.66857" lon="3.3626">
        <ele>142</ele>
        <time>2014-03-30T11:01:04Z</time>
      </trkpt>
      <trkpt lat="43.6685" lon="3.36268">
        <ele>142</ele>
        <time>2014-03-30T11:01:06Z</time>
      </trkpt>
      <trkpt lat="43.66842" lon="3.36275">
        <ele>142</ele>
        <time>2014-03-30T11:01:08Z</time>
      </trkpt>
      <trkpt lat="43.66836" lon="3.36282">
        <ele>142</ele>
        <time>2014-03-30T11:01:10Z</time>
      </trkpt>
      <trkpt lat="43.66828" lon="3.36291">
        <ele>142</ele>
        <time>2014-03-30T11:01:13Z</time>
      </trkpt>
      <trkpt lat="43.66821" lon="3.363">
        <ele>142</ele>
        <time>2014-03-30T11:01:16Z</time>
      </trkpt>
      <trkpt lat="43.66816" lon="3.36311">
        <ele>141</ele>
        <time>2014-03-30T11:01:19Z</time>
      </trkpt>
      <trkpt lat="43.66812" lon="3.36322">
        <ele>141</ele>
        <time>2014-03-30T11:01:22Z</time>
      </trkpt>
      <trkpt lat="43.66808" lon="3.36332">
        <ele>141</ele>
        <time>2014-03-30T11:01:25Z</time>
      </trkpt>
      <trkpt lat="43.66804" lon="3.36343">
        <ele>141</ele>
        <time>2014-03-30T11:01:28Z</time>
      </trkpt>
      <trkpt lat="43.66801" lon="3.36351">
        <ele>140</ele>
        <time>2014-03-30T11:01:30Z</time>
      </trkpt>
      <trkpt lat="43.66796" lon="3.36364">
        <ele>140</ele>
        <time>2014-03-30T11:01:33Z</time>
      </trkpt>
      <trkpt lat="43.66791" lon="3.36377">
        <ele>140</ele>
        <time>2014-03-30T11:01:36Z</time>
      </trkpt>
      <trkpt lat="43.66787" lon="3.36385">
        <ele>140</ele>
        <time>2014-03-30T11:01:38Z</time>
      </trkpt>
      <trkpt lat="43.66782" lon="3.36392">
        <ele>140</ele>
        <time>2014-03-30T11:01:40Z</time>
      </trkpt>
      <trkpt lat="43.66777" lon="3.36397">
        <ele>140</ele>
        <time>2014-03-30T11:01:42Z</time>
      </trkpt>
      <trkpt lat="43.66771" lon="3.36405">
        <ele>140</ele>
        <time>2014-03-30T11:01:45Z</time>
      </trkpt>
      <trkpt lat="43.66759" lon="3.36431">
        <ele>140</ele>
        <time>2014-03-30T11:01:54Z</time>
      </trkpt>
      <trkpt lat="43.66751" lon="3.36446">
        <ele>140</ele>
        <time>2014-03-30T11:01:59Z</time>
      </trkpt>
      <trkpt lat="43.66748" lon="3.36459">
        <ele>140</ele>
        <time>2014-03-30T11:02:02Z</time>
      </trkpt>
      <trkpt lat="43.66748" lon="3.36467">
        <ele>140</ele>
        <time>2014-03-30T11:02:04Z</time>
      </trkpt>
      <trkpt lat="43.66749" lon="3.36479">
        <ele>140</ele>
        <time>2014-03-30T11:02:07Z</time>
      </trkpt>
      <trkpt lat="43.66743" lon="3.3649">
        <ele>140</ele>
        <time>2014-03-30T11:02:11Z</time>
      </trkpt>
      <trkpt lat="43.66733" lon="3.3649">
        <ele>140</ele>
        <time>2014-03-30T11:02:14Z</time>
      </trkpt>
      <trkpt lat="43.66724" lon="3.36492">
        <ele>140</ele>
        <time>2014-03-30T11:02:17Z</time>
      </trkpt>
      <trkpt lat="43.66715" lon="3.36499">
        <ele>140</ele>
        <time>2014-03-30T11:02:20Z</time>
      </trkpt>
      <trkpt lat="43.66707" lon="3.3651">
        <ele>139</ele>
        <time>2014-03-30T11:02:23Z</time>
      </trkpt>
      <trkpt lat="43.66698" lon="3.36518">
        <ele>139</ele>
        <time>2014-03-30T11:02:26Z</time>
      </trkpt>
      <trkpt lat="43.6669" lon="3.36527">
        <ele>139</ele>
        <time>2014-03-30T11:02:29Z</time>
      </trkpt>
      <trkpt lat="43.66685" lon="3.36533">
        <ele>139</ele>
        <time>2014-03-30T11:02:31Z</time>
      </trkpt>
      <trkpt lat="43.66679" lon="3.36543">
        <ele>139</ele>
        <time>2014-03-30T11:02:34Z</time>
      </trkpt>
      <trkpt lat="43.66674" lon="3.36553">
        <ele>138</ele>
        <time>2014-03-30T11:02:37Z</time>
      </trkpt>
      <trkpt lat="43.6666" lon="3.36575">
        <ele>138</ele>
        <time>2014-03-30T11:02:48Z</time>
      </trkpt>
      <trkpt lat="43.66641" lon="3.36605">
        <ele>137</ele>
        <time>2014-03-30T11:02:56Z</time>
      </trkpt>
      <trkpt lat="43.66635" lon="3.36614">
        <ele>137</ele>
        <time>2014-03-30T11:02:58Z</time>
      </trkpt>
      <trkpt lat="43.6663" lon="3.36624">
        <ele>137</ele>
        <time>2014-03-30T11:03:00Z</time>
      </trkpt>
      <trkpt lat="43.66622" lon="3.36636">
        <ele>136</ele>
        <time>2014-03-30T11:03:03Z</time>
      </trkpt>
      <trkpt lat="43.66616" lon="3.36646">
        <ele>136</ele>
        <time>2014-03-30T11:03:05Z</time>
      </trkpt>
      <trkpt lat="43.66609" lon="3.36654">
        <ele>136</ele>
        <time>2014-03-30T11:03:07Z</time>
      </trkpt>
      <trkpt lat="43.66603" lon="3.36661">
        <ele>136</ele>
        <time>2014-03-30T11:03:09Z</time>
      </trkpt>
      <trkpt lat="43.66592" lon="3.36675">
        <ele>136</ele>
        <time>2014-03-30T11:03:13Z</time>
      </trkpt>
      <trkpt lat="43.66587" lon="3.36682">
        <ele>136</ele>
        <time>2014-03-30T11:03:15Z</time>
      </trkpt>
      <trkpt lat="43.66582" lon="3.36688">
        <ele>136</ele>
        <time>2014-03-30T11:03:17Z</time>
      </trkpt>
      <trkpt lat="43.66574" lon="3.36699">
        <ele>135</ele>
        <time>2014-03-30T11:03:20Z</time>
      </trkpt>
      <trkpt lat="43.6657" lon="3.36706">
        <ele>135</ele>
        <time>2014-03-30T11:03:22Z</time>
      </trkpt>
      <trkpt lat="43.66564" lon="3.36717">
        <ele>135</ele>
        <time>2014-03-30T11:03:25Z</time>
      </trkpt>
      <trkpt lat="43.66558" lon="3.36727">
        <ele>135</ele>
        <time>2014-03-30T11:03:28Z</time>
      </trkpt>
      <trkpt lat="43.66552" lon="3.36745">
        <ele>135</ele>
        <time>2014-03-30T11:03:33Z</time>
      </trkpt>
      <trkpt lat="43.66543" lon="3.36772">
        <ele>135</ele>
        <time>2014-03-30T11:03:43Z</time>
      </trkpt>
      <trkpt lat="43.66537" lon="3.3679">
        <ele>134</ele>
        <time>2014-03-30T11:03:49Z</time>
      </trkpt>
      <trkpt lat="43.66531" lon="3.36819">
        <ele>134</ele>
        <time>2014-03-30T11:04:00Z</time>
      </trkpt>
      <trkpt lat="43.66527" lon="3.36837">
        <ele>134</ele>
        <time>2014-03-30T11:04:06Z</time>
      </trkpt>
      <trkpt lat="43.6652" lon="3.36859">
        <ele>134</ele>
        <time>2014-03-30T11:04:13Z</time>
      </trkpt>
      <trkpt lat="43.66516" lon="3.36882">
        <ele>134</ele>
        <time>2014-03-30T11:04:20Z</time>
      </trkpt>
      <trkpt lat="43.66514" lon="3.36895">
        <ele>134</ele>
        <time>2014-03-30T11:04:23Z</time>
      </trkpt>
      <trkpt lat="43.6651" lon="3.36909">
        <ele>134</ele>
        <time>2014-03-30T11:04:26Z</time>
      </trkpt>
      <trkpt lat="43.66508" lon="3.36918">
        <ele>134</ele>
        <time>2014-03-30T11:04:28Z</time>
      </trkpt>
      <trkpt lat="43.66502" lon="3.36927">
        <ele>134</ele>
        <time>2014-03-30T11:04:31Z</time>
      </trkpt>
      <trkpt lat="43.66496" lon="3.36936">
        <ele>134</ele>
        <time>2014-03-30T11:04:35Z</time>
      </trkpt>
      <trkpt lat="43.66491" lon="3.36946">
        <ele>133</ele>
        <time>2014-03-30T11:04:39Z</time>
      </trkpt>
      <trkpt lat="43.6649" lon="3.36957">
        <ele>133</ele>
        <time>2014-03-30T11:04:43Z</time>
      </trkpt>
      <trkpt lat="43.66494" lon="3.36977">
        <ele>133</ele>
        <time>2014-03-30T11:04:51Z</time>
      </trkpt>
      <trkpt lat="43.66497" lon="3.36983">
        <ele>133</ele>
        <time>2014-03-30T11:04:54Z</time>
      </trkpt>
      <trkpt lat="43.66505" lon="3.36991">
        <ele>132</ele>
        <time>2014-03-30T11:05:00Z</time>
      </trkpt>
      <trkpt lat="43.66513" lon="3.36999">
        <ele>132</ele>
        <time>2014-03-30T11:05:05Z</time>
      </trkpt>
      <trkpt lat="43.66526" lon="3.37009">
        <ele>132</ele>
        <time>2014-03-30T11:05:13Z</time>
      </trkpt>
      <trkpt lat="43.66531" lon="3.37014">
        <ele>132</ele>
        <time>2014-03-30T11:05:16Z</time>
      </trkpt>
      <trkpt lat="43.66535" lon="3.37019">
        <ele>132</ele>
        <time>2014-03-30T11:05:19Z</time>
      </trkpt>
      <trkpt lat="43.66542" lon="3.3703">
        <ele>132</ele>
        <time>2014-03-30T11:05:25Z</time>
      </trkpt>
      <trkpt lat="43.66549" lon="3.37047">
        <ele>133</ele>
        <time>2014-03-30T11:05:35Z</time>
      </trkpt>
      <trkpt lat="43.66556" lon="3.37056">
        <ele>134</ele>
        <time>2014-03-30T11:05:41Z</time>
      </trkpt>
      <trkpt lat="43.66565" lon="3.37067">
        <ele>135</ele>
        <time>2014-03-30T11:05:48Z</time>
      </trkpt>
      <trkpt lat="43.6657" lon="3.37076">
        <ele>135</ele>
        <time>2014-03-30T11:05:53Z</time>
      </trkpt>
      <trkpt lat="43.66573" lon="3.37084">
        <ele>136</ele>
        <time>2014-03-30T11:05:57Z</time>
      </trkpt>
      <trkpt lat="43.66576" lon="3.37098">
        <ele>137</ele>
        <time>2014-03-30T11:06:03Z</time>
      </trkpt>
      <trkpt lat="43.66582" lon="3.37111">
        <ele>138</ele>
        <time>2014-03-30T11:06:10Z</time>
      </trkpt>
      <trkpt lat="43.66594" lon="3.37127">
        <ele>139</ele>
        <time>2014-03-30T11:06:21Z</time>
      </trkpt>
      <trkpt lat="43.66603" lon="3.37134">
        <ele>140</ele>
        <time>2014-03-30T11:06:27Z</time>
      </trkpt>
      <trkpt lat="43.66613" lon="3.37141">
        <ele>140</ele>
        <time>2014-03-30T11:06:33Z</time>
      </trkpt>
      <trkpt lat="43.66628" lon="3.37148">
        <ele>140</ele>
        <time>2014-03-30T11:06:41Z</time>
      </trkpt>
      <trkpt lat="43.66641" lon="3.37148">
        <ele>140</ele>
        <time>2014-03-30T11:06:53Z</time>
      </trkpt>
      <trkpt lat="43.66651" lon="3.3715">
        <ele>141</ele>
        <time>2014-03-30T11:06:59Z</time>
      </trkpt>
      <trkpt lat="43.66665" lon="3.37155">
        <ele>141</ele>
        <time>2014-03-30T11:07:08Z</time>
      </trkpt>
      <trkpt lat="43.66672" lon="3.37167">
        <ele>142</ele>
        <time>2014-03-30T11:07:17Z</time>
      </trkpt>
      <trkpt lat="43.66663" lon="3.372">
        <ele>142</ele>
        <time>2014-03-30T11:07:27Z</time>
      </trkpt>
      <trkpt lat="43.66657" lon="3.37216">
        <ele>143</ele>
        <time>2014-03-30T11:07:32Z</time>
      </trkpt>
      <trkpt lat="43.66651" lon="3.37226">
        <ele>143</ele>
        <time>2014-03-30T11:07:36Z</time>
      </trkpt>
      <trkpt lat="43.66643" lon="3.37234">
        <ele>143</ele>
        <time>2014-03-30T11:07:40Z</time>
      </trkpt>
      <trkpt lat="43.66634" lon="3.37245">
        <ele>143</ele>
        <time>2014-03-30T11:07:45Z</time>
      </trkpt>
      <trkpt lat="43.66627" lon="3.37255">
        <ele>143</ele>
        <time>2014-03-30T11:07:49Z</time>
      </trkpt>
      <trkpt lat="43.66622" lon="3.37266">
        <ele>144</ele>
        <time>2014-03-30T11:07:53Z</time>
      </trkpt>
      <trkpt lat="43.6661" lon="3.37285">
        <ele>144</ele>
        <time>2014-03-30T11:08:01Z</time>
      </trkpt>
      <trkpt lat="43.66603" lon="3.37294">
        <ele>144</ele>
        <time>2014-03-30T11:08:04Z</time>
      </trkpt>
      <trkpt lat="43.66597" lon="3.373">
        <ele>143</ele>
        <time>2014-03-30T11:08:06Z</time>
      </trkpt>
      <trkpt lat="43.66591" lon="3.37306">
        <ele>143</ele>
        <time>2014-03-30T11:08:08Z</time>
      </trkpt>
      <trkpt lat="43.66585" lon="3.37313">
        <ele>143</ele>
        <time>2014-03-30T11:08:10Z</time>
      </trkpt>
      <trkpt lat="43.66578" lon="3.3732">
        <ele>143</ele>
        <time>2014-03-30T11:08:12Z</time>
      </trkpt>
      <trkpt lat="43.66568" lon="3.37332">
        <ele>143</ele>
        <time>2014-03-30T11:08:15Z</time>
      </trkpt>
      <trkpt lat="43.66565" lon="3.37336">
        <ele>143</ele>
        <time>2014-03-30T11:08:16Z</time>
      </trkpt>
      <trkpt lat="43.66561" lon="3.3734">
        <ele>143</ele>
        <time>2014-03-30T11:08:17Z</time>
      </trkpt>
      <trkpt lat="43.66555" lon="3.37347">
        <ele>143</ele>
        <time>2014-03-30T11:08:19Z</time>
      </trkpt>
      <trkpt lat="43.6655" lon="3.37355">
        <ele>143</ele>
        <time>2014-03-30T11:08:21Z</time>
      </trkpt>
      <trkpt lat="43.66544" lon="3.37362">
        <ele>143</ele>
        <time>2014-03-30T11:08:23Z</time>
      </trkpt>
      <trkpt lat="43.66537" lon="3.37375">
        <ele>143</ele>
        <time>2014-03-30T11:08:26Z</time>
      </trkpt>
      <trkpt lat="43.66531" lon="3.37388">
        <ele>143</ele>
        <time>2014-03-30T11:08:29Z</time>
      </trkpt>
      <trkpt lat="43.66525" lon="3.37399">
        <ele>143</ele>
        <time>2014-03-30T11:08:32Z</time>
      </trkpt>
      <trkpt lat="43.66517" lon="3.37409">
        <ele>143</ele>
        <time>2014-03-30T11:08:35Z</time>
      </trkpt>
      <trkpt lat="43.66507" lon="3.37416">
        <ele>143</ele>
        <time>2014-03-30T11:08:38Z</time>
      </trkpt>
      <trkpt lat="43.66496" lon="3.37423">
        <ele>143</ele>
        <time>2014-03-30T11:08:41Z</time>
      </trkpt>
      <trkpt lat="43.66483" lon="3.37431">
        <ele>143</ele>
        <time>2014-03-30T11:08:45Z</time>
      </trkpt>
      <trkpt lat="43.66477" lon="3.37436">
        <ele>143</ele>
        <time>2014-03-30T11:08:47Z</time>
      </trkpt>
      <trkpt lat="43.66469" lon="3.37444">
        <ele>143</ele>
        <time>2014-03-30T11:08:50Z</time>
      </trkpt>
      <trkpt lat="43.66462" lon="3.37454">
        <ele>143</ele>
        <time>2014-03-30T11:08:53Z</time>
      </trkpt>
      <trkpt lat="43.66459" lon="3.37461">
        <ele>143</ele>
        <time>2014-03-30T11:08:55Z</time>
      </trkpt>
      <trkpt lat="43.66455" lon="3.37471">
        <ele>143</ele>
        <time>2014-03-30T11:08:58Z</time>
      </trkpt>
      <trkpt lat="43.66453" lon="3.37483">
        <ele>143</ele>
        <time>2014-03-30T11:09:01Z</time>
      </trkpt>
      <trkpt lat="43.6645" lon="3.37494">
        <ele>143</ele>
        <time>2014-03-30T11:09:04Z</time>
      </trkpt>
      <trkpt lat="43.66446" lon="3.37506">
        <ele>143</ele>
        <time>2014-03-30T11:09:07Z</time>
      </trkpt>
      <trkpt lat="43.66443" lon="3.37515">
        <ele>143</ele>
        <time>2014-03-30T11:09:09Z</time>
      </trkpt>
      <trkpt lat="43.66439" lon="3.37528">
        <ele>143</ele>
        <time>2014-03-30T11:09:12Z</time>
      </trkpt>
      <trkpt lat="43.66436" lon="3.37535">
        <ele>144</ele>
        <time>2014-03-30T11:09:14Z</time>
      </trkpt>
      <trkpt lat="43.6643" lon="3.37553">
        <ele>144</ele>
        <time>2014-03-30T11:09:19Z</time>
      </trkpt>
      <trkpt lat="43.66428" lon="3.37561">
        <ele>145</ele>
        <time>2014-03-30T11:09:21Z</time>
      </trkpt>
      <trkpt lat="43.66423" lon="3.37579">
        <ele>145</ele>
        <time>2014-03-30T11:09:26Z</time>
      </trkpt>
      <trkpt lat="43.66422" lon="3.37585">
        <ele>145</ele>
        <time>2014-03-30T11:09:28Z</time>
      </trkpt>
      <trkpt lat="43.66421" lon="3.37592">
        <ele>145</ele>
        <time>2014-03-30T11:09:30Z</time>
      </trkpt>
      <trkpt lat="43.66419" lon="3.37599">
        <ele>146</ele>
        <time>2014-03-30T11:09:32Z</time>
      </trkpt>
      <trkpt lat="43.66418" lon="3.37606">
        <ele>146</ele>
        <time>2014-03-30T11:09:34Z</time>
      </trkpt>
      <trkpt lat="43.66416" lon="3.37618">
        <ele>146</ele>
        <time>2014-03-30T11:09:37Z</time>
      </trkpt>
      <trkpt lat="43.66414" lon="3.3763">
        <ele>146</ele>
        <time>2014-03-30T11:09:40Z</time>
      </trkpt>
      <trkpt lat="43.66413" lon="3.37637">
        <ele>146</ele>
        <time>2014-03-30T11:09:42Z</time>
      </trkpt>
      <trkpt lat="43.66413" lon="3.37644">
        <ele>146</ele>
        <time>2014-03-30T11:09:44Z</time>
      </trkpt>
      <trkpt lat="43.6641" lon="3.37662">
        <ele>146</ele>
        <time>2014-03-30T11:09:49Z</time>
      </trkpt>
      <trkpt lat="43.6641" lon="3.37669">
        <ele>147</ele>
        <time>2014-03-30T11:09:51Z</time>
      </trkpt>
      <trkpt lat="43.66409" lon="3.3768">
        <ele>147</ele>
        <time>2014-03-30T11:09:54Z</time>
      </trkpt>
      <trkpt lat="43.6641" lon="3.37691">
        <ele>147</ele>
        <time>2014-03-30T11:09:57Z</time>
      </trkpt>
      <trkpt lat="43.66412" lon="3.37703">
        <ele>147</ele>
        <time>2014-03-30T11:10:00Z</time>
      </trkpt>
      <trkpt lat="43.66413" lon="3.37715">
        <ele>147</ele>
        <time>2014-03-30T11:10:03Z</time>
      </trkpt>
      <trkpt lat="43.66414" lon="3.37725">
        <ele>147</ele>
        <time>2014-03-30T11:10:06Z</time>
      </trkpt>
      <trkpt lat="43.66418" lon="3.37744">
        <ele>147</ele>
        <time>2014-03-30T11:10:11Z</time>
      </trkpt>
      <trkpt lat="43.66422" lon="3.37755">
        <ele>147</ele>
        <time>2014-03-30T11:10:14Z</time>
      </trkpt>
      <trkpt lat="43.66426" lon="3.37765">
        <ele>147</ele>
        <time>2014-03-30T11:10:17Z</time>
      </trkpt>
      <trkpt lat="43.66432" lon="3.37783">
        <ele>147</ele>
        <time>2014-03-30T11:10:22Z</time>
      </trkpt>
      <trkpt lat="43.66439" lon="3.37801">
        <ele>147</ele>
        <time>2014-03-30T11:10:27Z</time>
      </trkpt>
      <trkpt lat="43.66445" lon="3.37814">
        <ele>147</ele>
        <time>2014-03-30T11:10:30Z</time>
      </trkpt>
      <trkpt lat="43.66451" lon="3.37827">
        <ele>147</ele>
        <time>2014-03-30T11:10:33Z</time>
      </trkpt>
      <trkpt lat="43.66453" lon="3.37831">
        <ele>147</ele>
        <time>2014-03-30T11:10:34Z</time>
      </trkpt>
      <trkpt lat="43.66458" lon="3.37842">
        <ele>147</ele>
        <time>2014-03-30T11:10:36Z</time>
      </trkpt>
      <trkpt lat="43.66463" lon="3.37852">
        <ele>147</ele>
        <time>2014-03-30T11:10:38Z</time>
      </trkpt>
      <trkpt lat="43.66467" lon="3.37863">
        <ele>147</ele>
        <time>2014-03-30T11:10:40Z</time>
      </trkpt>
      <trkpt lat="43.66469" lon="3.37868">
        <ele>147</ele>
        <time>2014-03-30T11:10:41Z</time>
      </trkpt>
      <trkpt lat="43.66472" lon="3.37873">
        <ele>147</ele>
        <time>2014-03-30T11:10:42Z</time>
      </trkpt>
      <trkpt lat="43.6648" lon="3.37888">
        <ele>147</ele>
        <time>2014-03-30T11:10:45Z</time>
      </trkpt>
      <trkpt lat="43.66483" lon="3.37893">
        <ele>147</ele>
        <time>2014-03-30T11:10:46Z</time>
      </trkpt>
      <trkpt lat="43.66486" lon="3.37899">
        <ele>147</ele>
        <time>2014-03-30T11:10:47Z</time>
      </trkpt>
      <trkpt lat="43.66492" lon="3.37909">
        <ele>147</ele>
        <time>2014-03-30T11:10:49Z</time>
      </trkpt>
      <trkpt lat="43.66493" lon="3.37922">
        <ele>147</ele>
        <time>2014-03-30T11:10:51Z</time>
      </trkpt>
      <trkpt lat="43.66487" lon="3.37938">
        <ele>147</ele>
        <time>2014-03-30T11:10:55Z</time>
      </trkpt>
      <trkpt lat="43.66476" lon="3.37938">
        <ele>147</ele>
        <time>2014-03-30T11:10:58Z</time>
      </trkpt>
      <trkpt lat="43.66466" lon="3.37938">
        <ele>147</ele>
        <time>2014-03-30T11:11:01Z</time>
      </trkpt>
      <trkpt lat="43.66455" lon="3.3794">
        <ele>147</ele>
        <time>2014-03-30T11:11:04Z</time>
      </trkpt>
      <trkpt lat="43.66444" lon="3.37942">
        <ele>148</ele>
        <time>2014-03-30T11:11:07Z</time>
      </trkpt>
      <trkpt lat="43.66433" lon="3.37942">
        <ele>148</ele>
        <time>2014-03-30T11:11:10Z</time>
      </trkpt>
      <trkpt lat="43.66422" lon="3.37943">
        <ele>148</ele>
        <time>2014-03-30T11:11:13Z</time>
      </trkpt>
      <trkpt lat="43.66411" lon="3.37946">
        <ele>148</ele>
        <time>2014-03-30T11:11:16Z</time>
      </trkpt>
      <trkpt lat="43.664" lon="3.37949">
        <ele>148</ele>
        <time>2014-03-30T11:11:19Z</time>
      </trkpt>
      <trkpt lat="43.66393" lon="3.37951">
        <ele>148</ele>
        <time>2014-03-30T11:11:21Z</time>
      </trkpt>
      <trkpt lat="43.66382" lon="3.37952">
        <ele>148</ele>
        <time>2014-03-30T11:11:24Z</time>
      </trkpt>
      <trkpt lat="43.66373" lon="3.37955">
        <ele>148</ele>
        <time>2014-03-30T11:11:27Z</time>
      </trkpt>
      <trkpt lat="43.66364" lon="3.37959">
        <ele>148</ele>
        <time>2014-03-30T11:11:30Z</time>
      </trkpt>
      <trkpt lat="43.66351" lon="3.37969">
        <ele>148</ele>
        <time>2014-03-30T11:11:35Z</time>
      </trkpt>
      <trkpt lat="43.66336" lon="3.37984">
        <ele>148</ele>
        <time>2014-03-30T11:11:41Z</time>
      </trkpt>
      <trkpt lat="43.66329" lon="3.37992">
        <ele>148</ele>
        <time>2014-03-30T11:11:44Z</time>
      </trkpt>
      <trkpt lat="43.66323" lon="3.38">
        <ele>148</ele>
        <time>2014-03-30T11:11:47Z</time>
      </trkpt>
      <trkpt lat="43.66315" lon="3.38013">
        <ele>148</ele>
        <time>2014-03-30T11:11:52Z</time>
      </trkpt>
      <trkpt lat="43.66307" lon="3.3803">
        <ele>148</ele>
        <time>2014-03-30T11:11:59Z</time>
      </trkpt>
      <trkpt lat="43.66302" lon="3.3804">
        <ele>148</ele>
        <time>2014-03-30T11:12:03Z</time>
      </trkpt>
      <trkpt lat="43.66295" lon="3.38049">
        <ele>148</ele>
        <time>2014-03-30T11:12:07Z</time>
      </trkpt>
      <trkpt lat="43.66289" lon="3.38059">
        <ele>148</ele>
        <time>2014-03-30T11:12:11Z</time>
      </trkpt>
      <trkpt lat="43.66282" lon="3.38068">
        <ele>148</ele>
        <time>2014-03-30T11:12:15Z</time>
      </trkpt>
      <trkpt lat="43.66274" lon="3.38079">
        <ele>148</ele>
        <time>2014-03-30T11:12:21Z</time>
      </trkpt>
      <trkpt lat="43.6627" lon="3.38089">
        <ele>148</ele>
        <time>2014-03-30T11:12:25Z</time>
      </trkpt>
      <trkpt lat="43.66267" lon="3.38101">
        <ele>148</ele>
        <time>2014-03-30T11:12:29Z</time>
      </trkpt>
      <trkpt lat="43.66264" lon="3.38113">
        <ele>148</ele>
        <time>2014-03-30T11:12:33Z</time>
      </trkpt>
      <trkpt lat="43.66261" lon="3.38129">
        <ele>148</ele>
        <time>2014-03-30T11:12:38Z</time>
      </trkpt>
      <trkpt lat="43.66259" lon="3.38135">
        <ele>148</ele>
        <time>2014-03-30T11:12:40Z</time>
      </trkpt>
      <trkpt lat="43.66257" lon="3.38142">
        <ele>147</ele>
        <time>2014-03-30T11:12:42Z</time>
      </trkpt>
      <trkpt lat="43.66253" lon="3.38153">
        <ele>147</ele>
        <time>2014-03-30T11:12:45Z</time>
      </trkpt>
      <trkpt lat="43.6625" lon="3.38161">
        <ele>147</ele>
        <time>2014-03-30T11:12:47Z</time>
      </trkpt>
      <trkpt lat="43.66247" lon="3.3817">
        <ele>147</ele>
        <time>2014-03-30T11:12:49Z</time>
      </trkpt>
      <trkpt lat="43.66244" lon="3.38183">
        <ele>147</ele>
        <time>2014-03-30T11:12:52Z</time>
      </trkpt>
      <trkpt lat="43.66242" lon="3.38193">
        <ele>147</ele>
        <time>2014-03-30T11:12:54Z</time>
      </trkpt>
      <trkpt lat="43.6624" lon="3.38205">
        <ele>147</ele>
        <time>2014-03-30T11:12:56Z</time>
      </trkpt>
      <trkpt lat="43.66239" lon="3.38215">
        <ele>147</ele>
        <time>2014-03-30T11:12:58Z</time>
      </trkpt>
      <trkpt lat="43.66239" lon="3.38226">
        <ele>147</ele>
        <time>2014-03-30T11:13:00Z</time>
      </trkpt>
      <trkpt lat="43.66239" lon="3.38242">
        <ele>147</ele>
        <time>2014-03-30T11:13:03Z</time>
      </trkpt>
      <trkpt lat="43.66239" lon="3.38257">
        <ele>147</ele>
        <time>2014-03-30T11:13:06Z</time>
      </trkpt>
      <trkpt lat="43.6624" lon="3.38267">
        <ele>147</ele>
        <time>2014-03-30T11:13:08Z</time>
      </trkpt>
      <trkpt lat="43.66242" lon="3.38282">
        <ele>147</ele>
        <time>2014-03-30T11:13:11Z</time>
      </trkpt>
      <trkpt lat="43.66245" lon="3.38295">
        <ele>147</ele>
        <time>2014-03-30T11:13:14Z</time>
      </trkpt>
      <trkpt lat="43.66247" lon="3.38302">
        <ele>147</ele>
        <time>2014-03-30T11:13:16Z</time>
      </trkpt>
      <trkpt lat="43.6625" lon="3.38313">
        <ele>147</ele>
        <time>2014-03-30T11:13:19Z</time>
      </trkpt>
      <trkpt lat="43.66256" lon="3.38329">
        <ele>147</ele>
        <time>2014-03-30T11:13:24Z</time>
      </trkpt>
      <trkpt lat="43.66258" lon="3.38335">
        <ele>147</ele>
        <time>2014-03-30T11:13:26Z</time>
      </trkpt>
      <trkpt lat="43.66259" lon="3.38349">
        <ele>147</ele>
        <time>2014-03-30T11:13:30Z</time>
      </trkpt>
      <trkpt lat="43.66259" lon="3.38362">
        <ele>147</ele>
        <time>2014-03-30T11:13:34Z</time>
      </trkpt>
      <trkpt lat="43.66259" lon="3.38373">
        <ele>147</ele>
        <time>2014-03-30T11:13:39Z</time>
      </trkpt>
      <trkpt lat="43.66258" lon="3.38388">
        <ele>147</ele>
        <time>2014-03-30T11:13:45Z</time>
      </trkpt>
      <trkpt lat="43.66257" lon="3.38396">
        <ele>147</ele>
        <time>2014-03-30T11:13:48Z</time>
      </trkpt>
      <trkpt lat="43.66257" lon="3.38406">
        <ele>147</ele>
        <time>2014-03-30T11:13:52Z</time>
      </trkpt>
      <trkpt lat="43.66259" lon="3.38417">
        <ele>147</ele>
        <time>2014-03-30T11:13:56Z</time>
      </trkpt>
      <trkpt lat="43.66261" lon="3.38427">
        <ele>147</ele>
        <time>2014-03-30T11:14:00Z</time>
      </trkpt>
      <trkpt lat="43.66264" lon="3.38442">
        <ele>147</ele>
        <time>2014-03-30T11:14:06Z</time>
      </trkpt>
      <trkpt lat="43.66267" lon="3.38465">
        <ele>148</ele>
        <time>2014-03-30T11:14:18Z</time>
      </trkpt>
      <trkpt lat="43.66264" lon="3.38486">
        <ele>148</ele>
        <time>2014-03-30T11:14:25Z</time>
      </trkpt>
      <trkpt lat="43.66259" lon="3.38508">
        <ele>149</ele>
        <time>2014-03-30T11:14:35Z</time>
      </trkpt>
      <trkpt lat="43.66254" lon="3.3853">
        <ele>149</ele>
        <time>2014-03-30T11:14:46Z</time>
      </trkpt>
      <trkpt lat="43.66253" lon="3.38546">
        <ele>150</ele>
        <time>2014-03-30T11:14:54Z</time>
      </trkpt>
      <trkpt lat="43.66252" lon="3.38558">
        <ele>150</ele>
        <time>2014-03-30T11:15:00Z</time>
      </trkpt>
      <trkpt lat="43.66252" lon="3.3857">
        <ele>151</ele>
        <time>2014-03-30T11:15:06Z</time>
      </trkpt>
      <trkpt lat="43.66251" lon="3.38583">
        <ele>151</ele>
        <time>2014-03-30T11:15:13Z</time>
      </trkpt>
      <trkpt lat="43.66255" lon="3.38604">
        <ele>152</ele>
        <time>2014-03-30T11:15:24Z</time>
      </trkpt>
      <trkpt lat="43.66255" lon="3.38622">
        <ele>152</ele>
        <time>2014-03-30T11:15:34Z</time>
      </trkpt>
      <trkpt lat="43.66257" lon="3.38639">
        <ele>153</ele>
        <time>2014-03-30T11:15:44Z</time>
      </trkpt>
      <trkpt lat="43.66257" lon="3.38652">
        <ele>154</ele>
        <time>2014-03-30T11:15:50Z</time>
      </trkpt>
      <trkpt lat="43.66257" lon="3.38666">
        <ele>154</ele>
        <time>2014-03-30T11:15:56Z</time>
      </trkpt>
      <trkpt lat="43.66259" lon="3.38685">
        <ele>155</ele>
        <time>2014-03-30T11:16:04Z</time>
      </trkpt>
      <trkpt lat="43.66263" lon="3.38706">
        <ele>155</ele>
        <time>2014-03-30T11:16:14Z</time>
      </trkpt>
      <trkpt lat="43.6627" lon="3.38721">
        <ele>156</ele>
        <time>2014-03-30T11:16:23Z</time>
      </trkpt>
      <trkpt lat="43.66279" lon="3.38733">
        <ele>156</ele>
        <time>2014-03-30T11:16:31Z</time>
      </trkpt>
      <trkpt lat="43.66289" lon="3.3875">
        <ele>157</ele>
        <time>2014-03-30T11:16:43Z</time>
      </trkpt>
      <trkpt lat="43.66288" lon="3.38757">
        <ele>158</ele>
        <time>2014-03-30T11:17:02Z</time>
      </trkpt>
      <trkpt lat="43.66288" lon="3.38763">
        <ele>160</ele>
        <time>2014-03-30T11:18:28Z</time>
      </trkpt>
      <trkpt lat="43.66287" lon="3.3878">
        <ele>160</ele>
        <time>2014-03-30T11:18:38Z</time>
      </trkpt>
      <trkpt lat="43.66282" lon="3.38788">
        <ele>160</ele>
        <time>2014-03-30T11:18:41Z</time>
      </trkpt>
      <trkpt lat="43.66273" lon="3.38803">
        <ele>161</ele>
        <time>2014-03-30T11:18:47Z</time>
      </trkpt>
      <trkpt lat="43.6627" lon="3.38808">
        <ele>162</ele>
        <time>2014-03-30T11:18:49Z</time>
      </trkpt>
      <trkpt lat="43.66264" lon="3.38824">
        <ele>162</ele>
        <time>2014-03-30T11:18:55Z</time>
      </trkpt>
      <trkpt lat="43.66259" lon="3.38833">
        <ele>163</ele>
        <time>2014-03-30T11:18:59Z</time>
      </trkpt>
      <trkpt lat="43.66253" lon="3.38841">
        <ele>163</ele>
        <time>2014-03-30T11:19:03Z</time>
      </trkpt>
      <trkpt lat="43.66248" lon="3.38849">
        <ele>163</ele>
        <time>2014-03-30T11:19:07Z</time>
      </trkpt>
      <trkpt lat="43.66239" lon="3.38874">
        <ele>164</ele>
        <time>2014-03-30T11:19:20Z</time>
      </trkpt>
      <trkpt lat="43.66235" lon="3.38885">
        <ele>164</ele>
        <time>2014-03-30T11:19:25Z</time>
      </trkpt>
      <trkpt lat="43.66226" lon="3.38905">
        <ele>164</ele>
        <time>2014-03-30T11:19:34Z</time>
      </trkpt>
      <trkpt lat="43.66217" lon="3.38922">
        <ele>165</ele>
        <time>2014-03-30T11:19:42Z</time>
      </trkpt>
      <trkpt lat="43.6621" lon="3.38937">
        <ele>165</ele>
        <time>2014-03-30T11:19:49Z</time>
      </trkpt>
      <trkpt lat="43.66202" lon="3.38951">
        <ele>165</ele>
        <time>2014-03-30T11:19:55Z</time>
      </trkpt>
      <trkpt lat="43.662" lon="3.38956">
        <ele>165</ele>
        <time>2014-03-30T11:19:57Z</time>
      </trkpt>
      <trkpt lat="43.66195" lon="3.38968">
        <ele>165</ele>
        <time>2014-03-30T11:20:01Z</time>
      </trkpt>
      <trkpt lat="43.66193" lon="3.38973">
        <ele>165</ele>
        <time>2014-03-30T11:20:03Z</time>
      </trkpt>
      <trkpt lat="43.6619" lon="3.38983">
        <ele>165</ele>
        <time>2014-03-30T11:20:07Z</time>
      </trkpt>
      <trkpt lat="43.66188" lon="3.38994">
        <ele>165</ele>
        <time>2014-03-30T11:20:11Z</time>
      </trkpt>
      <trkpt lat="43.66186" lon="3.39004">
        <ele>165</ele>
        <time>2014-03-30T11:20:15Z</time>
      </trkpt>
      <trkpt lat="43.66184" lon="3.39013">
        <ele>166</ele>
        <time>2014-03-30T11:20:19Z</time>
      </trkpt>
      <trkpt lat="43.66182" lon="3.3903">
        <ele>166</ele>
        <time>2014-03-30T11:20:26Z</time>
      </trkpt>
      <trkpt lat="43.6618" lon="3.39041">
        <ele>166</ele>
        <time>2014-03-30T11:20:31Z</time>
      </trkpt>
      <trkpt lat="43.66178" lon="3.39053">
        <ele>167</ele>
        <time>2014-03-30T11:20:36Z</time>
      </trkpt>
      <trkpt lat="43.66173" lon="3.39066">
        <ele>168</ele>
        <time>2014-03-30T11:20:52Z</time>
      </trkpt>
      <trkpt lat="43.66169" lon="3.39089">
        <ele>174</ele>
        <time>2014-03-30T11:22:53Z</time>
      </trkpt>
      <trkpt lat="43.66166" lon="3.3911">
        <ele>174</ele>
        <time>2014-03-30T11:23:02Z</time>
      </trkpt>
      <trkpt lat="43.66164" lon="3.39121">
        <ele>174</ele>
        <time>2014-03-30T11:23:06Z</time>
      </trkpt>
      <trkpt lat="43.66162" lon="3.39135">
        <ele>174</ele>
        <time>2014-03-30T11:23:11Z</time>
      </trkpt>
      <trkpt lat="43.6616" lon="3.39155">
        <ele>174</ele>
        <time>2014-03-30T11:23:20Z</time>
      </trkpt>
      <trkpt lat="43.66162" lon="3.39176">
        <ele>175</ele>
        <time>2014-03-30T11:23:35Z</time>
      </trkpt>
      <trkpt lat="43.66164" lon="3.39195">
        <ele>175</ele>
        <time>2014-03-30T11:23:52Z</time>
      </trkpt>
      <trkpt lat="43.6617" lon="3.39213">
        <ele>175</ele>
        <time>2014-03-30T11:24:00Z</time>
      </trkpt>
      <trkpt lat="43.66175" lon="3.39234">
        <ele>176</ele>
        <time>2014-03-30T11:24:09Z</time>
      </trkpt>
      <trkpt lat="43.66174" lon="3.39257">
        <ele>176</ele>
        <time>2014-03-30T11:24:20Z</time>
      </trkpt>
      <trkpt lat="43.66168" lon="3.39271">
        <ele>176</ele>
        <time>2014-03-30T11:24:28Z</time>
      </trkpt>
      <trkpt lat="43.66164" lon="3.39283">
        <ele>177</ele>
        <time>2014-03-30T11:24:33Z</time>
      </trkpt>
      <trkpt lat="43.66156" lon="3.39299">
        <ele>180</ele>
        <time>2014-03-30T11:25:17Z</time>
      </trkpt>
      <trkpt lat="43.66147" lon="3.39314">
        <ele>181</ele>
        <time>2014-03-30T11:25:34Z</time>
      </trkpt>
      <trkpt lat="43.66138" lon="3.39332">
        <ele>182</ele>
        <time>2014-03-30T11:25:50Z</time>
      </trkpt>
      <trkpt lat="43.66134" lon="3.39344">
        <ele>182</ele>
        <time>2014-03-30T11:25:58Z</time>
      </trkpt>
      <trkpt lat="43.66127" lon="3.39361">
        <ele>183</ele>
        <time>2014-03-30T11:26:04Z</time>
      </trkpt>
      <trkpt lat="43.66125" lon="3.39367">
        <ele>183</ele>
        <time>2014-03-30T11:26:06Z</time>
      </trkpt>
      <trkpt lat="43.66117" lon="3.39383">
        <ele>183</ele>
        <time>2014-03-30T11:26:13Z</time>
      </trkpt>
      <trkpt lat="43.66111" lon="3.39392">
        <ele>183</ele>
        <time>2014-03-30T11:26:18Z</time>
      </trkpt>
      <trkpt lat="43.661" lon="3.39411">
        <ele>184</ele>
        <time>2014-03-30T11:26:29Z</time>
      </trkpt>
      <trkpt lat="43.661" lon="3.39437">
        <ele>185</ele>
        <time>2014-03-30T11:26:40Z</time>
      </trkpt>
      <trkpt lat="43.66107" lon="3.39446">
        <ele>185</ele>
        <time>2014-03-30T11:26:45Z</time>
      </trkpt>
      <trkpt lat="43.66117" lon="3.39456">
        <ele>186</ele>
        <time>2014-03-30T11:26:52Z</time>
      </trkpt>
      <trkpt lat="43.66126" lon="3.39464">
        <ele>186</ele>
        <time>2014-03-30T11:26:56Z</time>
      </trkpt>
      <trkpt lat="43.66133" lon="3.3947">
        <ele>187</ele>
        <time>2014-03-30T11:26:59Z</time>
      </trkpt>
      <trkpt lat="43.66142" lon="3.39476">
        <ele>187</ele>
        <time>2014-03-30T11:27:02Z</time>
      </trkpt>
      <trkpt lat="43.66148" lon="3.39479">
        <ele>187</ele>
        <time>2014-03-30T11:27:04Z</time>
      </trkpt>
      <trkpt lat="43.66154" lon="3.39482">
        <ele>187</ele>
        <time>2014-03-30T11:27:06Z</time>
      </trkpt>
      <trkpt lat="43.66161" lon="3.39484">
        <ele>187</ele>
        <time>2014-03-30T11:27:08Z</time>
      </trkpt>
      <trkpt lat="43.66171" lon="3.39484">
        <ele>187</ele>
        <time>2014-03-30T11:27:11Z</time>
      </trkpt>
      <trkpt lat="43.6618" lon="3.39485">
        <ele>188</ele>
        <time>2014-03-30T11:27:13Z</time>
      </trkpt>
      <trkpt lat="43.66189" lon="3.39487">
        <ele>188</ele>
        <time>2014-03-30T11:27:15Z</time>
      </trkpt>
      <trkpt lat="43.66198" lon="3.39489">
        <ele>188</ele>
        <time>2014-03-30T11:27:17Z</time>
      </trkpt>
      <trkpt lat="43.66207" lon="3.39491">
        <ele>188</ele>
        <time>2014-03-30T11:27:19Z</time>
      </trkpt>
      <trkpt lat="43.6622" lon="3.39496">
        <ele>188</ele>
        <time>2014-03-30T11:27:22Z</time>
      </trkpt>
      <trkpt lat="43.6623" lon="3.39499">
        <ele>188</ele>
        <time>2014-03-30T11:27:24Z</time>
      </trkpt>
      <trkpt lat="43.66239" lon="3.39501">
        <ele>188</ele>
        <time>2014-03-30T11:27:26Z</time>
      </trkpt>
      <trkpt lat="43.6625" lon="3.39503">
        <ele>188</ele>
        <time>2014-03-30T11:27:28Z</time>
      </trkpt>
      <trkpt lat="43.6626" lon="3.39506">
        <ele>188</ele>
        <time>2014-03-30T11:27:30Z</time>
      </trkpt>
      <trkpt lat="43.66273" lon="3.3951">
        <ele>188</ele>
        <time>2014-03-30T11:27:32Z</time>
      </trkpt>
      <trkpt lat="43.66286" lon="3.39516">
        <ele>188</ele>
        <time>2014-03-30T11:27:34Z</time>
      </trkpt>
      <trkpt lat="43.66299" lon="3.39522">
        <ele>188</ele>
        <time>2014-03-30T11:27:36Z</time>
      </trkpt>
      <trkpt lat="43.66311" lon="3.39526">
        <ele>188</ele>
        <time>2014-03-30T11:27:38Z</time>
      </trkpt>
      <trkpt lat="43.66322" lon="3.39527">
        <ele>188</ele>
        <time>2014-03-30T11:27:40Z</time>
      </trkpt>
      <trkpt lat="43.66332" lon="3.39526">
        <ele>188</ele>
        <time>2014-03-30T11:27:42Z</time>
      </trkpt>
      <trkpt lat="43.66341" lon="3.39524">
        <ele>188</ele>
        <time>2014-03-30T11:27:44Z</time>
      </trkpt>
      <trkpt lat="43.66349" lon="3.3952">
        <ele>188</ele>
        <time>2014-03-30T11:27:46Z</time>
      </trkpt>
      <trkpt lat="43.66358" lon="3.39515">
        <ele>188</ele>
        <time>2014-03-30T11:27:48Z</time>
      </trkpt>
      <trkpt lat="43.66367" lon="3.39511">
        <ele>188</ele>
        <time>2014-03-30T11:27:50Z</time>
      </trkpt>
      <trkpt lat="43.66376" lon="3.39512">
        <ele>188</ele>
        <time>2014-03-30T11:27:52Z</time>
      </trkpt>
      <trkpt lat="43.66379" lon="3.39528">
        <ele>187</ele>
        <time>2014-03-30T11:27:57Z</time>
      </trkpt>
      <trkpt lat="43.66372" lon="3.3954">
        <ele>186</ele>
        <time>2014-03-30T11:28:01Z</time>
      </trkpt>
      <trkpt lat="43.66367" lon="3.39545">
        <ele>185</ele>
        <time>2014-03-30T11:28:03Z</time>
      </trkpt>
      <trkpt lat="43.66362" lon="3.39548">
        <ele>185</ele>
        <time>2014-03-30T11:28:05Z</time>
      </trkpt>
      <trkpt lat="43.66358" lon="3.39552">
        <ele>184</ele>
        <time>2014-03-30T11:28:07Z</time>
      </trkpt>
      <trkpt lat="43.66352" lon="3.39556">
        <ele>183</ele>
        <time>2014-03-30T11:28:10Z</time>
      </trkpt>
      <trkpt lat="43.66344" lon="3.39567">
        <ele>183</ele>
        <time>2014-03-30T11:28:16Z</time>
      </trkpt>
      <trkpt lat="43.66338" lon="3.39585">
        <ele>182</ele>
        <time>2014-03-30T11:28:22Z</time>
      </trkpt>
      <trkpt lat="43.66334" lon="3.39595">
        <ele>182</ele>
        <time>2014-03-30T11:28:25Z</time>
      </trkpt>
      <trkpt lat="43.66326" lon="3.396">
        <ele>182</ele>
        <time>2014-03-30T11:28:29Z</time>
      </trkpt>
      <trkpt lat="43.66318" lon="3.39603">
        <ele>181</ele>
        <time>2014-03-30T11:28:34Z</time>
      </trkpt>
      <trkpt lat="43.66302" lon="3.39605">
        <ele>180</ele>
        <time>2014-03-30T11:28:45Z</time>
      </trkpt>
      <trkpt lat="43.66294" lon="3.39609">
        <ele>180</ele>
        <time>2014-03-30T11:28:51Z</time>
      </trkpt>
      <trkpt lat="43.66284" lon="3.39615">
        <ele>179</ele>
        <time>2014-03-30T11:28:58Z</time>
      </trkpt>
      <trkpt lat="43.66273" lon="3.39623">
        <ele>179</ele>
        <time>2014-03-30T11:29:06Z</time>
      </trkpt>
      <trkpt lat="43.66261" lon="3.39632">
        <ele>178</ele>
        <time>2014-03-30T11:29:13Z</time>
      </trkpt>
      <trkpt lat="43.66256" lon="3.39635">
        <ele>178</ele>
        <time>2014-03-30T11:29:16Z</time>
      </trkpt>
      <trkpt lat="43.66244" lon="3.39637">
        <ele>178</ele>
        <time>2014-03-30T11:29:24Z</time>
      </trkpt>
      <trkpt lat="43.66234" lon="3.39638">
        <ele>178</ele>
        <time>2014-03-30T11:29:30Z</time>
      </trkpt>
      <trkpt lat="43.66225" lon="3.39645">
        <ele>178</ele>
        <time>2014-03-30T11:29:36Z</time>
      </trkpt>
      <trkpt lat="43.66223" lon="3.39651">
        <ele>178</ele>
        <time>2014-03-30T11:29:38Z</time>
      </trkpt>
      <trkpt lat="43.66221" lon="3.39664">
        <ele>178</ele>
        <time>2014-03-30T11:29:41Z</time>
      </trkpt>
      <trkpt lat="43.66214" lon="3.39682">
        <ele>177</ele>
        <time>2014-03-30T11:29:46Z</time>
      </trkpt>
      <trkpt lat="43.66207" lon="3.3969">
        <ele>177</ele>
        <time>2014-03-30T11:29:49Z</time>
      </trkpt>
      <trkpt lat="43.66201" lon="3.39696">
        <ele>177</ele>
        <time>2014-03-30T11:29:52Z</time>
      </trkpt>
      <trkpt lat="43.66188" lon="3.39705">
        <ele>177</ele>
        <time>2014-03-30T11:29:58Z</time>
      </trkpt>
      <trkpt lat="43.66184" lon="3.39707">
        <ele>177</ele>
        <time>2014-03-30T11:30:00Z</time>
      </trkpt>
      <trkpt lat="43.66179" lon="3.39711">
        <ele>177</ele>
        <time>2014-03-30T11:30:02Z</time>
      </trkpt>
      <trkpt lat="43.66171" lon="3.39715">
        <ele>177</ele>
        <time>2014-03-30T11:30:05Z</time>
      </trkpt>
      <trkpt lat="43.66157" lon="3.39713">
        <ele>178</ele>
        <time>2014-03-30T11:30:10Z</time>
      </trkpt>
      <trkpt lat="43.66149" lon="3.39711">
        <ele>178</ele>
        <time>2014-03-30T11:30:13Z</time>
      </trkpt>
      <trkpt lat="43.66134" lon="3.39714">
        <ele>178</ele>
        <time>2014-03-30T11:30:19Z</time>
      </trkpt>
      <trkpt lat="43.66125" lon="3.3972">
        <ele>178</ele>
        <time>2014-03-30T11:30:23Z</time>
      </trkpt>
      <trkpt lat="43.66119" lon="3.39725">
        <ele>178</ele>
        <time>2014-03-30T11:30:26Z</time>
      </trkpt>
      <trkpt lat="43.66112" lon="3.39732">
        <ele>178</ele>
        <time>2014-03-30T11:30:29Z</time>
      </trkpt>
      <trkpt lat="43.66106" lon="3.39741">
        <ele>178</ele>
        <time>2014-03-30T11:30:32Z</time>
      </trkpt>
      <trkpt lat="43.66101" lon="3.39752">
        <ele>178</ele>
        <time>2014-03-30T11:30:35Z</time>
      </trkpt>
      <trkpt lat="43.66098" lon="3.3976">
        <ele>178</ele>
        <time>2014-03-30T11:30:37Z</time>
      </trkpt>
      <trkpt lat="43.66092" lon="3.39771">
        <ele>179</ele>
        <time>2014-03-30T11:30:40Z</time>
      </trkpt>
      <trkpt lat="43.66082" lon="3.39778">
        <ele>179</ele>
        <time>2014-03-30T11:30:43Z</time>
      </trkpt>
      <trkpt lat="43.66075" lon="3.39781">
        <ele>178</ele>
        <time>2014-03-30T11:30:45Z</time>
      </trkpt>
      <trkpt lat="43.66069" lon="3.39785">
        <ele>178</ele>
        <time>2014-03-30T11:30:47Z</time>
      </trkpt>
      <trkpt lat="43.66064" lon="3.39789">
        <ele>178</ele>
        <time>2014-03-30T11:30:49Z</time>
      </trkpt>
      <trkpt lat="43.66057" lon="3.39795">
        <ele>178</ele>
        <time>2014-03-30T11:30:52Z</time>
      </trkpt>
      <trkpt lat="43.6605" lon="3.39801">
        <ele>178</ele>
        <time>2014-03-30T11:30:55Z</time>
      </trkpt>
      <trkpt lat="43.66045" lon="3.39804">
        <ele>179</ele>
        <time>2014-03-30T11:30:57Z</time>
      </trkpt>
      <trkpt lat="43.66038" lon="3.39812">
        <ele>179</ele>
        <time>2014-03-30T11:31:01Z</time>
      </trkpt>
      <trkpt lat="43.66035" lon="3.39817">
        <ele>179</ele>
        <time>2014-03-30T11:31:03Z</time>
      </trkpt>
      <trkpt lat="43.66025" lon="3.39831">
        <ele>178</ele>
        <time>2014-03-30T11:31:11Z</time>
      </trkpt>
      <trkpt lat="43.66019" lon="3.39839">
        <ele>179</ele>
        <time>2014-03-30T11:31:15Z</time>
      </trkpt>
      <trkpt lat="43.66008" lon="3.39845">
        <ele>179</ele>
        <time>2014-03-30T11:31:21Z</time>
      </trkpt>
      <trkpt lat="43.65994" lon="3.39853">
        <ele>179</ele>
        <time>2014-03-30T11:31:30Z</time>
      </trkpt>
      <trkpt lat="43.65974" lon="3.3987">
        <ele>178</ele>
        <time>2014-03-30T11:31:44Z</time>
      </trkpt>
      <trkpt lat="43.65956" lon="3.39881">
        <ele>178</ele>
        <time>2014-03-30T11:31:54Z</time>
      </trkpt>
      <trkpt lat="43.65933" lon="3.39898">
        <ele>177</ele>
        <time>2014-03-30T11:32:07Z</time>
      </trkpt>
      <trkpt lat="43.6592" lon="3.39912">
        <ele>177</ele>
        <time>2014-03-30T11:32:13Z</time>
      </trkpt>
      <trkpt lat="43.65913" lon="3.39922">
        <ele>177</ele>
        <time>2014-03-30T11:32:16Z</time>
      </trkpt>
      <trkpt lat="43.65905" lon="3.39935">
        <ele>176</ele>
        <time>2014-03-30T11:32:20Z</time>
      </trkpt>
      <trkpt lat="43.65897" lon="3.39952">
        <ele>176</ele>
        <time>2014-03-30T11:32:26Z</time>
      </trkpt>
      <trkpt lat="43.65902" lon="3.39943">
        <ele>182</ele>
        <time>2014-03-30T11:40:28Z</time>
      </trkpt>
      <trkpt lat="43.65907" lon="3.39934">
        <ele>182</ele>
        <time>2014-03-30T11:40:32Z</time>
      </trkpt>
      <trkpt lat="43.65912" lon="3.39924">
        <ele>182</ele>
        <time>2014-03-30T11:40:36Z</time>
      </trkpt>
      <trkpt lat="43.65916" lon="3.39916">
        <ele>182</ele>
        <time>2014-03-30T11:40:39Z</time>
      </trkpt>
      <trkpt lat="43.65918" lon="3.39911">
        <ele>182</ele>
        <time>2014-03-30T11:40:41Z</time>
      </trkpt>
      <trkpt lat="43.65927" lon="3.39898">
        <ele>182</ele>
        <time>2014-03-30T11:40:47Z</time>
      </trkpt>
      <trkpt lat="43.65931" lon="3.39895">
        <ele>182</ele>
        <time>2014-03-30T11:40:49Z</time>
      </trkpt>
      <trkpt lat="43.65939" lon="3.39892">
        <ele>182</ele>
        <time>2014-03-30T11:40:53Z</time>
      </trkpt>
      <trkpt lat="43.65943" lon="3.39889">
        <ele>181</ele>
        <time>2014-03-30T11:40:55Z</time>
      </trkpt>
      <trkpt lat="43.65952" lon="3.39884">
        <ele>181</ele>
        <time>2014-03-30T11:40:59Z</time>
      </trkpt>
      <trkpt lat="43.65961" lon="3.39878">
        <ele>181</ele>
        <time>2014-03-30T11:41:03Z</time>
      </trkpt>
      <trkpt lat="43.65965" lon="3.39875">
        <ele>181</ele>
        <time>2014-03-30T11:41:05Z</time>
      </trkpt>
      <trkpt lat="43.65977" lon="3.39867">
        <ele>182</ele>
        <time>2014-03-30T11:41:11Z</time>
      </trkpt>
      <trkpt lat="43.65983" lon="3.39862">
        <ele>182</ele>
        <time>2014-03-30T11:41:14Z</time>
      </trkpt>
      <trkpt lat="43.65987" lon="3.39859">
        <ele>182</ele>
        <time>2014-03-30T11:41:16Z</time>
      </trkpt>
      <trkpt lat="43.65993" lon="3.39852">
        <ele>182</ele>
        <time>2014-03-30T11:41:20Z</time>
      </trkpt>
      <trkpt lat="43.65989" lon="3.3984">
        <ele>182</ele>
        <time>2014-03-30T11:41:32Z</time>
      </trkpt>
      <trkpt lat="43.65981" lon="3.39851">
        <ele>183</ele>
        <time>2014-03-30T11:43:10Z</time>
      </trkpt>
      <trkpt lat="43.65974" lon="3.39859">
        <ele>183</ele>
        <time>2014-03-30T11:43:13Z</time>
      </trkpt>
      <trkpt lat="43.65961" lon="3.39864">
        <ele>183</ele>
        <time>2014-03-30T11:43:16Z</time>
      </trkpt>
      <trkpt lat="43.6595" lon="3.39868">
        <ele>183</ele>
        <time>2014-03-30T11:43:19Z</time>
      </trkpt>
      <trkpt lat="43.65944" lon="3.3987">
        <ele>183</ele>
        <time>2014-03-30T11:43:21Z</time>
      </trkpt>
      <trkpt lat="43.65938" lon="3.39871">
        <ele>183</ele>
        <time>2014-03-30T11:43:23Z</time>
      </trkpt>
      <trkpt lat="43.65932" lon="3.39872">
        <ele>183</ele>
        <time>2014-03-30T11:43:25Z</time>
      </trkpt>
      <trkpt lat="43.65917" lon="3.39885">
        <ele>183</ele>
        <time>2014-03-30T11:43:46Z</time>
      </trkpt>
      <trkpt lat="43.65908" lon="3.39892">
        <ele>182</ele>
        <time>2014-03-30T11:43:55Z</time>
      </trkpt>
      <trkpt lat="43.65897" lon="3.39896">
        <ele>182</ele>
        <time>2014-03-30T11:44:02Z</time>
      </trkpt>
      <trkpt lat="43.65899" lon="3.39906">
        <ele>182</ele>
        <time>2014-03-30T11:44:06Z</time>
      </trkpt>
      <trkpt lat="43.65891" lon="3.39912">
        <ele>182</ele>
        <time>2014-03-30T11:44:32Z</time>
      </trkpt>
      <trkpt lat="43.65891" lon="3.39902">
        <ele>181</ele>
        <time>2014-03-30T11:45:00Z</time>
      </trkpt>
      <trkpt lat="43.659" lon="3.39905">
        <ele>180</ele>
        <time>2014-03-30T11:45:18Z</time>
      </trkpt>
      <trkpt lat="43.65908" lon="3.39916">
        <ele>180</ele>
        <time>2014-03-30T11:45:27Z</time>
      </trkpt>
      <trkpt lat="43.65906" lon="3.39934">
        <ele>180</ele>
        <time>2014-03-30T11:45:38Z</time>
      </trkpt>
      <trkpt lat="43.65899" lon="3.39945">
        <ele>180</ele>
        <time>2014-03-30T11:45:52Z</time>
      </trkpt>
      <trkpt lat="43.65896" lon="3.39959">
        <ele>179</ele>
        <time>2014-03-30T11:46:06Z</time>
      </trkpt>
      <trkpt lat="43.65895" lon="3.39971">
        <ele>179</ele>
        <time>2014-03-30T11:46:09Z</time>
      </trkpt>
      <trkpt lat="43.65896" lon="3.39991">
        <ele>179</ele>
        <time>2014-03-30T11:46:14Z</time>
      </trkpt>
      <trkpt lat="43.65897" lon="3.40003">
        <ele>179</ele>
        <time>2014-03-30T11:46:17Z</time>
      </trkpt>
      <trkpt lat="43.65898" lon="3.40014">
        <ele>179</ele>
        <time>2014-03-30T11:46:20Z</time>
      </trkpt>
      <trkpt lat="43.65899" lon="3.40021">
        <ele>179</ele>
        <time>2014-03-30T11:46:22Z</time>
      </trkpt>
      <trkpt lat="43.65901" lon="3.40031">
        <ele>178</ele>
        <time>2014-03-30T11:46:25Z</time>
      </trkpt>
      <trkpt lat="43.65902" lon="3.40038">
        <ele>178</ele>
        <time>2014-03-30T11:46:27Z</time>
      </trkpt>
      <trkpt lat="43.65905" lon="3.40048">
        <ele>178</ele>
        <time>2014-03-30T11:46:30Z</time>
      </trkpt>
      <trkpt lat="43.65911" lon="3.40058">
        <ele>179</ele>
        <time>2014-03-30T11:46:33Z</time>
      </trkpt>
      <trkpt lat="43.65915" lon="3.40065">
        <ele>179</ele>
        <time>2014-03-30T11:46:35Z</time>
      </trkpt>
      <trkpt lat="43.65919" lon="3.40073">
        <ele>179</ele>
        <time>2014-03-30T11:46:37Z</time>
      </trkpt>
      <trkpt lat="43.65927" lon="3.40085">
        <ele>179</ele>
        <time>2014-03-30T11:46:40Z</time>
      </trkpt>
      <trkpt lat="43.65933" lon="3.40092">
        <ele>179</ele>
        <time>2014-03-30T11:46:42Z</time>
      </trkpt>
      <trkpt lat="43.65939" lon="3.40099">
        <ele>179</ele>
        <time>2014-03-30T11:46:44Z</time>
      </trkpt>
      <trkpt lat="43.65948" lon="3.40109">
        <ele>180</ele>
        <time>2014-03-30T11:46:47Z</time>
      </trkpt>
      <trkpt lat="43.65953" lon="3.40115">
        <ele>180</ele>
        <time>2014-03-30T11:46:49Z</time>
      </trkpt>
      <trkpt lat="43.65961" lon="3.40124">
        <ele>180</ele>
        <time>2014-03-30T11:46:52Z</time>
      </trkpt>
      <trkpt lat="43.65966" lon="3.4013">
        <ele>180</ele>
        <time>2014-03-30T11:46:54Z</time>
      </trkpt>
      <trkpt lat="43.65971" lon="3.40137">
        <ele>180</ele>
        <time>2014-03-30T11:46:56Z</time>
      </trkpt>
      <trkpt lat="43.65976" lon="3.40143">
        <ele>180</ele>
        <time>2014-03-30T11:46:58Z</time>
      </trkpt>
      <trkpt lat="43.65981" lon="3.4015">
        <ele>180</ele>
        <time>2014-03-30T11:47:00Z</time>
      </trkpt>
      <trkpt lat="43.65985" lon="3.40157">
        <ele>180</ele>
        <time>2014-03-30T11:47:02Z</time>
      </trkpt>
      <trkpt lat="43.65988" lon="3.40165">
        <ele>181</ele>
        <time>2014-03-30T11:47:04Z</time>
      </trkpt>
      <trkpt lat="43.65991" lon="3.40174">
        <ele>181</ele>
        <time>2014-03-30T11:47:06Z</time>
      </trkpt>
      <trkpt lat="43.65993" lon="3.40187">
        <ele>181</ele>
        <time>2014-03-30T11:47:09Z</time>
      </trkpt>
      <trkpt lat="43.65994" lon="3.402">
        <ele>181</ele>
        <time>2014-03-30T11:47:12Z</time>
      </trkpt>
      <trkpt lat="43.65995" lon="3.40209">
        <ele>181</ele>
        <time>2014-03-30T11:47:14Z</time>
      </trkpt>
      <trkpt lat="43.65996" lon="3.40222">
        <ele>181</ele>
        <time>2014-03-30T11:47:17Z</time>
      </trkpt>
      <trkpt lat="43.66001" lon="3.40241">
        <ele>181</ele>
        <time>2014-03-30T11:47:22Z</time>
      </trkpt>
      <trkpt lat="43.66004" lon="3.40253">
        <ele>181</ele>
        <time>2014-03-30T11:47:25Z</time>
      </trkpt>
      <trkpt lat="43.66009" lon="3.40263">
        <ele>181</ele>
        <time>2014-03-30T11:47:28Z</time>
      </trkpt>
      <trkpt lat="43.66013" lon="3.40274">
        <ele>181</ele>
        <time>2014-03-30T11:47:31Z</time>
      </trkpt>
      <trkpt lat="43.66017" lon="3.40287">
        <ele>181</ele>
        <time>2014-03-30T11:47:34Z</time>
      </trkpt>
      <trkpt lat="43.66019" lon="3.40302">
        <ele>181</ele>
        <time>2014-03-30T11:47:37Z</time>
      </trkpt>
      <trkpt lat="43.66021" lon="3.40316">
        <ele>181</ele>
        <time>2014-03-30T11:47:40Z</time>
      </trkpt>
      <trkpt lat="43.66022" lon="3.40326">
        <ele>181</ele>
        <time>2014-03-30T11:47:42Z</time>
      </trkpt>
      <trkpt lat="43.66023" lon="3.40341">
        <ele>181</ele>
        <time>2014-03-30T11:47:45Z</time>
      </trkpt>
      <trkpt lat="43.66024" lon="3.40356">
        <ele>181</ele>
        <time>2014-03-30T11:47:48Z</time>
      </trkpt>
      <trkpt lat="43.66025" lon="3.40366">
        <ele>180</ele>
        <time>2014-03-30T11:47:50Z</time>
      </trkpt>
      <trkpt lat="43.66026" lon="3.40381">
        <ele>180</ele>
        <time>2014-03-30T11:47:53Z</time>
      </trkpt>
      <trkpt lat="43.66027" lon="3.40391">
        <ele>179</ele>
        <time>2014-03-30T11:47:55Z</time>
      </trkpt>
      <trkpt lat="43.66029" lon="3.40402">
        <ele>179</ele>
        <time>2014-03-30T11:47:57Z</time>
      </trkpt>
      <trkpt lat="43.66032" lon="3.40416">
        <ele>178</ele>
        <time>2014-03-30T11:48:00Z</time>
      </trkpt>
      <trkpt lat="43.66037" lon="3.40431">
        <ele>178</ele>
        <time>2014-03-30T11:48:03Z</time>
      </trkpt>
      <trkpt lat="43.66042" lon="3.40445">
        <ele>177</ele>
        <time>2014-03-30T11:48:06Z</time>
      </trkpt>
      <trkpt lat="43.66048" lon="3.40457">
        <ele>177</ele>
        <time>2014-03-30T11:48:09Z</time>
      </trkpt>
      <trkpt lat="43.66056" lon="3.40467">
        <ele>177</ele>
        <time>2014-03-30T11:48:12Z</time>
      </trkpt>
      <trkpt lat="43.66066" lon="3.40472">
        <ele>177</ele>
        <time>2014-03-30T11:48:15Z</time>
      </trkpt>
      <trkpt lat="43.66078" lon="3.40473">
        <ele>177</ele>
        <time>2014-03-30T11:48:18Z</time>
      </trkpt>
      <trkpt lat="43.66088" lon="3.40471">
        <ele>177</ele>
        <time>2014-03-30T11:48:21Z</time>
      </trkpt>
      <trkpt lat="43.66099" lon="3.40466">
        <ele>176</ele>
        <time>2014-03-30T11:48:24Z</time>
      </trkpt>
      <trkpt lat="43.6611" lon="3.40459">
        <ele>176</ele>
        <time>2014-03-30T11:48:27Z</time>
      </trkpt>
      <trkpt lat="43.66114" lon="3.40456">
        <ele>176</ele>
        <time>2014-03-30T11:48:28Z</time>
      </trkpt>
      <trkpt lat="43.66118" lon="3.40453">
        <ele>176</ele>
        <time>2014-03-30T11:48:29Z</time>
      </trkpt>
      <trkpt lat="43.66122" lon="3.4045">
        <ele>176</ele>
        <time>2014-03-30T11:48:30Z</time>
      </trkpt>
      <trkpt lat="43.66129" lon="3.40443">
        <ele>176</ele>
        <time>2014-03-30T11:48:32Z</time>
      </trkpt>
      <trkpt lat="43.66133" lon="3.4044">
        <ele>176</ele>
        <time>2014-03-30T11:48:33Z</time>
      </trkpt>
      <trkpt lat="43.66144" lon="3.4043">
        <ele>176</ele>
        <time>2014-03-30T11:48:36Z</time>
      </trkpt>
      <trkpt lat="43.66148" lon="3.40427">
        <ele>175</ele>
        <time>2014-03-30T11:48:37Z</time>
      </trkpt>
      <trkpt lat="43.66151" lon="3.40424">
        <ele>175</ele>
        <time>2014-03-30T11:48:38Z</time>
      </trkpt>
      <trkpt lat="43.66158" lon="3.40417">
        <ele>175</ele>
        <time>2014-03-30T11:48:40Z</time>
      </trkpt>
      <trkpt lat="43.66168" lon="3.40405">
        <ele>175</ele>
        <time>2014-03-30T11:48:44Z</time>
      </trkpt>
      <trkpt lat="43.66174" lon="3.40402">
        <ele>175</ele>
        <time>2014-03-30T11:48:46Z</time>
      </trkpt>
      <trkpt lat="43.66181" lon="3.40402">
        <ele>175</ele>
        <time>2014-03-30T11:48:48Z</time>
      </trkpt>
      <trkpt lat="43.66187" lon="3.40406">
        <ele>175</ele>
        <time>2014-03-30T11:48:50Z</time>
      </trkpt>
      <trkpt lat="43.66191" lon="3.40411">
        <ele>174</ele>
        <time>2014-03-30T11:48:52Z</time>
      </trkpt>
      <trkpt lat="43.66197" lon="3.4042">
        <ele>174</ele>
        <time>2014-03-30T11:48:55Z</time>
      </trkpt>
      <trkpt lat="43.66205" lon="3.40435">
        <ele>174</ele>
        <time>2014-03-30T11:49:01Z</time>
      </trkpt>
      <trkpt lat="43.66207" lon="3.40439">
        <ele>174</ele>
        <time>2014-03-30T11:49:03Z</time>
      </trkpt>
      <trkpt lat="43.66211" lon="3.40449">
        <ele>175</ele>
        <time>2014-03-30T11:49:07Z</time>
      </trkpt>
      <trkpt lat="43.66218" lon="3.40457">
        <ele>175</ele>
        <time>2014-03-30T11:49:11Z</time>
      </trkpt>
      <trkpt lat="43.66228" lon="3.40469">
        <ele>175</ele>
        <time>2014-03-30T11:49:17Z</time>
      </trkpt>
      <trkpt lat="43.66234" lon="3.40475">
        <ele>175</ele>
        <time>2014-03-30T11:49:20Z</time>
      </trkpt>
      <trkpt lat="43.66245" lon="3.40485">
        <ele>176</ele>
        <time>2014-03-30T11:49:26Z</time>
      </trkpt>
      <trkpt lat="43.66252" lon="3.4049">
        <ele>176</ele>
        <time>2014-03-30T11:49:30Z</time>
      </trkpt>
      <trkpt lat="43.66264" lon="3.40499">
        <ele>176</ele>
        <time>2014-03-30T11:49:37Z</time>
      </trkpt>
      <trkpt lat="43.66268" lon="3.40503">
        <ele>177</ele>
        <time>2014-03-30T11:49:40Z</time>
      </trkpt>
      <trkpt lat="43.66276" lon="3.40509">
        <ele>177</ele>
        <time>2014-03-30T11:49:45Z</time>
      </trkpt>
      <trkpt lat="43.66284" lon="3.40514">
        <ele>177</ele>
        <time>2014-03-30T11:49:50Z</time>
      </trkpt>
      <trkpt lat="43.66296" lon="3.40522">
        <ele>177</ele>
        <time>2014-03-30T11:49:59Z</time>
      </trkpt>
      <trkpt lat="43.66304" lon="3.40529">
        <ele>177</ele>
        <time>2014-03-30T11:50:06Z</time>
      </trkpt>
      <trkpt lat="43.66318" lon="3.4054">
        <ele>177</ele>
        <time>2014-03-30T11:50:16Z</time>
      </trkpt>
      <trkpt lat="43.66324" lon="3.40553">
        <ele>178</ele>
        <time>2014-03-30T11:50:22Z</time>
      </trkpt>
      <trkpt lat="43.66332" lon="3.40567">
        <ele>178</ele>
        <time>2014-03-30T11:50:30Z</time>
      </trkpt>
      <trkpt lat="43.66339" lon="3.40567">
        <ele>181</ele>
        <time>2014-03-30T11:51:54Z</time>
      </trkpt>
      <trkpt lat="43.66348" lon="3.40568">
        <ele>181</ele>
        <time>2014-03-30T11:52:02Z</time>
      </trkpt>
      <trkpt lat="43.66359" lon="3.40574">
        <ele>181</ele>
        <time>2014-03-30T11:52:05Z</time>
      </trkpt>
      <trkpt lat="43.66367" lon="3.4058">
        <ele>182</ele>
        <time>2014-03-30T11:52:07Z</time>
      </trkpt>
      <trkpt lat="43.66376" lon="3.40586">
        <ele>182</ele>
        <time>2014-03-30T11:52:09Z</time>
      </trkpt>
      <trkpt lat="43.66384" lon="3.40591">
        <ele>182</ele>
        <time>2014-03-30T11:52:11Z</time>
      </trkpt>
      <trkpt lat="43.66393" lon="3.40597">
        <ele>182</ele>
        <time>2014-03-30T11:52:13Z</time>
      </trkpt>
      <trkpt lat="43.66401" lon="3.40602">
        <ele>182</ele>
        <time>2014-03-30T11:52:15Z</time>
      </trkpt>
      <trkpt lat="43.66409" lon="3.40605">
        <ele>182</ele>
        <time>2014-03-30T11:52:17Z</time>
      </trkpt>
      <trkpt lat="43.66417" lon="3.40609">
        <ele>182</ele>
        <time>2014-03-30T11:52:19Z</time>
      </trkpt>
      <trkpt lat="43.66424" lon="3.40611">
        <ele>182</ele>
        <time>2014-03-30T11:52:21Z</time>
      </trkpt>
      <trkpt lat="43.66432" lon="3.40614">
        <ele>182</ele>
        <time>2014-03-30T11:52:23Z</time>
      </trkpt>
      <trkpt lat="43.66439" lon="3.40618">
        <ele>182</ele>
        <time>2014-03-30T11:52:25Z</time>
      </trkpt>
      <trkpt lat="43.66449" lon="3.40627">
        <ele>182</ele>
        <time>2014-03-30T11:52:28Z</time>
      </trkpt>
      <trkpt lat="43.66458" lon="3.40635">
        <ele>182</ele>
        <time>2014-03-30T11:52:31Z</time>
      </trkpt>
      <trkpt lat="43.66467" lon="3.40642">
        <ele>181</ele>
        <time>2014-03-30T11:52:34Z</time>
      </trkpt>
      <trkpt lat="43.66475" lon="3.4065">
        <ele>181</ele>
        <time>2014-03-30T11:52:37Z</time>
      </trkpt>
      <trkpt lat="43.66483" lon="3.40659">
        <ele>181</ele>
        <time>2014-03-30T11:52:40Z</time>
      </trkpt>
      <trkpt lat="43.66518" lon="3.40688">
        <ele>180</ele>
        <time>2014-03-30T11:52:52Z</time>
      </trkpt>
      <trkpt lat="43.66526" lon="3.40691">
        <ele>180</ele>
        <time>2014-03-30T11:52:55Z</time>
      </trkpt>
      <trkpt lat="43.66534" lon="3.40695">
        <ele>180</ele>
        <time>2014-03-30T11:52:58Z</time>
      </trkpt>
      <trkpt lat="43.66544" lon="3.40702">
        <ele>179</ele>
        <time>2014-03-30T11:53:02Z</time>
      </trkpt>
      <trkpt lat="43.66552" lon="3.40708">
        <ele>179</ele>
        <time>2014-03-30T11:53:05Z</time>
      </trkpt>
      <trkpt lat="43.6656" lon="3.40714">
        <ele>178</ele>
        <time>2014-03-30T11:53:08Z</time>
      </trkpt>
      <trkpt lat="43.66569" lon="3.4072">
        <ele>178</ele>
        <time>2014-03-30T11:53:11Z</time>
      </trkpt>
      <trkpt lat="43.66578" lon="3.40726">
        <ele>177</ele>
        <time>2014-03-30T11:53:14Z</time>
      </trkpt>
      <trkpt lat="43.66587" lon="3.4073">
        <ele>177</ele>
        <time>2014-03-30T11:53:17Z</time>
      </trkpt>
      <trkpt lat="43.6667" lon="3.40753">
        <ele>176</ele>
        <time>2014-03-30T11:53:37Z</time>
      </trkpt>
      <trkpt lat="43.66682" lon="3.40755">
        <ele>175</ele>
        <time>2014-03-30T11:53:39Z</time>
      </trkpt>
      <trkpt lat="43.66694" lon="3.40758">
        <ele>174</ele>
        <time>2014-03-30T11:53:41Z</time>
      </trkpt>
      <trkpt lat="43.66707" lon="3.4077">
        <ele>174</ele>
        <time>2014-03-30T11:53:44Z</time>
      </trkpt>
      <trkpt lat="43.66713" lon="3.40781">
        <ele>173</ele>
        <time>2014-03-30T11:53:46Z</time>
      </trkpt>
      <trkpt lat="43.66717" lon="3.40794">
        <ele>172</ele>
        <time>2014-03-30T11:53:48Z</time>
      </trkpt>
      <trkpt lat="43.66722" lon="3.40806">
        <ele>172</ele>
        <time>2014-03-30T11:53:50Z</time>
      </trkpt>
      <trkpt lat="43.66727" lon="3.40819">
        <ele>171</ele>
        <time>2014-03-30T11:53:52Z</time>
      </trkpt>
      <trkpt lat="43.66734" lon="3.40831">
        <ele>170</ele>
        <time>2014-03-30T11:53:54Z</time>
      </trkpt>
      <trkpt lat="43.66743" lon="3.40845">
        <ele>168</ele>
        <time>2014-03-30T11:53:57Z</time>
      </trkpt>
      <trkpt lat="43.66749" lon="3.40852">
        <ele>167</ele>
        <time>2014-03-30T11:53:59Z</time>
      </trkpt>
      <trkpt lat="43.66757" lon="3.40859">
        <ele>166</ele>
        <time>2014-03-30T11:54:02Z</time>
      </trkpt>
      <trkpt lat="43.66766" lon="3.40866">
        <ele>165</ele>
        <time>2014-03-30T11:54:05Z</time>
      </trkpt>
      <trkpt lat="43.66776" lon="3.40872">
        <ele>164</ele>
        <time>2014-03-30T11:54:08Z</time>
      </trkpt>
      <trkpt lat="43.66784" lon="3.40877">
        <ele>163</ele>
        <time>2014-03-30T11:54:10Z</time>
      </trkpt>
      <trkpt lat="43.66792" lon="3.40882">
        <ele>162</ele>
        <time>2014-03-30T11:54:12Z</time>
      </trkpt>
      <trkpt lat="43.66802" lon="3.40887">
        <ele>161</ele>
        <time>2014-03-30T11:54:14Z</time>
      </trkpt>
      <trkpt lat="43.66813" lon="3.40891">
        <ele>160</ele>
        <time>2014-03-30T11:54:16Z</time>
      </trkpt>
      <trkpt lat="43.66823" lon="3.40895">
        <ele>159</ele>
        <time>2014-03-30T11:54:18Z</time>
      </trkpt>
      <trkpt lat="43.66833" lon="3.40899">
        <ele>158</ele>
        <time>2014-03-30T11:54:20Z</time>
      </trkpt>
      <trkpt lat="43.66843" lon="3.40904">
        <ele>157</ele>
        <time>2014-03-30T11:54:22Z</time>
      </trkpt>
      <trkpt lat="43.66854" lon="3.40909">
        <ele>156</ele>
        <time>2014-03-30T11:54:24Z</time>
      </trkpt>
      <trkpt lat="43.66863" lon="3.40914">
        <ele>155</ele>
        <time>2014-03-30T11:54:26Z</time>
      </trkpt>
      <trkpt lat="43.66872" lon="3.40919">
        <ele>154</ele>
        <time>2014-03-30T11:54:28Z</time>
      </trkpt>
      <trkpt lat="43.66882" lon="3.40924">
        <ele>153</ele>
        <time>2014-03-30T11:54:30Z</time>
      </trkpt>
      <trkpt lat="43.66891" lon="3.40928">
        <ele>152</ele>
        <time>2014-03-30T11:54:32Z</time>
      </trkpt>
      <trkpt lat="43.66899" lon="3.40933">
        <ele>151</ele>
        <time>2014-03-30T11:54:34Z</time>
      </trkpt>
      <trkpt lat="43.66914" lon="3.40941">
        <ele>151</ele>
        <time>2014-03-30T11:54:38Z</time>
      </trkpt>
      <trkpt lat="43.6692" lon="3.40948">
        <ele>150</ele>
        <time>2014-03-30T11:54:41Z</time>
      </trkpt>
      <trkpt lat="43.66926" lon="3.4096">
        <ele>138</ele>
        <time>2014-03-30T11:55:09Z</time>
      </trkpt>
      <trkpt lat="43.66934" lon="3.4097">
        <ele>137</ele>
        <time>2014-03-30T11:55:12Z</time>
      </trkpt>
      <trkpt lat="43.66938" lon="3.40977">
        <ele>134</ele>
        <time>2014-03-30T11:55:14Z</time>
      </trkpt>
      <trkpt lat="43.66941" lon="3.40987">
        <ele>133</ele>
        <time>2014-03-30T11:55:17Z</time>
      </trkpt>
      <trkpt lat="43.66942" lon="3.41003">
        <ele>131</ele>
        <time>2014-03-30T11:55:22Z</time>
      </trkpt>
      <trkpt lat="43.66932" lon="3.41025">
        <ele>128</ele>
        <time>2014-03-30T11:55:35Z</time>
      </trkpt>
      <trkpt lat="43.66921" lon="3.41038">
        <ele>116</ele>
        <time>2014-03-30T11:56:11Z</time>
      </trkpt>
      <trkpt lat="43.66914" lon="3.41032">
        <ele>114</ele>
        <time>2014-03-30T11:56:16Z</time>
      </trkpt>
      <trkpt lat="43.66911" lon="3.41023">
        <ele>113</ele>
        <time>2014-03-30T11:56:18Z</time>
      </trkpt>
      <trkpt lat="43.66907" lon="3.41012">
        <ele>113</ele>
        <time>2014-03-30T11:56:20Z</time>
      </trkpt>
      <trkpt lat="43.66901" lon="3.40996">
        <ele>112</ele>
        <time>2014-03-30T11:56:23Z</time>
      </trkpt>
      <trkpt lat="43.66898" lon="3.40989">
        <ele>111</ele>
        <time>2014-03-30T11:56:25Z</time>
      </trkpt>
      <trkpt lat="43.66894" lon="3.40982">
        <ele>110</ele>
        <time>2014-03-30T11:56:27Z</time>
      </trkpt>
      <trkpt lat="43.66887" lon="3.40977">
        <ele>110</ele>
        <time>2014-03-30T11:56:29Z</time>
      </trkpt>
      <trkpt lat="43.66879" lon="3.40972">
        <ele>110</ele>
        <time>2014-03-30T11:56:31Z</time>
      </trkpt>
      <trkpt lat="43.66867" lon="3.40966">
        <ele>109</ele>
        <time>2014-03-30T11:56:34Z</time>
      </trkpt>
      <trkpt lat="43.66859" lon="3.40963">
        <ele>109</ele>
        <time>2014-03-30T11:56:36Z</time>
      </trkpt>
      <trkpt lat="43.66851" lon="3.40959">
        <ele>108</ele>
        <time>2014-03-30T11:56:39Z</time>
      </trkpt>
      <trkpt lat="43.66839" lon="3.40955">
        <ele>108</ele>
        <time>2014-03-30T11:56:44Z</time>
      </trkpt>
      <trkpt lat="43.6683" lon="3.40952">
        <ele>108</ele>
        <time>2014-03-30T11:56:47Z</time>
      </trkpt>
      <trkpt lat="43.66819" lon="3.40951">
        <ele>107</ele>
        <time>2014-03-30T11:56:50Z</time>
      </trkpt>
      <trkpt lat="43.6681" lon="3.40949">
        <ele>107</ele>
        <time>2014-03-30T11:56:53Z</time>
      </trkpt>
      <trkpt lat="43.668" lon="3.40949">
        <ele>107</ele>
        <time>2014-03-30T11:56:56Z</time>
      </trkpt>
      <trkpt lat="43.66791" lon="3.40948">
        <ele>106</ele>
        <time>2014-03-30T11:56:59Z</time>
      </trkpt>
      <trkpt lat="43.66781" lon="3.40947">
        <ele>106</ele>
        <time>2014-03-30T11:57:02Z</time>
      </trkpt>
      <trkpt lat="43.66771" lon="3.40945">
        <ele>106</ele>
        <time>2014-03-30T11:57:05Z</time>
      </trkpt>
      <trkpt lat="43.66754" lon="3.4094">
        <ele>106</ele>
        <time>2014-03-30T11:57:10Z</time>
      </trkpt>
      <trkpt lat="43.66745" lon="3.40939">
        <ele>105</ele>
        <time>2014-03-30T11:57:13Z</time>
      </trkpt>
      <trkpt lat="43.66738" lon="3.40938">
        <ele>105</ele>
        <time>2014-03-30T11:57:16Z</time>
      </trkpt>
      <trkpt lat="43.66728" lon="3.40936">
        <ele>105</ele>
        <time>2014-03-30T11:57:20Z</time>
      </trkpt>
      <trkpt lat="43.66718" lon="3.40936">
        <ele>104</ele>
        <time>2014-03-30T11:57:24Z</time>
      </trkpt>
      <trkpt lat="43.6671" lon="3.40936">
        <ele>104</ele>
        <time>2014-03-30T11:57:27Z</time>
      </trkpt>
      <trkpt lat="43.66702" lon="3.40935">
        <ele>103</ele>
        <time>2014-03-30T11:57:30Z</time>
      </trkpt>
      <trkpt lat="43.66689" lon="3.40935">
        <ele>103</ele>
        <time>2014-03-30T11:57:35Z</time>
      </trkpt>
      <trkpt lat="43.66698" lon="3.40943">
        <ele>100</ele>
        <time>2014-03-30T11:58:11Z</time>
      </trkpt>
      <trkpt lat="43.66706" lon="3.40948">
        <ele>99</ele>
        <time>2014-03-30T11:58:13Z</time>
      </trkpt>
      <trkpt lat="43.66719" lon="3.40954">
        <ele>99</ele>
        <time>2014-03-30T11:58:16Z</time>
      </trkpt>
      <trkpt lat="43.66723" lon="3.40957">
        <ele>98</ele>
        <time>2014-03-30T11:58:17Z</time>
      </trkpt>
      <trkpt lat="43.66727" lon="3.40959">
        <ele>98</ele>
        <time>2014-03-30T11:58:18Z</time>
      </trkpt>
      <trkpt lat="43.66731" lon="3.40961">
        <ele>98</ele>
        <time>2014-03-30T11:58:19Z</time>
      </trkpt>
      <trkpt lat="43.66735" lon="3.40963">
        <ele>97</ele>
        <time>2014-03-30T11:58:20Z</time>
      </trkpt>
      <trkpt lat="43.66742" lon="3.40967">
        <ele>97</ele>
        <time>2014-03-30T11:58:22Z</time>
      </trkpt>
      <trkpt lat="43.66752" lon="3.40972">
        <ele>97</ele>
        <time>2014-03-30T11:58:25Z</time>
      </trkpt>
      <trkpt lat="43.66762" lon="3.40978">
        <ele>96</ele>
        <time>2014-03-30T11:58:28Z</time>
      </trkpt>
      <trkpt lat="43.66767" lon="3.4098">
        <ele>96</ele>
        <time>2014-03-30T11:58:30Z</time>
      </trkpt>
      <trkpt lat="43.66775" lon="3.40984">
        <ele>95</ele>
        <time>2014-03-30T11:58:33Z</time>
      </trkpt>
      <trkpt lat="43.66784" lon="3.40989">
        <ele>95</ele>
        <time>2014-03-30T11:58:36Z</time>
      </trkpt>
      <trkpt lat="43.66793" lon="3.40996">
        <ele>94</ele>
        <time>2014-03-30T11:58:39Z</time>
      </trkpt>
      <trkpt lat="43.66802" lon="3.41004">
        <ele>93</ele>
        <time>2014-03-30T11:58:42Z</time>
      </trkpt>
      <trkpt lat="43.66789" lon="3.41007">
        <ele>92</ele>
        <time>2014-03-30T11:58:56Z</time>
      </trkpt>
      <trkpt lat="43.66784" lon="3.41003">
        <ele>92</ele>
        <time>2014-03-30T11:58:57Z</time>
      </trkpt>
      <trkpt lat="43.66777" lon="3.40998">
        <ele>91</ele>
        <time>2014-03-30T11:58:59Z</time>
      </trkpt>
      <trkpt lat="43.66763" lon="3.40991">
        <ele>91</ele>
        <time>2014-03-30T11:59:04Z</time>
      </trkpt>
      <trkpt lat="43.66755" lon="3.40987">
        <ele>91</ele>
        <time>2014-03-30T11:59:07Z</time>
      </trkpt>
      <trkpt lat="43.66748" lon="3.40983">
        <ele>90</ele>
        <time>2014-03-30T11:59:09Z</time>
      </trkpt>
      <trkpt lat="43.66739" lon="3.40979">
        <ele>90</ele>
        <time>2014-03-30T11:59:11Z</time>
      </trkpt>
      <trkpt lat="43.66735" lon="3.40976">
        <ele>90</ele>
        <time>2014-03-30T11:59:12Z</time>
      </trkpt>
      <trkpt lat="43.6673" lon="3.40974">
        <ele>90</ele>
        <time>2014-03-30T11:59:13Z</time>
      </trkpt>
      <trkpt lat="43.6672" lon="3.40971">
        <ele>90</ele>
        <time>2014-03-30T11:59:15Z</time>
      </trkpt>
      <trkpt lat="43.66715" lon="3.40969">
        <ele>89</ele>
        <time>2014-03-30T11:59:16Z</time>
      </trkpt>
      <trkpt lat="43.66705" lon="3.40968">
        <ele>89</ele>
        <time>2014-03-30T11:59:18Z</time>
      </trkpt>
      <trkpt lat="43.66694" lon="3.40967">
        <ele>89</ele>
        <time>2014-03-30T11:59:20Z</time>
      </trkpt>
      <trkpt lat="43.66684" lon="3.40966">
        <ele>89</ele>
        <time>2014-03-30T11:59:22Z</time>
      </trkpt>
      <trkpt lat="43.66673" lon="3.40966">
        <ele>88</ele>
        <time>2014-03-30T11:59:24Z</time>
      </trkpt>
      <trkpt lat="43.66657" lon="3.40964">
        <ele>88</ele>
        <time>2014-03-30T11:59:27Z</time>
      </trkpt>
      <trkpt lat="43.66646" lon="3.40963">
        <ele>88</ele>
        <time>2014-03-30T11:59:29Z</time>
      </trkpt>
      <trkpt lat="43.66636" lon="3.40964">
        <ele>87</ele>
        <time>2014-03-30T11:59:31Z</time>
      </trkpt>
      <trkpt lat="43.66627" lon="3.40966">
        <ele>87</ele>
        <time>2014-03-30T11:59:33Z</time>
      </trkpt>
      <trkpt lat="43.66618" lon="3.40967">
        <ele>86</ele>
        <time>2014-03-30T11:59:35Z</time>
      </trkpt>
      <trkpt lat="43.66608" lon="3.40968">
        <ele>86</ele>
        <time>2014-03-30T11:59:37Z</time>
      </trkpt>
      <trkpt lat="43.66587" lon="3.40963">
        <ele>86</ele>
        <time>2014-03-30T11:59:41Z</time>
      </trkpt>
      <trkpt lat="43.66576" lon="3.40959">
        <ele>85</ele>
        <time>2014-03-30T11:59:43Z</time>
      </trkpt>
      <trkpt lat="43.66567" lon="3.40956">
        <ele>85</ele>
        <time>2014-03-30T11:59:45Z</time>
      </trkpt>
      <trkpt lat="43.66548" lon="3.40951">
        <ele>85</ele>
        <time>2014-03-30T11:59:49Z</time>
      </trkpt>
      <trkpt lat="43.66539" lon="3.40949">
        <ele>84</ele>
        <time>2014-03-30T11:59:51Z</time>
      </trkpt>
      <trkpt lat="43.66531" lon="3.40948">
        <ele>84</ele>
        <time>2014-03-30T11:59:53Z</time>
      </trkpt>
      <trkpt lat="43.66523" lon="3.40948">
        <ele>83</ele>
        <time>2014-03-30T11:59:55Z</time>
      </trkpt>
      <trkpt lat="43.66513" lon="3.40948">
        <ele>83</ele>
        <time>2014-03-30T11:59:58Z</time>
      </trkpt>
      <trkpt lat="43.66503" lon="3.40947">
        <ele>82</ele>
        <time>2014-03-30T12:00:01Z</time>
      </trkpt>
      <trkpt lat="43.66488" lon="3.40944">
        <ele>82</ele>
        <time>2014-03-30T12:00:05Z</time>
      </trkpt>
      <trkpt lat="43.66481" lon="3.40943">
        <ele>81</ele>
        <time>2014-03-30T12:00:07Z</time>
      </trkpt>
      <trkpt lat="43.6647" lon="3.40941">
        <ele>80</ele>
        <time>2014-03-30T12:00:10Z</time>
      </trkpt>
      <trkpt lat="43.6646" lon="3.40938">
        <ele>80</ele>
        <time>2014-03-30T12:00:13Z</time>
      </trkpt>
      <trkpt lat="43.6645" lon="3.40938">
        <ele>79</ele>
        <time>2014-03-30T12:00:16Z</time>
      </trkpt>
      <trkpt lat="43.66441" lon="3.40938">
        <ele>78</ele>
        <time>2014-03-30T12:00:19Z</time>
      </trkpt>
      <trkpt lat="43.66431" lon="3.40941">
        <ele>78</ele>
        <time>2014-03-30T12:00:22Z</time>
      </trkpt>
      <trkpt lat="43.6642" lon="3.40945">
        <ele>77</ele>
        <time>2014-03-30T12:00:25Z</time>
      </trkpt>
      <trkpt lat="43.66411" lon="3.40949">
        <ele>76</ele>
        <time>2014-03-30T12:00:27Z</time>
      </trkpt>
      <trkpt lat="43.66403" lon="3.40953">
        <ele>76</ele>
        <time>2014-03-30T12:00:29Z</time>
      </trkpt>
      <trkpt lat="43.66358" lon="3.4097">
        <ele>75</ele>
        <time>2014-03-30T12:00:37Z</time>
      </trkpt>
      <trkpt lat="43.66346" lon="3.40974">
        <ele>74</ele>
        <time>2014-03-30T12:00:39Z</time>
      </trkpt>
      <trkpt lat="43.66335" lon="3.40978">
        <ele>73</ele>
        <time>2014-03-30T12:00:41Z</time>
      </trkpt>
      <trkpt lat="43.66324" lon="3.40982">
        <ele>73</ele>
        <time>2014-03-30T12:00:43Z</time>
      </trkpt>
      <trkpt lat="43.66319" lon="3.40984">
        <ele>72</ele>
        <time>2014-03-30T12:00:44Z</time>
      </trkpt>
      <trkpt lat="43.66313" lon="3.40986">
        <ele>72</ele>
        <time>2014-03-30T12:00:45Z</time>
      </trkpt>
      <trkpt lat="43.66304" lon="3.4099">
        <ele>72</ele>
        <time>2014-03-30T12:00:47Z</time>
      </trkpt>
      <trkpt lat="43.66296" lon="3.40994">
        <ele>71</ele>
        <time>2014-03-30T12:00:49Z</time>
      </trkpt>
      <trkpt lat="43.66286" lon="3.41001">
        <ele>71</ele>
        <time>2014-03-30T12:00:52Z</time>
      </trkpt>
      <trkpt lat="43.66278" lon="3.41008">
        <ele>70</ele>
        <time>2014-03-30T12:00:55Z</time>
      </trkpt>
      <trkpt lat="43.66273" lon="3.41015">
        <ele>69</ele>
        <time>2014-03-30T12:00:58Z</time>
      </trkpt>
      <trkpt lat="43.66266" lon="3.41023">
        <ele>69</ele>
        <time>2014-03-30T12:01:02Z</time>
      </trkpt>
      <trkpt lat="43.66259" lon="3.41031">
        <ele>68</ele>
        <time>2014-03-30T12:01:06Z</time>
      </trkpt>
      <trkpt lat="43.66256" lon="3.41036">
        <ele>68</ele>
        <time>2014-03-30T12:01:08Z</time>
      </trkpt>
      <trkpt lat="43.66249" lon="3.41044">
        <ele>67</ele>
        <time>2014-03-30T12:01:12Z</time>
      </trkpt>
      <trkpt lat="43.66244" lon="3.4105">
        <ele>67</ele>
        <time>2014-03-30T12:01:15Z</time>
      </trkpt>
      <trkpt lat="43.66236" lon="3.41057">
        <ele>66</ele>
        <time>2014-03-30T12:01:19Z</time>
      </trkpt>
      <trkpt lat="43.66227" lon="3.41063">
        <ele>66</ele>
        <time>2014-03-30T12:01:23Z</time>
      </trkpt>
      <trkpt lat="43.66218" lon="3.41066">
        <ele>66</ele>
        <time>2014-03-30T12:01:27Z</time>
      </trkpt>
      <trkpt lat="43.66209" lon="3.41067">
        <ele>66</ele>
        <time>2014-03-30T12:01:31Z</time>
      </trkpt>
      <trkpt lat="43.662" lon="3.41067">
        <ele>65</ele>
        <time>2014-03-30T12:01:35Z</time>
      </trkpt>
      <trkpt lat="43.66186" lon="3.41059">
        <ele>65</ele>
        <time>2014-03-30T12:01:42Z</time>
      </trkpt>
      <trkpt lat="43.66174" lon="3.4105">
        <ele>65</ele>
        <time>2014-03-30T12:01:48Z</time>
      </trkpt>
      <trkpt lat="43.66168" lon="3.41045">
        <ele>65</ele>
        <time>2014-03-30T12:01:51Z</time>
      </trkpt>
      <trkpt lat="43.66152" lon="3.41034">
        <ele>65</ele>
        <time>2014-03-30T12:02:01Z</time>
      </trkpt>
      <trkpt lat="43.66148" lon="3.41031">
        <ele>66</ele>
        <time>2014-03-30T12:02:03Z</time>
      </trkpt>
      <trkpt lat="43.66143" lon="3.41029">
        <ele>66</ele>
        <time>2014-03-30T12:02:05Z</time>
      </trkpt>
      <trkpt lat="43.66139" lon="3.41027">
        <ele>66</ele>
        <time>2014-03-30T12:02:07Z</time>
      </trkpt>
      <trkpt lat="43.6613" lon="3.41022">
        <ele>66</ele>
        <time>2014-03-30T12:02:11Z</time>
      </trkpt>
      <trkpt lat="43.66116" lon="3.41014">
        <ele>65</ele>
        <time>2014-03-30T12:02:17Z</time>
      </trkpt>
      <trkpt lat="43.66107" lon="3.41009">
        <ele>65</ele>
        <time>2014-03-30T12:02:21Z</time>
      </trkpt>
      <trkpt lat="43.66097" lon="3.41001">
        <ele>65</ele>
        <time>2014-03-30T12:02:26Z</time>
      </trkpt>
      <trkpt lat="43.66088" lon="3.40994">
        <ele>65</ele>
        <time>2014-03-30T12:02:30Z</time>
      </trkpt>
      <trkpt lat="43.66083" lon="3.40991">
        <ele>65</ele>
        <time>2014-03-30T12:02:32Z</time>
      </trkpt>
      <trkpt lat="43.66074" lon="3.40986">
        <ele>64</ele>
        <time>2014-03-30T12:02:35Z</time>
      </trkpt>
      <trkpt lat="43.66066" lon="3.40983">
        <ele>64</ele>
        <time>2014-03-30T12:02:38Z</time>
      </trkpt>
      <trkpt lat="43.66056" lon="3.40982">
        <ele>64</ele>
        <time>2014-03-30T12:02:42Z</time>
      </trkpt>
      <trkpt lat="43.6604" lon="3.40982">
        <ele>64</ele>
        <time>2014-03-30T12:02:52Z</time>
      </trkpt>
      <trkpt lat="43.66031" lon="3.40982">
        <ele>64</ele>
        <time>2014-03-30T12:02:58Z</time>
      </trkpt>
      <trkpt lat="43.66019" lon="3.40979">
        <ele>63</ele>
        <time>2014-03-30T12:03:50Z</time>
      </trkpt>
      <trkpt lat="43.6601" lon="3.40974">
        <ele>63</ele>
        <time>2014-03-30T12:03:54Z</time>
      </trkpt>
      <trkpt lat="43.66" lon="3.40968">
        <ele>62</ele>
        <time>2014-03-30T12:03:58Z</time>
      </trkpt>
      <trkpt lat="43.65992" lon="3.40961">
        <ele>61</ele>
        <time>2014-03-30T12:04:02Z</time>
      </trkpt>
      <trkpt lat="43.65985" lon="3.40955">
        <ele>60</ele>
        <time>2014-03-30T12:04:06Z</time>
      </trkpt>
      <trkpt lat="43.65979" lon="3.40949">
        <ele>60</ele>
        <time>2014-03-30T12:04:09Z</time>
      </trkpt>
      <trkpt lat="43.65968" lon="3.4094">
        <ele>60</ele>
        <time>2014-03-30T12:04:14Z</time>
      </trkpt>
      <trkpt lat="43.6596" lon="3.40935">
        <ele>60</ele>
        <time>2014-03-30T12:04:17Z</time>
      </trkpt>
      <trkpt lat="43.6595" lon="3.4093">
        <ele>60</ele>
        <time>2014-03-30T12:04:20Z</time>
      </trkpt>
      <trkpt lat="43.6594" lon="3.40925">
        <ele>59</ele>
        <time>2014-03-30T12:04:23Z</time>
      </trkpt>
      <trkpt lat="43.65931" lon="3.40921">
        <ele>59</ele>
        <time>2014-03-30T12:04:25Z</time>
      </trkpt>
      <trkpt lat="43.6591" lon="3.40916">
        <ele>59</ele>
        <time>2014-03-30T12:04:29Z</time>
      </trkpt>
      <trkpt lat="43.65838" lon="3.40893">
        <ele>59</ele>
        <time>2014-03-30T12:04:41Z</time>
      </trkpt>
      <trkpt lat="43.65827" lon="3.40882">
        <ele>59</ele>
        <time>2014-03-30T12:04:43Z</time>
      </trkpt>
      <trkpt lat="43.65805" lon="3.40844">
        <ele>92.9</ele>
        <time>2014-03-30T12:04:50Z</time>
      </trkpt>
      <trkpt lat="43.65732" lon="3.40668">
        <ele>85.9</ele>
        <time>2014-03-30T12:05:21Z</time>
      </trkpt>
      <trkpt lat="43.65729" lon="3.40562">
        <ele>51</ele>
        <time>2014-03-30T12:05:54Z</time>
      </trkpt>
      <trkpt lat="43.6573" lon="3.40551">
        <ele>50</ele>
        <time>2014-03-30T12:05:58Z</time>
      </trkpt>
      <trkpt lat="43.6573" lon="3.4054">
        <ele>50</ele>
        <time>2014-03-30T12:06:02Z</time>
      </trkpt>
      <trkpt lat="43.65727" lon="3.40517">
        <ele>49</ele>
        <time>2014-03-30T12:06:13Z</time>
      </trkpt>
      <trkpt lat="43.65724" lon="3.40496">
        <ele>48</ele>
        <time>2014-03-30T12:06:21Z</time>
      </trkpt>
      <trkpt lat="43.65722" lon="3.40484">
        <ele>47</ele>
        <time>2014-03-30T12:06:26Z</time>
      </trkpt>
      <trkpt lat="43.65719" lon="3.40467">
        <ele>47</ele>
        <time>2014-03-30T12:06:32Z</time>
      </trkpt>
      <trkpt lat="43.65717" lon="3.40461">
        <ele>47</ele>
        <time>2014-03-30T12:06:34Z</time>
      </trkpt>
      <trkpt lat="43.65716" lon="3.40455">
        <ele>46</ele>
        <time>2014-03-30T12:06:36Z</time>
      </trkpt>
      <trkpt lat="43.65712" lon="3.4044">
        <ele>46</ele>
        <time>2014-03-30T12:06:41Z</time>
      </trkpt>
      <trkpt lat="43.6571" lon="3.40424">
        <ele>46</ele>
        <time>2014-03-30T12:06:47Z</time>
      </trkpt>
      <trkpt lat="43.65709" lon="3.40413">
        <ele>46</ele>
        <time>2014-03-30T12:06:51Z</time>
      </trkpt>
      <trkpt lat="43.65707" lon="3.40403">
        <ele>46</ele>
        <time>2014-03-30T12:06:55Z</time>
      </trkpt>
      <trkpt lat="43.65704" lon="3.40391">
        <ele>46</ele>
        <time>2014-03-30T12:07:00Z</time>
      </trkpt>
      <trkpt lat="43.65695" lon="3.40372">
        <ele>45</ele>
        <time>2014-03-30T12:07:16Z</time>
      </trkpt>
      <trkpt lat="43.65688" lon="3.40379">
        <ele>45</ele>
        <time>2014-03-30T12:07:26Z</time>
      </trkpt>
      <trkpt lat="43.65688" lon="3.40399">
        <ele>46</ele>
        <time>2014-03-30T12:07:43Z</time>
      </trkpt>
      <trkpt lat="43.65688" lon="3.40406">
        <ele>47</ele>
        <time>2014-03-30T12:07:54Z</time>
      </trkpt>
      <trkpt lat="43.65687" lon="3.40425">
        <ele>48</ele>
        <time>2014-03-30T12:08:09Z</time>
      </trkpt>
      <trkpt lat="43.65685" lon="3.40436">
        <ele>49</ele>
        <time>2014-03-30T12:08:19Z</time>
      </trkpt>
      <trkpt lat="43.65684" lon="3.40457">
        <ele>51</ele>
        <time>2014-03-30T12:08:36Z</time>
      </trkpt>
      <trkpt lat="43.65684" lon="3.40472">
        <ele>52</ele>
        <time>2014-03-30T12:08:49Z</time>
      </trkpt>
      <trkpt lat="43.65682" lon="3.40489">
        <ele>53</ele>
        <time>2014-03-30T12:09:04Z</time>
      </trkpt>
      <trkpt lat="43.65679" lon="3.4051">
        <ele>54</ele>
        <time>2014-03-30T12:09:20Z</time>
      </trkpt>
      <trkpt lat="43.65676" lon="3.40523">
        <ele>56</ele>
        <time>2014-03-30T12:09:30Z</time>
      </trkpt>
      <trkpt lat="43.65672" lon="3.40545">
        <ele>58</ele>
        <time>2014-03-30T12:09:48Z</time>
      </trkpt>
      <trkpt lat="43.65671" lon="3.40557">
        <ele>60</ele>
        <time>2014-03-30T12:09:56Z</time>
      </trkpt>
      <trkpt lat="43.65669" lon="3.4057">
        <ele>62</ele>
        <time>2014-03-30T12:10:07Z</time>
      </trkpt>
      <trkpt lat="43.65667" lon="3.40584">
        <ele>64</ele>
        <time>2014-03-30T12:10:20Z</time>
      </trkpt>
      <trkpt lat="43.65666" lon="3.40597">
        <ele>66</ele>
        <time>2014-03-30T12:10:32Z</time>
      </trkpt>
      <trkpt lat="43.65665" lon="3.40608">
        <ele>67</ele>
        <time>2014-03-30T12:10:42Z</time>
      </trkpt>
      <trkpt lat="43.65662" lon="3.40621">
        <ele>69</ele>
        <time>2014-03-30T12:10:55Z</time>
      </trkpt>
      <trkpt lat="43.65659" lon="3.40632">
        <ele>71</ele>
        <time>2014-03-30T12:11:07Z</time>
      </trkpt>
      <trkpt lat="43.6565" lon="3.4065">
        <ele>74</ele>
        <time>2014-03-30T12:11:25Z</time>
      </trkpt>
      <trkpt lat="43.65642" lon="3.40658">
        <ele>75</ele>
        <time>2014-03-30T12:11:37Z</time>
      </trkpt>
      <trkpt lat="43.65626" lon="3.40653">
        <ele>77</ele>
        <time>2014-03-30T12:11:55Z</time>
      </trkpt>
      <trkpt lat="43.65619" lon="3.40634">
        <ele>78</ele>
        <time>2014-03-30T12:12:11Z</time>
      </trkpt>
      <trkpt lat="43.65618" lon="3.40619">
        <ele>81</ele>
        <time>2014-03-30T12:12:22Z</time>
      </trkpt>
      <trkpt lat="43.65618" lon="3.40608">
        <ele>83</ele>
        <time>2014-03-30T12:12:31Z</time>
      </trkpt>
      <trkpt lat="43.65618" lon="3.40596">
        <ele>85</ele>
        <time>2014-03-30T12:12:40Z</time>
      </trkpt>
      <trkpt lat="43.65616" lon="3.40581">
        <ele>86</ele>
        <time>2014-03-30T12:12:51Z</time>
      </trkpt>
      <trkpt lat="43.65613" lon="3.40568">
        <ele>88</ele>
        <time>2014-03-30T12:13:01Z</time>
      </trkpt>
      <trkpt lat="43.6561" lon="3.40557">
        <ele>88</ele>
        <time>2014-03-30T12:13:09Z</time>
      </trkpt>
      <trkpt lat="43.65606" lon="3.40536">
        <ele>89</ele>
        <time>2014-03-30T12:13:26Z</time>
      </trkpt>
      <trkpt lat="43.65604" lon="3.40524">
        <ele>90</ele>
        <time>2014-03-30T12:13:36Z</time>
      </trkpt>
      <trkpt lat="43.656" lon="3.40506">
        <ele>91</ele>
        <time>2014-03-30T12:13:50Z</time>
      </trkpt>
      <trkpt lat="43.65595" lon="3.4049">
        <ele>92</ele>
        <time>2014-03-30T12:14:02Z</time>
      </trkpt>
      <trkpt lat="43.65593" lon="3.40469">
        <ele>93</ele>
        <time>2014-03-30T12:14:18Z</time>
      </trkpt>
      <trkpt lat="43.6559" lon="3.40458">
        <ele>94</ele>
        <time>2014-03-30T12:14:28Z</time>
      </trkpt>
      <trkpt lat="43.65583" lon="3.40446">
        <ele>94</ele>
        <time>2014-03-30T12:14:38Z</time>
      </trkpt>
      <trkpt lat="43.65576" lon="3.4043">
        <ele>95</ele>
        <time>2014-03-30T12:14:52Z</time>
      </trkpt>
      <trkpt lat="43.65568" lon="3.40414">
        <ele>97</ele>
        <time>2014-03-30T12:15:11Z</time>
      </trkpt>
      <trkpt lat="43.65557" lon="3.40404">
        <ele>98</ele>
        <time>2014-03-30T12:15:21Z</time>
      </trkpt>
      <trkpt lat="43.65548" lon="3.40395">
        <ele>99</ele>
        <time>2014-03-30T12:15:32Z</time>
      </trkpt>
      <trkpt lat="43.65532" lon="3.40381">
        <ele>100</ele>
        <time>2014-03-30T12:15:42Z</time>
      </trkpt>
      <trkpt lat="43.65521" lon="3.40369">
        <ele>101</ele>
        <time>2014-03-30T12:15:50Z</time>
      </trkpt>
      <trkpt lat="43.65509" lon="3.40355">
        <ele>102</ele>
        <time>2014-03-30T12:16:01Z</time>
      </trkpt>
      <trkpt lat="43.65504" lon="3.40341">
        <ele>103</ele>
        <time>2014-03-30T12:16:12Z</time>
      </trkpt>
      <trkpt lat="43.655" lon="3.40337">
        <ele>106</ele>
        <time>2014-03-30T12:17:36Z</time>
      </trkpt>
      <trkpt lat="43.65481" lon="3.40336">
        <ele>105</ele>
        <time>2014-03-30T12:19:15Z</time>
      </trkpt>
      <trkpt lat="43.65475" lon="3.40328">
        <ele>105</ele>
        <time>2014-03-30T12:19:19Z</time>
      </trkpt>
      <trkpt lat="43.65469" lon="3.40319">
        <ele>105</ele>
        <time>2014-03-30T12:19:23Z</time>
      </trkpt>
      <trkpt lat="43.65461" lon="3.40302">
        <ele>104</ele>
        <time>2014-03-30T12:19:32Z</time>
      </trkpt>
      <trkpt lat="43.65447" lon="3.40279">
        <ele>104</ele>
        <time>2014-03-30T12:19:44Z</time>
      </trkpt>
      <trkpt lat="43.65434" lon="3.40267">
        <ele>104</ele>
        <time>2014-03-30T12:19:55Z</time>
      </trkpt>
      <trkpt lat="43.6542" lon="3.40256">
        <ele>105</ele>
        <time>2014-03-30T12:20:04Z</time>
      </trkpt>
      <trkpt lat="43.6541" lon="3.40248">
        <ele>105</ele>
        <time>2014-03-30T12:20:11Z</time>
      </trkpt>
      <trkpt lat="43.65402" lon="3.40241">
        <ele>105</ele>
        <time>2014-03-30T12:20:17Z</time>
      </trkpt>
      <trkpt lat="43.65393" lon="3.40235">
        <ele>106</ele>
        <time>2014-03-30T12:20:23Z</time>
      </trkpt>
      <trkpt lat="43.65385" lon="3.40231">
        <ele>106</ele>
        <time>2014-03-30T12:20:29Z</time>
      </trkpt>
      <trkpt lat="43.65377" lon="3.40226">
        <ele>107</ele>
        <time>2014-03-30T12:20:35Z</time>
      </trkpt>
      <trkpt lat="43.65367" lon="3.40219">
        <ele>108</ele>
        <time>2014-03-30T12:20:42Z</time>
      </trkpt>
      <trkpt lat="43.65352" lon="3.40211">
        <ele>109</ele>
        <time>2014-03-30T12:20:53Z</time>
      </trkpt>
      <trkpt lat="43.65337" lon="3.40208">
        <ele>113</ele>
        <time>2014-03-30T12:21:42Z</time>
      </trkpt>
      <trkpt lat="43.65333" lon="3.40207">
        <ele>113</ele>
        <time>2014-03-30T12:21:44Z</time>
      </trkpt>
      <trkpt lat="43.65324" lon="3.40205">
        <ele>113</ele>
        <time>2014-03-30T12:21:48Z</time>
      </trkpt>
      <trkpt lat="43.65314" lon="3.40203">
        <ele>113</ele>
        <time>2014-03-30T12:21:52Z</time>
      </trkpt>
      <trkpt lat="43.65305" lon="3.40199">
        <ele>114</ele>
        <time>2014-03-30T12:21:56Z</time>
      </trkpt>
      <trkpt lat="43.65297" lon="3.40195">
        <ele>114</ele>
        <time>2014-03-30T12:22:00Z</time>
      </trkpt>
      <trkpt lat="43.65284" lon="3.40185">
        <ele>114</ele>
        <time>2014-03-30T12:22:07Z</time>
      </trkpt>
      <trkpt lat="43.6528" lon="3.4018">
        <ele>114</ele>
        <time>2014-03-30T12:22:10Z</time>
      </trkpt>
      <trkpt lat="43.65276" lon="3.40171">
        <ele>114</ele>
        <time>2014-03-30T12:22:14Z</time>
      </trkpt>
      <trkpt lat="43.65273" lon="3.40158">
        <ele>114</ele>
        <time>2014-03-30T12:22:19Z</time>
      </trkpt>
      <trkpt lat="43.65272" lon="3.40141">
        <ele>114</ele>
        <time>2014-03-30T12:22:25Z</time>
      </trkpt>
      <trkpt lat="43.65272" lon="3.40135">
        <ele>115</ele>
        <time>2014-03-30T12:22:27Z</time>
      </trkpt>
      <trkpt lat="43.65272" lon="3.40129">
        <ele>115</ele>
        <time>2014-03-30T12:22:29Z</time>
      </trkpt>
      <trkpt lat="43.65272" lon="3.40121">
        <ele>115</ele>
        <time>2014-03-30T12:22:32Z</time>
      </trkpt>
      <trkpt lat="43.65272" lon="3.4011">
        <ele>116</ele>
        <time>2014-03-30T12:22:36Z</time>
      </trkpt>
      <trkpt lat="43.65271" lon="3.40103">
        <ele>116</ele>
        <time>2014-03-30T12:22:39Z</time>
      </trkpt>
      <trkpt lat="43.65271" lon="3.4009">
        <ele>117</ele>
        <time>2014-03-30T12:22:44Z</time>
      </trkpt>
      <trkpt lat="43.65269" lon="3.40078">
        <ele>117</ele>
        <time>2014-03-30T12:22:49Z</time>
      </trkpt>
      <trkpt lat="43.65265" lon="3.40065">
        <ele>118</ele>
        <time>2014-03-30T12:22:55Z</time>
      </trkpt>
      <trkpt lat="43.6526" lon="3.40053">
        <ele>119</ele>
        <time>2014-03-30T12:23:01Z</time>
      </trkpt>
      <trkpt lat="43.65253" lon="3.40043">
        <ele>120</ele>
        <time>2014-03-30T12:23:07Z</time>
      </trkpt>
      <trkpt lat="43.65243" lon="3.40032">
        <ele>121</ele>
        <time>2014-03-30T12:23:15Z</time>
      </trkpt>
      <trkpt lat="43.65232" lon="3.40015">
        <ele>122</ele>
        <time>2014-03-30T12:23:25Z</time>
      </trkpt>
      <trkpt lat="43.65228" lon="3.4001">
        <ele>122</ele>
        <time>2014-03-30T12:23:28Z</time>
      </trkpt>
      <trkpt lat="43.65224" lon="3.40005">
        <ele>123</ele>
        <time>2014-03-30T12:23:31Z</time>
      </trkpt>
      <trkpt lat="43.65215" lon="3.39999">
        <ele>123</ele>
        <time>2014-03-30T12:23:36Z</time>
      </trkpt>
      <trkpt lat="43.65202" lon="3.39993">
        <ele>124</ele>
        <time>2014-03-30T12:23:44Z</time>
      </trkpt>
      <trkpt lat="43.65194" lon="3.39989">
        <ele>124</ele>
        <time>2014-03-30T12:23:49Z</time>
      </trkpt>
      <trkpt lat="43.65183" lon="3.39985">
        <ele>125</ele>
        <time>2014-03-30T12:23:56Z</time>
      </trkpt>
      <trkpt lat="43.65168" lon="3.39985">
        <ele>126</ele>
        <time>2014-03-30T12:24:06Z</time>
      </trkpt>
      <trkpt lat="43.65158" lon="3.39983">
        <ele>126</ele>
        <time>2014-03-30T12:24:12Z</time>
      </trkpt>
      <trkpt lat="43.65148" lon="3.39979">
        <ele>126</ele>
        <time>2014-03-30T12:24:19Z</time>
      </trkpt>
      <trkpt lat="43.65135" lon="3.39968">
        <ele>127</ele>
        <time>2014-03-30T12:24:30Z</time>
      </trkpt>
      <trkpt lat="43.65126" lon="3.39948">
        <ele>127</ele>
        <time>2014-03-30T12:24:36Z</time>
      </trkpt>
      <trkpt lat="43.65123" lon="3.39928">
        <ele>127</ele>
        <time>2014-03-30T12:24:43Z</time>
      </trkpt>
      <trkpt lat="43.65123" lon="3.39917">
        <ele>128</ele>
        <time>2014-03-30T12:24:47Z</time>
      </trkpt>
      <trkpt lat="43.65128" lon="3.39888">
        <ele>128</ele>
        <time>2014-03-30T12:24:58Z</time>
      </trkpt>
      <trkpt lat="43.65136" lon="3.39871">
        <ele>129</ele>
        <time>2014-03-30T12:25:05Z</time>
      </trkpt>
      <trkpt lat="43.6514" lon="3.3986">
        <ele>129</ele>
        <time>2014-03-30T12:25:09Z</time>
      </trkpt>
      <trkpt lat="43.65146" lon="3.39841">
        <ele>129</ele>
        <time>2014-03-30T12:25:15Z</time>
      </trkpt>
      <trkpt lat="43.65149" lon="3.39831">
        <ele>130</ele>
        <time>2014-03-30T12:25:18Z</time>
      </trkpt>
      <trkpt lat="43.65152" lon="3.39813">
        <ele>130</ele>
        <time>2014-03-30T12:25:23Z</time>
      </trkpt>
      <trkpt lat="43.65154" lon="3.39801">
        <ele>130</ele>
        <time>2014-03-30T12:25:26Z</time>
      </trkpt>
      <trkpt lat="43.65154" lon="3.3979">
        <ele>130</ele>
        <time>2014-03-30T12:25:29Z</time>
      </trkpt>
      <trkpt lat="43.65154" lon="3.39771">
        <ele>131</ele>
        <time>2014-03-30T12:25:34Z</time>
      </trkpt>
      <trkpt lat="43.65153" lon="3.3976">
        <ele>131</ele>
        <time>2014-03-30T12:25:37Z</time>
      </trkpt>
      <trkpt lat="43.65152" lon="3.39748">
        <ele>131</ele>
        <time>2014-03-30T12:25:40Z</time>
      </trkpt>
      <trkpt lat="43.65151" lon="3.39736">
        <ele>131</ele>
        <time>2014-03-30T12:25:43Z</time>
      </trkpt>
      <trkpt lat="43.6515" lon="3.39724">
        <ele>131</ele>
        <time>2014-03-30T12:25:46Z</time>
      </trkpt>
      <trkpt lat="43.65149" lon="3.3971">
        <ele>131</ele>
        <time>2014-03-30T12:25:49Z</time>
      </trkpt>
      <trkpt lat="43.65148" lon="3.39702">
        <ele>131</ele>
        <time>2014-03-30T12:25:51Z</time>
      </trkpt>
      <trkpt lat="43.65147" lon="3.39688">
        <ele>131</ele>
        <time>2014-03-30T12:25:54Z</time>
      </trkpt>
      <trkpt lat="43.65147" lon="3.39675">
        <ele>131</ele>
        <time>2014-03-30T12:25:57Z</time>
      </trkpt>
      <trkpt lat="43.65146" lon="3.39662">
        <ele>131</ele>
        <time>2014-03-30T12:26:00Z</time>
      </trkpt>
      <trkpt lat="43.65144" lon="3.39649">
        <ele>131</ele>
        <time>2014-03-30T12:26:03Z</time>
      </trkpt>
      <trkpt lat="43.65143" lon="3.39636">
        <ele>131</ele>
        <time>2014-03-30T12:26:06Z</time>
      </trkpt>
      <trkpt lat="43.65141" lon="3.39623">
        <ele>131</ele>
        <time>2014-03-30T12:26:09Z</time>
      </trkpt>
      <trkpt lat="43.6514" lon="3.39611">
        <ele>131</ele>
        <time>2014-03-30T12:26:12Z</time>
      </trkpt>
      <trkpt lat="43.65139" lon="3.39598">
        <ele>131</ele>
        <time>2014-03-30T12:26:15Z</time>
      </trkpt>
      <trkpt lat="43.65139" lon="3.3959">
        <ele>132</ele>
        <time>2014-03-30T12:26:17Z</time>
      </trkpt>
      <trkpt lat="43.65139" lon="3.39578">
        <ele>132</ele>
        <time>2014-03-30T12:26:20Z</time>
      </trkpt>
      <trkpt lat="43.6514" lon="3.39567">
        <ele>132</ele>
        <time>2014-03-30T12:26:23Z</time>
      </trkpt>
      <trkpt lat="43.65143" lon="3.39547">
        <ele>132</ele>
        <time>2014-03-30T12:26:28Z</time>
      </trkpt>
      <trkpt lat="43.65145" lon="3.3954">
        <ele>133</ele>
        <time>2014-03-30T12:26:30Z</time>
      </trkpt>
      <trkpt lat="43.65147" lon="3.39529">
        <ele>133</ele>
        <time>2014-03-30T12:26:33Z</time>
      </trkpt>
      <trkpt lat="43.6515" lon="3.39517">
        <ele>133</ele>
        <time>2014-03-30T12:26:36Z</time>
      </trkpt>
      <trkpt lat="43.65154" lon="3.39498">
        <ele>133</ele>
        <time>2014-03-30T12:26:41Z</time>
      </trkpt>
      <trkpt lat="43.65156" lon="3.39487">
        <ele>133</ele>
        <time>2014-03-30T12:26:44Z</time>
      </trkpt>
      <trkpt lat="43.65157" lon="3.39476">
        <ele>133</ele>
        <time>2014-03-30T12:26:47Z</time>
      </trkpt>
      <trkpt lat="43.65158" lon="3.39469">
        <ele>134</ele>
        <time>2014-03-30T12:26:49Z</time>
      </trkpt>
      <trkpt lat="43.65159" lon="3.39461">
        <ele>134</ele>
        <time>2014-03-30T12:26:51Z</time>
      </trkpt>
      <trkpt lat="43.65159" lon="3.3945">
        <ele>134</ele>
        <time>2014-03-30T12:26:54Z</time>
      </trkpt>
      <trkpt lat="43.65159" lon="3.39438">
        <ele>134</ele>
        <time>2014-03-30T12:26:57Z</time>
      </trkpt>
      <trkpt lat="43.65159" lon="3.39426">
        <ele>134</ele>
        <time>2014-03-30T12:27:00Z</time>
      </trkpt>
      <trkpt lat="43.65158" lon="3.39414">
        <ele>134</ele>
        <time>2014-03-30T12:27:03Z</time>
      </trkpt>
      <trkpt lat="43.65155" lon="3.39394">
        <ele>134</ele>
        <time>2014-03-30T12:27:08Z</time>
      </trkpt>
      <trkpt lat="43.65154" lon="3.39382">
        <ele>135</ele>
        <time>2014-03-30T12:27:11Z</time>
      </trkpt>
      <trkpt lat="43.65152" lon="3.39371">
        <ele>135</ele>
        <time>2014-03-30T12:27:14Z</time>
      </trkpt>
      <trkpt lat="43.6515" lon="3.39359">
        <ele>135</ele>
        <time>2014-03-30T12:27:17Z</time>
      </trkpt>
      <trkpt lat="43.65149" lon="3.39347">
        <ele>135</ele>
        <time>2014-03-30T12:27:20Z</time>
      </trkpt>
      <trkpt lat="43.65147" lon="3.39328">
        <ele>135</ele>
        <time>2014-03-30T12:27:25Z</time>
      </trkpt>
      <trkpt lat="43.65145" lon="3.39311">
        <ele>136</ele>
        <time>2014-03-30T12:27:31Z</time>
      </trkpt>
      <trkpt lat="43.65144" lon="3.39304">
        <ele>136</ele>
        <time>2014-03-30T12:27:33Z</time>
      </trkpt>
      <trkpt lat="43.65142" lon="3.39286">
        <ele>136</ele>
        <time>2014-03-30T12:27:38Z</time>
      </trkpt>
      <trkpt lat="43.65141" lon="3.39278">
        <ele>137</ele>
        <time>2014-03-30T12:27:40Z</time>
      </trkpt>
      <trkpt lat="43.65139" lon="3.39266">
        <ele>137</ele>
        <time>2014-03-30T12:27:43Z</time>
      </trkpt>
      <trkpt lat="43.65139" lon="3.39258">
        <ele>137</ele>
        <time>2014-03-30T12:27:45Z</time>
      </trkpt>
      <trkpt lat="43.65138" lon="3.3925">
        <ele>137</ele>
        <time>2014-03-30T12:27:47Z</time>
      </trkpt>
      <trkpt lat="43.65135" lon="3.39238">
        <ele>137</ele>
        <time>2014-03-30T12:27:50Z</time>
      </trkpt>
      <trkpt lat="43.65132" lon="3.39226">
        <ele>138</ele>
        <time>2014-03-30T12:27:53Z</time>
      </trkpt>
      <trkpt lat="43.65129" lon="3.39219">
        <ele>138</ele>
        <time>2014-03-30T12:27:55Z</time>
      </trkpt>
      <trkpt lat="43.65127" lon="3.39211">
        <ele>138</ele>
        <time>2014-03-30T12:27:57Z</time>
      </trkpt>
      <trkpt lat="43.65124" lon="3.39203">
        <ele>138</ele>
        <time>2014-03-30T12:27:59Z</time>
      </trkpt>
      <trkpt lat="43.6512" lon="3.39192">
        <ele>139</ele>
        <time>2014-03-30T12:28:02Z</time>
      </trkpt>
      <trkpt lat="43.65116" lon="3.3918">
        <ele>139</ele>
        <time>2014-03-30T12:28:05Z</time>
      </trkpt>
      <trkpt lat="43.65112" lon="3.39169">
        <ele>139</ele>
        <time>2014-03-30T12:28:08Z</time>
      </trkpt>
      <trkpt lat="43.65108" lon="3.39159">
        <ele>140</ele>
        <time>2014-03-30T12:28:11Z</time>
      </trkpt>
      <trkpt lat="43.65105" lon="3.39149">
        <ele>140</ele>
        <time>2014-03-30T12:28:14Z</time>
      </trkpt>
      <trkpt lat="43.65099" lon="3.39138">
        <ele>140</ele>
        <time>2014-03-30T12:28:18Z</time>
      </trkpt>
      <trkpt lat="43.65093" lon="3.39131">
        <ele>141</ele>
        <time>2014-03-30T12:28:32Z</time>
      </trkpt>
      <trkpt lat="43.65078" lon="3.39114">
        <ele>141</ele>
        <time>2014-03-30T12:28:35Z</time>
      </trkpt>
      <trkpt lat="43.6507" lon="3.39107">
        <ele>141</ele>
        <time>2014-03-30T12:28:37Z</time>
      </trkpt>
      <trkpt lat="43.6506" lon="3.39099">
        <ele>141</ele>
        <time>2014-03-30T12:28:39Z</time>
      </trkpt>
      <trkpt lat="43.65048" lon="3.3909">
        <ele>140</ele>
        <time>2014-03-30T12:28:41Z</time>
      </trkpt>
      <trkpt lat="43.65036" lon="3.39081">
        <ele>140</ele>
        <time>2014-03-30T12:28:43Z</time>
      </trkpt>
      <trkpt lat="43.65025" lon="3.39075">
        <ele>140</ele>
        <time>2014-03-30T12:28:45Z</time>
      </trkpt>
      <trkpt lat="43.65017" lon="3.3907">
        <ele>140</ele>
        <time>2014-03-30T12:28:47Z</time>
      </trkpt>
      <trkpt lat="43.65008" lon="3.39055">
        <ele>139</ele>
        <time>2014-03-30T12:29:26Z</time>
      </trkpt>
      <trkpt lat="43.65003" lon="3.39059">
        <ele>139</ele>
        <time>2014-03-30T12:29:29Z</time>
      </trkpt>
      <trkpt lat="43.64997" lon="3.39059">
        <ele>139</ele>
        <time>2014-03-30T12:29:31Z</time>
      </trkpt>
      <trkpt lat="43.64986" lon="3.39059">
        <ele>139</ele>
        <time>2014-03-30T12:29:34Z</time>
      </trkpt>
      <trkpt lat="43.64977" lon="3.39058">
        <ele>138</ele>
        <time>2014-03-30T12:29:36Z</time>
      </trkpt>
      <trkpt lat="43.64968" lon="3.39059">
        <ele>138</ele>
        <time>2014-03-30T12:29:38Z</time>
      </trkpt>
      <trkpt lat="43.64963" lon="3.39059">
        <ele>138</ele>
        <time>2014-03-30T12:29:39Z</time>
      </trkpt>
      <trkpt lat="43.64958" lon="3.3906">
        <ele>138</ele>
        <time>2014-03-30T12:29:40Z</time>
      </trkpt>
      <trkpt lat="43.64943" lon="3.39064">
        <ele>138</ele>
        <time>2014-03-30T12:29:43Z</time>
      </trkpt>
      <trkpt lat="43.64938" lon="3.39066">
        <ele>138</ele>
        <time>2014-03-30T12:29:44Z</time>
      </trkpt>
      <trkpt lat="43.64924" lon="3.39065">
        <ele>136</ele>
        <time>2014-03-30T12:31:09Z</time>
      </trkpt>
      <trkpt lat="43.64917" lon="3.3907">
        <ele>136</ele>
        <time>2014-03-30T12:31:30Z</time>
      </trkpt>
      <trkpt lat="43.64907" lon="3.39075">
        <ele>136</ele>
        <time>2014-03-30T12:31:33Z</time>
      </trkpt>
      <trkpt lat="43.64897" lon="3.39078">
        <ele>136</ele>
        <time>2014-03-30T12:31:36Z</time>
      </trkpt>
      <trkpt lat="43.64889" lon="3.39081">
        <ele>135</ele>
        <time>2014-03-30T12:31:38Z</time>
      </trkpt>
      <trkpt lat="43.6488" lon="3.39086">
        <ele>135</ele>
        <time>2014-03-30T12:31:40Z</time>
      </trkpt>
      <trkpt lat="43.64871" lon="3.39092">
        <ele>135</ele>
        <time>2014-03-30T12:31:42Z</time>
      </trkpt>
      <trkpt lat="43.64862" lon="3.391">
        <ele>135</ele>
        <time>2014-03-30T12:31:44Z</time>
      </trkpt>
      <trkpt lat="43.64851" lon="3.39109">
        <ele>135</ele>
        <time>2014-03-30T12:31:46Z</time>
      </trkpt>
      <trkpt lat="43.64841" lon="3.39118">
        <ele>135</ele>
        <time>2014-03-30T12:31:48Z</time>
      </trkpt>
      <trkpt lat="43.64831" lon="3.39128">
        <ele>135</ele>
        <time>2014-03-30T12:31:50Z</time>
      </trkpt>
      <trkpt lat="43.64821" lon="3.39139">
        <ele>135</ele>
        <time>2014-03-30T12:31:52Z</time>
      </trkpt>
      <trkpt lat="43.64811" lon="3.3915">
        <ele>135</ele>
        <time>2014-03-30T12:31:54Z</time>
      </trkpt>
      <trkpt lat="43.64806" lon="3.39155">
        <ele>135</ele>
        <time>2014-03-30T12:31:55Z</time>
      </trkpt>
      <trkpt lat="43.64801" lon="3.39161">
        <ele>135</ele>
        <time>2014-03-30T12:31:56Z</time>
      </trkpt>
      <trkpt lat="43.6479" lon="3.39172">
        <ele>134</ele>
        <time>2014-03-30T12:31:58Z</time>
      </trkpt>
      <trkpt lat="43.6478" lon="3.39184">
        <ele>134</ele>
        <time>2014-03-30T12:32:00Z</time>
      </trkpt>
      <trkpt lat="43.64769" lon="3.39196">
        <ele>134</ele>
        <time>2014-03-30T12:32:02Z</time>
      </trkpt>
      <trkpt lat="43.64764" lon="3.39202">
        <ele>134</ele>
        <time>2014-03-30T12:32:03Z</time>
      </trkpt>
      <trkpt lat="43.64759" lon="3.39209">
        <ele>134</ele>
        <time>2014-03-30T12:32:04Z</time>
      </trkpt>
      <trkpt lat="43.64748" lon="3.39223">
        <ele>134</ele>
        <time>2014-03-30T12:32:06Z</time>
      </trkpt>
      <trkpt lat="43.64739" lon="3.39237">
        <ele>134</ele>
        <time>2014-03-30T12:32:08Z</time>
      </trkpt>
      <trkpt lat="43.6473" lon="3.39251">
        <ele>134</ele>
        <time>2014-03-30T12:32:10Z</time>
      </trkpt>
      <trkpt lat="43.64721" lon="3.39264">
        <ele>134</ele>
        <time>2014-03-30T12:32:12Z</time>
      </trkpt>
      <trkpt lat="43.64712" lon="3.39278">
        <ele>134</ele>
        <time>2014-03-30T12:32:14Z</time>
      </trkpt>
      <trkpt lat="43.64708" lon="3.39284">
        <ele>134</ele>
        <time>2014-03-30T12:32:15Z</time>
      </trkpt>
      <trkpt lat="43.64703" lon="3.39291">
        <ele>133</ele>
        <time>2014-03-30T12:32:16Z</time>
      </trkpt>
      <trkpt lat="43.64699" lon="3.39298">
        <ele>133</ele>
        <time>2014-03-30T12:32:17Z</time>
      </trkpt>
      <trkpt lat="43.64695" lon="3.39304">
        <ele>133</ele>
        <time>2014-03-30T12:32:18Z</time>
      </trkpt>
      <trkpt lat="43.64686" lon="3.39317">
        <ele>133</ele>
        <time>2014-03-30T12:32:20Z</time>
      </trkpt>
      <trkpt lat="43.64682" lon="3.39324">
        <ele>133</ele>
        <time>2014-03-30T12:32:21Z</time>
      </trkpt>
      <trkpt lat="43.64678" lon="3.39331">
        <ele>133</ele>
        <time>2014-03-30T12:32:22Z</time>
      </trkpt>
      <trkpt lat="43.6467" lon="3.39344">
        <ele>132</ele>
        <time>2014-03-30T12:32:24Z</time>
      </trkpt>
      <trkpt lat="43.64661" lon="3.39358">
        <ele>132</ele>
        <time>2014-03-30T12:32:26Z</time>
      </trkpt>
      <trkpt lat="43.64649" lon="3.39377">
        <ele>132</ele>
        <time>2014-03-30T12:32:29Z</time>
      </trkpt>
      <trkpt lat="43.64641" lon="3.39389">
        <ele>132</ele>
        <time>2014-03-30T12:32:31Z</time>
      </trkpt>
      <trkpt lat="43.64633" lon="3.39402">
        <ele>132</ele>
        <time>2014-03-30T12:32:33Z</time>
      </trkpt>
      <trkpt lat="43.64629" lon="3.39408">
        <ele>132</ele>
        <time>2014-03-30T12:32:34Z</time>
      </trkpt>
      <trkpt lat="43.64621" lon="3.3942">
        <ele>132</ele>
        <time>2014-03-30T12:32:36Z</time>
      </trkpt>
      <trkpt lat="43.64614" lon="3.39431">
        <ele>132</ele>
        <time>2014-03-30T12:32:38Z</time>
      </trkpt>
      <trkpt lat="43.64608" lon="3.39441">
        <ele>132</ele>
        <time>2014-03-30T12:32:40Z</time>
      </trkpt>
      <trkpt lat="43.64602" lon="3.39449">
        <ele>131</ele>
        <time>2014-03-30T12:32:42Z</time>
      </trkpt>
      <trkpt lat="43.64596" lon="3.3946">
        <ele>131</ele>
        <time>2014-03-30T12:32:45Z</time>
      </trkpt>
      <trkpt lat="43.6459" lon="3.39467">
        <ele>131</ele>
        <time>2014-03-30T12:32:47Z</time>
      </trkpt>
      <trkpt lat="43.64583" lon="3.39478">
        <ele>131</ele>
        <time>2014-03-30T12:32:50Z</time>
      </trkpt>
      <trkpt lat="43.64575" lon="3.39489">
        <ele>131</ele>
        <time>2014-03-30T12:32:53Z</time>
      </trkpt>
      <trkpt lat="43.64568" lon="3.39501">
        <ele>131</ele>
        <time>2014-03-30T12:32:56Z</time>
      </trkpt>
      <trkpt lat="43.64561" lon="3.39512">
        <ele>130</ele>
        <time>2014-03-30T12:32:59Z</time>
      </trkpt>
      <trkpt lat="43.64551" lon="3.39527">
        <ele>130</ele>
        <time>2014-03-30T12:33:03Z</time>
      </trkpt>
      <trkpt lat="43.64544" lon="3.39537">
        <ele>130</ele>
        <time>2014-03-30T12:33:06Z</time>
      </trkpt>
      <trkpt lat="43.64538" lon="3.39545">
        <ele>130</ele>
        <time>2014-03-30T12:33:09Z</time>
      </trkpt>
      <trkpt lat="43.64532" lon="3.39552">
        <ele>130</ele>
        <time>2014-03-30T12:33:12Z</time>
      </trkpt>
      <trkpt lat="43.64519" lon="3.39564">
        <ele>130</ele>
        <time>2014-03-30T12:33:18Z</time>
      </trkpt>
      <trkpt lat="43.64515" lon="3.39568">
        <ele>129</ele>
        <time>2014-03-30T12:33:20Z</time>
      </trkpt>
      <trkpt lat="43.64511" lon="3.39571">
        <ele>129</ele>
        <time>2014-03-30T12:33:22Z</time>
      </trkpt>
      <trkpt lat="43.64506" lon="3.39574">
        <ele>129</ele>
        <time>2014-03-30T12:33:24Z</time>
      </trkpt>
      <trkpt lat="43.64502" lon="3.39578">
        <ele>129</ele>
        <time>2014-03-30T12:33:26Z</time>
      </trkpt>
      <trkpt lat="43.64497" lon="3.3958">
        <ele>128</ele>
        <time>2014-03-30T12:33:28Z</time>
      </trkpt>
      <trkpt lat="43.64489" lon="3.39584">
        <ele>128</ele>
        <time>2014-03-30T12:33:31Z</time>
      </trkpt>
      <trkpt lat="43.64482" lon="3.39587">
        <ele>128</ele>
        <time>2014-03-30T12:33:34Z</time>
      </trkpt>
      <trkpt lat="43.64474" lon="3.39591">
        <ele>128</ele>
        <time>2014-03-30T12:33:37Z</time>
      </trkpt>
      <trkpt lat="43.64466" lon="3.39595">
        <ele>127</ele>
        <time>2014-03-30T12:33:40Z</time>
      </trkpt>
      <trkpt lat="43.64458" lon="3.39599">
        <ele>127</ele>
        <time>2014-03-30T12:33:43Z</time>
      </trkpt>
      <trkpt lat="43.6445" lon="3.39602">
        <ele>127</ele>
        <time>2014-03-30T12:33:46Z</time>
      </trkpt>
      <trkpt lat="43.64443" lon="3.39606">
        <ele>126</ele>
        <time>2014-03-30T12:33:49Z</time>
      </trkpt>
      <trkpt lat="43.64434" lon="3.39609">
        <ele>126</ele>
        <time>2014-03-30T12:33:52Z</time>
      </trkpt>
      <trkpt lat="43.64426" lon="3.39613">
        <ele>126</ele>
        <time>2014-03-30T12:33:55Z</time>
      </trkpt>
      <trkpt lat="43.64417" lon="3.39617">
        <ele>126</ele>
        <time>2014-03-30T12:33:58Z</time>
      </trkpt>
      <trkpt lat="43.64408" lon="3.39622">
        <ele>125</ele>
        <time>2014-03-30T12:34:01Z</time>
      </trkpt>
      <trkpt lat="43.64397" lon="3.39627">
        <ele>125</ele>
        <time>2014-03-30T12:34:05Z</time>
      </trkpt>
      <trkpt lat="43.64389" lon="3.39631">
        <ele>125</ele>
        <time>2014-03-30T12:34:08Z</time>
      </trkpt>
      <trkpt lat="43.64382" lon="3.39635">
        <ele>125</ele>
        <time>2014-03-30T12:34:11Z</time>
      </trkpt>
      <trkpt lat="43.64373" lon="3.3964">
        <ele>125</ele>
        <time>2014-03-30T12:34:15Z</time>
      </trkpt>
      <trkpt lat="43.64363" lon="3.39643">
        <ele>124</ele>
        <time>2014-03-30T12:34:20Z</time>
      </trkpt>
      <trkpt lat="43.64356" lon="3.39647">
        <ele>124</ele>
        <time>2014-03-30T12:34:24Z</time>
      </trkpt>
      <trkpt lat="43.64348" lon="3.3965">
        <ele>123</ele>
        <time>2014-03-30T12:34:28Z</time>
      </trkpt>
      <trkpt lat="43.64335" lon="3.39656">
        <ele>123</ele>
        <time>2014-03-30T12:34:35Z</time>
      </trkpt>
      <trkpt lat="43.64322" lon="3.39664">
        <ele>123</ele>
        <time>2014-03-30T12:34:42Z</time>
      </trkpt>
      <trkpt lat="43.64309" lon="3.39671">
        <ele>123</ele>
        <time>2014-03-30T12:34:49Z</time>
      </trkpt>
      <trkpt lat="43.64302" lon="3.39674">
        <ele>123</ele>
        <time>2014-03-30T12:34:53Z</time>
      </trkpt>
      <trkpt lat="43.64294" lon="3.39678">
        <ele>123</ele>
        <time>2014-03-30T12:34:57Z</time>
      </trkpt>
      <trkpt lat="43.64281" lon="3.39687">
        <ele>123</ele>
        <time>2014-03-30T12:35:06Z</time>
      </trkpt>
      <trkpt lat="43.64266" lon="3.39694">
        <ele>124</ele>
        <time>2014-03-30T12:35:17Z</time>
      </trkpt>
      <trkpt lat="43.64254" lon="3.39699">
        <ele>124</ele>
        <time>2014-03-30T12:35:25Z</time>
      </trkpt>
      <trkpt lat="43.64245" lon="3.39702">
        <ele>125</ele>
        <time>2014-03-30T12:35:31Z</time>
      </trkpt>
      <trkpt lat="43.64237" lon="3.39706">
        <ele>125</ele>
        <time>2014-03-30T12:35:37Z</time>
      </trkpt>
      <trkpt lat="43.64228" lon="3.39711">
        <ele>125</ele>
        <time>2014-03-30T12:35:43Z</time>
      </trkpt>
      <trkpt lat="43.64219" lon="3.39715">
        <ele>125</ele>
        <time>2014-03-30T12:35:49Z</time>
      </trkpt>
      <trkpt lat="43.64211" lon="3.39719">
        <ele>126</ele>
        <time>2014-03-30T12:35:54Z</time>
      </trkpt>
      <trkpt lat="43.64195" lon="3.39715">
        <ele>126</ele>
        <time>2014-03-30T12:36:09Z</time>
      </trkpt>
      <trkpt lat="43.64187" lon="3.39697">
        <ele>127</ele>
        <time>2014-03-30T12:36:23Z</time>
      </trkpt>
      <trkpt lat="43.64185" lon="3.39675">
        <ele>127</ele>
        <time>2014-03-30T12:36:37Z</time>
      </trkpt>
      <trkpt lat="43.64189" lon="3.39664">
        <ele>127</ele>
        <time>2014-03-30T12:36:40Z</time>
      </trkpt>
      <trkpt lat="43.64194" lon="3.3965">
        <ele>128</ele>
        <time>2014-03-30T12:36:43Z</time>
      </trkpt>
      <trkpt lat="43.64199" lon="3.3964">
        <ele>128</ele>
        <time>2014-03-30T12:36:45Z</time>
      </trkpt>
      <trkpt lat="43.64204" lon="3.39629">
        <ele>128</ele>
        <time>2014-03-30T12:36:47Z</time>
      </trkpt>
      <trkpt lat="43.6421" lon="3.39617">
        <ele>128</ele>
        <time>2014-03-30T12:36:49Z</time>
      </trkpt>
      <trkpt lat="43.64238" lon="3.39555">
        <ele>128</ele>
        <time>2014-03-30T12:36:58Z</time>
      </trkpt>
      <trkpt lat="43.64251" lon="3.39521">
        <ele>128</ele>
        <time>2014-03-30T12:37:02Z</time>
      </trkpt>
      <trkpt lat="43.64263" lon="3.39493">
        <ele>128</ele>
        <time>2014-03-30T12:37:05Z</time>
      </trkpt>
      <trkpt lat="43.64267" lon="3.39483">
        <ele>128</ele>
        <time>2014-03-30T12:37:06Z</time>
      </trkpt>
      <trkpt lat="43.64272" lon="3.39473">
        <ele>128</ele>
        <time>2014-03-30T12:37:07Z</time>
      </trkpt>
      <trkpt lat="43.64276" lon="3.39464">
        <ele>128</ele>
        <time>2014-03-30T12:37:08Z</time>
      </trkpt>
      <trkpt lat="43.6428" lon="3.39454">
        <ele>128</ele>
        <time>2014-03-30T12:37:09Z</time>
      </trkpt>
      <trkpt lat="43.64284" lon="3.39445">
        <ele>128</ele>
        <time>2014-03-30T12:37:10Z</time>
      </trkpt>
      <trkpt lat="43.64288" lon="3.39435">
        <ele>128</ele>
        <time>2014-03-30T12:37:11Z</time>
      </trkpt>
      <trkpt lat="43.64292" lon="3.39426">
        <ele>129</ele>
        <time>2014-03-30T12:37:12Z</time>
      </trkpt>
      <trkpt lat="43.64296" lon="3.39416">
        <ele>129</ele>
        <time>2014-03-30T12:37:13Z</time>
      </trkpt>
      <trkpt lat="43.643" lon="3.39407">
        <ele>129</ele>
        <time>2014-03-30T12:37:14Z</time>
      </trkpt>
      <trkpt lat="43.64304" lon="3.39397">
        <ele>129</ele>
        <time>2014-03-30T12:37:15Z</time>
      </trkpt>
      <trkpt lat="43.64308" lon="3.39387">
        <ele>129</ele>
        <time>2014-03-30T12:37:16Z</time>
      </trkpt>
      <trkpt lat="43.64312" lon="3.39378">
        <ele>129</ele>
        <time>2014-03-30T12:37:17Z</time>
      </trkpt>
      <trkpt lat="43.64316" lon="3.39368">
        <ele>129</ele>
        <time>2014-03-30T12:37:18Z</time>
      </trkpt>
      <trkpt lat="43.6432" lon="3.39358">
        <ele>129</ele>
        <time>2014-03-30T12:37:19Z</time>
      </trkpt>
      <trkpt lat="43.64324" lon="3.39348">
        <ele>129</ele>
        <time>2014-03-30T12:37:20Z</time>
      </trkpt>
      <trkpt lat="43.64328" lon="3.39338">
        <ele>130</ele>
        <time>2014-03-30T12:37:21Z</time>
      </trkpt>
      <trkpt lat="43.64332" lon="3.39328">
        <ele>130</ele>
        <time>2014-03-30T12:37:22Z</time>
      </trkpt>
      <trkpt lat="43.64336" lon="3.39318">
        <ele>130</ele>
        <time>2014-03-30T12:37:23Z</time>
      </trkpt>
      <trkpt lat="43.6434" lon="3.39308">
        <ele>130</ele>
        <time>2014-03-30T12:37:24Z</time>
      </trkpt>
      <trkpt lat="43.64345" lon="3.39298">
        <ele>130</ele>
        <time>2014-03-30T12:37:25Z</time>
      </trkpt>
      <trkpt lat="43.64349" lon="3.39287">
        <ele>130</ele>
        <time>2014-03-30T12:37:26Z</time>
      </trkpt>
      <trkpt lat="43.64353" lon="3.39277">
        <ele>130</ele>
        <time>2014-03-30T12:37:27Z</time>
      </trkpt>
      <trkpt lat="43.64357" lon="3.39267">
        <ele>130</ele>
        <time>2014-03-30T12:37:28Z</time>
      </trkpt>
      <trkpt lat="43.64361" lon="3.39257">
        <ele>130</ele>
        <time>2014-03-30T12:37:29Z</time>
      </trkpt>
      <trkpt lat="43.64365" lon="3.39247">
        <ele>130</ele>
        <time>2014-03-30T12:37:30Z</time>
      </trkpt>
      <trkpt lat="43.64369" lon="3.39237">
        <ele>130</ele>
        <time>2014-03-30T12:37:31Z</time>
      </trkpt>
      <trkpt lat="43.64373" lon="3.39227">
        <ele>130</ele>
        <time>2014-03-30T12:37:32Z</time>
      </trkpt>
      <trkpt lat="43.64377" lon="3.39217">
        <ele>130</ele>
        <time>2014-03-30T12:37:33Z</time>
      </trkpt>
      <trkpt lat="43.64381" lon="3.39207">
        <ele>130</ele>
        <time>2014-03-30T12:37:34Z</time>
      </trkpt>
      <trkpt lat="43.64385" lon="3.39197">
        <ele>130</ele>
        <time>2014-03-30T12:37:35Z</time>
      </trkpt>
      <trkpt lat="43.64389" lon="3.39187">
        <ele>130</ele>
        <time>2014-03-30T12:37:36Z</time>
      </trkpt>
      <trkpt lat="43.64393" lon="3.39177">
        <ele>130</ele>
        <time>2014-03-30T12:37:37Z</time>
      </trkpt>
      <trkpt lat="43.64398" lon="3.39167">
        <ele>130</ele>
        <time>2014-03-30T12:37:38Z</time>
      </trkpt>
      <trkpt lat="43.64402" lon="3.39157">
        <ele>130</ele>
        <time>2014-03-30T12:37:39Z</time>
      </trkpt>
      <trkpt lat="43.64406" lon="3.39147">
        <ele>130</ele>
        <time>2014-03-30T12:37:40Z</time>
      </trkpt>
      <trkpt lat="43.6441" lon="3.39137">
        <ele>130</ele>
        <time>2014-03-30T12:37:41Z</time>
      </trkpt>
      <trkpt lat="43.64414" lon="3.39126">
        <ele>130</ele>
        <time>2014-03-30T12:37:42Z</time>
      </trkpt>
      <trkpt lat="43.64418" lon="3.39116">
        <ele>130</ele>
        <time>2014-03-30T12:37:43Z</time>
      </trkpt>
      <trkpt lat="43.64422" lon="3.39107">
        <ele>130</ele>
        <time>2014-03-30T12:37:44Z</time>
      </trkpt>
      <trkpt lat="43.64426" lon="3.39097">
        <ele>130</ele>
        <time>2014-03-30T12:37:45Z</time>
      </trkpt>
      <trkpt lat="43.64429" lon="3.39087">
        <ele>130</ele>
        <time>2014-03-30T12:37:46Z</time>
      </trkpt>
      <trkpt lat="43.64433" lon="3.39078">
        <ele>130</ele>
        <time>2014-03-30T12:37:47Z</time>
      </trkpt>
      <trkpt lat="43.64442" lon="3.39061">
        <ele>130</ele>
        <time>2014-03-30T12:37:49Z</time>
      </trkpt>
      <trkpt lat="43.64452" lon="3.39047">
        <ele>130</ele>
        <time>2014-03-30T12:37:51Z</time>
      </trkpt>
      <trkpt lat="43.64461" lon="3.39031">
        <ele>130</ele>
        <time>2014-03-30T12:37:53Z</time>
      </trkpt>
      <trkpt lat="43.64463" lon="3.39011">
        <ele>130</ele>
        <time>2014-03-30T12:37:55Z</time>
      </trkpt>
      <trkpt lat="43.64467" lon="3.38992">
        <ele>130</ele>
        <time>2014-03-30T12:37:57Z</time>
      </trkpt>
      <trkpt lat="43.64475" lon="3.38975">
        <ele>130</ele>
        <time>2014-03-30T12:37:59Z</time>
      </trkpt>
      <trkpt lat="43.64482" lon="3.38957">
        <ele>130</ele>
        <time>2014-03-30T12:38:01Z</time>
      </trkpt>
      <trkpt lat="43.64489" lon="3.38939">
        <ele>130</ele>
        <time>2014-03-30T12:38:03Z</time>
      </trkpt>
      <trkpt lat="43.64493" lon="3.3893">
        <ele>130</ele>
        <time>2014-03-30T12:38:04Z</time>
      </trkpt>
      <trkpt lat="43.64497" lon="3.3892">
        <ele>130</ele>
        <time>2014-03-30T12:38:05Z</time>
      </trkpt>
      <trkpt lat="43.64501" lon="3.3891">
        <ele>129</ele>
        <time>2014-03-30T12:38:06Z</time>
      </trkpt>
      <trkpt lat="43.64505" lon="3.389">
        <ele>129</ele>
        <time>2014-03-30T12:38:07Z</time>
      </trkpt>
      <trkpt lat="43.64509" lon="3.38891">
        <ele>129</ele>
        <time>2014-03-30T12:38:08Z</time>
      </trkpt>
      <trkpt lat="43.64512" lon="3.38881">
        <ele>129</ele>
        <time>2014-03-30T12:38:09Z</time>
      </trkpt>
      <trkpt lat="43.6452" lon="3.38863">
        <ele>129</ele>
        <time>2014-03-30T12:38:11Z</time>
      </trkpt>
      <trkpt lat="43.6453" lon="3.38835">
        <ele>129</ele>
        <time>2014-03-30T12:38:14Z</time>
      </trkpt>
      <trkpt lat="43.64536" lon="3.38819">
        <ele>129</ele>
        <time>2014-03-30T12:38:16Z</time>
      </trkpt>
      <trkpt lat="43.64538" lon="3.38807">
        <ele>129</ele>
        <time>2014-03-30T12:38:18Z</time>
      </trkpt>
      <trkpt lat="43.64538" lon="3.38796">
        <ele>129</ele>
        <time>2014-03-30T12:38:20Z</time>
      </trkpt>
      <trkpt lat="43.64539" lon="3.38784">
        <ele>128</ele>
        <time>2014-03-30T12:38:22Z</time>
      </trkpt>
      <trkpt lat="43.64541" lon="3.38772">
        <ele>128</ele>
        <time>2014-03-30T12:38:24Z</time>
      </trkpt>
      <trkpt lat="43.64547" lon="3.38752">
        <ele>128</ele>
        <time>2014-03-30T12:38:28Z</time>
      </trkpt>
    </trkseg>
  </trk>
</gpx>